<?xml version='1.0' encoding='UTF-8'?><gpx version="1.1" creator="JPX - https://github.com/jenetics/jpx" xmlns="http://www.topografix.com/GPX/1/1"><trk><trkseg><trkpt lat="45.6100295" lon="9.427215"><ele>200.33333333333334</ele><time>2026-04-28T09:33:42.43Z</time></trkpt><trkpt lat="45.6099791" lon="9.4271288"><ele>200.66666666666669</ele><time>2026-04-28T09:36:06.43Z</time></trkpt><trkpt lat="45.6099618" lon="9.4270191"><ele>201.0</ele><time>2026-04-28T09:36:09.43Z</time></trkpt><trkpt lat="45.6099507" lon="9.4268971"><ele>201.33333333333331</ele><time>2026-04-28T09:36:12.429Z</time></trkpt><trkpt lat="45.6099244" lon="9.4267596"><ele>201.66666666666666</ele><time>2026-04-28T09:36:14.43Z</time></trkpt><trkpt lat="45.609865" lon="9.4266973"><ele>202.0</ele><time>2026-04-28T09:36:16.43Z</time></trkpt><trkpt lat="45.6098048" lon="9.4266512"><ele>201.99999999999997</ele><time>2026-04-28T09:36:18.43Z</time></trkpt><trkpt lat="45.6097641" lon="9.4265616"><ele>202.0</ele><time>2026-04-28T09:36:20.43Z</time></trkpt><trkpt lat="45.609767" lon="9.4264603"><ele>202.0</ele><time>2026-04-28T09:36:22.43Z</time></trkpt><trkpt lat="45.6097717" lon="9.4263704"><ele>202.0</ele><time>2026-04-28T09:36:24.43Z</time></trkpt><trkpt lat="45.6097879" lon="9.426222"><ele>201.99999999999997</ele><time>2026-04-28T09:36:26.43Z</time></trkpt><trkpt lat="45.609783" lon="9.4260958"><ele>202.0</ele><time>2026-04-28T09:36:28.43Z</time></trkpt><trkpt lat="45.609727" lon="9.4260247"><ele>201.99999999999997</ele><time>2026-04-28T09:36:31.43Z</time></trkpt><trkpt lat="45.6096278" lon="9.4260119"><ele>202.0</ele><time>2026-04-28T09:36:42.43Z</time></trkpt><trkpt lat="45.6095489" lon="9.4260193"><ele>202.0</ele><time>2026-04-28T09:36:44.43Z</time></trkpt><trkpt lat="45.6094637" lon="9.4260191"><ele>202.0</ele><time>2026-04-28T09:36:46.43Z</time></trkpt><trkpt lat="45.6093768" lon="9.4260119"><ele>201.99999999999997</ele><time>2026-04-28T09:36:48.43Z</time></trkpt><trkpt lat="45.6092898" lon="9.4260131"><ele>202.0</ele><time>2026-04-28T09:36:50.43Z</time></trkpt><trkpt lat="45.6092031" lon="9.4260114"><ele>201.39999999999998</ele><time>2026-04-28T09:36:52.43Z</time></trkpt><trkpt lat="45.6091075" lon="9.4260045"><ele>200.79999999999998</ele><time>2026-04-28T09:36:54.43Z</time></trkpt><trkpt lat="45.6090073" lon="9.4259895"><ele>200.2</ele><time>2026-04-28T09:36:56.43Z</time></trkpt><trkpt lat="45.6089098" lon="9.4259846"><ele>199.6</ele><time>2026-04-28T09:36:58.43Z</time></trkpt><trkpt lat="45.6088149" lon="9.4259889"><ele>199.0</ele><time>2026-04-28T09:37:00.43Z</time></trkpt><trkpt lat="45.6087171" lon="9.4259897"><ele>198.39999999999998</ele><time>2026-04-28T09:37:02.43Z</time></trkpt><trkpt lat="45.608626" lon="9.4259948"><ele>197.8</ele><time>2026-04-28T09:37:04.43Z</time></trkpt><trkpt lat="45.6085237" lon="9.4259916"><ele>197.2</ele><time>2026-04-28T09:37:06.43Z</time></trkpt><trkpt lat="45.6084171" lon="9.425992"><ele>196.60000000000002</ele><time>2026-04-28T09:37:08.43Z</time></trkpt><trkpt lat="45.6083316" lon="9.4259993"><ele>196.0</ele><time>2026-04-28T09:37:10.43Z</time></trkpt><trkpt lat="45.6082469" lon="9.4259946"><ele>196.0</ele><time>2026-04-28T09:37:12.43Z</time></trkpt><trkpt lat="45.6081706" lon="9.4260051"><ele>196.0</ele><time>2026-04-28T09:37:14.43Z</time></trkpt><trkpt lat="45.6080758" lon="9.4260119"><ele>196.0</ele><time>2026-04-28T09:37:16.43Z</time></trkpt><trkpt lat="45.6079655" lon="9.4260065"><ele>196.0</ele><time>2026-04-28T09:37:18.429Z</time></trkpt><trkpt lat="45.6078763" lon="9.4260106"><ele>196.0</ele><time>2026-04-28T09:37:20.43Z</time></trkpt><trkpt lat="45.6077832" lon="9.4259962"><ele>195.83333333333331</ele><time>2026-04-28T09:37:22.43Z</time></trkpt><trkpt lat="45.6076946" lon="9.4259913"><ele>195.66666666666666</ele><time>2026-04-28T09:37:24.43Z</time></trkpt><trkpt lat="45.6075998" lon="9.4260389"><ele>195.5</ele><time>2026-04-28T09:37:26.43Z</time></trkpt><trkpt lat="45.6075313" lon="9.4261323"><ele>195.33333333333331</ele><time>2026-04-28T09:37:28.43Z</time></trkpt><trkpt lat="45.6075003" lon="9.426234"><ele>195.16666666666666</ele><time>2026-04-28T09:37:30.43Z</time></trkpt><trkpt lat="45.6074935" lon="9.426342"><ele>195.0</ele><time>2026-04-28T09:37:32.43Z</time></trkpt><trkpt lat="45.6074866" lon="9.4264637"><ele>195.0</ele><time>2026-04-28T09:37:34.43Z</time></trkpt><trkpt lat="45.6074782" lon="9.4265813"><ele>195.0</ele><time>2026-04-28T09:37:36.43Z</time></trkpt><trkpt lat="45.6074713" lon="9.4267001"><ele>195.0</ele><time>2026-04-28T09:37:38.43Z</time></trkpt><trkpt lat="45.6074699" lon="9.4268191"><ele>195.0</ele><time>2026-04-28T09:37:40.43Z</time></trkpt><trkpt lat="45.6074647" lon="9.4269501"><ele>195.0</ele><time>2026-04-28T09:37:42.43Z</time></trkpt><trkpt lat="45.6074623" lon="9.4270619"><ele>195.0</ele><time>2026-04-28T09:37:44.43Z</time></trkpt><trkpt lat="45.607463" lon="9.4271718"><ele>195.0</ele><time>2026-04-28T09:37:46.43Z</time></trkpt><trkpt lat="45.6074321" lon="9.4272915"><ele>195.0</ele><time>2026-04-28T09:37:48.43Z</time></trkpt><trkpt lat="45.6073913" lon="9.4274077"><ele>195.0</ele><time>2026-04-28T09:37:50.43Z</time></trkpt><trkpt lat="45.6073719" lon="9.4275404"><ele>195.0</ele><time>2026-04-28T09:37:52.43Z</time></trkpt><trkpt lat="45.6073723" lon="9.4276849"><ele>195.0</ele><time>2026-04-28T09:37:54.43Z</time></trkpt><trkpt lat="45.607357" lon="9.4278193"><ele>195.0</ele><time>2026-04-28T09:37:56.43Z</time></trkpt><trkpt lat="45.607346" lon="9.4279453"><ele>195.0</ele><time>2026-04-28T09:37:58.43Z</time></trkpt><trkpt lat="45.607342" lon="9.4280653"><ele>195.0</ele><time>2026-04-28T09:38:00.43Z</time></trkpt><trkpt lat="45.6073272" lon="9.4281865"><ele>195.0</ele><time>2026-04-28T09:38:02.43Z</time></trkpt><trkpt lat="45.6073192" lon="9.4283223"><ele>195.0</ele><time>2026-04-28T09:38:04.43Z</time></trkpt><trkpt lat="45.6073076" lon="9.4284519"><ele>195.0</ele><time>2026-04-28T09:38:06.43Z</time></trkpt><trkpt lat="45.6073287" lon="9.4285512"><ele>195.0</ele><time>2026-04-28T09:38:07.429Z</time></trkpt><trkpt lat="45.6073274" lon="9.4286475"><ele>195.0</ele><time>2026-04-28T09:38:08.43Z</time></trkpt><trkpt lat="45.6072908" lon="9.4287627"><ele>195.0</ele><time>2026-04-28T09:38:10.43Z</time></trkpt><trkpt lat="45.6073004" lon="9.4289132"><ele>195.0</ele><time>2026-04-28T09:38:13.43Z</time></trkpt><trkpt lat="45.6073021" lon="9.4290245"><ele>195.0</ele><time>2026-04-28T09:38:15.43Z</time></trkpt><trkpt lat="45.6073041" lon="9.4291763"><ele>195.0</ele><time>2026-04-28T09:38:17.43Z</time></trkpt><trkpt lat="45.6073232" lon="9.4292783"><ele>195.0</ele><time>2026-04-28T09:38:18.43Z</time></trkpt><trkpt lat="45.607311" lon="9.4293705"><ele>195.0</ele><time>2026-04-28T09:38:19.43Z</time></trkpt><trkpt lat="45.6073337" lon="9.4294874"><ele>195.0</ele><time>2026-04-28T09:38:21.43Z</time></trkpt><trkpt lat="45.607289" lon="9.4296395"><ele>195.0</ele><time>2026-04-28T09:38:23.43Z</time></trkpt><trkpt lat="45.6072808" lon="9.4297588"><ele>195.0</ele><time>2026-04-28T09:38:25.43Z</time></trkpt><trkpt lat="45.6072442" lon="9.4299017"><ele>195.2</ele><time>2026-04-28T09:38:27.43Z</time></trkpt><trkpt lat="45.6071976" lon="9.4300488"><ele>195.4</ele><time>2026-04-28T09:38:29.43Z</time></trkpt><trkpt lat="45.6071445" lon="9.4301607"><ele>195.60000000000002</ele><time>2026-04-28T09:38:31.43Z</time></trkpt><trkpt lat="45.6071015" lon="9.4302807"><ele>195.8</ele><time>2026-04-28T09:38:33.429Z</time></trkpt><trkpt lat="45.6070862" lon="9.4304442"><ele>196.0</ele><time>2026-04-28T09:38:35.43Z</time></trkpt><trkpt lat="45.6070548" lon="9.4306138"><ele>196.16666666666666</ele><time>2026-04-28T09:38:37.43Z</time></trkpt><trkpt lat="45.607026" lon="9.4307173"><ele>196.33333333333331</ele><time>2026-04-28T09:38:38.43Z</time></trkpt><trkpt lat="45.6069931" lon="9.4308365"><ele>196.5</ele><time>2026-04-28T09:38:40.43Z</time></trkpt><trkpt lat="45.6069633" lon="9.4309461"><ele>196.66666666666669</ele><time>2026-04-28T09:38:42.43Z</time></trkpt><trkpt lat="45.6070028" lon="9.4310475"><ele>196.83333333333334</ele><time>2026-04-28T09:38:45.43Z</time></trkpt><trkpt lat="45.6070558" lon="9.4311143"><ele>197.0</ele><time>2026-04-28T09:38:47.429Z</time></trkpt><trkpt lat="45.6071264" lon="9.4311608"><ele>197.0</ele><time>2026-04-28T09:38:49.43Z</time></trkpt><trkpt lat="45.6072099" lon="9.4312114"><ele>197.0</ele><time>2026-04-28T09:38:51.43Z</time></trkpt><trkpt lat="45.6072738" lon="9.4313137"><ele>197.0</ele><time>2026-04-28T09:38:53.43Z</time></trkpt><trkpt lat="45.6072933" lon="9.4314383"><ele>197.0</ele><time>2026-04-28T09:38:55.43Z</time></trkpt><trkpt lat="45.6073024" lon="9.4315674"><ele>197.0</ele><time>2026-04-28T09:38:57.43Z</time></trkpt><trkpt lat="45.6073287" lon="9.4316823"><ele>197.0</ele><time>2026-04-28T09:38:59.43Z</time></trkpt><trkpt lat="45.6073934" lon="9.4317566"><ele>197.0</ele><time>2026-04-28T09:39:01.43Z</time></trkpt><trkpt lat="45.6074875" lon="9.4317992"><ele>197.0</ele><time>2026-04-28T09:39:03.43Z</time></trkpt><trkpt lat="45.6075817" lon="9.4318278"><ele>197.0</ele><time>2026-04-28T09:39:05.43Z</time></trkpt><trkpt lat="45.6076906" lon="9.4318874"><ele>197.0</ele><time>2026-04-28T09:39:07.43Z</time></trkpt><trkpt lat="45.6077674" lon="9.4319352"><ele>197.25</ele><time>2026-04-28T09:39:09.43Z</time></trkpt><trkpt lat="45.6078626" lon="9.4319661"><ele>197.5</ele><time>2026-04-28T09:39:11.429Z</time></trkpt><trkpt lat="45.6080574" lon="9.4319596"><ele>197.75</ele><time>2026-04-28T09:39:15.43Z</time></trkpt><trkpt lat="45.6081598" lon="9.431909"><ele>198.0</ele><time>2026-04-28T09:39:17.43Z</time></trkpt><trkpt lat="45.6082606" lon="9.4318328"><ele>198.0</ele><time>2026-04-28T09:39:19.43Z</time></trkpt><trkpt lat="45.6083242" lon="9.4318209"><ele>198.0</ele><time>2026-04-28T09:39:20.43Z</time></trkpt><trkpt lat="45.6083922" lon="9.431809"><ele>198.0</ele><time>2026-04-28T09:39:21.43Z</time></trkpt><trkpt lat="45.6084645" lon="9.4318127"><ele>198.0</ele><time>2026-04-28T09:39:22.43Z</time></trkpt><trkpt lat="45.6085306" lon="9.4318156"><ele>198.0</ele><time>2026-04-28T09:39:23.43Z</time></trkpt><trkpt lat="45.6086184" lon="9.4318152"><ele>198.0</ele><time>2026-04-28T09:39:25.43Z</time></trkpt><trkpt lat="45.6087286" lon="9.431847"><ele>197.4</ele><time>2026-04-28T09:39:27.43Z</time></trkpt><trkpt lat="45.6087942" lon="9.431863"><ele>196.8</ele><time>2026-04-28T09:39:28.43Z</time></trkpt><trkpt lat="45.608904" lon="9.4319152"><ele>196.2</ele><time>2026-04-28T09:39:30.43Z</time></trkpt><trkpt lat="45.6089987" lon="9.4319582"><ele>195.6</ele><time>2026-04-28T09:39:32.43Z</time></trkpt><trkpt lat="45.6090938" lon="9.4320038"><ele>195.0</ele><time>2026-04-28T09:39:34.43Z</time></trkpt><trkpt lat="45.6091954" lon="9.4320444"><ele>195.0</ele><time>2026-04-28T09:39:36.43Z</time></trkpt><trkpt lat="45.6092982" lon="9.4320934"><ele>195.0</ele><time>2026-04-28T09:39:38.429Z</time></trkpt><trkpt lat="45.6094051" lon="9.4321328"><ele>195.0</ele><time>2026-04-28T09:39:40.43Z</time></trkpt><trkpt lat="45.6095054" lon="9.4321854"><ele>195.0</ele><time>2026-04-28T09:39:42.43Z</time></trkpt><trkpt lat="45.6096189" lon="9.4322366"><ele>195.0</ele><time>2026-04-28T09:39:44.43Z</time></trkpt><trkpt lat="45.6097376" lon="9.4322828"><ele>195.2</ele><time>2026-04-28T09:39:46.43Z</time></trkpt><trkpt lat="45.6098219" lon="9.432303"><ele>195.4</ele><time>2026-04-28T09:39:48.429Z</time></trkpt><trkpt lat="45.609927" lon="9.4322897"><ele>195.60000000000002</ele><time>2026-04-28T09:39:50.43Z</time></trkpt><trkpt lat="45.6100084" lon="9.4322515"><ele>195.8</ele><time>2026-04-28T09:39:52.43Z</time></trkpt><trkpt lat="45.6101125" lon="9.4322319"><ele>196.0</ele><time>2026-04-28T09:39:54.43Z</time></trkpt><trkpt lat="45.6101996" lon="9.4322415"><ele>196.0</ele><time>2026-04-28T09:39:56.43Z</time></trkpt><trkpt lat="45.6102774" lon="9.4322159"><ele>196.0</ele><time>2026-04-28T09:39:58.43Z</time></trkpt><trkpt lat="45.6103519" lon="9.4321557"><ele>196.0</ele><time>2026-04-28T09:40:00.43Z</time></trkpt><trkpt lat="45.6104445" lon="9.4320683"><ele>196.0</ele><time>2026-04-28T09:40:02.43Z</time></trkpt><trkpt lat="45.6105252" lon="9.4320082"><ele>196.0</ele><time>2026-04-28T09:40:04.43Z</time></trkpt><trkpt lat="45.6106097" lon="9.4319511"><ele>196.60000000000002</ele><time>2026-04-28T09:40:06.43Z</time></trkpt><trkpt lat="45.6107143" lon="9.4319287"><ele>197.2</ele><time>2026-04-28T09:40:08.43Z</time></trkpt><trkpt lat="45.610822" lon="9.4319284"><ele>197.8</ele><time>2026-04-28T09:40:10.43Z</time></trkpt><trkpt lat="45.6109371" lon="9.4319413"><ele>198.39999999999998</ele><time>2026-04-28T09:40:12.43Z</time></trkpt><trkpt lat="45.6110427" lon="9.4319514"><ele>199.0</ele><time>2026-04-28T09:40:14.43Z</time></trkpt><trkpt lat="45.6111409" lon="9.4319474"><ele>199.6</ele><time>2026-04-28T09:40:16.43Z</time></trkpt><trkpt lat="45.6112532" lon="9.4319402"><ele>200.2</ele><time>2026-04-28T09:40:18.43Z</time></trkpt><trkpt lat="45.6114005" lon="9.431961"><ele>200.79999999999998</ele><time>2026-04-28T09:40:22.43Z</time></trkpt><trkpt lat="45.6114877" lon="9.4319999"><ele>201.39999999999998</ele><time>2026-04-28T09:40:24.43Z</time></trkpt><trkpt lat="45.6115698" lon="9.4320402"><ele>202.0</ele><time>2026-04-28T09:40:26.43Z</time></trkpt><trkpt lat="45.6116587" lon="9.4320949"><ele>202.0</ele><time>2026-04-28T09:40:28.43Z</time></trkpt><trkpt lat="45.6117341" lon="9.4321907"><ele>202.0</ele><time>2026-04-28T09:40:30.43Z</time></trkpt><trkpt lat="45.611855" lon="9.43226"><ele>202.0</ele><time>2026-04-28T09:40:32.43Z</time></trkpt><trkpt lat="45.6119751" lon="9.43227"><ele>202.0</ele><time>2026-04-28T09:40:34.43Z</time></trkpt><trkpt lat="45.6120972" lon="9.4322848"><ele>202.2</ele><time>2026-04-28T09:40:36.43Z</time></trkpt><trkpt lat="45.6122225" lon="9.4323068"><ele>202.39999999999998</ele><time>2026-04-28T09:40:38.429Z</time></trkpt><trkpt lat="45.6123346" lon="9.4323249"><ele>202.60000000000002</ele><time>2026-04-28T09:40:40.43Z</time></trkpt><trkpt lat="45.612441" lon="9.4323384"><ele>202.8</ele><time>2026-04-28T09:40:42.43Z</time></trkpt><trkpt lat="45.6125081" lon="9.4323418"><ele>203.0</ele><time>2026-04-28T09:40:43.43Z</time></trkpt><trkpt lat="45.6126211" lon="9.432375"><ele>203.0</ele><time>2026-04-28T09:40:45.43Z</time></trkpt><trkpt lat="45.6127279" lon="9.4324028"><ele>203.0</ele><time>2026-04-28T09:40:47.43Z</time></trkpt><trkpt lat="45.6128253" lon="9.4324347"><ele>203.0</ele><time>2026-04-28T09:40:49.43Z</time></trkpt><trkpt lat="45.6129315" lon="9.4324766"><ele>203.0</ele><time>2026-04-28T09:40:51.43Z</time></trkpt><trkpt lat="45.6130279" lon="9.4325204"><ele>203.0</ele><time>2026-04-28T09:40:53.43Z</time></trkpt><trkpt lat="45.6131325" lon="9.4325682"><ele>203.0</ele><time>2026-04-28T09:40:55.43Z</time></trkpt><trkpt lat="45.6132331" lon="9.4326166"><ele>203.0</ele><time>2026-04-28T09:40:57.43Z</time></trkpt><trkpt lat="45.6133384" lon="9.4326669"><ele>203.0</ele><time>2026-04-28T09:40:59.43Z</time></trkpt><trkpt lat="45.6134423" lon="9.4327252"><ele>203.0</ele><time>2026-04-28T09:41:01.43Z</time></trkpt><trkpt lat="45.6135507" lon="9.4327793"><ele>203.0</ele><time>2026-04-28T09:41:03.43Z</time></trkpt><trkpt lat="45.6136559" lon="9.4328228"><ele>203.0</ele><time>2026-04-28T09:41:05.43Z</time></trkpt><trkpt lat="45.6137673" lon="9.4328466"><ele>203.0</ele><time>2026-04-28T09:41:07.43Z</time></trkpt><trkpt lat="45.6138629" lon="9.4328396"><ele>203.0</ele><time>2026-04-28T09:41:09.43Z</time></trkpt><trkpt lat="45.6139576" lon="9.4327658"><ele>203.0</ele><time>2026-04-28T09:41:11.43Z</time></trkpt><trkpt lat="45.6140603" lon="9.4327915"><ele>203.0</ele><time>2026-04-28T09:41:13.43Z</time></trkpt><trkpt lat="45.6141634" lon="9.4328354"><ele>203.0</ele><time>2026-04-28T09:41:15.43Z</time></trkpt><trkpt lat="45.6142671" lon="9.4328982"><ele>203.0</ele><time>2026-04-28T09:41:17.43Z</time></trkpt><trkpt lat="45.6143667" lon="9.432948"><ele>203.0</ele><time>2026-04-28T09:41:19.43Z</time></trkpt><trkpt lat="45.6144491" lon="9.4329876"><ele>203.0</ele><time>2026-04-28T09:41:21.43Z</time></trkpt><trkpt lat="45.6145631" lon="9.4330468"><ele>203.0</ele><time>2026-04-28T09:41:23.43Z</time></trkpt><trkpt lat="45.614658" lon="9.4330879"><ele>203.4</ele><time>2026-04-28T09:41:25.43Z</time></trkpt><trkpt lat="45.6147593" lon="9.433122"><ele>203.8</ele><time>2026-04-28T09:41:27.43Z</time></trkpt><trkpt lat="45.614857" lon="9.4331647"><ele>204.2</ele><time>2026-04-28T09:41:29.43Z</time></trkpt><trkpt lat="45.614948" lon="9.4332079"><ele>204.6</ele><time>2026-04-28T09:41:31.43Z</time></trkpt><trkpt lat="45.6150384" lon="9.4332466"><ele>205.0</ele><time>2026-04-28T09:41:33.43Z</time></trkpt><trkpt lat="45.6151438" lon="9.4332803"><ele>205.0</ele><time>2026-04-28T09:41:35.43Z</time></trkpt><trkpt lat="45.6152451" lon="9.4333326"><ele>205.0</ele><time>2026-04-28T09:41:37.43Z</time></trkpt><trkpt lat="45.6153491" lon="9.4333818"><ele>205.0</ele><time>2026-04-28T09:41:39.43Z</time></trkpt><trkpt lat="45.6154567" lon="9.4334223"><ele>205.0</ele><time>2026-04-28T09:41:41.43Z</time></trkpt><trkpt lat="45.6155451" lon="9.4334697"><ele>205.0</ele><time>2026-04-28T09:41:43.43Z</time></trkpt><trkpt lat="45.6156265" lon="9.4334847"><ele>204.8</ele><time>2026-04-28T09:41:45.43Z</time></trkpt><trkpt lat="45.6156361" lon="9.4333467"><ele>204.6</ele><time>2026-04-28T09:41:48.43Z</time></trkpt><trkpt lat="45.6156288" lon="9.4332093"><ele>204.39999999999998</ele><time>2026-04-28T09:41:50.43Z</time></trkpt><trkpt lat="45.6156298" lon="9.433072"><ele>204.2</ele><time>2026-04-28T09:41:52.43Z</time></trkpt><trkpt lat="45.6156632" lon="9.4329745"><ele>204.0</ele><time>2026-04-28T09:41:54.43Z</time></trkpt><trkpt lat="45.6158498" lon="9.4325157"><ele>204.0</ele><time>2026-04-28T09:42:06.44Z</time></trkpt><trkpt lat="45.6158905" lon="9.4323591"><ele>204.0</ele><time>2026-04-28T09:42:08.441Z</time></trkpt><trkpt lat="45.6159205" lon="9.4322169"><ele>204.0</ele><time>2026-04-28T09:42:10.443Z</time></trkpt><trkpt lat="45.61595" lon="9.4320966"><ele>204.0</ele><time>2026-04-28T09:42:12.443Z</time></trkpt><trkpt lat="45.6160056" lon="9.4320454"><ele>204.0</ele><time>2026-04-28T09:42:14.443Z</time></trkpt><trkpt lat="45.6160725" lon="9.4320511"><ele>204.0</ele><time>2026-04-28T09:42:16.442Z</time></trkpt><trkpt lat="45.6161242" lon="9.4321097"><ele>204.0</ele><time>2026-04-28T09:42:18.442Z</time></trkpt><trkpt lat="45.6161367" lon="9.4322129"><ele>204.0</ele><time>2026-04-28T09:42:20.443Z</time></trkpt><trkpt lat="45.6161448" lon="9.4323273"><ele>204.0</ele><time>2026-04-28T09:42:22.443Z</time></trkpt><trkpt lat="45.616158" lon="9.432456"><ele>204.0</ele><time>2026-04-28T09:42:24.443Z</time></trkpt><trkpt lat="45.6161695" lon="9.4325891"><ele>204.0</ele><time>2026-04-28T09:42:26.443Z</time></trkpt><trkpt lat="45.616186" lon="9.4327206"><ele>204.0</ele><time>2026-04-28T09:42:28.443Z</time></trkpt><trkpt lat="45.6162066" lon="9.432858"><ele>204.2</ele><time>2026-04-28T09:42:30.443Z</time></trkpt><trkpt lat="45.6162272" lon="9.4329923"><ele>204.39999999999998</ele><time>2026-04-28T09:42:32.443Z</time></trkpt><trkpt lat="45.6162499" lon="9.4331374"><ele>204.6</ele><time>2026-04-28T09:42:34.443Z</time></trkpt><trkpt lat="45.6162754" lon="9.4332675"><ele>204.8</ele><time>2026-04-28T09:42:36.443Z</time></trkpt><trkpt lat="45.6163124" lon="9.433387"><ele>205.0</ele><time>2026-04-28T09:42:38.443Z</time></trkpt><trkpt lat="45.6163645" lon="9.4335449"><ele>205.0</ele><time>2026-04-28T09:42:40.443Z</time></trkpt><trkpt lat="45.6164043" lon="9.4336745"><ele>205.0</ele><time>2026-04-28T09:42:41.443Z</time></trkpt><trkpt lat="45.6164394" lon="9.4337502"><ele>205.0</ele><time>2026-04-28T09:42:42.443Z</time></trkpt><trkpt lat="45.6165164" lon="9.4338476"><ele>205.0</ele><time>2026-04-28T09:42:44.443Z</time></trkpt><trkpt lat="45.616611" lon="9.4338927"><ele>205.0</ele><time>2026-04-28T09:42:46.443Z</time></trkpt><trkpt lat="45.6167114" lon="9.4338709"><ele>205.0</ele><time>2026-04-28T09:42:48.443Z</time></trkpt><trkpt lat="45.6167914" lon="9.4337794"><ele>205.0</ele><time>2026-04-28T09:42:50.443Z</time></trkpt><trkpt lat="45.6168735" lon="9.4336779"><ele>205.0</ele><time>2026-04-28T09:42:52.443Z</time></trkpt><trkpt lat="45.6169535" lon="9.4335629"><ele>205.0</ele><time>2026-04-28T09:42:54.443Z</time></trkpt><trkpt lat="45.6170386" lon="9.4334472"><ele>205.0</ele><time>2026-04-28T09:42:56.443Z</time></trkpt><trkpt lat="45.6171169" lon="9.4333145"><ele>205.25</ele><time>2026-04-28T09:42:58.443Z</time></trkpt><trkpt lat="45.6171942" lon="9.4331812"><ele>205.5</ele><time>2026-04-28T09:43:00.443Z</time></trkpt><trkpt lat="45.61728" lon="9.4330606"><ele>205.75</ele><time>2026-04-28T09:43:02.443Z</time></trkpt><trkpt lat="45.6173614" lon="9.4329396"><ele>206.0</ele><time>2026-04-28T09:43:04.443Z</time></trkpt><trkpt lat="45.6174352" lon="9.432818"><ele>206.0</ele><time>2026-04-28T09:43:06.442Z</time></trkpt><trkpt lat="45.6175072" lon="9.4326882"><ele>206.0</ele><time>2026-04-28T09:43:08.443Z</time></trkpt><trkpt lat="45.617572" lon="9.4325563"><ele>206.0</ele><time>2026-04-28T09:43:10.443Z</time></trkpt><trkpt lat="45.6176035" lon="9.4324742"><ele>206.0</ele><time>2026-04-28T09:43:11.443Z</time></trkpt><trkpt lat="45.6176611" lon="9.4323298"><ele>206.0</ele><time>2026-04-28T09:43:13.443Z</time></trkpt><trkpt lat="45.6177174" lon="9.4321897"><ele>206.0</ele><time>2026-04-28T09:43:15.443Z</time></trkpt><trkpt lat="45.6177678" lon="9.4320546"><ele>206.0</ele><time>2026-04-28T09:43:17.442Z</time></trkpt><trkpt lat="45.6178112" lon="9.4319026"><ele>206.0</ele><time>2026-04-28T09:43:19.443Z</time></trkpt><trkpt lat="45.6178585" lon="9.4317536"><ele>206.0</ele><time>2026-04-28T09:43:21.443Z</time></trkpt><trkpt lat="45.6179113" lon="9.4316137"><ele>206.0</ele><time>2026-04-28T09:43:23.443Z</time></trkpt><trkpt lat="45.617955" lon="9.4314529"><ele>206.4</ele><time>2026-04-28T09:43:25.443Z</time></trkpt><trkpt lat="45.6180069" lon="9.4313044"><ele>206.8</ele><time>2026-04-28T09:43:27.443Z</time></trkpt><trkpt lat="45.6180397" lon="9.4312272"><ele>207.20000000000002</ele><time>2026-04-28T09:43:28.443Z</time></trkpt><trkpt lat="45.6181048" lon="9.4310791"><ele>207.60000000000002</ele><time>2026-04-28T09:43:30.443Z</time></trkpt><trkpt lat="45.6181432" lon="9.4309989"><ele>208.0</ele><time>2026-04-28T09:43:31.443Z</time></trkpt><trkpt lat="45.618217" lon="9.4308666"><ele>208.0</ele><time>2026-04-28T09:43:33.443Z</time></trkpt><trkpt lat="45.6183065" lon="9.4307539"><ele>208.0</ele><time>2026-04-28T09:43:35.443Z</time></trkpt><trkpt lat="45.6184132" lon="9.4306782"><ele>208.0</ele><time>2026-04-28T09:43:37.443Z</time></trkpt><trkpt lat="45.6185264" lon="9.4306209"><ele>208.0</ele><time>2026-04-28T09:43:39.443Z</time></trkpt><trkpt lat="45.6186373" lon="9.4305759"><ele>208.0</ele><time>2026-04-28T09:43:41.443Z</time></trkpt><trkpt lat="45.6187544" lon="9.4305146"><ele>208.0</ele><time>2026-04-28T09:43:43.443Z</time></trkpt><trkpt lat="45.6188615" lon="9.4304589"><ele>208.0</ele><time>2026-04-28T09:43:45.443Z</time></trkpt><trkpt lat="45.6189594" lon="9.430404"><ele>208.0</ele><time>2026-04-28T09:43:47.443Z</time></trkpt><trkpt lat="45.6190699" lon="9.4303549"><ele>208.0</ele><time>2026-04-28T09:43:49.443Z</time></trkpt><trkpt lat="45.6191683" lon="9.4303072"><ele>208.0</ele><time>2026-04-28T09:43:51.443Z</time></trkpt><trkpt lat="45.6192802" lon="9.4302466"><ele>208.0</ele><time>2026-04-28T09:43:53.443Z</time></trkpt><trkpt lat="45.6193714" lon="9.4301761"><ele>208.0</ele><time>2026-04-28T09:43:55.443Z</time></trkpt><trkpt lat="45.6194507" lon="9.4300963"><ele>208.0</ele><time>2026-04-28T09:43:57.443Z</time></trkpt><trkpt lat="45.619538" lon="9.4300097"><ele>208.0</ele><time>2026-04-28T09:43:59.443Z</time></trkpt><trkpt lat="45.61963" lon="9.4299179"><ele>208.0</ele><time>2026-04-28T09:44:01.443Z</time></trkpt><trkpt lat="45.6196819" lon="9.4297796"><ele>208.0</ele><time>2026-04-28T09:44:03.443Z</time></trkpt><trkpt lat="45.6197286" lon="9.4296302"><ele>208.0</ele><time>2026-04-28T09:44:05.443Z</time></trkpt><trkpt lat="45.6197634" lon="9.4294768"><ele>208.0</ele><time>2026-04-28T09:44:07.443Z</time></trkpt><trkpt lat="45.6198001" lon="9.4293129"><ele>208.0</ele><time>2026-04-28T09:44:09.443Z</time></trkpt><trkpt lat="45.6198322" lon="9.4291463"><ele>208.0</ele><time>2026-04-28T09:44:11.443Z</time></trkpt><trkpt lat="45.6198723" lon="9.4289889"><ele>208.0</ele><time>2026-04-28T09:44:13.443Z</time></trkpt><trkpt lat="45.619906" lon="9.4288385"><ele>208.0</ele><time>2026-04-28T09:44:15.443Z</time></trkpt><trkpt lat="45.6199302" lon="9.4286767"><ele>208.0</ele><time>2026-04-28T09:44:17.443Z</time></trkpt><trkpt lat="45.6199393" lon="9.4285085"><ele>208.0</ele><time>2026-04-28T09:44:19.443Z</time></trkpt><trkpt lat="45.6199144" lon="9.4283473"><ele>208.0</ele><time>2026-04-28T09:44:21.443Z</time></trkpt><trkpt lat="45.6198539" lon="9.4282077"><ele>208.0</ele><time>2026-04-28T09:44:23.443Z</time></trkpt><trkpt lat="45.6197738" lon="9.4280791"><ele>208.0</ele><time>2026-04-28T09:44:25.443Z</time></trkpt><trkpt lat="45.6196936" lon="9.4279625"><ele>208.0</ele><time>2026-04-28T09:44:27.443Z</time></trkpt><trkpt lat="45.6196522" lon="9.4278896"><ele>208.0</ele><time>2026-04-28T09:44:28.443Z</time></trkpt><trkpt lat="45.6195752" lon="9.4277634"><ele>208.0</ele><time>2026-04-28T09:44:30.443Z</time></trkpt><trkpt lat="45.6195073" lon="9.4276413"><ele>208.0</ele><time>2026-04-28T09:44:32.443Z</time></trkpt><trkpt lat="45.6194455" lon="9.4275381"><ele>208.2</ele><time>2026-04-28T09:44:34.443Z</time></trkpt><trkpt lat="45.6194145" lon="9.4274071"><ele>208.4</ele><time>2026-04-28T09:44:36.443Z</time></trkpt><trkpt lat="45.6194131" lon="9.4272509"><ele>208.6</ele><time>2026-04-28T09:44:38.443Z</time></trkpt><trkpt lat="45.6194247" lon="9.4270868"><ele>208.79999999999998</ele><time>2026-04-28T09:44:40.443Z</time></trkpt><trkpt lat="45.6194316" lon="9.4269941"><ele>209.0</ele><time>2026-04-28T09:44:41.443Z</time></trkpt><trkpt lat="45.6194326" lon="9.4268956"><ele>209.0</ele><time>2026-04-28T09:44:42.443Z</time></trkpt><trkpt lat="45.6194406" lon="9.4267257"><ele>209.0</ele><time>2026-04-28T09:44:44.443Z</time></trkpt><trkpt lat="45.6194472" lon="9.4265605"><ele>209.0</ele><time>2026-04-28T09:44:46.443Z</time></trkpt><trkpt lat="45.619453" lon="9.4263998"><ele>209.0</ele><time>2026-04-28T09:44:48.443Z</time></trkpt><trkpt lat="45.6194524" lon="9.4262323"><ele>209.0</ele><time>2026-04-28T09:44:50.443Z</time></trkpt><trkpt lat="45.6194525" lon="9.4260637"><ele>209.0</ele><time>2026-04-28T09:44:52.443Z</time></trkpt><trkpt lat="45.619449" lon="9.4259151"><ele>209.0</ele><time>2026-04-28T09:44:54.443Z</time></trkpt><trkpt lat="45.6194593" lon="9.4257844"><ele>209.0</ele><time>2026-04-28T09:44:56.443Z</time></trkpt><trkpt lat="45.6194666" lon="9.4256219"><ele>209.0</ele><time>2026-04-28T09:44:58.443Z</time></trkpt><trkpt lat="45.6194733" lon="9.4254511"><ele>209.5</ele><time>2026-04-28T09:45:00.443Z</time></trkpt><trkpt lat="45.6194888" lon="9.425287"><ele>210.0</ele><time>2026-04-28T09:45:02.443Z</time></trkpt><trkpt lat="45.6194922" lon="9.4251316"><ele>210.5</ele><time>2026-04-28T09:45:04.443Z</time></trkpt><trkpt lat="45.6195009" lon="9.4249622"><ele>211.0</ele><time>2026-04-28T09:45:06.443Z</time></trkpt><trkpt lat="45.6195019" lon="9.4247898"><ele>210.5</ele><time>2026-04-28T09:45:08.442Z</time></trkpt><trkpt lat="45.619513" lon="9.4246083"><ele>210.0</ele><time>2026-04-28T09:45:10.443Z</time></trkpt><trkpt lat="45.6195241" lon="9.4244315"><ele>209.5</ele><time>2026-04-28T09:45:12.443Z</time></trkpt><trkpt lat="45.6195328" lon="9.4242469"><ele>209.0</ele><time>2026-04-28T09:45:14.443Z</time></trkpt><trkpt lat="45.6195331" lon="9.4240787"><ele>209.0</ele><time>2026-04-28T09:45:16.443Z</time></trkpt><trkpt lat="45.6195304" lon="9.4239091"><ele>209.0</ele><time>2026-04-28T09:45:18.443Z</time></trkpt><trkpt lat="45.6195265" lon="9.423747"><ele>209.0</ele><time>2026-04-28T09:45:20.443Z</time></trkpt><trkpt lat="45.6195438" lon="9.4236361"><ele>209.0</ele><time>2026-04-28T09:45:21.443Z</time></trkpt><trkpt lat="45.6195699" lon="9.4235309"><ele>209.0</ele><time>2026-04-28T09:45:22.443Z</time></trkpt><trkpt lat="45.6196301" lon="9.4233977"><ele>209.25</ele><time>2026-04-28T09:45:24.443Z</time></trkpt><trkpt lat="45.6197448" lon="9.4233649"><ele>209.5</ele><time>2026-04-28T09:45:26.443Z</time></trkpt><trkpt lat="45.6198549" lon="9.4233423"><ele>209.75</ele><time>2026-04-28T09:45:28.443Z</time></trkpt><trkpt lat="45.6199722" lon="9.4233164"><ele>210.0</ele><time>2026-04-28T09:45:30.443Z</time></trkpt><trkpt lat="45.620093" lon="9.4232889"><ele>210.0</ele><time>2026-04-28T09:45:32.443Z</time></trkpt><trkpt lat="45.6201987" lon="9.4232518"><ele>210.0</ele><time>2026-04-28T09:45:34.443Z</time></trkpt><trkpt lat="45.6203131" lon="9.4232154"><ele>210.0</ele><time>2026-04-28T09:45:36.443Z</time></trkpt><trkpt lat="45.6204165" lon="9.4231783"><ele>210.0</ele><time>2026-04-28T09:45:38.442Z</time></trkpt><trkpt lat="45.6205195" lon="9.423124"><ele>210.0</ele><time>2026-04-28T09:45:40.443Z</time></trkpt><trkpt lat="45.6206321" lon="9.423077"><ele>210.2</ele><time>2026-04-28T09:45:42.443Z</time></trkpt><trkpt lat="45.620746" lon="9.4230261"><ele>210.4</ele><time>2026-04-28T09:45:44.443Z</time></trkpt><trkpt lat="45.6208429" lon="9.4229746"><ele>210.60000000000002</ele><time>2026-04-28T09:45:46.443Z</time></trkpt><trkpt lat="45.6209479" lon="9.4229132"><ele>210.8</ele><time>2026-04-28T09:45:48.443Z</time></trkpt><trkpt lat="45.6210514" lon="9.4228473"><ele>211.0</ele><time>2026-04-28T09:45:50.443Z</time></trkpt><trkpt lat="45.6211592" lon="9.422786"><ele>211.0</ele><time>2026-04-28T09:45:52.443Z</time></trkpt><trkpt lat="45.6212214" lon="9.4227463"><ele>211.0</ele><time>2026-04-28T09:45:53.443Z</time></trkpt><trkpt lat="45.6213277" lon="9.4226773"><ele>211.0</ele><time>2026-04-28T09:45:55.443Z</time></trkpt><trkpt lat="45.6214361" lon="9.4225715"><ele>211.0</ele><time>2026-04-28T09:45:57.443Z</time></trkpt><trkpt lat="45.6215564" lon="9.4224704"><ele>211.0</ele><time>2026-04-28T09:45:59.442Z</time></trkpt><trkpt lat="45.6216566" lon="9.4223691"><ele>211.0</ele><time>2026-04-28T09:46:01.443Z</time></trkpt><trkpt lat="45.6217558" lon="9.4222706"><ele>211.0</ele><time>2026-04-28T09:46:03.443Z</time></trkpt><trkpt lat="45.6218167" lon="9.4222179"><ele>211.0</ele><time>2026-04-28T09:46:04.443Z</time></trkpt><trkpt lat="45.6219161" lon="9.4221204"><ele>211.0</ele><time>2026-04-28T09:46:06.443Z</time></trkpt><trkpt lat="45.6219718" lon="9.4220724"><ele>210.99999999999997</ele><time>2026-04-28T09:46:07.443Z</time></trkpt><trkpt lat="45.6220261" lon="9.4220193"><ele>211.0</ele><time>2026-04-28T09:46:08.443Z</time></trkpt><trkpt lat="45.6221285" lon="9.4219153"><ele>211.0</ele><time>2026-04-28T09:46:10.443Z</time></trkpt><trkpt lat="45.6221836" lon="9.4218623"><ele>211.0</ele><time>2026-04-28T09:46:11.443Z</time></trkpt><trkpt lat="45.6222274" lon="9.4217946"><ele>210.99999999999997</ele><time>2026-04-28T09:46:12.443Z</time></trkpt><trkpt lat="45.6223156" lon="9.4216666"><ele>211.0</ele><time>2026-04-28T09:46:14.443Z</time></trkpt><trkpt lat="45.6224" lon="9.4215338"><ele>211.0</ele><time>2026-04-28T09:46:16.443Z</time></trkpt><trkpt lat="45.6224439" lon="9.421462"><ele>211.0</ele><time>2026-04-28T09:46:17.443Z</time></trkpt><trkpt lat="45.6224898" lon="9.4213927"><ele>211.0</ele><time>2026-04-28T09:46:18.443Z</time></trkpt><trkpt lat="45.6225338" lon="9.4213264"><ele>211.0</ele><time>2026-04-28T09:46:19.443Z</time></trkpt><trkpt lat="45.6225809" lon="9.4212601"><ele>211.0</ele><time>2026-04-28T09:46:20.443Z</time></trkpt><trkpt lat="45.6226255" lon="9.4211951"><ele>211.0</ele><time>2026-04-28T09:46:21.443Z</time></trkpt><trkpt lat="45.6227111" lon="9.4210746"><ele>211.0</ele><time>2026-04-28T09:46:23.443Z</time></trkpt><trkpt lat="45.6227663" lon="9.4210113"><ele>210.75</ele><time>2026-04-28T09:46:24.443Z</time></trkpt><trkpt lat="45.622858" lon="9.4208847"><ele>210.5</ele><time>2026-04-28T09:46:26.442Z</time></trkpt><trkpt lat="45.6229508" lon="9.420749"><ele>210.25</ele><time>2026-04-28T09:46:28.443Z</time></trkpt><trkpt lat="45.6229998" lon="9.4206853"><ele>210.0</ele><time>2026-04-28T09:46:29.443Z</time></trkpt><trkpt lat="45.6230864" lon="9.4205564"><ele>210.5</ele><time>2026-04-28T09:46:31.443Z</time></trkpt><trkpt lat="45.6231697" lon="9.4204244"><ele>211.0</ele><time>2026-04-28T09:46:33.443Z</time></trkpt><trkpt lat="45.6232477" lon="9.4202928"><ele>211.5</ele><time>2026-04-28T09:46:35.443Z</time></trkpt><trkpt lat="45.623295" lon="9.4202182"><ele>212.0</ele><time>2026-04-28T09:46:36.443Z</time></trkpt><trkpt lat="45.6233368" lon="9.4201497"><ele>212.5</ele><time>2026-04-28T09:46:37.443Z</time></trkpt><trkpt lat="45.6233778" lon="9.4200803"><ele>213.0</ele><time>2026-04-28T09:46:38.443Z</time></trkpt><trkpt lat="45.6234229" lon="9.4200125"><ele>213.0</ele><time>2026-04-28T09:46:39.443Z</time></trkpt><trkpt lat="45.6234735" lon="9.4199368"><ele>213.0</ele><time>2026-04-28T09:46:40.443Z</time></trkpt><trkpt lat="45.6235219" lon="9.4198712"><ele>213.0</ele><time>2026-04-28T09:46:41.443Z</time></trkpt><trkpt lat="45.6236064" lon="9.4197309"><ele>213.0</ele><time>2026-04-28T09:46:43.443Z</time></trkpt><trkpt lat="45.6236942" lon="9.4196007"><ele>213.0</ele><time>2026-04-28T09:46:45.443Z</time></trkpt><trkpt lat="45.6237781" lon="9.419471"><ele>214.0</ele><time>2026-04-28T09:46:47.443Z</time></trkpt><trkpt lat="45.6238555" lon="9.4193487"><ele>215.0</ele><time>2026-04-28T09:46:49.443Z</time></trkpt><trkpt lat="45.6239052" lon="9.4192792"><ele>216.0</ele><time>2026-04-28T09:46:50.443Z</time></trkpt><trkpt lat="45.6239828" lon="9.4191523"><ele>217.0</ele><time>2026-04-28T09:46:52.443Z</time></trkpt><trkpt lat="45.624025" lon="9.4190807"><ele>218.0</ele><time>2026-04-28T09:46:53.443Z</time></trkpt><trkpt lat="45.6240712" lon="9.4190154"><ele>219.0</ele><time>2026-04-28T09:46:54.443Z</time></trkpt><trkpt lat="45.6241189" lon="9.4189473"><ele>219.0</ele><time>2026-04-28T09:46:55.443Z</time></trkpt><trkpt lat="45.6241698" lon="9.4188812"><ele>219.0</ele><time>2026-04-28T09:46:56.443Z</time></trkpt><trkpt lat="45.62421" lon="9.4188115"><ele>219.0</ele><time>2026-04-28T09:46:57.443Z</time></trkpt><trkpt lat="45.6242596" lon="9.4187372"><ele>219.0</ele><time>2026-04-28T09:46:58.443Z</time></trkpt><trkpt lat="45.6243123" lon="9.4186715"><ele>219.0</ele><time>2026-04-28T09:46:59.443Z</time></trkpt><trkpt lat="45.6243614" lon="9.4186092"><ele>219.0</ele><time>2026-04-28T09:47:00.443Z</time></trkpt><trkpt lat="45.6244168" lon="9.4185592"><ele>219.0</ele><time>2026-04-28T09:47:01.443Z</time></trkpt><trkpt lat="45.6244633" lon="9.4184931"><ele>218.5</ele><time>2026-04-28T09:47:02.443Z</time></trkpt><trkpt lat="45.6245669" lon="9.4183658"><ele>218.0</ele><time>2026-04-28T09:47:04.443Z</time></trkpt><trkpt lat="45.6246153" lon="9.4183013"><ele>217.5</ele><time>2026-04-28T09:47:05.443Z</time></trkpt><trkpt lat="45.624655" lon="9.4182296"><ele>217.0</ele><time>2026-04-28T09:47:06.442Z</time></trkpt><trkpt lat="45.6247024" lon="9.418165"><ele>216.5</ele><time>2026-04-28T09:47:07.443Z</time></trkpt><trkpt lat="45.624781" lon="9.4180463"><ele>216.0</ele><time>2026-04-28T09:47:09.443Z</time></trkpt><trkpt lat="45.6248684" lon="9.4179602"><ele>216.0</ele><time>2026-04-28T09:47:11.442Z</time></trkpt><trkpt lat="45.6249846" lon="9.4179343"><ele>216.00000000000003</ele><time>2026-04-28T09:47:13.443Z</time></trkpt><trkpt lat="45.6250525" lon="9.4179419"><ele>216.00000000000003</ele><time>2026-04-28T09:47:14.443Z</time></trkpt><trkpt lat="45.6251243" lon="9.4179669"><ele>216.0</ele><time>2026-04-28T09:47:15.443Z</time></trkpt><trkpt lat="45.6252349" lon="9.4180295"><ele>216.0</ele><time>2026-04-28T09:47:17.442Z</time></trkpt><trkpt lat="45.6253541" lon="9.4180836"><ele>215.66666666666666</ele><time>2026-04-28T09:47:19.443Z</time></trkpt><trkpt lat="45.6254224" lon="9.4180965"><ele>215.33333333333331</ele><time>2026-04-28T09:47:20.442Z</time></trkpt><trkpt lat="45.6254865" lon="9.4181151"><ele>215.0</ele><time>2026-04-28T09:47:21.443Z</time></trkpt><trkpt lat="45.6255497" lon="9.4181327"><ele>214.66666666666666</ele><time>2026-04-28T09:47:22.443Z</time></trkpt><trkpt lat="45.6256686" lon="9.4181664"><ele>214.33333333333331</ele><time>2026-04-28T09:47:24.443Z</time></trkpt><trkpt lat="45.6257966" lon="9.4181916"><ele>214.0</ele><time>2026-04-28T09:47:26.443Z</time></trkpt><trkpt lat="45.6258601" lon="9.4182053"><ele>214.0</ele><time>2026-04-28T09:47:27.443Z</time></trkpt><trkpt lat="45.6259772" lon="9.4182382"><ele>213.99999999999997</ele><time>2026-04-28T09:47:29.443Z</time></trkpt><trkpt lat="45.6260958" lon="9.4182515"><ele>213.99999999999997</ele><time>2026-04-28T09:47:31.443Z</time></trkpt><trkpt lat="45.6261583" lon="9.4182667"><ele>214.0</ele><time>2026-04-28T09:47:32.442Z</time></trkpt><trkpt lat="45.6262724" lon="9.418275"><ele>214.0</ele><time>2026-04-28T09:47:34.442Z</time></trkpt><trkpt lat="45.6263956" lon="9.4182946"><ele>214.5</ele><time>2026-04-28T09:47:36.443Z</time></trkpt><trkpt lat="45.6265091" lon="9.4183041"><ele>215.0</ele><time>2026-04-28T09:47:38.443Z</time></trkpt><trkpt lat="45.6266258" lon="9.4183208"><ele>215.5</ele><time>2026-04-28T09:47:40.443Z</time></trkpt><trkpt lat="45.6267353" lon="9.4183396"><ele>216.0</ele><time>2026-04-28T09:47:42.443Z</time></trkpt><trkpt lat="45.626853" lon="9.4183455"><ele>216.0</ele><time>2026-04-28T09:47:44.443Z</time></trkpt><trkpt lat="45.626969" lon="9.4183572"><ele>216.00000000000003</ele><time>2026-04-28T09:47:46.443Z</time></trkpt><trkpt lat="45.6270329" lon="9.4183615"><ele>216.00000000000003</ele><time>2026-04-28T09:47:47.443Z</time></trkpt><trkpt lat="45.6271436" lon="9.4183669"><ele>216.0</ele><time>2026-04-28T09:47:49.443Z</time></trkpt><trkpt lat="45.6272598" lon="9.4183745"><ele>216.0</ele><time>2026-04-28T09:47:51.442Z</time></trkpt><trkpt lat="45.6273795" lon="9.4183868"><ele>215.75</ele><time>2026-04-28T09:47:53.442Z</time></trkpt><trkpt lat="45.6274896" lon="9.4183862"><ele>215.5</ele><time>2026-04-28T09:47:55.443Z</time></trkpt><trkpt lat="45.6276023" lon="9.4183867"><ele>215.25</ele><time>2026-04-28T09:47:57.443Z</time></trkpt><trkpt lat="45.6277162" lon="9.4183855"><ele>215.0</ele><time>2026-04-28T09:47:59.443Z</time></trkpt><trkpt lat="45.627829" lon="9.4183894"><ele>215.0</ele><time>2026-04-28T09:48:01.443Z</time></trkpt><trkpt lat="45.6279383" lon="9.418385"><ele>215.0</ele><time>2026-04-28T09:48:03.443Z</time></trkpt><trkpt lat="45.6280565" lon="9.4183985"><ele>215.0</ele><time>2026-04-28T09:48:05.443Z</time></trkpt><trkpt lat="45.6281198" lon="9.4184088"><ele>215.0</ele><time>2026-04-28T09:48:06.443Z</time></trkpt><trkpt lat="45.628236" lon="9.4184106"><ele>215.0</ele><time>2026-04-28T09:48:08.443Z</time></trkpt><trkpt lat="45.6283452" lon="9.4184288"><ele>215.0</ele><time>2026-04-28T09:48:10.443Z</time></trkpt><trkpt lat="45.6284621" lon="9.4184321"><ele>215.0</ele><time>2026-04-28T09:48:12.443Z</time></trkpt><trkpt lat="45.6285743" lon="9.4184274"><ele>215.0</ele><time>2026-04-28T09:48:14.443Z</time></trkpt><trkpt lat="45.6286873" lon="9.4184183"><ele>215.0</ele><time>2026-04-28T09:48:16.443Z</time></trkpt><trkpt lat="45.6288088" lon="9.4184279"><ele>216.0</ele><time>2026-04-28T09:48:18.442Z</time></trkpt><trkpt lat="45.6289128" lon="9.4184029"><ele>217.0</ele><time>2026-04-28T09:48:20.443Z</time></trkpt><trkpt lat="45.629025" lon="9.4183826"><ele>218.0</ele><time>2026-04-28T09:48:22.443Z</time></trkpt><trkpt lat="45.629141" lon="9.4183574"><ele>219.0</ele><time>2026-04-28T09:48:24.443Z</time></trkpt><trkpt lat="45.6292587" lon="9.4183418"><ele>219.0</ele><time>2026-04-28T09:48:26.443Z</time></trkpt><trkpt lat="45.6293794" lon="9.4183204"><ele>219.0</ele><time>2026-04-28T09:48:28.443Z</time></trkpt><trkpt lat="45.6295018" lon="9.4182988"><ele>219.0</ele><time>2026-04-28T09:48:30.443Z</time></trkpt><trkpt lat="45.629613" lon="9.4183038"><ele>219.0</ele><time>2026-04-28T09:48:32.443Z</time></trkpt><trkpt lat="45.6297278" lon="9.4183242"><ele>219.5</ele><time>2026-04-28T09:48:34.443Z</time></trkpt><trkpt lat="45.6298379" lon="9.4183258"><ele>220.0</ele><time>2026-04-28T09:48:36.443Z</time></trkpt><trkpt lat="45.6299412" lon="9.41826"><ele>220.5</ele><time>2026-04-28T09:48:38.443Z</time></trkpt><trkpt lat="45.6300519" lon="9.4181995"><ele>221.0</ele><time>2026-04-28T09:48:40.442Z</time></trkpt><trkpt lat="45.6301724" lon="9.4181703"><ele>221.0</ele><time>2026-04-28T09:48:42.443Z</time></trkpt><trkpt lat="45.630289" lon="9.4181471"><ele>221.00000000000003</ele><time>2026-04-28T09:48:44.443Z</time></trkpt><trkpt lat="45.6303529" lon="9.4181322"><ele>221.00000000000003</ele><time>2026-04-28T09:48:45.443Z</time></trkpt><trkpt lat="45.6304643" lon="9.4181022"><ele>221.0</ele><time>2026-04-28T09:48:47.443Z</time></trkpt><trkpt lat="45.6305793" lon="9.4180888"><ele>221.0</ele><time>2026-04-28T09:48:49.443Z</time></trkpt><trkpt lat="45.6306552" lon="9.4180718"><ele>221.4</ele><time>2026-04-28T09:48:50.443Z</time></trkpt><trkpt lat="45.6307477" lon="9.4180538"><ele>221.8</ele><time>2026-04-28T09:48:52.443Z</time></trkpt><trkpt lat="45.6308724" lon="9.4180313"><ele>222.20000000000002</ele><time>2026-04-28T09:48:54.443Z</time></trkpt><trkpt lat="45.6309893" lon="9.418043"><ele>222.60000000000002</ele><time>2026-04-28T09:48:56.443Z</time></trkpt><trkpt lat="45.6310942" lon="9.418084"><ele>223.0</ele><time>2026-04-28T09:48:58.443Z</time></trkpt><trkpt lat="45.6312138" lon="9.4180909"><ele>223.0</ele><time>2026-04-28T09:49:00.443Z</time></trkpt><trkpt lat="45.6312819" lon="9.4180944"><ele>223.0</ele><time>2026-04-28T09:49:01.443Z</time></trkpt><trkpt lat="45.6314093" lon="9.4181167"><ele>223.0</ele><time>2026-04-28T09:49:03.443Z</time></trkpt><trkpt lat="45.6314839" lon="9.418126"><ele>223.0</ele><time>2026-04-28T09:49:04.442Z</time></trkpt><trkpt lat="45.6315941" lon="9.4181531"><ele>223.0</ele><time>2026-04-28T09:49:06.443Z</time></trkpt><trkpt lat="45.6317024" lon="9.4181551"><ele>223.0</ele><time>2026-04-28T09:49:08.443Z</time></trkpt><trkpt lat="45.6318097" lon="9.4181661"><ele>223.0</ele><time>2026-04-28T09:49:10.443Z</time></trkpt><trkpt lat="45.6319253" lon="9.4181922"><ele>223.0</ele><time>2026-04-28T09:49:12.443Z</time></trkpt><trkpt lat="45.6320361" lon="9.4182216"><ele>223.0</ele><time>2026-04-28T09:49:14.443Z</time></trkpt><trkpt lat="45.6321463" lon="9.4182417"><ele>223.0</ele><time>2026-04-28T09:49:16.443Z</time></trkpt><trkpt lat="45.6322098" lon="9.4182547"><ele>223.2</ele><time>2026-04-28T09:49:17.443Z</time></trkpt><trkpt lat="45.6322742" lon="9.4182657"><ele>223.4</ele><time>2026-04-28T09:49:18.443Z</time></trkpt><trkpt lat="45.6323791" lon="9.4182756"><ele>223.59999999999997</ele><time>2026-04-28T09:49:20.443Z</time></trkpt><trkpt lat="45.6324928" lon="9.4182999"><ele>223.79999999999998</ele><time>2026-04-28T09:49:22.443Z</time></trkpt><trkpt lat="45.6326109" lon="9.4183433"><ele>224.0</ele><time>2026-04-28T09:49:24.443Z</time></trkpt><trkpt lat="45.632674" lon="9.4183643"><ele>224.0</ele><time>2026-04-28T09:49:25.443Z</time></trkpt><trkpt lat="45.6327797" lon="9.4183688"><ele>223.99999999999997</ele><time>2026-04-28T09:49:27.443Z</time></trkpt><trkpt lat="45.6328437" lon="9.4183891"><ele>223.99999999999997</ele><time>2026-04-28T09:49:28.443Z</time></trkpt><trkpt lat="45.6329567" lon="9.418411"><ele>224.0</ele><time>2026-04-28T09:49:30.443Z</time></trkpt><trkpt lat="45.6330637" lon="9.4184319"><ele>224.0</ele><time>2026-04-28T09:49:32.443Z</time></trkpt><trkpt lat="45.6331742" lon="9.4184235"><ele>224.0</ele><time>2026-04-28T09:49:34.443Z</time></trkpt><trkpt lat="45.6332874" lon="9.4184289"><ele>223.99999999999997</ele><time>2026-04-28T09:49:36.443Z</time></trkpt><trkpt lat="45.6333911" lon="9.4184314"><ele>223.99999999999997</ele><time>2026-04-28T09:49:38.443Z</time></trkpt><trkpt lat="45.6335331" lon="9.4184524"><ele>224.0</ele><time>2026-04-28T09:49:50.443Z</time></trkpt><trkpt lat="45.6336024" lon="9.4184783"><ele>224.0</ele><time>2026-04-28T09:49:52.443Z</time></trkpt><trkpt lat="45.633675" lon="9.41851"><ele>224.0</ele><time>2026-04-28T09:49:54.443Z</time></trkpt><trkpt lat="45.6337599" lon="9.4185336"><ele>223.99999999999997</ele><time>2026-04-28T09:49:56.443Z</time></trkpt><trkpt lat="45.6338275" lon="9.4185567"><ele>223.99999999999997</ele><time>2026-04-28T09:49:57.443Z</time></trkpt><trkpt lat="45.6339339" lon="9.4185817"><ele>224.0</ele><time>2026-04-28T09:49:59.443Z</time></trkpt><trkpt lat="45.6340292" lon="9.418619"><ele>224.0</ele><time>2026-04-28T09:50:01.442Z</time></trkpt><trkpt lat="45.6341332" lon="9.4186566"><ele>224.0</ele><time>2026-04-28T09:50:03.443Z</time></trkpt><trkpt lat="45.6342404" lon="9.4186916"><ele>224.0</ele><time>2026-04-28T09:50:05.443Z</time></trkpt><trkpt lat="45.6343471" lon="9.4187184"><ele>224.0</ele><time>2026-04-28T09:50:07.443Z</time></trkpt><trkpt lat="45.6344814" lon="9.418759"><ele>224.0</ele><time>2026-04-28T09:50:09.443Z</time></trkpt><trkpt lat="45.6345808" lon="9.4188194"><ele>225.0</ele><time>2026-04-28T09:50:11.443Z</time></trkpt><trkpt lat="45.6346731" lon="9.4188787"><ele>225.99999999999997</ele><time>2026-04-28T09:50:13.443Z</time></trkpt><trkpt lat="45.6347629" lon="9.418945"><ele>226.99999999999997</ele><time>2026-04-28T09:50:15.443Z</time></trkpt><trkpt lat="45.6348598" lon="9.4190032"><ele>228.0</ele><time>2026-04-28T09:50:17.443Z</time></trkpt><trkpt lat="45.634952" lon="9.419066"><ele>229.0</ele><time>2026-04-28T09:50:19.443Z</time></trkpt><trkpt lat="45.6350423" lon="9.4191115"><ele>229.0</ele><time>2026-04-28T09:50:21.443Z</time></trkpt><trkpt lat="45.6351799" lon="9.4192042"><ele>228.99999999999997</ele><time>2026-04-28T09:50:25.443Z</time></trkpt><trkpt lat="45.6352798" lon="9.41925"><ele>228.99999999999997</ele><time>2026-04-28T09:50:27.443Z</time></trkpt><trkpt lat="45.6353402" lon="9.4192917"><ele>229.0</ele><time>2026-04-28T09:50:28.443Z</time></trkpt><trkpt lat="45.6353968" lon="9.4193424"><ele>229.0</ele><time>2026-04-28T09:50:29.442Z</time></trkpt><trkpt lat="45.6354773" lon="9.4194343"><ele>228.66666666666666</ele><time>2026-04-28T09:50:31.443Z</time></trkpt><trkpt lat="45.6355663" lon="9.4194046"><ele>228.33333333333331</ele><time>2026-04-28T09:50:35.443Z</time></trkpt><trkpt lat="45.6355864" lon="9.4193089"><ele>228.0</ele><time>2026-04-28T09:50:37.443Z</time></trkpt><trkpt lat="45.6356187" lon="9.41922"><ele>227.66666666666669</ele><time>2026-04-28T09:50:39.443Z</time></trkpt><trkpt lat="45.6356327" lon="9.4190946"><ele>227.33333333333334</ele><time>2026-04-28T09:50:41.443Z</time></trkpt><trkpt lat="45.6356706" lon="9.4189642"><ele>227.0</ele><time>2026-04-28T09:50:43.443Z</time></trkpt><trkpt lat="45.6357219" lon="9.418863"><ele>226.66666666666669</ele><time>2026-04-28T09:50:45.443Z</time></trkpt><trkpt lat="45.6357719" lon="9.4187508"><ele>226.33333333333334</ele><time>2026-04-28T09:50:46.443Z</time></trkpt><trkpt lat="45.6358233" lon="9.4186605"><ele>226.0</ele><time>2026-04-28T09:50:47.443Z</time></trkpt><trkpt lat="45.6358791" lon="9.418538"><ele>225.66666666666669</ele><time>2026-04-28T09:50:49.443Z</time></trkpt><trkpt lat="45.6359019" lon="9.4184488"><ele>225.33333333333334</ele><time>2026-04-28T09:50:50.443Z</time></trkpt><trkpt lat="45.6359369" lon="9.4183673"><ele>225.0</ele><time>2026-04-28T09:50:51.443Z</time></trkpt><trkpt lat="45.6359983" lon="9.4182132"><ele>225.0</ele><time>2026-04-28T09:50:53.443Z</time></trkpt><trkpt lat="45.6360534" lon="9.4180758"><ele>225.0</ele><time>2026-04-28T09:50:55.443Z</time></trkpt><trkpt lat="45.6361121" lon="9.4179233"><ele>225.0</ele><time>2026-04-28T09:50:57.443Z</time></trkpt><trkpt lat="45.6361708" lon="9.4177889"><ele>225.0</ele><time>2026-04-28T09:50:59.443Z</time></trkpt><trkpt lat="45.6362371" lon="9.4176492"><ele>224.6</ele><time>2026-04-28T09:51:01.443Z</time></trkpt><trkpt lat="45.6363064" lon="9.4175483"><ele>224.2</ele><time>2026-04-28T09:51:03.443Z</time></trkpt><trkpt lat="45.6364111" lon="9.4175534"><ele>223.8</ele><time>2026-04-28T09:51:05.443Z</time></trkpt><trkpt lat="45.6365106" lon="9.4176023"><ele>223.4</ele><time>2026-04-28T09:51:07.443Z</time></trkpt><trkpt lat="45.6366096" lon="9.4176525"><ele>223.0</ele><time>2026-04-28T09:51:09.443Z</time></trkpt><trkpt lat="45.6367218" lon="9.4177076"><ele>223.0</ele><time>2026-04-28T09:51:11.443Z</time></trkpt><trkpt lat="45.6368307" lon="9.4177596"><ele>223.0</ele><time>2026-04-28T09:51:13.442Z</time></trkpt><trkpt lat="45.6369338" lon="9.4178148"><ele>223.0</ele><time>2026-04-28T09:51:15.443Z</time></trkpt><trkpt lat="45.6370366" lon="9.4178665"><ele>223.0</ele><time>2026-04-28T09:51:17.443Z</time></trkpt><trkpt lat="45.6371447" lon="9.4178992"><ele>223.0</ele><time>2026-04-28T09:51:19.443Z</time></trkpt><trkpt lat="45.637266" lon="9.4179139"><ele>223.2</ele><time>2026-04-28T09:51:21.443Z</time></trkpt><trkpt lat="45.6373648" lon="9.4179397"><ele>223.4</ele><time>2026-04-28T09:51:23.443Z</time></trkpt><trkpt lat="45.6374778" lon="9.4179682"><ele>223.59999999999997</ele><time>2026-04-28T09:51:25.442Z</time></trkpt><trkpt lat="45.6375815" lon="9.4179977"><ele>223.79999999999998</ele><time>2026-04-28T09:51:27.443Z</time></trkpt><trkpt lat="45.637691" lon="9.4180374"><ele>224.0</ele><time>2026-04-28T09:51:29.443Z</time></trkpt><trkpt lat="45.6378012" lon="9.4180796"><ele>223.75</ele><time>2026-04-28T09:51:31.443Z</time></trkpt><trkpt lat="45.6379126" lon="9.4181139"><ele>223.5</ele><time>2026-04-28T09:51:33.443Z</time></trkpt><trkpt lat="45.6380245" lon="9.418147"><ele>223.25</ele><time>2026-04-28T09:51:35.443Z</time></trkpt><trkpt lat="45.6381315" lon="9.4181761"><ele>223.0</ele><time>2026-04-28T09:51:37.443Z</time></trkpt><trkpt lat="45.6382468" lon="9.4181819"><ele>223.0</ele><time>2026-04-28T09:51:39.443Z</time></trkpt><trkpt lat="45.6383556" lon="9.4182021"><ele>223.0</ele><time>2026-04-28T09:51:41.443Z</time></trkpt><trkpt lat="45.6384495" lon="9.4181652"><ele>223.0</ele><time>2026-04-28T09:51:43.443Z</time></trkpt><trkpt lat="45.638519" lon="9.418053"><ele>223.0</ele><time>2026-04-28T09:51:45.443Z</time></trkpt><trkpt lat="45.6386115" lon="9.417982"><ele>223.0</ele><time>2026-04-28T09:51:47.443Z</time></trkpt><trkpt lat="45.6387231" lon="9.4179802"><ele>223.8</ele><time>2026-04-28T09:51:49.443Z</time></trkpt><trkpt lat="45.6388328" lon="9.4180067"><ele>224.60000000000002</ele><time>2026-04-28T09:51:51.443Z</time></trkpt><trkpt lat="45.6389404" lon="9.4180311"><ele>225.39999999999998</ele><time>2026-04-28T09:51:53.443Z</time></trkpt><trkpt lat="45.639046" lon="9.4180625"><ele>226.2</ele><time>2026-04-28T09:51:55.443Z</time></trkpt><trkpt lat="45.6391598" lon="9.4180769"><ele>227.0</ele><time>2026-04-28T09:51:57.443Z</time></trkpt><trkpt lat="45.6392686" lon="9.4180978"><ele>227.0</ele><time>2026-04-28T09:51:59.443Z</time></trkpt><trkpt lat="45.63938" lon="9.4181262"><ele>227.0</ele><time>2026-04-28T09:52:01.443Z</time></trkpt><trkpt lat="45.6394888" lon="9.4181463"><ele>227.0</ele><time>2026-04-28T09:52:03.443Z</time></trkpt><trkpt lat="45.6396035" lon="9.4181702"><ele>227.0</ele><time>2026-04-28T09:52:05.443Z</time></trkpt><trkpt lat="45.6397152" lon="9.4181974"><ele>227.39999999999998</ele><time>2026-04-28T09:52:07.443Z</time></trkpt><trkpt lat="45.6398241" lon="9.4182338"><ele>227.79999999999998</ele><time>2026-04-28T09:52:09.442Z</time></trkpt><trkpt lat="45.6398895" lon="9.4182359"><ele>228.2</ele><time>2026-04-28T09:52:10.443Z</time></trkpt><trkpt lat="45.6399967" lon="9.4182523"><ele>228.6</ele><time>2026-04-28T09:52:12.443Z</time></trkpt><trkpt lat="45.6400989" lon="9.418249"><ele>229.0</ele><time>2026-04-28T09:52:14.443Z</time></trkpt><trkpt lat="45.6402063" lon="9.4182417"><ele>229.0</ele><time>2026-04-28T09:52:16.443Z</time></trkpt><trkpt lat="45.6403073" lon="9.4182154"><ele>228.99999999999997</ele><time>2026-04-28T09:52:18.443Z</time></trkpt><trkpt lat="45.6404082" lon="9.4181679"><ele>228.99999999999997</ele><time>2026-04-28T09:52:20.443Z</time></trkpt><trkpt lat="45.6405162" lon="9.4180959"><ele>229.0</ele><time>2026-04-28T09:52:22.443Z</time></trkpt><trkpt lat="45.6405763" lon="9.4180553"><ele>229.0</ele><time>2026-04-28T09:52:23.443Z</time></trkpt><trkpt lat="45.6406577" lon="9.4179433"><ele>229.0</ele><time>2026-04-28T09:52:25.443Z</time></trkpt><trkpt lat="45.6407183" lon="9.4178041"><ele>228.99999999999997</ele><time>2026-04-28T09:52:27.442Z</time></trkpt><trkpt lat="45.6407755" lon="9.4176624"><ele>228.99999999999997</ele><time>2026-04-28T09:52:29.443Z</time></trkpt><trkpt lat="45.6408224" lon="9.4174996"><ele>229.0</ele><time>2026-04-28T09:52:31.443Z</time></trkpt><trkpt lat="45.6408558" lon="9.4174143"><ele>229.0</ele><time>2026-04-28T09:52:32.442Z</time></trkpt><trkpt lat="45.6408976" lon="9.4173364"><ele>229.0</ele><time>2026-04-28T09:52:33.443Z</time></trkpt><trkpt lat="45.6409418" lon="9.4172354"><ele>228.99999999999997</ele><time>2026-04-28T09:52:34.443Z</time></trkpt><trkpt lat="45.6409918" lon="9.4170709"><ele>228.99999999999997</ele><time>2026-04-28T09:52:36.443Z</time></trkpt><trkpt lat="45.6410409" lon="9.4169057"><ele>229.0</ele><time>2026-04-28T09:52:38.443Z</time></trkpt><trkpt lat="45.6410654" lon="9.4168129"><ele>229.0</ele><time>2026-04-28T09:52:39.443Z</time></trkpt><trkpt lat="45.6410766" lon="9.4167229"><ele>228.99999999999997</ele><time>2026-04-28T09:52:40.443Z</time></trkpt><trkpt lat="45.6410946" lon="9.4166354"><ele>229.0</ele><time>2026-04-28T09:52:41.443Z</time></trkpt><trkpt lat="45.6411302" lon="9.4165578"><ele>229.0</ele><time>2026-04-28T09:52:42.443Z</time></trkpt><trkpt lat="45.6411786" lon="9.4164175"><ele>229.0</ele><time>2026-04-28T09:52:44.443Z</time></trkpt><trkpt lat="45.6412341" lon="9.4163272"><ele>228.99999999999997</ele><time>2026-04-28T09:52:46.443Z</time></trkpt><trkpt lat="45.6412966" lon="9.4162987"><ele>229.0</ele><time>2026-04-28T09:52:47.443Z</time></trkpt><trkpt lat="45.6414089" lon="9.4163352"><ele>229.0</ele><time>2026-04-28T09:52:49.443Z</time></trkpt><trkpt lat="45.6414694" lon="9.4163731"><ele>228.99999999999997</ele><time>2026-04-28T09:52:50.443Z</time></trkpt><trkpt lat="45.6415777" lon="9.4164333"><ele>228.99999999999997</ele><time>2026-04-28T09:52:52.443Z</time></trkpt><trkpt lat="45.6416907" lon="9.4164953"><ele>229.0</ele><time>2026-04-28T09:52:54.443Z</time></trkpt><trkpt lat="45.6417966" lon="9.4165641"><ele>229.0</ele><time>2026-04-28T09:52:56.443Z</time></trkpt><trkpt lat="45.6419022" lon="9.4166296"><ele>229.0</ele><time>2026-04-28T09:52:58.443Z</time></trkpt><trkpt lat="45.6420046" lon="9.4167032"><ele>229.0</ele><time>2026-04-28T09:53:00.443Z</time></trkpt><trkpt lat="45.6421144" lon="9.4167793"><ele>229.0</ele><time>2026-04-28T09:53:02.443Z</time></trkpt><trkpt lat="45.6422212" lon="9.416848"><ele>229.0</ele><time>2026-04-28T09:53:04.443Z</time></trkpt><trkpt lat="45.6423299" lon="9.4169234"><ele>229.0</ele><time>2026-04-28T09:53:06.443Z</time></trkpt><trkpt lat="45.6424411" lon="9.4169963"><ele>229.0</ele><time>2026-04-28T09:53:08.442Z</time></trkpt><trkpt lat="45.6425512" lon="9.4170714"><ele>229.0</ele><time>2026-04-28T09:53:10.443Z</time></trkpt><trkpt lat="45.6426587" lon="9.4171401"><ele>229.0</ele><time>2026-04-28T09:53:12.442Z</time></trkpt><trkpt lat="45.6427659" lon="9.4172079"><ele>229.0</ele><time>2026-04-28T09:53:14.443Z</time></trkpt><trkpt lat="45.6428733" lon="9.4172751"><ele>228.99999999999997</ele><time>2026-04-28T09:53:16.443Z</time></trkpt><trkpt lat="45.6429813" lon="9.4173485"><ele>228.99999999999997</ele><time>2026-04-28T09:53:18.443Z</time></trkpt><trkpt lat="45.6430405" lon="9.4173835"><ele>229.0</ele><time>2026-04-28T09:53:19.443Z</time></trkpt><trkpt lat="45.6431487" lon="9.4174532"><ele>229.0</ele><time>2026-04-28T09:53:21.443Z</time></trkpt><trkpt lat="45.6432626" lon="9.4175194"><ele>229.0</ele><time>2026-04-28T09:53:23.443Z</time></trkpt><trkpt lat="45.6433253" lon="9.4175687"><ele>228.99999999999997</ele><time>2026-04-28T09:53:24.443Z</time></trkpt><trkpt lat="45.6434302" lon="9.4176371"><ele>228.99999999999997</ele><time>2026-04-28T09:53:26.443Z</time></trkpt><trkpt lat="45.6435351" lon="9.4177104"><ele>229.0</ele><time>2026-04-28T09:53:28.443Z</time></trkpt><trkpt lat="45.6436457" lon="9.4177632"><ele>229.0</ele><time>2026-04-28T09:53:30.443Z</time></trkpt><trkpt lat="45.6437069" lon="9.4177919"><ele>228.79999999999998</ele><time>2026-04-28T09:53:31.443Z</time></trkpt><trkpt lat="45.6438211" lon="9.4178452"><ele>228.59999999999997</ele><time>2026-04-28T09:53:33.443Z</time></trkpt><trkpt lat="45.6439275" lon="9.417917"><ele>228.4</ele><time>2026-04-28T09:53:35.442Z</time></trkpt><trkpt lat="45.6439787" lon="9.4179751"><ele>228.2</ele><time>2026-04-28T09:53:36.443Z</time></trkpt><trkpt lat="45.6440621" lon="9.4180845"><ele>228.0</ele><time>2026-04-28T09:53:38.443Z</time></trkpt><trkpt lat="45.6441299" lon="9.4182144"><ele>228.0</ele><time>2026-04-28T09:53:40.442Z</time></trkpt><trkpt lat="45.6441856" lon="9.4183608"><ele>228.0</ele><time>2026-04-28T09:53:42.443Z</time></trkpt><trkpt lat="45.6442356" lon="9.4185064"><ele>228.0</ele><time>2026-04-28T09:53:44.443Z</time></trkpt><trkpt lat="45.644269" lon="9.418595"><ele>228.0</ele><time>2026-04-28T09:53:45.443Z</time></trkpt><trkpt lat="45.6443152" lon="9.418734"><ele>228.0</ele><time>2026-04-28T09:53:47.443Z</time></trkpt><trkpt lat="45.6443638" lon="9.4188851"><ele>227.8</ele><time>2026-04-28T09:53:49.443Z</time></trkpt><trkpt lat="45.6444131" lon="9.4190185"><ele>227.60000000000002</ele><time>2026-04-28T09:53:51.443Z</time></trkpt><trkpt lat="45.6444632" lon="9.4191735"><ele>227.39999999999998</ele><time>2026-04-28T09:53:53.443Z</time></trkpt><trkpt lat="45.6445102" lon="9.4193163"><ele>227.2</ele><time>2026-04-28T09:53:55.443Z</time></trkpt><trkpt lat="45.6445359" lon="9.4193991"><ele>227.0</ele><time>2026-04-28T09:53:56.443Z</time></trkpt><trkpt lat="45.6445855" lon="9.4195481"><ele>228.2</ele><time>2026-04-28T09:53:58.443Z</time></trkpt><trkpt lat="45.6446429" lon="9.419683"><ele>229.39999999999998</ele><time>2026-04-28T09:54:00.443Z</time></trkpt><trkpt lat="45.6446887" lon="9.4198206"><ele>230.60000000000002</ele><time>2026-04-28T09:54:02.443Z</time></trkpt><trkpt lat="45.644736" lon="9.4199496"><ele>231.8</ele><time>2026-04-28T09:54:04.443Z</time></trkpt><trkpt lat="45.6447747" lon="9.4200667"><ele>233.0</ele><time>2026-04-28T09:54:06.443Z</time></trkpt><trkpt lat="45.6448097" lon="9.4201718"><ele>233.00000000000003</ele><time>2026-04-28T09:54:08.443Z</time></trkpt><trkpt lat="45.6448411" lon="9.4202673"><ele>233.0</ele><time>2026-04-28T09:54:10.443Z</time></trkpt><trkpt lat="45.6448706" lon="9.4203692"><ele>233.0</ele><time>2026-04-28T09:54:12.443Z</time></trkpt><trkpt lat="45.6449033" lon="9.4204527"><ele>233.0</ele><time>2026-04-28T09:54:14.443Z</time></trkpt><trkpt lat="45.6449493" lon="9.42054"><ele>233.00000000000003</ele><time>2026-04-28T09:54:16.443Z</time></trkpt><trkpt lat="45.644995" lon="9.4206597"><ele>233.0</ele><time>2026-04-28T09:54:18.443Z</time></trkpt><trkpt lat="45.6450438" lon="9.4207674"><ele>233.66666666666669</ele><time>2026-04-28T09:54:20.443Z</time></trkpt><trkpt lat="45.6450847" lon="9.4208704"><ele>234.33333333333334</ele><time>2026-04-28T09:54:22.443Z</time></trkpt><trkpt lat="45.6451123" lon="9.4209667"><ele>235.0</ele><time>2026-04-28T09:54:24.443Z</time></trkpt><trkpt lat="45.6451473" lon="9.4210647"><ele>235.66666666666669</ele><time>2026-04-28T09:54:26.443Z</time></trkpt><trkpt lat="45.645186" lon="9.4211604"><ele>236.33333333333334</ele><time>2026-04-28T09:54:28.443Z</time></trkpt><trkpt lat="45.6452187" lon="9.4212475"><ele>237.0</ele><time>2026-04-28T09:54:30.443Z</time></trkpt><trkpt lat="45.6451799" lon="9.4210394"><ele>237.0</ele><time>2026-04-28T09:54:32.443Z</time></trkpt><trkpt lat="45.6452078" lon="9.4211388"><ele>237.0</ele><time>2026-04-28T09:54:36.443Z</time></trkpt><trkpt lat="45.6452362" lon="9.4212465"><ele>237.0</ele><time>2026-04-28T09:54:40.443Z</time></trkpt><trkpt lat="45.6454797" lon="9.4218999"><ele>236.66666666666666</ele><time>2026-04-28T09:54:43.443Z</time></trkpt><trkpt lat="45.6455308" lon="9.4219947"><ele>236.33333333333331</ele><time>2026-04-28T09:54:45.443Z</time></trkpt><trkpt lat="45.6455861" lon="9.4220866"><ele>236.0</ele><time>2026-04-28T09:54:47.443Z</time></trkpt><trkpt lat="45.6456551" lon="9.4221816"><ele>235.66666666666666</ele><time>2026-04-28T09:54:49.443Z</time></trkpt><trkpt lat="45.6457272" lon="9.4222614"><ele>235.33333333333331</ele><time>2026-04-28T09:54:51.443Z</time></trkpt><trkpt lat="45.6457909" lon="9.4223075"><ele>235.0</ele><time>2026-04-28T09:54:53.443Z</time></trkpt><trkpt lat="45.6458741" lon="9.4223776"><ele>235.0</ele><time>2026-04-28T09:54:55.443Z</time></trkpt><trkpt lat="45.6459605" lon="9.4224508"><ele>235.0</ele><time>2026-04-28T09:54:57.443Z</time></trkpt><trkpt lat="45.6460484" lon="9.422526"><ele>235.0</ele><time>2026-04-28T09:54:59.443Z</time></trkpt><trkpt lat="45.6461396" lon="9.4226054"><ele>235.0</ele><time>2026-04-28T09:55:01.443Z</time></trkpt><trkpt lat="45.6462313" lon="9.4226829"><ele>235.0</ele><time>2026-04-28T09:55:03.443Z</time></trkpt><trkpt lat="45.6463239" lon="9.4227594"><ele>235.0</ele><time>2026-04-28T09:55:05.443Z</time></trkpt><trkpt lat="45.6464114" lon="9.4228462"><ele>235.0</ele><time>2026-04-28T09:55:07.443Z</time></trkpt><trkpt lat="45.6465018" lon="9.4229236"><ele>235.0</ele><time>2026-04-28T09:55:09.443Z</time></trkpt><trkpt lat="45.6465945" lon="9.4230005"><ele>235.0</ele><time>2026-04-28T09:55:11.443Z</time></trkpt><trkpt lat="45.6466887" lon="9.4230798"><ele>235.0</ele><time>2026-04-28T09:55:13.442Z</time></trkpt><trkpt lat="45.6467814" lon="9.423152"><ele>235.75</ele><time>2026-04-28T09:55:15.443Z</time></trkpt><trkpt lat="45.6468796" lon="9.4232281"><ele>236.5</ele><time>2026-04-28T09:55:17.443Z</time></trkpt><trkpt lat="45.646979" lon="9.4233084"><ele>237.25</ele><time>2026-04-28T09:55:19.443Z</time></trkpt><trkpt lat="45.6470806" lon="9.4233858"><ele>238.0</ele><time>2026-04-28T09:55:21.443Z</time></trkpt><trkpt lat="45.6471908" lon="9.4234418"><ele>237.99999999999997</ele><time>2026-04-28T09:55:23.443Z</time></trkpt><trkpt lat="45.6473044" lon="9.4234581"><ele>238.0</ele><time>2026-04-28T09:55:25.443Z</time></trkpt><trkpt lat="45.647387" lon="9.4234793"><ele>238.0</ele><time>2026-04-28T09:55:26.443Z</time></trkpt><trkpt lat="45.6475039" lon="9.4234701"><ele>238.0</ele><time>2026-04-28T09:55:28.443Z</time></trkpt><trkpt lat="45.6475693" lon="9.423474"><ele>237.99999999999997</ele><time>2026-04-28T09:55:29.443Z</time></trkpt><trkpt lat="45.6476345" lon="9.4234597"><ele>238.0</ele><time>2026-04-28T09:55:30.443Z</time></trkpt><trkpt lat="45.6477004" lon="9.4234494"><ele>237.83333333333331</ele><time>2026-04-28T09:55:31.443Z</time></trkpt><trkpt lat="45.647826" lon="9.4234506"><ele>237.66666666666666</ele><time>2026-04-28T09:55:33.443Z</time></trkpt><trkpt lat="45.6478912" lon="9.4234407"><ele>237.5</ele><time>2026-04-28T09:55:34.443Z</time></trkpt><trkpt lat="45.6480124" lon="9.4234319"><ele>237.33333333333331</ele><time>2026-04-28T09:55:36.443Z</time></trkpt><trkpt lat="45.6480766" lon="9.4234286"><ele>237.16666666666666</ele><time>2026-04-28T09:55:37.443Z</time></trkpt><trkpt lat="45.6481409" lon="9.4234311"><ele>237.0</ele><time>2026-04-28T09:55:38.442Z</time></trkpt><trkpt lat="45.6482599" lon="9.4234304"><ele>237.0</ele><time>2026-04-28T09:55:40.443Z</time></trkpt><trkpt lat="45.648367" lon="9.4234237"><ele>237.0</ele><time>2026-04-28T09:55:42.442Z</time></trkpt><trkpt lat="45.6484305" lon="9.4234241"><ele>237.0</ele><time>2026-04-28T09:55:43.442Z</time></trkpt><trkpt lat="45.6485594" lon="9.4234172"><ele>237.0</ele><time>2026-04-28T09:55:45.443Z</time></trkpt><trkpt lat="45.6486821" lon="9.423421"><ele>237.0</ele><time>2026-04-28T09:55:47.443Z</time></trkpt><trkpt lat="45.6487936" lon="9.4234129"><ele>237.0</ele><time>2026-04-28T09:55:49.443Z</time></trkpt><trkpt lat="45.6488902" lon="9.4233955"><ele>237.0</ele><time>2026-04-28T09:55:51.443Z</time></trkpt><trkpt lat="45.648952" lon="9.4233111"><ele>237.0</ele><time>2026-04-28T09:55:53.443Z</time></trkpt><trkpt lat="45.648958" lon="9.4231638"><ele>237.0</ele><time>2026-04-28T09:55:55.443Z</time></trkpt><trkpt lat="45.6489455" lon="9.4229891"><ele>237.0</ele><time>2026-04-28T09:55:57.443Z</time></trkpt><trkpt lat="45.6489349" lon="9.4228135"><ele>236.16666666666666</ele><time>2026-04-28T09:55:59.443Z</time></trkpt><trkpt lat="45.6489345" lon="9.4227222"><ele>235.33333333333331</ele><time>2026-04-28T09:56:00.443Z</time></trkpt><trkpt lat="45.64893" lon="9.4226315"><ele>234.5</ele><time>2026-04-28T09:56:01.443Z</time></trkpt><trkpt lat="45.6489293" lon="9.4225377"><ele>233.66666666666666</ele><time>2026-04-28T09:56:02.443Z</time></trkpt><trkpt lat="45.6489392" lon="9.4223684"><ele>232.83333333333331</ele><time>2026-04-28T09:56:04.443Z</time></trkpt><trkpt lat="45.6489778" lon="9.4222731"><ele>232.0</ele><time>2026-04-28T09:56:06.443Z</time></trkpt><trkpt lat="45.6490633" lon="9.4222532"><ele>232.0</ele><time>2026-04-28T09:56:08.443Z</time></trkpt><trkpt lat="45.6491735" lon="9.422255"><ele>232.0</ele><time>2026-04-28T09:56:10.443Z</time></trkpt><trkpt lat="45.64928" lon="9.4222572"><ele>232.0</ele><time>2026-04-28T09:56:12.443Z</time></trkpt><trkpt lat="45.64939" lon="9.4222651"><ele>232.0</ele><time>2026-04-28T09:56:14.443Z</time></trkpt><trkpt lat="45.6495076" lon="9.4222763"><ele>232.0</ele><time>2026-04-28T09:56:16.443Z</time></trkpt><trkpt lat="45.6496232" lon="9.4222902"><ele>232.39999999999998</ele><time>2026-04-28T09:56:18.443Z</time></trkpt><trkpt lat="45.6497333" lon="9.4223188"><ele>232.79999999999998</ele><time>2026-04-28T09:56:20.443Z</time></trkpt><trkpt lat="45.6498129" lon="9.422355"><ele>233.2</ele><time>2026-04-28T09:56:22.443Z</time></trkpt><trkpt lat="45.6499048" lon="9.4223798"><ele>233.6</ele><time>2026-04-28T09:56:24.443Z</time></trkpt><trkpt lat="45.6499939" lon="9.4224024"><ele>234.0</ele><time>2026-04-28T09:56:26.443Z</time></trkpt><trkpt lat="45.6501022" lon="9.4224164"><ele>234.0</ele><time>2026-04-28T09:56:28.443Z</time></trkpt><trkpt lat="45.6501872" lon="9.4224427"><ele>233.99999999999997</ele><time>2026-04-28T09:56:30.443Z</time></trkpt><trkpt lat="45.6502468" lon="9.4223994"><ele>233.99999999999997</ele><time>2026-04-28T09:56:32.443Z</time></trkpt><trkpt lat="45.6503562" lon="9.4223776"><ele>234.0</ele><time>2026-04-28T09:56:34.442Z</time></trkpt><trkpt lat="45.6504822" lon="9.4223878"><ele>234.0</ele><time>2026-04-28T09:56:36.443Z</time></trkpt><trkpt lat="45.6505941" lon="9.4224094"><ele>233.75</ele><time>2026-04-28T09:56:38.443Z</time></trkpt><trkpt lat="45.6507062" lon="9.4224326"><ele>233.5</ele><time>2026-04-28T09:56:40.443Z</time></trkpt><trkpt lat="45.6508225" lon="9.4224633"><ele>233.25</ele><time>2026-04-28T09:56:42.443Z</time></trkpt><trkpt lat="45.6509433" lon="9.4224835"><ele>233.0</ele><time>2026-04-28T09:56:44.443Z</time></trkpt><trkpt lat="45.6510571" lon="9.4225062"><ele>232.83333333333334</ele><time>2026-04-28T09:56:46.443Z</time></trkpt><trkpt lat="45.6511529" lon="9.4225256"><ele>232.66666666666669</ele><time>2026-04-28T09:56:48.443Z</time></trkpt><trkpt lat="45.6512196" lon="9.4225411"><ele>232.5</ele><time>2026-04-28T09:56:49.443Z</time></trkpt><trkpt lat="45.6513163" lon="9.4225589"><ele>232.33333333333331</ele><time>2026-04-28T09:56:51.443Z</time></trkpt><trkpt lat="45.6514055" lon="9.4225315"><ele>232.16666666666666</ele><time>2026-04-28T09:56:53.443Z</time></trkpt><trkpt lat="45.6514275" lon="9.4223977"><ele>232.0</ele><time>2026-04-28T09:56:55.443Z</time></trkpt><trkpt lat="45.6514592" lon="9.4222528"><ele>232.8</ele><time>2026-04-28T09:56:57.443Z</time></trkpt><trkpt lat="45.6514868" lon="9.4221362"><ele>233.6</ele><time>2026-04-28T09:56:59.443Z</time></trkpt><trkpt lat="45.6515161" lon="9.4220108"><ele>234.40000000000003</ele><time>2026-04-28T09:57:01.443Z</time></trkpt><trkpt lat="45.6515672" lon="9.421871"><ele>235.20000000000002</ele><time>2026-04-28T09:57:03.443Z</time></trkpt><trkpt lat="45.6515782" lon="9.4217634"><ele>236.0</ele><time>2026-04-28T09:57:05.443Z</time></trkpt><trkpt lat="45.6516054" lon="9.4216415"><ele>236.00000000000003</ele><time>2026-04-28T09:57:07.443Z</time></trkpt><trkpt lat="45.651733" lon="9.4216203"><ele>236.0</ele><time>2026-04-28T09:57:12.443Z</time></trkpt><trkpt lat="45.6518019" lon="9.4216347"><ele>236.0</ele><time>2026-04-28T09:57:14.443Z</time></trkpt><trkpt lat="45.6518867" lon="9.4216495"><ele>236.0</ele><time>2026-04-28T09:57:17.443Z</time></trkpt><trkpt lat="45.6519579" lon="9.4216702"><ele>236.00000000000003</ele><time>2026-04-28T09:57:19.443Z</time></trkpt><trkpt lat="45.652036" lon="9.4217101"><ele>236.0</ele><time>2026-04-28T09:57:21.443Z</time></trkpt><trkpt lat="45.6521003" lon="9.4217553"><ele>236.4</ele><time>2026-04-28T09:57:23.443Z</time></trkpt><trkpt lat="45.6521813" lon="9.4217982"><ele>236.8</ele><time>2026-04-28T09:57:25.443Z</time></trkpt><trkpt lat="45.652281" lon="9.4218491"><ele>237.20000000000002</ele><time>2026-04-28T09:57:27.443Z</time></trkpt><trkpt lat="45.6523615" lon="9.421868"><ele>237.60000000000002</ele><time>2026-04-28T09:57:29.443Z</time></trkpt><trkpt lat="45.6524462" lon="9.4218768"><ele>238.0</ele><time>2026-04-28T09:57:31.443Z</time></trkpt><trkpt lat="45.6525976" lon="9.4218731"><ele>237.75</ele><time>2026-04-28T09:57:34.443Z</time></trkpt><trkpt lat="45.6527993" lon="9.4218814"><ele>237.5</ele><time>2026-04-28T09:57:37.443Z</time></trkpt><trkpt lat="45.6528844" lon="9.4219047"><ele>237.25</ele><time>2026-04-28T09:57:39.443Z</time></trkpt><trkpt lat="45.6529767" lon="9.4219066"><ele>237.0</ele><time>2026-04-28T09:57:41.442Z</time></trkpt><trkpt lat="45.6530493" lon="9.421896"><ele>237.0</ele><time>2026-04-28T09:57:42.442Z</time></trkpt><trkpt lat="45.6531463" lon="9.4219045"><ele>237.0</ele><time>2026-04-28T09:57:44.443Z</time></trkpt><trkpt lat="45.6534228" lon="9.4218901"><ele>237.0</ele><time>2026-04-28T09:57:50.443Z</time></trkpt><trkpt lat="45.6535267" lon="9.4218808"><ele>236.6</ele><time>2026-04-28T09:57:52.443Z</time></trkpt><trkpt lat="45.6536327" lon="9.4218642"><ele>236.2</ele><time>2026-04-28T09:57:54.443Z</time></trkpt><trkpt lat="45.653736" lon="9.4218422"><ele>235.8</ele><time>2026-04-28T09:57:56.443Z</time></trkpt><trkpt lat="45.6538313" lon="9.421806"><ele>235.4</ele><time>2026-04-28T09:57:58.443Z</time></trkpt><trkpt lat="45.6539416" lon="9.4217398"><ele>235.0</ele><time>2026-04-28T09:58:00.442Z</time></trkpt><trkpt lat="45.6540309" lon="9.4217273"><ele>234.99999999999997</ele><time>2026-04-28T09:58:02.443Z</time></trkpt><trkpt lat="45.6541118" lon="9.4217274"><ele>235.0</ele><time>2026-04-28T09:58:04.443Z</time></trkpt><trkpt lat="45.6541868" lon="9.4217139"><ele>235.0</ele><time>2026-04-28T09:58:06.443Z</time></trkpt><trkpt lat="45.6542631" lon="9.4216964"><ele>235.0</ele><time>2026-04-28T09:58:08.443Z</time></trkpt><trkpt lat="45.6543491" lon="9.4216808"><ele>234.99999999999997</ele><time>2026-04-28T09:58:10.443Z</time></trkpt><trkpt lat="45.6544405" lon="9.4216676"><ele>235.0</ele><time>2026-04-28T09:58:12.443Z</time></trkpt><trkpt lat="45.6545361" lon="9.4216823"><ele>235.2</ele><time>2026-04-28T09:58:14.443Z</time></trkpt><trkpt lat="45.6546378" lon="9.4216994"><ele>235.4</ele><time>2026-04-28T09:58:16.443Z</time></trkpt><trkpt lat="45.6547486" lon="9.4217104"><ele>235.60000000000002</ele><time>2026-04-28T09:58:18.443Z</time></trkpt><trkpt lat="45.6548455" lon="9.4217377"><ele>235.8</ele><time>2026-04-28T09:58:20.443Z</time></trkpt><trkpt lat="45.6549436" lon="9.4217853"><ele>236.0</ele><time>2026-04-28T09:58:22.443Z</time></trkpt><trkpt lat="45.6550344" lon="9.4218078"><ele>236.0</ele><time>2026-04-28T09:58:23.443Z</time></trkpt><trkpt lat="45.6551664" lon="9.4218751"><ele>236.00000000000003</ele><time>2026-04-28T09:58:25.443Z</time></trkpt><trkpt lat="45.6552712" lon="9.4219314"><ele>236.00000000000003</ele><time>2026-04-28T09:58:27.443Z</time></trkpt><trkpt lat="45.65533" lon="9.4219793"><ele>236.0</ele><time>2026-04-28T09:58:28.443Z</time></trkpt><trkpt lat="45.6553963" lon="9.4220096"><ele>236.0</ele><time>2026-04-28T09:58:29.443Z</time></trkpt><trkpt lat="45.6554548" lon="9.4220465"><ele>235.83333333333334</ele><time>2026-04-28T09:58:30.443Z</time></trkpt><trkpt lat="45.6555252" lon="9.4220848"><ele>235.66666666666669</ele><time>2026-04-28T09:58:31.443Z</time></trkpt><trkpt lat="45.6555857" lon="9.4221131"><ele>235.5</ele><time>2026-04-28T09:58:32.443Z</time></trkpt><trkpt lat="45.6556518" lon="9.4221795"><ele>235.33333333333331</ele><time>2026-04-28T09:58:33.443Z</time></trkpt><trkpt lat="45.6557144" lon="9.422225"><ele>235.16666666666666</ele><time>2026-04-28T09:58:34.443Z</time></trkpt><trkpt lat="45.6558194" lon="9.4222644"><ele>235.0</ele><time>2026-04-28T09:58:36.443Z</time></trkpt><trkpt lat="45.6559512" lon="9.4223087"><ele>234.99999999999997</ele><time>2026-04-28T09:58:38.443Z</time></trkpt><trkpt lat="45.6560277" lon="9.4223377"><ele>235.0</ele><time>2026-04-28T09:58:39.443Z</time></trkpt><trkpt lat="45.6560982" lon="9.42237"><ele>235.0</ele><time>2026-04-28T09:58:40.443Z</time></trkpt><trkpt lat="45.6561592" lon="9.4223948"><ele>235.0</ele><time>2026-04-28T09:58:41.443Z</time></trkpt><trkpt lat="45.6562885" lon="9.4224258"><ele>234.99999999999997</ele><time>2026-04-28T09:58:43.443Z</time></trkpt><trkpt lat="45.6563831" lon="9.4224667"><ele>235.0</ele><time>2026-04-28T09:58:45.443Z</time></trkpt><trkpt lat="45.6564499" lon="9.4225171"><ele>235.16666666666666</ele><time>2026-04-28T09:58:46.443Z</time></trkpt><trkpt lat="45.656563" lon="9.4225572"><ele>235.33333333333331</ele><time>2026-04-28T09:58:48.443Z</time></trkpt><trkpt lat="45.6566545" lon="9.4225946"><ele>235.5</ele><time>2026-04-28T09:58:50.443Z</time></trkpt><trkpt lat="45.6567526" lon="9.4226203"><ele>235.66666666666669</ele><time>2026-04-28T09:58:52.443Z</time></trkpt><trkpt lat="45.6568095" lon="9.4226655"><ele>235.83333333333334</ele><time>2026-04-28T09:58:53.443Z</time></trkpt><trkpt lat="45.6568736" lon="9.4227065"><ele>236.0</ele><time>2026-04-28T09:58:54.443Z</time></trkpt><trkpt lat="45.6569525" lon="9.4227556"><ele>236.16666666666669</ele><time>2026-04-28T09:58:55.443Z</time></trkpt><trkpt lat="45.6570683" lon="9.4227824"><ele>236.33333333333334</ele><time>2026-04-28T09:58:57.443Z</time></trkpt><trkpt lat="45.6571315" lon="9.4228138"><ele>236.5</ele><time>2026-04-28T09:58:58.443Z</time></trkpt><trkpt lat="45.6572473" lon="9.422859"><ele>236.66666666666669</ele><time>2026-04-28T09:59:00.443Z</time></trkpt><trkpt lat="45.6573176" lon="9.4228863"><ele>236.83333333333334</ele><time>2026-04-28T09:59:01.443Z</time></trkpt><trkpt lat="45.6573826" lon="9.4229008"><ele>237.0</ele><time>2026-04-28T09:59:02.443Z</time></trkpt><trkpt lat="45.6574514" lon="9.4229184"><ele>237.0</ele><time>2026-04-28T09:59:03.443Z</time></trkpt><trkpt lat="45.6575603" lon="9.4229429"><ele>237.0</ele><time>2026-04-28T09:59:05.443Z</time></trkpt><trkpt lat="45.6576267" lon="9.4229673"><ele>237.0</ele><time>2026-04-28T09:59:06.443Z</time></trkpt><trkpt lat="45.6577368" lon="9.4229801"><ele>237.0</ele><time>2026-04-28T09:59:08.443Z</time></trkpt><trkpt lat="45.6578548" lon="9.4230177"><ele>237.0</ele><time>2026-04-28T09:59:10.442Z</time></trkpt><trkpt lat="45.6579794" lon="9.4230636"><ele>236.66666666666666</ele><time>2026-04-28T09:59:12.443Z</time></trkpt><trkpt lat="45.6580957" lon="9.4231208"><ele>236.33333333333331</ele><time>2026-04-28T09:59:14.443Z</time></trkpt><trkpt lat="45.6581899" lon="9.4231956"><ele>236.0</ele><time>2026-04-28T09:59:16.443Z</time></trkpt><trkpt lat="45.6582478" lon="9.4232545"><ele>235.66666666666666</ele><time>2026-04-28T09:59:17.443Z</time></trkpt><trkpt lat="45.658302" lon="9.4233019"><ele>235.33333333333331</ele><time>2026-04-28T09:59:18.443Z</time></trkpt><trkpt lat="45.658367" lon="9.4233476"><ele>235.0</ele><time>2026-04-28T09:59:19.443Z</time></trkpt><trkpt lat="45.6584756" lon="9.4234169"><ele>235.0</ele><time>2026-04-28T09:59:21.443Z</time></trkpt><trkpt lat="45.6585309" lon="9.4234665"><ele>235.0</ele><time>2026-04-28T09:59:22.443Z</time></trkpt><trkpt lat="45.6585812" lon="9.4235224"><ele>235.0</ele><time>2026-04-28T09:59:23.443Z</time></trkpt><trkpt lat="45.6586783" lon="9.4236041"><ele>235.0</ele><time>2026-04-28T09:59:25.443Z</time></trkpt><trkpt lat="45.6587824" lon="9.4236746"><ele>235.0</ele><time>2026-04-28T09:59:27.443Z</time></trkpt><trkpt lat="45.6588802" lon="9.4237558"><ele>235.0</ele><time>2026-04-28T09:59:29.443Z</time></trkpt><trkpt lat="45.6589758" lon="9.4238504"><ele>235.0</ele><time>2026-04-28T09:59:31.443Z</time></trkpt><trkpt lat="45.659055" lon="9.4239414"><ele>235.0</ele><time>2026-04-28T09:59:33.443Z</time></trkpt><trkpt lat="45.6591198" lon="9.424054"><ele>235.0</ele><time>2026-04-28T09:59:35.443Z</time></trkpt><trkpt lat="45.659113" lon="9.42419"><ele>235.0</ele><time>2026-04-28T09:59:38.443Z</time></trkpt><trkpt lat="45.6590694" lon="9.4242859"><ele>234.99999999999997</ele><time>2026-04-28T09:59:40.443Z</time></trkpt><trkpt lat="45.6590663" lon="9.4243828"><ele>235.0</ele><time>2026-04-28T09:59:42.443Z</time></trkpt><trkpt lat="45.6591125" lon="9.4244496"><ele>235.0</ele><time>2026-04-28T09:59:44.443Z</time></trkpt><trkpt lat="45.6591702" lon="9.4245481"><ele>235.0</ele><time>2026-04-28T09:59:46.443Z</time></trkpt><trkpt lat="45.6592377" lon="9.4246569"><ele>234.99999999999997</ele><time>2026-04-28T09:59:48.443Z</time></trkpt><trkpt lat="45.6593152" lon="9.4247533"><ele>235.0</ele><time>2026-04-28T09:59:50.443Z</time></trkpt><trkpt lat="45.6593914" lon="9.4248535"><ele>235.2</ele><time>2026-04-28T09:59:52.443Z</time></trkpt><trkpt lat="45.6594774" lon="9.4249413"><ele>235.4</ele><time>2026-04-28T09:59:54.442Z</time></trkpt><trkpt lat="45.6595595" lon="9.4250188"><ele>235.60000000000002</ele><time>2026-04-28T09:59:56.443Z</time></trkpt><trkpt lat="45.6596518" lon="9.4250843"><ele>235.8</ele><time>2026-04-28T09:59:58.443Z</time></trkpt><trkpt lat="45.6597368" lon="9.425147"><ele>236.0</ele><time>2026-04-28T10:00:00.443Z</time></trkpt><trkpt lat="45.6598191" lon="9.4252182"><ele>236.0</ele><time>2026-04-28T10:00:02.443Z</time></trkpt><trkpt lat="45.659903" lon="9.4253011"><ele>236.00000000000003</ele><time>2026-04-28T10:00:04.443Z</time></trkpt><trkpt lat="45.659989" lon="9.4253754"><ele>236.00000000000003</ele><time>2026-04-28T10:00:06.443Z</time></trkpt><trkpt lat="45.6600787" lon="9.425453"><ele>236.0</ele><time>2026-04-28T10:00:08.443Z</time></trkpt><trkpt lat="45.66017" lon="9.4255344"><ele>236.0</ele><time>2026-04-28T10:00:10.443Z</time></trkpt><trkpt lat="45.6602552" lon="9.4256264"><ele>236.0</ele><time>2026-04-28T10:00:12.443Z</time></trkpt><trkpt lat="45.6603432" lon="9.4257046"><ele>236.00000000000003</ele><time>2026-04-28T10:00:14.443Z</time></trkpt><trkpt lat="45.6604271" lon="9.4257828"><ele>236.00000000000003</ele><time>2026-04-28T10:00:16.443Z</time></trkpt><trkpt lat="45.660511" lon="9.4258808"><ele>236.0</ele><time>2026-04-28T10:00:18.443Z</time></trkpt><trkpt lat="45.6606025" lon="9.4259767"><ele>236.0</ele><time>2026-04-28T10:00:20.443Z</time></trkpt><trkpt lat="45.6606914" lon="9.4260662"><ele>236.0</ele><time>2026-04-28T10:00:22.443Z</time></trkpt><trkpt lat="45.6607815" lon="9.4261604"><ele>236.00000000000003</ele><time>2026-04-28T10:00:24.443Z</time></trkpt><trkpt lat="45.660871" lon="9.426253"><ele>236.00000000000003</ele><time>2026-04-28T10:00:26.443Z</time></trkpt><trkpt lat="45.6609544" lon="9.4263513"><ele>236.0</ele><time>2026-04-28T10:00:28.443Z</time></trkpt><trkpt lat="45.6610373" lon="9.4264353"><ele>236.0</ele><time>2026-04-28T10:00:30.443Z</time></trkpt><trkpt lat="45.6611132" lon="9.4265349"><ele>236.4</ele><time>2026-04-28T10:00:32.443Z</time></trkpt><trkpt lat="45.661203" lon="9.4266292"><ele>236.8</ele><time>2026-04-28T10:00:34.443Z</time></trkpt><trkpt lat="45.661287" lon="9.4267152"><ele>237.20000000000002</ele><time>2026-04-28T10:00:36.443Z</time></trkpt><trkpt lat="45.6613673" lon="9.4267926"><ele>237.60000000000002</ele><time>2026-04-28T10:00:38.443Z</time></trkpt><trkpt lat="45.6614676" lon="9.4268816"><ele>238.0</ele><time>2026-04-28T10:00:40.443Z</time></trkpt><trkpt lat="45.6615613" lon="9.4269397"><ele>238.0</ele><time>2026-04-28T10:00:42.443Z</time></trkpt><trkpt lat="45.6616529" lon="9.4269965"><ele>238.0</ele><time>2026-04-28T10:00:44.443Z</time></trkpt><trkpt lat="45.661738" lon="9.4270626"><ele>238.0</ele><time>2026-04-28T10:00:46.443Z</time></trkpt><trkpt lat="45.6617954" lon="9.4271117"><ele>238.0</ele><time>2026-04-28T10:00:47.442Z</time></trkpt><trkpt lat="45.6618839" lon="9.427205"><ele>238.0</ele><time>2026-04-28T10:00:49.443Z</time></trkpt><trkpt lat="45.6619783" lon="9.4272932"><ele>237.8</ele><time>2026-04-28T10:00:51.443Z</time></trkpt><trkpt lat="45.662057" lon="9.4273774"><ele>237.60000000000002</ele><time>2026-04-28T10:00:53.443Z</time></trkpt><trkpt lat="45.6621177" lon="9.4274837"><ele>237.39999999999998</ele><time>2026-04-28T10:00:55.443Z</time></trkpt><trkpt lat="45.6621792" lon="9.4275603"><ele>237.2</ele><time>2026-04-28T10:00:57.442Z</time></trkpt><trkpt lat="45.6622251" lon="9.4276231"><ele>237.0</ele><time>2026-04-28T10:00:58.443Z</time></trkpt><trkpt lat="45.6623169" lon="9.4277167"><ele>237.0</ele><time>2026-04-28T10:01:00.443Z</time></trkpt><trkpt lat="45.6623978" lon="9.4277613"><ele>237.0</ele><time>2026-04-28T10:01:02.443Z</time></trkpt><trkpt lat="45.6624759" lon="9.427838"><ele>237.0</ele><time>2026-04-28T10:01:04.443Z</time></trkpt><trkpt lat="45.6625562" lon="9.4279323"><ele>237.0</ele><time>2026-04-28T10:01:06.443Z</time></trkpt><trkpt lat="45.6626243" lon="9.4279906"><ele>237.0</ele><time>2026-04-28T10:01:08.443Z</time></trkpt><trkpt lat="45.6627154" lon="9.4280392"><ele>237.39999999999998</ele><time>2026-04-28T10:01:10.442Z</time></trkpt><trkpt lat="45.6628182" lon="9.4281149"><ele>237.79999999999998</ele><time>2026-04-28T10:01:12.443Z</time></trkpt><trkpt lat="45.6629049" lon="9.4281989"><ele>238.2</ele><time>2026-04-28T10:01:14.443Z</time></trkpt><trkpt lat="45.662987" lon="9.4282651"><ele>238.6</ele><time>2026-04-28T10:01:16.443Z</time></trkpt><trkpt lat="45.6630338" lon="9.4284134"><ele>239.0</ele><time>2026-04-28T10:01:18.443Z</time></trkpt><trkpt lat="45.6631022" lon="9.4285453"><ele>239.0</ele><time>2026-04-28T10:01:20.443Z</time></trkpt><trkpt lat="45.6632074" lon="9.4286244"><ele>239.0</ele><time>2026-04-28T10:01:22.443Z</time></trkpt><trkpt lat="45.6633119" lon="9.42867"><ele>239.0</ele><time>2026-04-28T10:01:24.443Z</time></trkpt><trkpt lat="45.6634182" lon="9.4287288"><ele>239.0</ele><time>2026-04-28T10:01:26.443Z</time></trkpt><trkpt lat="45.6635229" lon="9.4288097"><ele>238.79999999999998</ele><time>2026-04-28T10:01:28.443Z</time></trkpt><trkpt lat="45.6636251" lon="9.4288903"><ele>238.59999999999997</ele><time>2026-04-28T10:01:30.443Z</time></trkpt><trkpt lat="45.6636833" lon="9.4289549"><ele>238.4</ele><time>2026-04-28T10:01:31.443Z</time></trkpt><trkpt lat="45.6637369" lon="9.429005"><ele>238.2</ele><time>2026-04-28T10:01:32.443Z</time></trkpt><trkpt lat="45.6638393" lon="9.429121"><ele>238.0</ele><time>2026-04-28T10:01:34.442Z</time></trkpt><trkpt lat="45.6639183" lon="9.429177"><ele>238.0</ele><time>2026-04-28T10:01:36.443Z</time></trkpt><trkpt lat="45.6639962" lon="9.4292587"><ele>238.0</ele><time>2026-04-28T10:01:38.443Z</time></trkpt><trkpt lat="45.6640557" lon="9.4293107"><ele>238.0</ele><time>2026-04-28T10:01:39.443Z</time></trkpt><trkpt lat="45.6641425" lon="9.429398"><ele>238.0</ele><time>2026-04-28T10:01:41.443Z</time></trkpt><trkpt lat="45.6642332" lon="9.4294661"><ele>238.0</ele><time>2026-04-28T10:01:43.443Z</time></trkpt><trkpt lat="45.6643278" lon="9.4295756"><ele>238.60000000000002</ele><time>2026-04-28T10:01:45.443Z</time></trkpt><trkpt lat="45.6644153" lon="9.4296643"><ele>239.20000000000002</ele><time>2026-04-28T10:01:47.443Z</time></trkpt><trkpt lat="45.6645068" lon="9.4297494"><ele>239.8</ele><time>2026-04-28T10:01:49.443Z</time></trkpt><trkpt lat="45.664601" lon="9.4298399"><ele>240.4</ele><time>2026-04-28T10:01:51.443Z</time></trkpt><trkpt lat="45.6646529" lon="9.4298939"><ele>241.0</ele><time>2026-04-28T10:01:52.443Z</time></trkpt><trkpt lat="45.6647037" lon="9.4299582"><ele>241.0</ele><time>2026-04-28T10:01:53.443Z</time></trkpt><trkpt lat="45.6647973" lon="9.4300516"><ele>241.00000000000003</ele><time>2026-04-28T10:01:55.443Z</time></trkpt><trkpt lat="45.6648971" lon="9.4301478"><ele>241.00000000000003</ele><time>2026-04-28T10:01:57.443Z</time></trkpt><trkpt lat="45.6649843" lon="9.4302243"><ele>241.0</ele><time>2026-04-28T10:01:59.443Z</time></trkpt><trkpt lat="45.6650779" lon="9.4303008"><ele>241.0</ele><time>2026-04-28T10:02:01.443Z</time></trkpt><trkpt lat="45.6651732" lon="9.4303713"><ele>241.0</ele><time>2026-04-28T10:02:03.443Z</time></trkpt><trkpt lat="45.6652656" lon="9.4304552"><ele>241.00000000000003</ele><time>2026-04-28T10:02:05.443Z</time></trkpt><trkpt lat="45.6653494" lon="9.4305585"><ele>241.00000000000003</ele><time>2026-04-28T10:02:07.443Z</time></trkpt><trkpt lat="45.665406" lon="9.4306061"><ele>241.0</ele><time>2026-04-28T10:02:08.443Z</time></trkpt><trkpt lat="45.6654922" lon="9.4307119"><ele>241.0</ele><time>2026-04-28T10:02:10.443Z</time></trkpt><trkpt lat="45.6655833" lon="9.4308117"><ele>241.25</ele><time>2026-04-28T10:02:12.443Z</time></trkpt><trkpt lat="45.665675" lon="9.4309186"><ele>241.5</ele><time>2026-04-28T10:02:14.443Z</time></trkpt><trkpt lat="45.6657759" lon="9.4310235"><ele>241.75</ele><time>2026-04-28T10:02:16.443Z</time></trkpt><trkpt lat="45.6658651" lon="9.4311049"><ele>242.0</ele><time>2026-04-28T10:02:18.443Z</time></trkpt><trkpt lat="45.6659541" lon="9.4312278"><ele>241.75</ele><time>2026-04-28T10:02:20.443Z</time></trkpt><trkpt lat="45.6660379" lon="9.4313329"><ele>241.5</ele><time>2026-04-28T10:02:22.443Z</time></trkpt><trkpt lat="45.6661388" lon="9.4314069"><ele>241.25</ele><time>2026-04-28T10:02:24.443Z</time></trkpt><trkpt lat="45.6662466" lon="9.4314955"><ele>241.0</ele><time>2026-04-28T10:02:26.443Z</time></trkpt><trkpt lat="45.6663283" lon="9.4315807"><ele>241.0</ele><time>2026-04-28T10:02:28.442Z</time></trkpt><trkpt lat="45.666424" lon="9.4317159"><ele>241.0</ele><time>2026-04-28T10:02:30.443Z</time></trkpt><trkpt lat="45.6665136" lon="9.4317945"><ele>241.0</ele><time>2026-04-28T10:02:32.443Z</time></trkpt><trkpt lat="45.6666037" lon="9.4318878"><ele>241.0</ele><time>2026-04-28T10:02:34.443Z</time></trkpt><trkpt lat="45.6667145" lon="9.4319699"><ele>241.0</ele><time>2026-04-28T10:02:36.442Z</time></trkpt><trkpt lat="45.666802" lon="9.4320641"><ele>241.00000000000003</ele><time>2026-04-28T10:02:38.443Z</time></trkpt><trkpt lat="45.6668948" lon="9.4321506"><ele>241.00000000000003</ele><time>2026-04-28T10:02:40.443Z</time></trkpt><trkpt lat="45.6669724" lon="9.4322395"><ele>241.0</ele><time>2026-04-28T10:02:42.443Z</time></trkpt><trkpt lat="45.6670691" lon="9.4323342"><ele>241.0</ele><time>2026-04-28T10:02:44.443Z</time></trkpt><trkpt lat="45.6671598" lon="9.4324245"><ele>241.5</ele><time>2026-04-28T10:02:46.443Z</time></trkpt><trkpt lat="45.667268" lon="9.4325361"><ele>242.0</ele><time>2026-04-28T10:02:48.443Z</time></trkpt><trkpt lat="45.667363" lon="9.4326225"><ele>242.5</ele><time>2026-04-28T10:02:50.443Z</time></trkpt><trkpt lat="45.6674591" lon="9.432725"><ele>243.0</ele><time>2026-04-28T10:02:52.443Z</time></trkpt><trkpt lat="45.6675437" lon="9.4328035"><ele>243.0</ele><time>2026-04-28T10:02:54.443Z</time></trkpt><trkpt lat="45.6676421" lon="9.4328799"><ele>243.0</ele><time>2026-04-28T10:02:56.443Z</time></trkpt><trkpt lat="45.6677348" lon="9.43298"><ele>243.0</ele><time>2026-04-28T10:02:58.443Z</time></trkpt><trkpt lat="45.6678395" lon="9.4331033"><ele>243.0</ele><time>2026-04-28T10:03:00.443Z</time></trkpt><trkpt lat="45.6678944" lon="9.4331488"><ele>243.0</ele><time>2026-04-28T10:03:01.443Z</time></trkpt><trkpt lat="45.6679915" lon="9.4332365"><ele>243.60000000000002</ele><time>2026-04-28T10:03:03.443Z</time></trkpt><trkpt lat="45.6680811" lon="9.43334"><ele>244.20000000000002</ele><time>2026-04-28T10:03:05.443Z</time></trkpt><trkpt lat="45.6681757" lon="9.4334354"><ele>244.8</ele><time>2026-04-28T10:03:07.443Z</time></trkpt><trkpt lat="45.6682294" lon="9.4334894"><ele>245.4</ele><time>2026-04-28T10:03:08.443Z</time></trkpt><trkpt lat="45.6683154" lon="9.4335897"><ele>246.0</ele><time>2026-04-28T10:03:10.443Z</time></trkpt><trkpt lat="45.6683791" lon="9.4336207"><ele>246.0</ele><time>2026-04-28T10:03:11.443Z</time></trkpt><trkpt lat="45.6684385" lon="9.4336572"><ele>246.00000000000003</ele><time>2026-04-28T10:03:12.443Z</time></trkpt><trkpt lat="45.6685187" lon="9.433727"><ele>246.00000000000003</ele><time>2026-04-28T10:03:14.443Z</time></trkpt><trkpt lat="45.6686099" lon="9.4338073"><ele>246.0</ele><time>2026-04-28T10:03:16.443Z</time></trkpt><trkpt lat="45.6687005" lon="9.433895"><ele>246.0</ele><time>2026-04-28T10:03:18.442Z</time></trkpt><trkpt lat="45.6688055" lon="9.4340071"><ele>245.60000000000002</ele><time>2026-04-28T10:03:20.443Z</time></trkpt><trkpt lat="45.6688777" lon="9.4340845"><ele>245.20000000000002</ele><time>2026-04-28T10:03:22.443Z</time></trkpt><trkpt lat="45.6689406" lon="9.4341421"><ele>244.79999999999998</ele><time>2026-04-28T10:03:23.443Z</time></trkpt><trkpt lat="45.6690349" lon="9.4342215"><ele>244.39999999999998</ele><time>2026-04-28T10:03:25.443Z</time></trkpt><trkpt lat="45.6690963" lon="9.4342459"><ele>244.0</ele><time>2026-04-28T10:03:26.443Z</time></trkpt><trkpt lat="45.6691875" lon="9.4343519"><ele>243.99999999999997</ele><time>2026-04-28T10:03:28.442Z</time></trkpt><trkpt lat="45.6692317" lon="9.4344162"><ele>244.0</ele><time>2026-04-28T10:03:29.443Z</time></trkpt><trkpt lat="45.6692825" lon="9.434482"><ele>244.0</ele><time>2026-04-28T10:03:30.442Z</time></trkpt><trkpt lat="45.6693349" lon="9.4345359"><ele>244.0</ele><time>2026-04-28T10:03:31.443Z</time></trkpt><trkpt lat="45.6694281" lon="9.4346314"><ele>243.99999999999997</ele><time>2026-04-28T10:03:33.443Z</time></trkpt><trkpt lat="45.6695114" lon="9.4347228"><ele>244.0</ele><time>2026-04-28T10:03:35.443Z</time></trkpt><trkpt lat="45.6696067" lon="9.4348212"><ele>244.39999999999998</ele><time>2026-04-28T10:03:37.443Z</time></trkpt><trkpt lat="45.6696569" lon="9.4348849"><ele>244.79999999999998</ele><time>2026-04-28T10:03:38.443Z</time></trkpt><trkpt lat="45.6697489" lon="9.4349951"><ele>245.20000000000002</ele><time>2026-04-28T10:03:40.443Z</time></trkpt><trkpt lat="45.6698388" lon="9.4350902"><ele>245.60000000000002</ele><time>2026-04-28T10:03:42.443Z</time></trkpt><trkpt lat="45.669926" lon="9.4351986"><ele>246.0</ele><time>2026-04-28T10:03:44.443Z</time></trkpt><trkpt lat="45.6700172" lon="9.4352937"><ele>246.0</ele><time>2026-04-28T10:03:46.443Z</time></trkpt><trkpt lat="45.6701068" lon="9.4354053"><ele>246.00000000000003</ele><time>2026-04-28T10:03:48.442Z</time></trkpt><trkpt lat="45.6702013" lon="9.4354976"><ele>246.00000000000003</ele><time>2026-04-28T10:03:50.442Z</time></trkpt><trkpt lat="45.6702496" lon="9.4355554"><ele>246.0</ele><time>2026-04-28T10:03:51.443Z</time></trkpt><trkpt lat="45.6703319" lon="9.4356615"><ele>246.0</ele><time>2026-04-28T10:03:53.443Z</time></trkpt><trkpt lat="45.6704027" lon="9.435756"><ele>246.5</ele><time>2026-04-28T10:03:55.443Z</time></trkpt><trkpt lat="45.670469" lon="9.435871"><ele>247.0</ele><time>2026-04-28T10:03:57.443Z</time></trkpt><trkpt lat="45.6705137" lon="9.4359789"><ele>247.5</ele><time>2026-04-28T10:04:00.443Z</time></trkpt><trkpt lat="45.6704802" lon="9.4360608"><ele>248.0</ele><time>2026-04-28T10:04:02.443Z</time></trkpt><trkpt lat="45.6704314" lon="9.4361658"><ele>248.5</ele><time>2026-04-28T10:04:04.442Z</time></trkpt><trkpt lat="45.670389" lon="9.4362363"><ele>249.0</ele><time>2026-04-28T10:04:05.443Z</time></trkpt><trkpt lat="45.6703416" lon="9.4363615"><ele>249.0</ele><time>2026-04-28T10:04:07.443Z</time></trkpt><trkpt lat="45.6702875" lon="9.4364721"><ele>248.99999999999997</ele><time>2026-04-28T10:04:09.443Z</time></trkpt><trkpt lat="45.6702576" lon="9.4365542"><ele>248.99999999999997</ele><time>2026-04-28T10:04:10.443Z</time></trkpt><trkpt lat="45.670198" lon="9.4366762"><ele>249.0</ele><time>2026-04-28T10:04:12.442Z</time></trkpt><trkpt lat="45.6701273" lon="9.4368124"><ele>249.0</ele><time>2026-04-28T10:04:14.443Z</time></trkpt><trkpt lat="45.6700582" lon="9.4369544"><ele>248.79999999999998</ele><time>2026-04-28T10:04:16.443Z</time></trkpt><trkpt lat="45.6699953" lon="9.4370763"><ele>248.59999999999997</ele><time>2026-04-28T10:04:18.443Z</time></trkpt><trkpt lat="45.66994" lon="9.4371998"><ele>248.4</ele><time>2026-04-28T10:04:20.442Z</time></trkpt><trkpt lat="45.6698724" lon="9.4373179"><ele>248.2</ele><time>2026-04-28T10:04:22.443Z</time></trkpt><trkpt lat="45.6698091" lon="9.4374261"><ele>248.0</ele><time>2026-04-28T10:04:24.443Z</time></trkpt><trkpt lat="45.6697358" lon="9.4375457"><ele>248.00000000000003</ele><time>2026-04-28T10:04:26.443Z</time></trkpt><trkpt lat="45.6696924" lon="9.437671"><ele>248.0</ele><time>2026-04-28T10:04:28.443Z</time></trkpt><trkpt lat="45.6696463" lon="9.4377949"><ele>248.0</ele><time>2026-04-28T10:04:30.443Z</time></trkpt><trkpt lat="45.6696511" lon="9.4379227"><ele>248.0</ele><time>2026-04-28T10:04:32.443Z</time></trkpt><trkpt lat="45.6696715" lon="9.4380319"><ele>248.00000000000003</ele><time>2026-04-28T10:04:34.442Z</time></trkpt><trkpt lat="45.6697231" lon="9.4381227"><ele>248.0</ele><time>2026-04-28T10:04:36.443Z</time></trkpt><trkpt lat="45.6698102" lon="9.4382234"><ele>248.4</ele><time>2026-04-28T10:04:38.443Z</time></trkpt><trkpt lat="45.6699017" lon="9.4383134"><ele>248.8</ele><time>2026-04-28T10:04:40.443Z</time></trkpt><trkpt lat="45.6699915" lon="9.4384106"><ele>249.2</ele><time>2026-04-28T10:04:42.443Z</time></trkpt><trkpt lat="45.6700415" lon="9.4384669"><ele>249.6</ele><time>2026-04-28T10:04:43.443Z</time></trkpt><trkpt lat="45.6701018" lon="9.4385084"><ele>250.0</ele><time>2026-04-28T10:04:44.442Z</time></trkpt><trkpt lat="45.6702113" lon="9.4385916"><ele>250.0</ele><time>2026-04-28T10:04:46.443Z</time></trkpt><trkpt lat="45.6702595" lon="9.4386893"><ele>250.0</ele><time>2026-04-28T10:04:47.575Z</time></trkpt><trkpt lat="45.6703125" lon="9.4387385"><ele>250.0</ele><time>2026-04-28T10:04:48.716Z</time></trkpt><trkpt lat="45.6704135" lon="9.4388551"><ele>250.0</ele><time>2026-04-28T10:04:50.428Z</time></trkpt><trkpt lat="45.6705008" lon="9.4389362"><ele>250.0</ele><time>2026-04-28T10:04:52.425Z</time></trkpt><trkpt lat="45.6705598" lon="9.4389896"><ele>250.6</ele><time>2026-04-28T10:04:53.425Z</time></trkpt><trkpt lat="45.6706552" lon="9.4390938"><ele>251.2</ele><time>2026-04-28T10:04:55.427Z</time></trkpt><trkpt lat="45.6707548" lon="9.4391555"><ele>251.8</ele><time>2026-04-28T10:04:57.427Z</time></trkpt><trkpt lat="45.670833" lon="9.4392249"><ele>252.4</ele><time>2026-04-28T10:04:59.427Z</time></trkpt><trkpt lat="45.6709286" lon="9.4392967"><ele>253.0</ele><time>2026-04-28T10:05:01.427Z</time></trkpt><trkpt lat="45.6710247" lon="9.4394077"><ele>253.4</ele><time>2026-04-28T10:05:03.427Z</time></trkpt><trkpt lat="45.6711279" lon="9.4395063"><ele>253.8</ele><time>2026-04-28T10:05:05.427Z</time></trkpt><trkpt lat="45.6711794" lon="9.4395593"><ele>254.2</ele><time>2026-04-28T10:05:06.427Z</time></trkpt><trkpt lat="45.6712732" lon="9.439646"><ele>254.6</ele><time>2026-04-28T10:05:08.426Z</time></trkpt><trkpt lat="45.6713698" lon="9.4397342"><ele>255.0</ele><time>2026-04-28T10:05:10.427Z</time></trkpt><trkpt lat="45.6714678" lon="9.4398255"><ele>255.0</ele><time>2026-04-28T10:05:12.426Z</time></trkpt><trkpt lat="45.6715649" lon="9.4399331"><ele>255.0</ele><time>2026-04-28T10:05:14.426Z</time></trkpt><trkpt lat="45.6716198" lon="9.439998"><ele>255.0</ele><time>2026-04-28T10:05:15.427Z</time></trkpt><trkpt lat="45.6717205" lon="9.4400717"><ele>255.0</ele><time>2026-04-28T10:05:17.427Z</time></trkpt><trkpt lat="45.671772" lon="9.4401284"><ele>255.0</ele><time>2026-04-28T10:05:18.427Z</time></trkpt><trkpt lat="45.6718543" lon="9.4401866"><ele>255.0</ele><time>2026-04-28T10:05:20.427Z</time></trkpt><trkpt lat="45.6719191" lon="9.4402664"><ele>255.0</ele><time>2026-04-28T10:05:22.427Z</time></trkpt><trkpt lat="45.6720212" lon="9.4403259"><ele>255.0</ele><time>2026-04-28T10:05:24.427Z</time></trkpt><trkpt lat="45.6721187" lon="9.4403607"><ele>255.0</ele><time>2026-04-28T10:05:26.427Z</time></trkpt><trkpt lat="45.672203" lon="9.440439"><ele>255.0</ele><time>2026-04-28T10:05:28.427Z</time></trkpt><trkpt lat="45.672297" lon="9.4405591"><ele>255.33333333333334</ele><time>2026-04-28T10:05:30.427Z</time></trkpt><trkpt lat="45.6723935" lon="9.4406642"><ele>255.66666666666669</ele><time>2026-04-28T10:05:32.427Z</time></trkpt><trkpt lat="45.6724868" lon="9.440732"><ele>256.0</ele><time>2026-04-28T10:05:34.427Z</time></trkpt><trkpt lat="45.6725368" lon="9.4408082"><ele>256.33333333333337</ele><time>2026-04-28T10:05:35.427Z</time></trkpt><trkpt lat="45.6725818" lon="9.4408797"><ele>256.6666666666667</ele><time>2026-04-28T10:05:36.427Z</time></trkpt><trkpt lat="45.6726247" lon="9.4409685"><ele>257.0</ele><time>2026-04-28T10:05:37.427Z</time></trkpt><trkpt lat="45.6726882" lon="9.4410458"><ele>257.0</ele><time>2026-04-28T10:05:38.427Z</time></trkpt><trkpt lat="45.6727666" lon="9.4411513"><ele>257.0</ele><time>2026-04-28T10:05:40.427Z</time></trkpt><trkpt lat="45.6728428" lon="9.4412659"><ele>257.0</ele><time>2026-04-28T10:05:42.427Z</time></trkpt><trkpt lat="45.6728962" lon="9.4413371"><ele>257.0</ele><time>2026-04-28T10:05:44.427Z</time></trkpt><trkpt lat="45.6729266" lon="9.4414302"><ele>257.0</ele><time>2026-04-28T10:05:45.427Z</time></trkpt><trkpt lat="45.6729864" lon="9.4414673"><ele>257.0</ele><time>2026-04-28T10:05:47.427Z</time></trkpt><trkpt lat="45.6730294" lon="9.4415646"><ele>257.6</ele><time>2026-04-28T10:05:50.427Z</time></trkpt><trkpt lat="45.6730925" lon="9.4416608"><ele>258.2</ele><time>2026-04-28T10:05:52.426Z</time></trkpt><trkpt lat="45.6731711" lon="9.4417946"><ele>258.8</ele><time>2026-04-28T10:05:54.427Z</time></trkpt><trkpt lat="45.673234" lon="9.441852"><ele>259.4</ele><time>2026-04-28T10:05:56.427Z</time></trkpt><trkpt lat="45.6732958" lon="9.4419088"><ele>260.0</ele><time>2026-04-28T10:05:58.427Z</time></trkpt><trkpt lat="45.6733667" lon="9.4420068"><ele>260.0</ele><time>2026-04-28T10:06:00.427Z</time></trkpt><trkpt lat="45.673419" lon="9.4420948"><ele>260.0</ele><time>2026-04-28T10:06:02.427Z</time></trkpt><trkpt lat="45.6734764" lon="9.442182"><ele>260.0</ele><time>2026-04-28T10:06:04.427Z</time></trkpt><trkpt lat="45.6735295" lon="9.4422404"><ele>260.0</ele><time>2026-04-28T10:06:06.427Z</time></trkpt><trkpt lat="45.6735868" lon="9.442318"><ele>260.0</ele><time>2026-04-28T10:06:08.427Z</time></trkpt><trkpt lat="45.6735027" lon="9.4422373"><ele>260.0</ele><time>2026-04-28T10:06:09.413Z</time></trkpt><trkpt lat="45.6735571" lon="9.4423255"><ele>260.1666666666667</ele><time>2026-04-28T10:06:12.457Z</time></trkpt><trkpt lat="45.6736184" lon="9.4424144"><ele>260.33333333333337</ele><time>2026-04-28T10:06:15.452Z</time></trkpt><trkpt lat="45.6736629" lon="9.4425011"><ele>260.5</ele><time>2026-04-28T10:06:17.427Z</time></trkpt><trkpt lat="45.6736988" lon="9.4425812"><ele>260.6666666666667</ele><time>2026-04-28T10:06:19.427Z</time></trkpt><trkpt lat="45.6737387" lon="9.4426569"><ele>260.8333333333333</ele><time>2026-04-28T10:06:21.441Z</time></trkpt><trkpt lat="45.6738003" lon="9.4427253"><ele>261.0</ele><time>2026-04-28T10:06:23.427Z</time></trkpt><trkpt lat="45.6740334" lon="9.4430572"><ele>261.0</ele><time>2026-04-28T10:06:25.427Z</time></trkpt><trkpt lat="45.6740969" lon="9.4431595"><ele>261.0</ele><time>2026-04-28T10:06:27.426Z</time></trkpt><trkpt lat="45.6741641" lon="9.4432651"><ele>261.0</ele><time>2026-04-28T10:06:29.427Z</time></trkpt><trkpt lat="45.6742257" lon="9.4433936"><ele>261.0</ele><time>2026-04-28T10:06:31.427Z</time></trkpt><trkpt lat="45.6742911" lon="9.4435305"><ele>261.0</ele><time>2026-04-28T10:06:33.427Z</time></trkpt><trkpt lat="45.6743494" lon="9.4436658"><ele>261.0</ele><time>2026-04-28T10:06:35.427Z</time></trkpt><trkpt lat="45.6744055" lon="9.443793"><ele>261.0</ele><time>2026-04-28T10:06:37.427Z</time></trkpt><trkpt lat="45.6744692" lon="9.4439186"><ele>261.0</ele><time>2026-04-28T10:06:39.427Z</time></trkpt><trkpt lat="45.674535" lon="9.4440538"><ele>261.0</ele><time>2026-04-28T10:06:41.426Z</time></trkpt><trkpt lat="45.6746016" lon="9.4442038"><ele>261.2</ele><time>2026-04-28T10:06:43.427Z</time></trkpt><trkpt lat="45.674635" lon="9.4442961"><ele>261.40000000000003</ele><time>2026-04-28T10:06:44.427Z</time></trkpt><trkpt lat="45.6746965" lon="9.444516"><ele>261.6</ele><time>2026-04-28T10:06:45.427Z</time></trkpt><trkpt lat="45.6747529" lon="9.4446053"><ele>261.8</ele><time>2026-04-28T10:06:47.427Z</time></trkpt><trkpt lat="45.6748157" lon="9.4447278"><ele>262.0</ele><time>2026-04-28T10:06:49.427Z</time></trkpt><trkpt lat="45.6748935" lon="9.4448536"><ele>262.0</ele><time>2026-04-28T10:06:51.427Z</time></trkpt><trkpt lat="45.6749546" lon="9.4449721"><ele>262.0</ele><time>2026-04-28T10:06:53.427Z</time></trkpt><trkpt lat="45.6750234" lon="9.4450759"><ele>262.0</ele><time>2026-04-28T10:06:55.427Z</time></trkpt><trkpt lat="45.6750694" lon="9.4452136"><ele>262.0</ele><time>2026-04-28T10:06:57.427Z</time></trkpt><trkpt lat="45.6751336" lon="9.4453307"><ele>262.0</ele><time>2026-04-28T10:06:59.427Z</time></trkpt><trkpt lat="45.6751966" lon="9.4454716"><ele>262.0</ele><time>2026-04-28T10:07:01.427Z</time></trkpt><trkpt lat="45.6752634" lon="9.4455914"><ele>262.0</ele><time>2026-04-28T10:07:03.427Z</time></trkpt><trkpt lat="45.6753288" lon="9.4457184"><ele>262.0</ele><time>2026-04-28T10:07:05.427Z</time></trkpt><trkpt lat="45.6753971" lon="9.4458424"><ele>262.0</ele><time>2026-04-28T10:07:07.427Z</time></trkpt><trkpt lat="45.6754628" lon="9.4459676"><ele>262.0</ele><time>2026-04-28T10:07:09.427Z</time></trkpt><trkpt lat="45.6755282" lon="9.4460947"><ele>262.0</ele><time>2026-04-28T10:07:11.427Z</time></trkpt><trkpt lat="45.6755967" lon="9.4462349"><ele>262.0</ele><time>2026-04-28T10:07:13.427Z</time></trkpt><trkpt lat="45.6756326" lon="9.4463122"><ele>262.0</ele><time>2026-04-28T10:07:14.427Z</time></trkpt><trkpt lat="45.6756971" lon="9.4464427"><ele>262.0</ele><time>2026-04-28T10:07:16.427Z</time></trkpt><trkpt lat="45.6757661" lon="9.4465789"><ele>262.0</ele><time>2026-04-28T10:07:18.427Z</time></trkpt><trkpt lat="45.6758294" lon="9.4467104"><ele>262.2</ele><time>2026-04-28T10:07:20.427Z</time></trkpt><trkpt lat="45.6759009" lon="9.4468481"><ele>262.4</ele><time>2026-04-28T10:07:22.427Z</time></trkpt><trkpt lat="45.67596" lon="9.4469897"><ele>262.6</ele><time>2026-04-28T10:07:24.427Z</time></trkpt><trkpt lat="45.6760233" lon="9.4471184"><ele>262.8</ele><time>2026-04-28T10:07:26.427Z</time></trkpt><trkpt lat="45.6760586" lon="9.4472029"><ele>263.0</ele><time>2026-04-28T10:07:27.427Z</time></trkpt><trkpt lat="45.6761226" lon="9.447317"><ele>263.25</ele><time>2026-04-28T10:07:29.427Z</time></trkpt><trkpt lat="45.6761972" lon="9.4474715"><ele>263.5</ele><time>2026-04-28T10:07:31.427Z</time></trkpt><trkpt lat="45.6762671" lon="9.4475886"><ele>263.75</ele><time>2026-04-28T10:07:33.427Z</time></trkpt><trkpt lat="45.6763397" lon="9.4477148"><ele>264.0</ele><time>2026-04-28T10:07:35.427Z</time></trkpt><trkpt lat="45.6764057" lon="9.4478436"><ele>264.0</ele><time>2026-04-28T10:07:37.427Z</time></trkpt><trkpt lat="45.6764412" lon="9.4479299"><ele>264.0</ele><time>2026-04-28T10:07:38.427Z</time></trkpt><trkpt lat="45.6765064" lon="9.4480657"><ele>264.0</ele><time>2026-04-28T10:07:40.427Z</time></trkpt><trkpt lat="45.6765703" lon="9.4482026"><ele>264.0</ele><time>2026-04-28T10:07:42.427Z</time></trkpt><trkpt lat="45.6766395" lon="9.4483309"><ele>264.0</ele><time>2026-04-28T10:07:44.427Z</time></trkpt><trkpt lat="45.6766774" lon="9.4484043"><ele>264.0</ele><time>2026-04-28T10:07:45.427Z</time></trkpt><trkpt lat="45.6767383" lon="9.4485498"><ele>264.0</ele><time>2026-04-28T10:07:47.427Z</time></trkpt><trkpt lat="45.6768071" lon="9.4486846"><ele>264.0</ele><time>2026-04-28T10:07:49.427Z</time></trkpt><trkpt lat="45.6768802" lon="9.4488081"><ele>264.0</ele><time>2026-04-28T10:07:51.427Z</time></trkpt><trkpt lat="45.676956" lon="9.4489437"><ele>263.5</ele><time>2026-04-28T10:07:53.427Z</time></trkpt><trkpt lat="45.6769952" lon="9.4490339"><ele>263.0</ele><time>2026-04-28T10:07:54.427Z</time></trkpt><trkpt lat="45.6770712" lon="9.449186"><ele>262.5</ele><time>2026-04-28T10:07:56.427Z</time></trkpt><trkpt lat="45.6771067" lon="9.4492619"><ele>262.0</ele><time>2026-04-28T10:07:57.427Z</time></trkpt><trkpt lat="45.6771499" lon="9.4493358"><ele>261.5</ele><time>2026-04-28T10:07:58.427Z</time></trkpt><trkpt lat="45.6771908" lon="9.4494202"><ele>261.0</ele><time>2026-04-28T10:07:59.427Z</time></trkpt><trkpt lat="45.6772304" lon="9.4495034"><ele>260.75</ele><time>2026-04-28T10:08:00.426Z</time></trkpt><trkpt lat="45.6773083" lon="9.4496528"><ele>260.5</ele><time>2026-04-28T10:08:02.427Z</time></trkpt><trkpt lat="45.6773909" lon="9.4497993"><ele>260.25</ele><time>2026-04-28T10:08:04.427Z</time></trkpt><trkpt lat="45.677461" lon="9.4499282"><ele>260.0</ele><time>2026-04-28T10:08:06.427Z</time></trkpt><trkpt lat="45.677524" lon="9.4500625"><ele>260.0</ele><time>2026-04-28T10:08:08.427Z</time></trkpt><trkpt lat="45.6776017" lon="9.4502124"><ele>260.0</ele><time>2026-04-28T10:08:10.427Z</time></trkpt><trkpt lat="45.6776443" lon="9.4502834"><ele>260.0</ele><time>2026-04-28T10:08:11.426Z</time></trkpt><trkpt lat="45.6776875" lon="9.4503805"><ele>260.0</ele><time>2026-04-28T10:08:12.427Z</time></trkpt><trkpt lat="45.6777255" lon="9.450462"><ele>260.0</ele><time>2026-04-28T10:08:13.427Z</time></trkpt><trkpt lat="45.6777743" lon="9.4505391"><ele>260.0</ele><time>2026-04-28T10:08:14.427Z</time></trkpt><trkpt lat="45.6778207" lon="9.450613"><ele>260.0</ele><time>2026-04-28T10:08:15.427Z</time></trkpt><trkpt lat="45.6778616" lon="9.4506906"><ele>260.0</ele><time>2026-04-28T10:08:16.427Z</time></trkpt><trkpt lat="45.6779532" lon="9.4508333"><ele>260.0</ele><time>2026-04-28T10:08:18.427Z</time></trkpt><trkpt lat="45.6780048" lon="9.4508999"><ele>260.0</ele><time>2026-04-28T10:08:19.427Z</time></trkpt><trkpt lat="45.678087" lon="9.4509773"><ele>260.0</ele><time>2026-04-28T10:08:21.427Z</time></trkpt><trkpt lat="45.6781415" lon="9.4510258"><ele>260.0</ele><time>2026-04-28T10:08:22.427Z</time></trkpt><trkpt lat="45.6782008" lon="9.4510827"><ele>260.0</ele><time>2026-04-28T10:08:23.427Z</time></trkpt><trkpt lat="45.6782926" lon="9.4512299"><ele>260.0</ele><time>2026-04-28T10:08:25.427Z</time></trkpt><trkpt lat="45.6783675" lon="9.4512525"><ele>260.0</ele><time>2026-04-28T10:08:26.427Z</time></trkpt><trkpt lat="45.6784293" lon="9.4512815"><ele>260.0</ele><time>2026-04-28T10:08:27.427Z</time></trkpt><trkpt lat="45.6784956" lon="9.4513166"><ele>260.0</ele><time>2026-04-28T10:08:28.427Z</time></trkpt><trkpt lat="45.6785632" lon="9.4513286"><ele>260.0</ele><time>2026-04-28T10:08:29.427Z</time></trkpt><trkpt lat="45.6786302" lon="9.4513664"><ele>259.6</ele><time>2026-04-28T10:08:30.427Z</time></trkpt><trkpt lat="45.6786955" lon="9.451388"><ele>259.2</ele><time>2026-04-28T10:08:31.427Z</time></trkpt><trkpt lat="45.678771" lon="9.4514259"><ele>258.8</ele><time>2026-04-28T10:08:32.427Z</time></trkpt><trkpt lat="45.6789041" lon="9.45145"><ele>258.4</ele><time>2026-04-28T10:08:34.427Z</time></trkpt><trkpt lat="45.6790239" lon="9.4514741"><ele>258.0</ele><time>2026-04-28T10:08:36.427Z</time></trkpt><trkpt lat="45.6790881" lon="9.4514868"><ele>258.0</ele><time>2026-04-28T10:08:37.427Z</time></trkpt><trkpt lat="45.6792042" lon="9.4514934"><ele>258.0</ele><time>2026-04-28T10:08:39.427Z</time></trkpt><trkpt lat="45.6793111" lon="9.4514972"><ele>258.0</ele><time>2026-04-28T10:08:41.427Z</time></trkpt><trkpt lat="45.6794405" lon="9.4514915"><ele>258.0</ele><time>2026-04-28T10:08:43.426Z</time></trkpt><trkpt lat="45.6795074" lon="9.4514857"><ele>258.0</ele><time>2026-04-28T10:08:44.427Z</time></trkpt><trkpt lat="45.6796231" lon="9.451489"><ele>258.6</ele><time>2026-04-28T10:08:46.427Z</time></trkpt><trkpt lat="45.6797416" lon="9.451497"><ele>259.20000000000005</ele><time>2026-04-28T10:08:48.427Z</time></trkpt><trkpt lat="45.6798121" lon="9.451501"><ele>259.8</ele><time>2026-04-28T10:08:49.427Z</time></trkpt><trkpt lat="45.6799128" lon="9.4514884"><ele>260.40000000000003</ele><time>2026-04-28T10:08:51.427Z</time></trkpt><trkpt lat="45.6800223" lon="9.4515065"><ele>261.0</ele><time>2026-04-28T10:08:53.427Z</time></trkpt><trkpt lat="45.6801401" lon="9.4515009"><ele>261.0</ele><time>2026-04-28T10:08:55.427Z</time></trkpt><trkpt lat="45.680241" lon="9.4515057"><ele>261.0</ele><time>2026-04-28T10:08:57.427Z</time></trkpt><trkpt lat="45.6803279" lon="9.4515023"><ele>261.0</ele><time>2026-04-28T10:08:59.427Z</time></trkpt><trkpt lat="45.6804064" lon="9.4514925"><ele>261.0</ele><time>2026-04-28T10:09:01.427Z</time></trkpt><trkpt lat="45.6804742" lon="9.4514415"><ele>261.0</ele><time>2026-04-28T10:09:03.427Z</time></trkpt><trkpt lat="45.680571" lon="9.4514434"><ele>261.0</ele><time>2026-04-28T10:09:05.427Z</time></trkpt><trkpt lat="45.6806652" lon="9.4514547"><ele>261.40000000000003</ele><time>2026-04-28T10:09:07.427Z</time></trkpt><trkpt lat="45.6808052" lon="9.4514653"><ele>261.8</ele><time>2026-04-28T10:09:10.427Z</time></trkpt><trkpt lat="45.6808823" lon="9.4514706"><ele>262.20000000000005</ele><time>2026-04-28T10:09:12.427Z</time></trkpt><trkpt lat="45.6809689" lon="9.4514656"><ele>262.6</ele><time>2026-04-28T10:09:14.427Z</time></trkpt><trkpt lat="45.6810481" lon="9.4514574"><ele>263.0</ele><time>2026-04-28T10:09:16.426Z</time></trkpt><trkpt lat="45.6812673" lon="9.4514421"><ele>262.0</ele><time>2026-04-28T10:09:21.427Z</time></trkpt><trkpt lat="45.6813892" lon="9.4513906"><ele>261.0</ele><time>2026-04-28T10:09:25.427Z</time></trkpt><trkpt lat="45.681445" lon="9.4513074"><ele>260.0</ele><time>2026-04-28T10:09:27.427Z</time></trkpt><trkpt lat="45.6815204" lon="9.4512366"><ele>259.0</ele><time>2026-04-28T10:09:29.427Z</time></trkpt><trkpt lat="45.6815808" lon="9.4511985"><ele>258.0</ele><time>2026-04-28T10:09:30.427Z</time></trkpt><trkpt lat="45.6816454" lon="9.4510942"><ele>258.0</ele><time>2026-04-28T10:09:32.427Z</time></trkpt><trkpt lat="45.6817176" lon="9.4509746"><ele>258.0</ele><time>2026-04-28T10:09:34.427Z</time></trkpt><trkpt lat="45.6817912" lon="9.4508389"><ele>258.0</ele><time>2026-04-28T10:09:36.427Z</time></trkpt><trkpt lat="45.681864" lon="9.4506968"><ele>258.0</ele><time>2026-04-28T10:09:38.427Z</time></trkpt><trkpt lat="45.6819023" lon="9.4506206"><ele>258.0</ele><time>2026-04-28T10:09:39.427Z</time></trkpt><trkpt lat="45.6819386" lon="9.4505417"><ele>257.0</ele><time>2026-04-28T10:09:40.427Z</time></trkpt><trkpt lat="45.6819765" lon="9.4504448"><ele>256.0</ele><time>2026-04-28T10:09:41.427Z</time></trkpt><trkpt lat="45.6820089" lon="9.4503427"><ele>255.0</ele><time>2026-04-28T10:09:42.427Z</time></trkpt><trkpt lat="45.682054" lon="9.4502247"><ele>254.0</ele><time>2026-04-28T10:09:44.427Z</time></trkpt><trkpt lat="45.6820892" lon="9.4501418"><ele>253.0</ele><time>2026-04-28T10:09:45.427Z</time></trkpt><trkpt lat="45.6821468" lon="9.4499731"><ele>252.0</ele><time>2026-04-28T10:09:47.427Z</time></trkpt><trkpt lat="45.6821975" lon="9.4498223"><ele>252.0</ele><time>2026-04-28T10:09:49.427Z</time></trkpt><trkpt lat="45.6822455" lon="9.4496757"><ele>252.0</ele><time>2026-04-28T10:09:51.427Z</time></trkpt><trkpt lat="45.6822915" lon="9.4495305"><ele>252.0</ele><time>2026-04-28T10:09:53.427Z</time></trkpt><trkpt lat="45.6823477" lon="9.4493637"><ele>252.0</ele><time>2026-04-28T10:09:55.427Z</time></trkpt><trkpt lat="45.6823959" lon="9.4492168"><ele>255.0</ele><time>2026-04-28T10:09:57.427Z</time></trkpt><trkpt lat="45.682433" lon="9.4490788"><ele>258.0</ele><time>2026-04-28T10:09:59.427Z</time></trkpt><trkpt lat="45.6824893" lon="9.4489001"><ele>261.0</ele><time>2026-04-28T10:10:01.427Z</time></trkpt><trkpt lat="45.6825287" lon="9.4487533"><ele>264.0</ele><time>2026-04-28T10:10:03.427Z</time></trkpt><trkpt lat="45.6825728" lon="9.4486171"><ele>264.0</ele><time>2026-04-28T10:10:05.427Z</time></trkpt><trkpt lat="45.6826303" lon="9.4484565"><ele>264.0</ele><time>2026-04-28T10:10:07.427Z</time></trkpt><trkpt lat="45.6826683" lon="9.4483589"><ele>264.0</ele><time>2026-04-28T10:10:08.427Z</time></trkpt><trkpt lat="45.682727" lon="9.448237"><ele>264.0</ele><time>2026-04-28T10:10:10.427Z</time></trkpt><trkpt lat="45.682751" lon="9.4481533"><ele>264.0</ele><time>2026-04-28T10:10:11.427Z</time></trkpt><trkpt lat="45.6827753" lon="9.448027"><ele>264.4</ele><time>2026-04-28T10:10:13.427Z</time></trkpt><trkpt lat="45.6828173" lon="9.4479269"><ele>264.79999999999995</ele><time>2026-04-28T10:10:14.427Z</time></trkpt><trkpt lat="45.6828568" lon="9.4478115"><ele>265.20000000000005</ele><time>2026-04-28T10:10:15.427Z</time></trkpt><trkpt lat="45.6828939" lon="9.4476659"><ele>265.6</ele><time>2026-04-28T10:10:17.427Z</time></trkpt><trkpt lat="45.6829206" lon="9.4475133"><ele>266.0</ele><time>2026-04-28T10:10:19.427Z</time></trkpt><trkpt lat="45.6829222" lon="9.4473601"><ele>266.0</ele><time>2026-04-28T10:10:21.426Z</time></trkpt><trkpt lat="45.6829405" lon="9.4472312"><ele>266.0</ele><time>2026-04-28T10:10:23.427Z</time></trkpt><trkpt lat="45.6829429" lon="9.4470737"><ele>266.0</ele><time>2026-04-28T10:10:25.427Z</time></trkpt><trkpt lat="45.6829401" lon="9.4469376"><ele>266.0</ele><time>2026-04-28T10:10:27.427Z</time></trkpt><trkpt lat="45.6829348" lon="9.4467966"><ele>266.0</ele><time>2026-04-28T10:10:29.427Z</time></trkpt><trkpt lat="45.6829596" lon="9.4466286"><ele>266.0</ele><time>2026-04-28T10:10:31.427Z</time></trkpt><trkpt lat="45.6829683" lon="9.4465322"><ele>266.0</ele><time>2026-04-28T10:10:32.427Z</time></trkpt><trkpt lat="45.6829695" lon="9.4463705"><ele>266.0</ele><time>2026-04-28T10:10:34.427Z</time></trkpt><trkpt lat="45.6829783" lon="9.4462711"><ele>266.0</ele><time>2026-04-28T10:10:35.427Z</time></trkpt><trkpt lat="45.6829926" lon="9.446134"><ele>266.0</ele><time>2026-04-28T10:10:37.427Z</time></trkpt><trkpt lat="45.6829848" lon="9.4459835"><ele>266.6</ele><time>2026-04-28T10:10:39.426Z</time></trkpt><trkpt lat="45.6829999" lon="9.4458349"><ele>267.20000000000005</ele><time>2026-04-28T10:10:41.427Z</time></trkpt><trkpt lat="45.6830287" lon="9.4457261"><ele>267.79999999999995</ele><time>2026-04-28T10:10:42.427Z</time></trkpt><trkpt lat="45.683052" lon="9.4456293"><ele>268.4</ele><time>2026-04-28T10:10:43.427Z</time></trkpt><trkpt lat="45.6830446" lon="9.4454798"><ele>269.0</ele><time>2026-04-28T10:10:45.427Z</time></trkpt><trkpt lat="45.6830421" lon="9.4453266"><ele>269.59999999999997</ele><time>2026-04-28T10:10:47.427Z</time></trkpt><trkpt lat="45.683051" lon="9.4451819"><ele>270.2</ele><time>2026-04-28T10:10:49.427Z</time></trkpt><trkpt lat="45.6830586" lon="9.4450256"><ele>270.79999999999995</ele><time>2026-04-28T10:10:51.427Z</time></trkpt><trkpt lat="45.6830698" lon="9.4448615"><ele>271.4</ele><time>2026-04-28T10:10:53.427Z</time></trkpt><trkpt lat="45.6830829" lon="9.4446898"><ele>272.0</ele><time>2026-04-28T10:10:55.427Z</time></trkpt><trkpt lat="45.6830995" lon="9.444589"><ele>272.4</ele><time>2026-04-28T10:10:57.427Z</time></trkpt><trkpt lat="45.6831911" lon="9.4445058"><ele>272.79999999999995</ele><time>2026-04-28T10:11:00.427Z</time></trkpt><trkpt lat="45.6832654" lon="9.444485"><ele>273.2</ele><time>2026-04-28T10:11:02.427Z</time></trkpt><trkpt lat="45.6833702" lon="9.4444645"><ele>273.59999999999997</ele><time>2026-04-28T10:11:04.427Z</time></trkpt><trkpt lat="45.6834839" lon="9.4444777"><ele>274.0</ele><time>2026-04-28T10:11:06.427Z</time></trkpt><trkpt lat="45.6835617" lon="9.4444724"><ele>274.0</ele><time>2026-04-28T10:11:08.427Z</time></trkpt><trkpt lat="45.6836365" lon="9.444512"><ele>274.0</ele><time>2026-04-28T10:11:11.427Z</time></trkpt><trkpt lat="45.683665" lon="9.444689"><ele>274.0</ele><time>2026-04-28T10:11:14.427Z</time></trkpt><trkpt lat="45.6836728" lon="9.4447899"><ele>274.0</ele><time>2026-04-28T10:11:15.427Z</time></trkpt><trkpt lat="45.6836899" lon="9.4449014"><ele>274.0</ele><time>2026-04-28T10:11:16.427Z</time></trkpt><trkpt lat="45.6837114" lon="9.4450566"><ele>273.59999999999997</ele><time>2026-04-28T10:11:18.427Z</time></trkpt><trkpt lat="45.6837314" lon="9.4452146"><ele>273.2</ele><time>2026-04-28T10:11:20.427Z</time></trkpt><trkpt lat="45.6837426" lon="9.4453074"><ele>272.79999999999995</ele><time>2026-04-28T10:11:21.427Z</time></trkpt><trkpt lat="45.683752" lon="9.4454505"><ele>272.4</ele><time>2026-04-28T10:11:23.427Z</time></trkpt><trkpt lat="45.6837342" lon="9.4456291"><ele>272.0</ele><time>2026-04-28T10:11:25.427Z</time></trkpt><trkpt lat="45.6837284" lon="9.4457247"><ele>271.5</ele><time>2026-04-28T10:11:26.426Z</time></trkpt><trkpt lat="45.6837452" lon="9.4458315"><ele>271.0</ele><time>2026-04-28T10:11:28.427Z</time></trkpt><trkpt lat="45.6837418" lon="9.4459224"><ele>270.5</ele><time>2026-04-28T10:11:30.426Z</time></trkpt><trkpt lat="45.6838369" lon="9.4459343"><ele>270.0</ele><time>2026-04-28T10:11:32.427Z</time></trkpt><trkpt lat="45.6839393" lon="9.4459853"><ele>269.5</ele><time>2026-04-28T10:11:34.427Z</time></trkpt><trkpt lat="45.6840214" lon="9.4460167"><ele>269.0</ele><time>2026-04-28T10:11:36.427Z</time></trkpt><trkpt lat="45.6840929" lon="9.4460232"><ele>269.0</ele><time>2026-04-28T10:11:38.427Z</time></trkpt><trkpt lat="45.6841995" lon="9.4460411"><ele>269.0</ele><time>2026-04-28T10:11:40.427Z</time></trkpt><trkpt lat="45.6843128" lon="9.4460656"><ele>269.0</ele><time>2026-04-28T10:11:42.427Z</time></trkpt><trkpt lat="45.684406" lon="9.4460536"><ele>269.0</ele><time>2026-04-28T10:11:44.427Z</time></trkpt><trkpt lat="45.6845112" lon="9.4460448"><ele>269.0</ele><time>2026-04-28T10:11:46.427Z</time></trkpt><trkpt lat="45.6845928" lon="9.4459564"><ele>269.0</ele><time>2026-04-28T10:11:49.427Z</time></trkpt><trkpt lat="45.6847397" lon="9.4458048"><ele>269.0</ele><time>2026-04-28T10:11:52.427Z</time></trkpt><trkpt lat="45.6847353" lon="9.4456128"><ele>269.0</ele><time>2026-04-28T10:11:55.427Z</time></trkpt><trkpt lat="45.6847358" lon="9.4454643"><ele>269.0</ele><time>2026-04-28T10:11:57.427Z</time></trkpt><trkpt lat="45.6847282" lon="9.4453171"><ele>269.6666666666667</ele><time>2026-04-28T10:11:59.427Z</time></trkpt><trkpt lat="45.6847134" lon="9.4452117"><ele>270.33333333333337</ele><time>2026-04-28T10:12:01.427Z</time></trkpt><trkpt lat="45.6847055" lon="9.4451172"><ele>271.0</ele><time>2026-04-28T10:12:03.427Z</time></trkpt><trkpt lat="45.684682" lon="9.4449906"><ele>271.6666666666667</ele><time>2026-04-28T10:12:05.427Z</time></trkpt><trkpt lat="45.6846934" lon="9.444874"><ele>272.3333333333333</ele><time>2026-04-28T10:12:07.427Z</time></trkpt><trkpt lat="45.6847704" lon="9.4448086"><ele>273.0</ele><time>2026-04-28T10:12:10.427Z</time></trkpt><trkpt lat="45.6848547" lon="9.4448079"><ele>273.0</ele><time>2026-04-28T10:12:12.427Z</time></trkpt><trkpt lat="45.6849333" lon="9.4448093"><ele>273.0</ele><time>2026-04-28T10:12:14.427Z</time></trkpt><trkpt lat="45.685011" lon="9.4448189"><ele>273.0</ele><time>2026-04-28T10:12:16.427Z</time></trkpt><trkpt lat="45.685126" lon="9.4448548"><ele>273.0</ele><time>2026-04-28T10:12:18.427Z</time></trkpt><trkpt lat="45.6852117" lon="9.4448782"><ele>273.0</ele><time>2026-04-28T10:12:20.427Z</time></trkpt><trkpt lat="45.6853155" lon="9.4449265"><ele>272.8</ele><time>2026-04-28T10:12:22.426Z</time></trkpt><trkpt lat="45.6854314" lon="9.4449587"><ele>272.6</ele><time>2026-04-28T10:12:24.427Z</time></trkpt><trkpt lat="45.6855247" lon="9.4449765"><ele>272.4</ele><time>2026-04-28T10:12:26.427Z</time></trkpt><trkpt lat="45.6856273" lon="9.4450024"><ele>272.2</ele><time>2026-04-28T10:12:28.427Z</time></trkpt><trkpt lat="45.6857365" lon="9.445037"><ele>272.0</ele><time>2026-04-28T10:12:30.427Z</time></trkpt><trkpt lat="45.6858503" lon="9.4450785"><ele>272.0</ele><time>2026-04-28T10:12:32.427Z</time></trkpt><trkpt lat="45.6859609" lon="9.4451164"><ele>272.0</ele><time>2026-04-28T10:12:34.427Z</time></trkpt><trkpt lat="45.68607" lon="9.445149"><ele>272.0</ele><time>2026-04-28T10:12:36.427Z</time></trkpt><trkpt lat="45.6862423" lon="9.4451928"><ele>272.0</ele><time>2026-04-28T10:12:40.438Z</time></trkpt><trkpt lat="45.6863238" lon="9.4452506"><ele>272.4</ele><time>2026-04-28T10:12:42.435Z</time></trkpt><trkpt lat="45.6864398" lon="9.445275"><ele>272.79999999999995</ele><time>2026-04-28T10:12:44.435Z</time></trkpt><trkpt lat="45.6865093" lon="9.4452779"><ele>273.2</ele><time>2026-04-28T10:12:45.438Z</time></trkpt><trkpt lat="45.6866346" lon="9.4452774"><ele>273.59999999999997</ele><time>2026-04-28T10:12:47.439Z</time></trkpt><trkpt lat="45.6867393" lon="9.4452419"><ele>274.0</ele><time>2026-04-28T10:12:49.439Z</time></trkpt><trkpt lat="45.6868378" lon="9.445197"><ele>274.2</ele><time>2026-04-28T10:12:51.439Z</time></trkpt><trkpt lat="45.6869516" lon="9.4451685"><ele>274.4</ele><time>2026-04-28T10:12:53.438Z</time></trkpt><trkpt lat="45.6870689" lon="9.4451511"><ele>274.6</ele><time>2026-04-28T10:12:55.439Z</time></trkpt><trkpt lat="45.6871661" lon="9.4450983"><ele>274.8</ele><time>2026-04-28T10:12:57.439Z</time></trkpt><trkpt lat="45.687259" lon="9.4450146"><ele>275.0</ele><time>2026-04-28T10:12:59.439Z</time></trkpt><trkpt lat="45.6873137" lon="9.4449264"><ele>275.0</ele><time>2026-04-28T10:13:00.439Z</time></trkpt><trkpt lat="45.6874309" lon="9.4448876"><ele>275.0</ele><time>2026-04-28T10:13:02.439Z</time></trkpt><trkpt lat="45.6875318" lon="9.4448104"><ele>275.0</ele><time>2026-04-28T10:13:04.439Z</time></trkpt><trkpt lat="45.6876111" lon="9.4447386"><ele>275.0</ele><time>2026-04-28T10:13:06.439Z</time></trkpt><trkpt lat="45.6876837" lon="9.444712"><ele>275.0</ele><time>2026-04-28T10:13:07.439Z</time></trkpt><trkpt lat="45.6877858" lon="9.4446294"><ele>275.2</ele><time>2026-04-28T10:13:09.439Z</time></trkpt><trkpt lat="45.6878772" lon="9.444537"><ele>275.4</ele><time>2026-04-28T10:13:11.439Z</time></trkpt><trkpt lat="45.6879699" lon="9.4444609"><ele>275.6</ele><time>2026-04-28T10:13:13.438Z</time></trkpt><trkpt lat="45.6880505" lon="9.4443678"><ele>275.8</ele><time>2026-04-28T10:13:15.439Z</time></trkpt><trkpt lat="45.6881147" lon="9.4443207"><ele>276.0</ele><time>2026-04-28T10:13:16.439Z</time></trkpt><trkpt lat="45.6882116" lon="9.4442272"><ele>276.0</ele><time>2026-04-28T10:13:18.439Z</time></trkpt><trkpt lat="45.6882849" lon="9.4441898"><ele>276.0</ele><time>2026-04-28T10:13:19.439Z</time></trkpt><trkpt lat="45.6883852" lon="9.4441066"><ele>276.0</ele><time>2026-04-28T10:13:21.439Z</time></trkpt><trkpt lat="45.6884561" lon="9.444082"><ele>276.0</ele><time>2026-04-28T10:13:22.439Z</time></trkpt><trkpt lat="45.6885149" lon="9.4440471"><ele>276.0</ele><time>2026-04-28T10:13:23.439Z</time></trkpt><trkpt lat="45.6886126" lon="9.4439477"><ele>276.2</ele><time>2026-04-28T10:13:25.439Z</time></trkpt><trkpt lat="45.6886728" lon="9.4439028"><ele>276.40000000000003</ele><time>2026-04-28T10:13:26.439Z</time></trkpt><trkpt lat="45.6887688" lon="9.443778"><ele>276.6</ele><time>2026-04-28T10:13:28.439Z</time></trkpt><trkpt lat="45.6888905" lon="9.4437138"><ele>276.8</ele><time>2026-04-28T10:13:30.439Z</time></trkpt><trkpt lat="45.6889757" lon="9.4435986"><ele>277.0</ele><time>2026-04-28T10:13:32.439Z</time></trkpt><trkpt lat="45.6890394" lon="9.4435564"><ele>277.0</ele><time>2026-04-28T10:13:33.439Z</time></trkpt><trkpt lat="45.6891238" lon="9.4434632"><ele>277.0</ele><time>2026-04-28T10:13:35.439Z</time></trkpt><trkpt lat="45.6891948" lon="9.4433795"><ele>277.0</ele><time>2026-04-28T10:13:37.439Z</time></trkpt><trkpt lat="45.6892724" lon="9.4433385"><ele>277.0</ele><time>2026-04-28T10:13:38.438Z</time></trkpt><trkpt lat="45.6893746" lon="9.4432452"><ele>277.0</ele><time>2026-04-28T10:13:40.439Z</time></trkpt><trkpt lat="45.689457" lon="9.4431519"><ele>277.0</ele><time>2026-04-28T10:13:42.439Z</time></trkpt><trkpt lat="45.6895462" lon="9.4430526"><ele>277.0</ele><time>2026-04-28T10:13:44.439Z</time></trkpt><trkpt lat="45.6896468" lon="9.442978"><ele>277.0</ele><time>2026-04-28T10:13:46.439Z</time></trkpt><trkpt lat="45.6897549" lon="9.4429048"><ele>277.0</ele><time>2026-04-28T10:13:48.439Z</time></trkpt><trkpt lat="45.6898123" lon="9.4428651"><ele>277.0</ele><time>2026-04-28T10:13:49.439Z</time></trkpt><trkpt lat="45.6899003" lon="9.4427886"><ele>277.25</ele><time>2026-04-28T10:13:51.439Z</time></trkpt><trkpt lat="45.6899814" lon="9.4427705"><ele>277.5</ele><time>2026-04-28T10:13:52.439Z</time></trkpt><trkpt lat="45.6901147" lon="9.4426839"><ele>277.75</ele><time>2026-04-28T10:13:54.438Z</time></trkpt><trkpt lat="45.6902381" lon="9.4425936"><ele>278.0</ele><time>2026-04-28T10:13:56.439Z</time></trkpt><trkpt lat="45.6903425" lon="9.4425193"><ele>278.0</ele><time>2026-04-28T10:13:58.439Z</time></trkpt><trkpt lat="45.6904146" lon="9.4424792"><ele>278.0</ele><time>2026-04-28T10:13:59.439Z</time></trkpt><trkpt lat="45.6905274" lon="9.4423913"><ele>278.0</ele><time>2026-04-28T10:14:01.439Z</time></trkpt><trkpt lat="45.6906386" lon="9.4423546"><ele>278.0</ele><time>2026-04-28T10:14:03.439Z</time></trkpt><trkpt lat="45.6907313" lon="9.4422654"><ele>278.0</ele><time>2026-04-28T10:14:05.439Z</time></trkpt><trkpt lat="45.6908287" lon="9.4422057"><ele>278.0</ele><time>2026-04-28T10:14:07.439Z</time></trkpt><trkpt lat="45.6908975" lon="9.4421743"><ele>278.0</ele><time>2026-04-28T10:14:08.439Z</time></trkpt><trkpt lat="45.6909875" lon="9.4421642"><ele>278.0</ele><time>2026-04-28T10:14:10.439Z</time></trkpt><trkpt lat="45.6910839" lon="9.4421195"><ele>278.0</ele><time>2026-04-28T10:14:12.439Z</time></trkpt><trkpt lat="45.6911967" lon="9.4421034"><ele>278.0</ele><time>2026-04-28T10:14:14.439Z</time></trkpt><trkpt lat="45.6913125" lon="9.4420885"><ele>277.0</ele><time>2026-04-28T10:14:16.439Z</time></trkpt><trkpt lat="45.6913758" lon="9.4420586"><ele>276.0</ele><time>2026-04-28T10:14:17.439Z</time></trkpt><trkpt lat="45.6913924" lon="9.4419221"><ele>275.0</ele><time>2026-04-28T10:14:18.439Z</time></trkpt><trkpt lat="45.6914651" lon="9.4417825"><ele>274.0</ele><time>2026-04-28T10:14:20.439Z</time></trkpt><trkpt lat="45.691533" lon="9.4417736"><ele>273.0</ele><time>2026-04-28T10:14:21.439Z</time></trkpt><trkpt lat="45.6916316" lon="9.4417005"><ele>273.0</ele><time>2026-04-28T10:14:23.439Z</time></trkpt><trkpt lat="45.6917056" lon="9.4417135"><ele>273.0</ele><time>2026-04-28T10:14:24.439Z</time></trkpt><trkpt lat="45.691791" lon="9.4417268"><ele>273.0</ele><time>2026-04-28T10:14:25.439Z</time></trkpt><trkpt lat="45.6918673" lon="9.4417535"><ele>273.0</ele><time>2026-04-28T10:14:27.439Z</time></trkpt><trkpt lat="45.691963" lon="9.4417898"><ele>273.0</ele><time>2026-04-28T10:14:29.438Z</time></trkpt><trkpt lat="45.6920723" lon="9.4418034"><ele>273.0</ele><time>2026-04-28T10:14:31.439Z</time></trkpt><trkpt lat="45.6922039" lon="9.4417815"><ele>273.5</ele><time>2026-04-28T10:14:34.439Z</time></trkpt><trkpt lat="45.69227" lon="9.4417712"><ele>274.0</ele><time>2026-04-28T10:14:35.439Z</time></trkpt><trkpt lat="45.6924618" lon="9.4417742"><ele>274.5</ele><time>2026-04-28T10:14:39.439Z</time></trkpt><trkpt lat="45.6925579" lon="9.4417471"><ele>275.0</ele><time>2026-04-28T10:14:41.439Z</time></trkpt><trkpt lat="45.6926645" lon="9.4417191"><ele>275.0</ele><time>2026-04-28T10:14:43.439Z</time></trkpt><trkpt lat="45.6927432" lon="9.4417067"><ele>275.0</ele><time>2026-04-28T10:14:44.439Z</time></trkpt><trkpt lat="45.6928219" lon="9.4416908"><ele>275.0</ele><time>2026-04-28T10:14:45.439Z</time></trkpt><trkpt lat="45.6929259" lon="9.4416611"><ele>275.0</ele><time>2026-04-28T10:14:47.439Z</time></trkpt><trkpt lat="45.6929897" lon="9.4416469"><ele>275.0</ele><time>2026-04-28T10:14:48.438Z</time></trkpt><trkpt lat="45.6930875" lon="9.4416294"><ele>275.0</ele><time>2026-04-28T10:14:50.439Z</time></trkpt><trkpt lat="45.6931916" lon="9.4415902"><ele>276.2</ele><time>2026-04-28T10:14:52.439Z</time></trkpt><trkpt lat="45.6932743" lon="9.4415649"><ele>277.4</ele><time>2026-04-28T10:14:54.439Z</time></trkpt><trkpt lat="45.6933398" lon="9.4415401"><ele>278.6</ele><time>2026-04-28T10:14:56.439Z</time></trkpt><trkpt lat="45.693411" lon="9.4415837"><ele>279.8</ele><time>2026-04-28T10:27:22.441Z</time></trkpt><trkpt lat="45.6934876" lon="9.4415353"><ele>281.0</ele><time>2026-04-28T10:28:03.44Z</time></trkpt><trkpt lat="45.6936894" lon="9.4414637"><ele>281.1666666666667</ele><time>2026-04-28T10:28:05.441Z</time></trkpt><trkpt lat="45.6937706" lon="9.4414305"><ele>281.33333333333337</ele><time>2026-04-28T10:28:07.441Z</time></trkpt><trkpt lat="45.6938372" lon="9.4414003"><ele>281.5</ele><time>2026-04-28T10:28:09.441Z</time></trkpt><trkpt lat="45.6939171" lon="9.4413584"><ele>281.6666666666667</ele><time>2026-04-28T10:28:11.441Z</time></trkpt><trkpt lat="45.6939849" lon="9.4413199"><ele>281.8333333333333</ele><time>2026-04-28T10:28:13.441Z</time></trkpt><trkpt lat="45.6940472" lon="9.4412869"><ele>282.0</ele><time>2026-04-28T10:28:15.441Z</time></trkpt><trkpt lat="45.6941416" lon="9.4412375"><ele>282.0</ele><time>2026-04-28T10:28:18.441Z</time></trkpt><trkpt lat="45.6942125" lon="9.4411996"><ele>282.0</ele><time>2026-04-28T10:28:20.441Z</time></trkpt><trkpt lat="45.6942796" lon="9.4411694"><ele>282.0</ele><time>2026-04-28T10:28:22.441Z</time></trkpt><trkpt lat="45.6943504" lon="9.4411568"><ele>282.0</ele><time>2026-04-28T10:28:24.441Z</time></trkpt><trkpt lat="45.6944177" lon="9.4411326"><ele>282.0</ele><time>2026-04-28T10:28:26.441Z</time></trkpt><trkpt lat="45.6944797" lon="9.4411087"><ele>282.0</ele><time>2026-04-28T10:28:28.441Z</time></trkpt><trkpt lat="45.6945564" lon="9.4410798"><ele>282.0</ele><time>2026-04-28T10:28:30.441Z</time></trkpt><trkpt lat="45.6946244" lon="9.4410518"><ele>282.57142857142856</ele><time>2026-04-28T10:28:32.441Z</time></trkpt><trkpt lat="45.6946919" lon="9.4410241"><ele>283.1428571428571</ele><time>2026-04-28T10:28:34.441Z</time></trkpt><trkpt lat="45.6947656" lon="9.440996"><ele>283.71428571428567</ele><time>2026-04-28T10:28:36.441Z</time></trkpt><trkpt lat="45.6948372" lon="9.44097"><ele>284.2857142857143</ele><time>2026-04-28T10:28:38.441Z</time></trkpt><trkpt lat="45.6949081" lon="9.4409528"><ele>284.85714285714283</ele><time>2026-04-28T10:28:40.441Z</time></trkpt><trkpt lat="45.6949818" lon="9.4409254"><ele>285.4285714285714</ele><time>2026-04-28T10:28:42.441Z</time></trkpt><trkpt lat="45.6950543" lon="9.4409109"><ele>286.0</ele><time>2026-04-28T10:28:44.441Z</time></trkpt><trkpt lat="45.6951243" lon="9.4408945"><ele>286.0</ele><time>2026-04-28T10:28:46.441Z</time></trkpt><trkpt lat="45.6952019" lon="9.4408954"><ele>286.0</ele><time>2026-04-28T10:28:48.441Z</time></trkpt><trkpt lat="45.6952708" lon="9.4408982"><ele>286.0</ele><time>2026-04-28T10:28:50.441Z</time></trkpt><trkpt lat="45.6953331" lon="9.4409133"><ele>286.0</ele><time>2026-04-28T10:28:52.441Z</time></trkpt><trkpt lat="45.6954185" lon="9.4409334"><ele>286.0</ele><time>2026-04-28T10:28:55.441Z</time></trkpt><trkpt lat="45.6955463" lon="9.440929"><ele>286.0</ele><time>2026-04-28T10:29:00.441Z</time></trkpt><trkpt lat="45.6956293" lon="9.4409228"><ele>286.85714285714283</ele><time>2026-04-28T10:29:03.44Z</time></trkpt><trkpt lat="45.6956952" lon="9.440919"><ele>287.7142857142857</ele><time>2026-04-28T10:29:06.441Z</time></trkpt><trkpt lat="45.6957712" lon="9.4409041"><ele>288.57142857142856</ele><time>2026-04-28T10:29:10.441Z</time></trkpt><trkpt lat="45.6958375" lon="9.4408995"><ele>289.42857142857144</ele><time>2026-04-28T10:29:12.441Z</time></trkpt><trkpt lat="45.6959004" lon="9.4408912"><ele>290.2857142857143</ele><time>2026-04-28T10:29:14.441Z</time></trkpt><trkpt lat="45.695985" lon="9.4408718"><ele>291.1428571428571</ele><time>2026-04-28T10:29:17.441Z</time></trkpt><trkpt lat="45.6960534" lon="9.4408652"><ele>292.0</ele><time>2026-04-28T10:29:19.441Z</time></trkpt><trkpt lat="45.6961227" lon="9.4408608"><ele>292.66666666666663</ele><time>2026-04-28T10:29:21.441Z</time></trkpt><trkpt lat="45.6962122" lon="9.440861"><ele>293.3333333333333</ele><time>2026-04-28T10:29:24.441Z</time></trkpt><trkpt lat="45.6962996" lon="9.4408685"><ele>294.0</ele><time>2026-04-28T10:29:27.441Z</time></trkpt><trkpt lat="45.6963875" lon="9.4408577"><ele>294.6666666666667</ele><time>2026-04-28T10:29:30.441Z</time></trkpt><trkpt lat="45.6964754" lon="9.4408461"><ele>295.33333333333337</ele><time>2026-04-28T10:29:33.441Z</time></trkpt><trkpt lat="45.6965402" lon="9.4408391"><ele>296.0</ele><time>2026-04-28T10:29:35.441Z</time></trkpt><trkpt lat="45.6966308" lon="9.4408329"><ele>296.0</ele><time>2026-04-28T10:29:38.441Z</time></trkpt><trkpt lat="45.6967163" lon="9.4408265"><ele>296.0</ele><time>2026-04-28T10:29:41.44Z</time></trkpt><trkpt lat="45.6968012" lon="9.4408167"><ele>296.0</ele><time>2026-04-28T10:29:44.441Z</time></trkpt><trkpt lat="45.6968856" lon="9.440808"><ele>296.0</ele><time>2026-04-28T10:29:47.441Z</time></trkpt><trkpt lat="45.6969723" lon="9.4408013"><ele>296.0</ele><time>2026-04-28T10:29:50.441Z</time></trkpt><trkpt lat="45.6970596" lon="9.4407857"><ele>296.0</ele><time>2026-04-28T10:29:53.441Z</time></trkpt><trkpt lat="45.6971367" lon="9.4407625"><ele>297.8</ele><time>2026-04-28T10:29:56.441Z</time></trkpt><trkpt lat="45.6972091" lon="9.4407464"><ele>299.6</ele><time>2026-04-28T10:29:59.441Z</time></trkpt><trkpt lat="45.697272" lon="9.4407584"><ele>301.4</ele><time>2026-04-28T10:30:02.441Z</time></trkpt><trkpt lat="45.6972065" lon="9.4408125"><ele>303.2</ele><time>2026-04-28T10:30:11.441Z</time></trkpt><trkpt lat="45.6970869" lon="9.440884"><ele>305.0</ele><time>2026-04-28T10:30:13.441Z</time></trkpt><trkpt lat="45.696971" lon="9.4408957"><ele>303.2</ele><time>2026-04-28T10:30:15.441Z</time></trkpt><trkpt lat="45.6968642" lon="9.4408788"><ele>301.4</ele><time>2026-04-28T10:30:17.441Z</time></trkpt><trkpt lat="45.6967629" lon="9.4408901"><ele>299.6</ele><time>2026-04-28T10:30:19.441Z</time></trkpt><trkpt lat="45.6966846" lon="9.4408829"><ele>297.8</ele><time>2026-04-28T10:30:21.441Z</time></trkpt><trkpt lat="45.6965677" lon="9.4408828"><ele>296.0</ele><time>2026-04-28T10:30:23.44Z</time></trkpt><trkpt lat="45.6964714" lon="9.4409098"><ele>296.0</ele><time>2026-04-28T10:30:25.441Z</time></trkpt><trkpt lat="45.6963972" lon="9.4409175"><ele>296.0</ele><time>2026-04-28T10:30:26.441Z</time></trkpt><trkpt lat="45.696277" lon="9.4409262"><ele>296.0</ele><time>2026-04-28T10:30:28.441Z</time></trkpt><trkpt lat="45.6962112" lon="9.4409339"><ele>296.0</ele><time>2026-04-28T10:30:29.441Z</time></trkpt><trkpt lat="45.6961432" lon="9.4409401"><ele>296.0</ele><time>2026-04-28T10:30:30.441Z</time></trkpt><trkpt lat="45.696068" lon="9.4409459"><ele>296.0</ele><time>2026-04-28T10:30:31.441Z</time></trkpt><trkpt lat="45.6959997" lon="9.4409399"><ele>295.33333333333337</ele><time>2026-04-28T10:30:32.441Z</time></trkpt><trkpt lat="45.6959246" lon="9.4409465"><ele>294.6666666666667</ele><time>2026-04-28T10:30:33.441Z</time></trkpt><trkpt lat="45.6958579" lon="9.4409528"><ele>294.0</ele><time>2026-04-28T10:30:34.441Z</time></trkpt><trkpt lat="45.6957858" lon="9.4409545"><ele>293.3333333333333</ele><time>2026-04-28T10:30:35.441Z</time></trkpt><trkpt lat="45.6956635" lon="9.440968"><ele>292.66666666666663</ele><time>2026-04-28T10:30:37.441Z</time></trkpt><trkpt lat="45.6955814" lon="9.4409549"><ele>292.0</ele><time>2026-04-28T10:30:38.441Z</time></trkpt><trkpt lat="45.6954415" lon="9.4409301"><ele>292.0</ele><time>2026-04-28T10:30:40.441Z</time></trkpt><trkpt lat="45.6953771" lon="9.4409132"><ele>292.0</ele><time>2026-04-28T10:30:41.441Z</time></trkpt><trkpt lat="45.6953019" lon="9.4408982"><ele>292.0</ele><time>2026-04-28T10:30:42.441Z</time></trkpt><trkpt lat="45.6952138" lon="9.4408944"><ele>292.0</ele><time>2026-04-28T10:30:43.441Z</time></trkpt><trkpt lat="45.695085" lon="9.4409003"><ele>292.0</ele><time>2026-04-28T10:30:45.441Z</time></trkpt><trkpt lat="45.6950176" lon="9.440926"><ele>292.0</ele><time>2026-04-28T10:30:46.441Z</time></trkpt><trkpt lat="45.6949038" lon="9.4409759"><ele>290.8</ele><time>2026-04-28T10:30:48.441Z</time></trkpt><trkpt lat="45.6948357" lon="9.4410124"><ele>289.6</ele><time>2026-04-28T10:30:49.441Z</time></trkpt><trkpt lat="45.6947635" lon="9.44105"><ele>288.40000000000003</ele><time>2026-04-28T10:30:50.441Z</time></trkpt><trkpt lat="45.6946595" lon="9.441094"><ele>287.2</ele><time>2026-04-28T10:30:52.441Z</time></trkpt><trkpt lat="45.6945727" lon="9.4411193"><ele>286.0</ele><time>2026-04-28T10:30:54.441Z</time></trkpt><trkpt lat="45.6944687" lon="9.4411834"><ele>285.2</ele><time>2026-04-28T10:30:56.441Z</time></trkpt><trkpt lat="45.6943373" lon="9.4412115"><ele>284.40000000000003</ele><time>2026-04-28T10:30:58.441Z</time></trkpt><trkpt lat="45.6942202" lon="9.4411923"><ele>283.6</ele><time>2026-04-28T10:31:00.441Z</time></trkpt><trkpt lat="45.6941101" lon="9.4412279"><ele>282.8</ele><time>2026-04-28T10:31:02.441Z</time></trkpt><trkpt lat="45.6940455" lon="9.4412576"><ele>282.0</ele><time>2026-04-28T10:31:03.441Z</time></trkpt><trkpt lat="45.6939796" lon="9.4412724"><ele>282.2</ele><time>2026-04-28T10:31:04.441Z</time></trkpt><trkpt lat="45.6938749" lon="9.4413151"><ele>282.4</ele><time>2026-04-28T10:31:06.441Z</time></trkpt><trkpt lat="45.6937952" lon="9.441325"><ele>282.6</ele><time>2026-04-28T10:31:07.441Z</time></trkpt><trkpt lat="45.693663" lon="9.4413828"><ele>282.8</ele><time>2026-04-28T10:31:09.441Z</time></trkpt><trkpt lat="45.693603" lon="9.441419"><ele>283.0</ele><time>2026-04-28T10:31:10.441Z</time></trkpt><trkpt lat="45.6935314" lon="9.4414402"><ele>282.66666666666663</ele><time>2026-04-28T10:31:11.441Z</time></trkpt><trkpt lat="45.6934431" lon="9.4414669"><ele>282.3333333333333</ele><time>2026-04-28T10:31:12.441Z</time></trkpt><trkpt lat="45.6933617" lon="9.4414918"><ele>282.0</ele><time>2026-04-28T10:31:13.441Z</time></trkpt><trkpt lat="45.6932668" lon="9.4415468"><ele>281.6666666666667</ele><time>2026-04-28T10:31:14.441Z</time></trkpt><trkpt lat="45.6931782" lon="9.441592"><ele>281.33333333333337</ele><time>2026-04-28T10:31:15.441Z</time></trkpt><trkpt lat="45.6931007" lon="9.4416127"><ele>281.0</ele><time>2026-04-28T10:31:16.441Z</time></trkpt><trkpt lat="45.6929662" lon="9.4416492"><ele>281.0</ele><time>2026-04-28T10:31:18.441Z</time></trkpt><trkpt lat="45.6928886" lon="9.4416598"><ele>281.0</ele><time>2026-04-28T10:31:19.441Z</time></trkpt><trkpt lat="45.692806" lon="9.4416811"><ele>281.0</ele><time>2026-04-28T10:31:20.441Z</time></trkpt><trkpt lat="45.6927426" lon="9.4416972"><ele>281.0</ele><time>2026-04-28T10:31:21.441Z</time></trkpt><trkpt lat="45.6926546" lon="9.4417381"><ele>281.0</ele><time>2026-04-28T10:31:22.441Z</time></trkpt><trkpt lat="45.6925873" lon="9.4417519"><ele>281.0</ele><time>2026-04-28T10:31:23.441Z</time></trkpt><trkpt lat="45.6925051" lon="9.4417736"><ele>280.0</ele><time>2026-04-28T10:31:24.441Z</time></trkpt><trkpt lat="45.6923955" lon="9.4417691"><ele>279.0</ele><time>2026-04-28T10:31:26.441Z</time></trkpt><trkpt lat="45.6922798" lon="9.4417742"><ele>278.0</ele><time>2026-04-28T10:31:28.441Z</time></trkpt><trkpt lat="45.6922112" lon="9.44177"><ele>277.0</ele><time>2026-04-28T10:31:29.441Z</time></trkpt><trkpt lat="45.6921457" lon="9.441762"><ele>276.0</ele><time>2026-04-28T10:31:30.441Z</time></trkpt><trkpt lat="45.6920731" lon="9.4417413"><ele>275.0</ele><time>2026-04-28T10:31:31.441Z</time></trkpt><trkpt lat="45.6920017" lon="9.4417282"><ele>275.0</ele><time>2026-04-28T10:31:32.441Z</time></trkpt><trkpt lat="45.6919385" lon="9.4417161"><ele>275.0</ele><time>2026-04-28T10:31:33.441Z</time></trkpt><trkpt lat="45.6918074" lon="9.4417128"><ele>275.0</ele><time>2026-04-28T10:31:35.441Z</time></trkpt><trkpt lat="45.6917375" lon="9.4417063"><ele>275.0</ele><time>2026-04-28T10:31:36.441Z</time></trkpt><trkpt lat="45.6916313" lon="9.4417373"><ele>275.0</ele><time>2026-04-28T10:31:38.441Z</time></trkpt><trkpt lat="45.6915326" lon="9.4418242"><ele>274.83333333333337</ele><time>2026-04-28T10:31:40.441Z</time></trkpt><trkpt lat="45.6914729" lon="9.4419286"><ele>274.6666666666667</ele><time>2026-04-28T10:31:42.441Z</time></trkpt><trkpt lat="45.6913718" lon="9.4419918"><ele>274.5</ele><time>2026-04-28T10:31:44.441Z</time></trkpt><trkpt lat="45.6912723" lon="9.4420232"><ele>274.3333333333333</ele><time>2026-04-28T10:31:46.441Z</time></trkpt><trkpt lat="45.691203" lon="9.4420506"><ele>274.16666666666663</ele><time>2026-04-28T10:31:47.441Z</time></trkpt><trkpt lat="45.6911401" lon="9.4420678"><ele>274.0</ele><time>2026-04-28T10:31:48.441Z</time></trkpt><trkpt lat="45.6910643" lon="9.4420739"><ele>274.0</ele><time>2026-04-28T10:31:51.44Z</time></trkpt><trkpt lat="45.6909938" lon="9.4420987"><ele>274.0</ele><time>2026-04-28T10:31:52.441Z</time></trkpt><trkpt lat="45.6909033" lon="9.4421121"><ele>274.0</ele><time>2026-04-28T10:31:54.441Z</time></trkpt><trkpt lat="45.6908079" lon="9.4421851"><ele>274.0</ele><time>2026-04-28T10:31:56.441Z</time></trkpt><trkpt lat="45.6907223" lon="9.4422535"><ele>274.0</ele><time>2026-04-28T10:31:58.441Z</time></trkpt><trkpt lat="45.690639" lon="9.442279"><ele>273.8333333333333</ele><time>2026-04-28T10:31:59.441Z</time></trkpt><trkpt lat="45.6905486" lon="9.4423132"><ele>273.66666666666663</ele><time>2026-04-28T10:32:00.441Z</time></trkpt><trkpt lat="45.6904951" lon="9.4423721"><ele>273.5</ele><time>2026-04-28T10:32:01.441Z</time></trkpt><trkpt lat="45.6904145" lon="9.4424132"><ele>273.3333333333333</ele><time>2026-04-28T10:32:02.441Z</time></trkpt><trkpt lat="45.6903067" lon="9.4424908"><ele>273.1666666666667</ele><time>2026-04-28T10:32:04.441Z</time></trkpt><trkpt lat="45.6902522" lon="9.4425399"><ele>273.0</ele><time>2026-04-28T10:32:05.441Z</time></trkpt><trkpt lat="45.6901652" lon="9.4426341"><ele>273.0</ele><time>2026-04-28T10:32:07.441Z</time></trkpt><trkpt lat="45.6900898" lon="9.4427448"><ele>273.0</ele><time>2026-04-28T10:32:09.441Z</time></trkpt><trkpt lat="45.6899901" lon="9.4427985"><ele>273.0</ele><time>2026-04-28T10:32:10.441Z</time></trkpt><trkpt lat="45.6899344" lon="9.4428408"><ele>273.0</ele><time>2026-04-28T10:32:11.441Z</time></trkpt><trkpt lat="45.6898493" lon="9.4429295"><ele>273.0</ele><time>2026-04-28T10:32:13.44Z</time></trkpt><trkpt lat="45.6897918" lon="9.4429733"><ele>273.0</ele><time>2026-04-28T10:32:14.441Z</time></trkpt><trkpt lat="45.6897004" lon="9.443037"><ele>273.3333333333333</ele><time>2026-04-28T10:32:16.441Z</time></trkpt><trkpt lat="45.6896444" lon="9.4430874"><ele>273.6666666666667</ele><time>2026-04-28T10:32:17.441Z</time></trkpt><trkpt lat="45.6895878" lon="9.4431515"><ele>274.0</ele><time>2026-04-28T10:32:18.441Z</time></trkpt><trkpt lat="45.6895266" lon="9.4432124"><ele>274.33333333333337</ele><time>2026-04-28T10:32:19.441Z</time></trkpt><trkpt lat="45.6894157" lon="9.4432884"><ele>274.6666666666667</ele><time>2026-04-28T10:32:21.441Z</time></trkpt><trkpt lat="45.6893553" lon="9.4433352"><ele>275.0</ele><time>2026-04-28T10:32:22.441Z</time></trkpt><trkpt lat="45.6892915" lon="9.4433868"><ele>275.0</ele><time>2026-04-28T10:32:23.441Z</time></trkpt><trkpt lat="45.6891964" lon="9.4434599"><ele>275.0</ele><time>2026-04-28T10:32:25.441Z</time></trkpt><trkpt lat="45.6891372" lon="9.4435118"><ele>275.0</ele><time>2026-04-28T10:32:26.441Z</time></trkpt><trkpt lat="45.6890373" lon="9.4436047"><ele>275.0</ele><time>2026-04-28T10:32:28.441Z</time></trkpt><trkpt lat="45.6889655" lon="9.4436624"><ele>275.0</ele><time>2026-04-28T10:32:29.441Z</time></trkpt><trkpt lat="45.6888676" lon="9.4437735"><ele>275.2</ele><time>2026-04-28T10:32:31.441Z</time></trkpt><trkpt lat="45.6888006" lon="9.4438216"><ele>275.4</ele><time>2026-04-28T10:32:32.441Z</time></trkpt><trkpt lat="45.6887444" lon="9.4438679"><ele>275.6</ele><time>2026-04-28T10:32:33.441Z</time></trkpt><trkpt lat="45.688645" lon="9.4439366"><ele>275.8</ele><time>2026-04-28T10:32:35.44Z</time></trkpt><trkpt lat="45.6885332" lon="9.4440391"><ele>276.0</ele><time>2026-04-28T10:32:37.441Z</time></trkpt><trkpt lat="45.6884334" lon="9.4441304"><ele>276.0</ele><time>2026-04-28T10:32:39.441Z</time></trkpt><trkpt lat="45.6883679" lon="9.4441641"><ele>276.0</ele><time>2026-04-28T10:32:40.441Z</time></trkpt><trkpt lat="45.6883057" lon="9.4442106"><ele>276.0</ele><time>2026-04-28T10:32:41.441Z</time></trkpt><trkpt lat="45.6882319" lon="9.4442626"><ele>276.0</ele><time>2026-04-28T10:32:42.441Z</time></trkpt><trkpt lat="45.6881342" lon="9.4443756"><ele>276.0</ele><time>2026-04-28T10:32:44.441Z</time></trkpt><trkpt lat="45.6880742" lon="9.4444274"><ele>276.0</ele><time>2026-04-28T10:32:45.441Z</time></trkpt><trkpt lat="45.6879743" lon="9.4445218"><ele>276.0</ele><time>2026-04-28T10:32:47.441Z</time></trkpt><trkpt lat="45.6878595" lon="9.4446019"><ele>276.0</ele><time>2026-04-28T10:32:49.441Z</time></trkpt><trkpt lat="45.687777" lon="9.4446477"><ele>276.0</ele><time>2026-04-28T10:32:50.441Z</time></trkpt><trkpt lat="45.6876576" lon="9.4447454"><ele>276.0</ele><time>2026-04-28T10:32:52.441Z</time></trkpt><trkpt lat="45.687587" lon="9.4448062"><ele>276.0</ele><time>2026-04-28T10:32:53.441Z</time></trkpt><trkpt lat="45.6875228" lon="9.4448554"><ele>275.8</ele><time>2026-04-28T10:32:54.441Z</time></trkpt><trkpt lat="45.6874587" lon="9.4449038"><ele>275.6</ele><time>2026-04-28T10:32:55.441Z</time></trkpt><trkpt lat="45.6873563" lon="9.4449891"><ele>275.4</ele><time>2026-04-28T10:32:57.441Z</time></trkpt><trkpt lat="45.6872619" lon="9.4450793"><ele>275.2</ele><time>2026-04-28T10:32:59.441Z</time></trkpt><trkpt lat="45.6871749" lon="9.4451589"><ele>275.0</ele><time>2026-04-28T10:33:01.441Z</time></trkpt><trkpt lat="45.6871058" lon="9.4451828"><ele>275.0</ele><time>2026-04-28T10:33:02.441Z</time></trkpt><trkpt lat="45.6870309" lon="9.4452093"><ele>275.0</ele><time>2026-04-28T10:33:03.441Z</time></trkpt><trkpt lat="45.6869596" lon="9.4452278"><ele>275.0</ele><time>2026-04-28T10:33:04.441Z</time></trkpt><trkpt lat="45.6868949" lon="9.4452384"><ele>275.0</ele><time>2026-04-28T10:33:05.441Z</time></trkpt><trkpt lat="45.6868284" lon="9.4452467"><ele>275.0</ele><time>2026-04-28T10:33:06.441Z</time></trkpt><trkpt lat="45.6867555" lon="9.4452667"><ele>275.0</ele><time>2026-04-28T10:33:07.441Z</time></trkpt><trkpt lat="45.6866398" lon="9.4452563"><ele>274.8571428571429</ele><time>2026-04-28T10:33:09.44Z</time></trkpt><trkpt lat="45.6865723" lon="9.4452427"><ele>274.7142857142857</ele><time>2026-04-28T10:33:10.441Z</time></trkpt><trkpt lat="45.6864964" lon="9.4452384"><ele>274.57142857142856</ele><time>2026-04-28T10:33:11.441Z</time></trkpt><trkpt lat="45.6864228" lon="9.4452374"><ele>274.42857142857144</ele><time>2026-04-28T10:33:12.441Z</time></trkpt><trkpt lat="45.6863597" lon="9.4452208"><ele>274.2857142857143</ele><time>2026-04-28T10:33:13.441Z</time></trkpt><trkpt lat="45.6862913" lon="9.445211"><ele>274.14285714285717</ele><time>2026-04-28T10:33:14.441Z</time></trkpt><trkpt lat="45.6862249" lon="9.4451918"><ele>274.0</ele><time>2026-04-28T10:33:15.441Z</time></trkpt><trkpt lat="45.6861603" lon="9.4451801"><ele>273.7142857142857</ele><time>2026-04-28T10:33:16.441Z</time></trkpt><trkpt lat="45.686088" lon="9.4451726"><ele>273.42857142857144</ele><time>2026-04-28T10:33:17.441Z</time></trkpt><trkpt lat="45.6860233" lon="9.4451609"><ele>273.1428571428571</ele><time>2026-04-28T10:33:18.441Z</time></trkpt><trkpt lat="45.6859538" lon="9.445161"><ele>272.8571428571429</ele><time>2026-04-28T10:33:19.441Z</time></trkpt><trkpt lat="45.6858908" lon="9.4451327"><ele>272.57142857142856</ele><time>2026-04-28T10:33:20.441Z</time></trkpt><trkpt lat="45.6858211" lon="9.4451108"><ele>272.2857142857143</ele><time>2026-04-28T10:33:21.441Z</time></trkpt><trkpt lat="45.6857486" lon="9.4450935"><ele>272.0</ele><time>2026-04-28T10:33:22.441Z</time></trkpt><trkpt lat="45.6856832" lon="9.4450802"><ele>272.0</ele><time>2026-04-28T10:33:23.441Z</time></trkpt><trkpt lat="45.68562" lon="9.4450552"><ele>272.0</ele><time>2026-04-28T10:33:24.441Z</time></trkpt><trkpt lat="45.685543" lon="9.4450434"><ele>272.0</ele><time>2026-04-28T10:33:25.441Z</time></trkpt><trkpt lat="45.6854606" lon="9.4450262"><ele>272.0</ele><time>2026-04-28T10:33:26.441Z</time></trkpt><trkpt lat="45.6853887" lon="9.4449916"><ele>272.0</ele><time>2026-04-28T10:33:27.441Z</time></trkpt><trkpt lat="45.6852689" lon="9.4449703"><ele>272.0</ele><time>2026-04-28T10:33:29.441Z</time></trkpt><trkpt lat="45.6851984" lon="9.4449622"><ele>272.2</ele><time>2026-04-28T10:33:30.441Z</time></trkpt><trkpt lat="45.6850741" lon="9.4449266"><ele>272.4</ele><time>2026-04-28T10:33:32.441Z</time></trkpt><trkpt lat="45.6849518" lon="9.4448864"><ele>272.6</ele><time>2026-04-28T10:33:34.441Z</time></trkpt><trkpt lat="45.6848877" lon="9.4448583"><ele>272.8</ele><time>2026-04-28T10:33:35.441Z</time></trkpt><trkpt lat="45.684803" lon="9.4447638"><ele>273.0</ele><time>2026-04-28T10:33:37.441Z</time></trkpt><trkpt lat="45.6847672" lon="9.4446559"><ele>273.5</ele><time>2026-04-28T10:33:39.441Z</time></trkpt><trkpt lat="45.6847936" lon="9.4445468"><ele>274.0</ele><time>2026-04-28T10:33:41.441Z</time></trkpt><trkpt lat="45.6848276" lon="9.4444576"><ele>274.5</ele><time>2026-04-28T10:33:43.441Z</time></trkpt><trkpt lat="45.6848669" lon="9.4443581"><ele>275.0</ele><time>2026-04-28T10:33:46.441Z</time></trkpt><trkpt lat="45.6849073" lon="9.4442552"><ele>275.5</ele><time>2026-04-28T10:33:49.441Z</time></trkpt><trkpt lat="45.6849523" lon="9.4441622"><ele>276.0</ele><time>2026-04-28T10:33:52.441Z</time></trkpt><trkpt lat="45.6850033" lon="9.4440684"><ele>276.0</ele><time>2026-04-28T10:33:55.441Z</time></trkpt><trkpt lat="45.6850451" lon="9.4439816"><ele>276.0</ele><time>2026-04-28T10:33:58.441Z</time></trkpt><trkpt lat="45.6850915" lon="9.4439052"><ele>276.0</ele><time>2026-04-28T10:34:00.441Z</time></trkpt><trkpt lat="45.6851306" lon="9.4438311"><ele>276.0</ele><time>2026-04-28T10:34:02.441Z</time></trkpt><trkpt lat="45.6851744" lon="9.4437443"><ele>276.0</ele><time>2026-04-28T10:34:04.441Z</time></trkpt><trkpt lat="45.6852099" lon="9.4436589"><ele>276.0</ele><time>2026-04-28T10:34:06.441Z</time></trkpt><trkpt lat="45.6852387" lon="9.4435692"><ele>276.0</ele><time>2026-04-28T10:34:08.441Z</time></trkpt><trkpt lat="45.685273" lon="9.4434837"><ele>276.8571428571429</ele><time>2026-04-28T10:34:10.441Z</time></trkpt><trkpt lat="45.6853068" lon="9.4434059"><ele>277.7142857142857</ele><time>2026-04-28T10:34:12.441Z</time></trkpt><trkpt lat="45.6853547" lon="9.4433293"><ele>278.57142857142856</ele><time>2026-04-28T10:34:14.441Z</time></trkpt><trkpt lat="45.6853975" lon="9.4432608"><ele>279.42857142857144</ele><time>2026-04-28T10:34:16.441Z</time></trkpt><trkpt lat="45.6854477" lon="9.4431394"><ele>280.2857142857143</ele><time>2026-04-28T10:34:19.441Z</time></trkpt><trkpt lat="45.6854634" lon="9.4430491"><ele>281.14285714285717</ele><time>2026-04-28T10:34:21.441Z</time></trkpt><trkpt lat="45.6854894" lon="9.4429531"><ele>282.0</ele><time>2026-04-28T10:34:23.441Z</time></trkpt><trkpt lat="45.6855216" lon="9.4428517"><ele>282.0</ele><time>2026-04-28T10:34:25.441Z</time></trkpt><trkpt lat="45.6855539" lon="9.4427526"><ele>282.0</ele><time>2026-04-28T10:34:27.441Z</time></trkpt><trkpt lat="45.6855844" lon="9.4426424"><ele>282.0</ele><time>2026-04-28T10:34:29.441Z</time></trkpt><trkpt lat="45.6856126" lon="9.4425204"><ele>282.0</ele><time>2026-04-28T10:34:31.441Z</time></trkpt><trkpt lat="45.6856348" lon="9.4424089"><ele>282.0</ele><time>2026-04-28T10:34:33.441Z</time></trkpt><trkpt lat="45.685658" lon="9.4423026"><ele>282.0</ele><time>2026-04-28T10:34:35.441Z</time></trkpt><trkpt lat="45.6856839" lon="9.442165"><ele>282.2</ele><time>2026-04-28T10:34:37.441Z</time></trkpt><trkpt lat="45.6856967" lon="9.4420366"><ele>282.4</ele><time>2026-04-28T10:34:39.441Z</time></trkpt><trkpt lat="45.685709" lon="9.4419091"><ele>282.6</ele><time>2026-04-28T10:34:41.441Z</time></trkpt><trkpt lat="45.685766" lon="9.4418074"><ele>282.8</ele><time>2026-04-28T10:34:43.441Z</time></trkpt><trkpt lat="45.6858625" lon="9.4417665"><ele>283.0</ele><time>2026-04-28T10:34:45.441Z</time></trkpt><trkpt lat="45.6860119" lon="9.4418072"><ele>281.2</ele><time>2026-04-28T10:34:48.441Z</time></trkpt><trkpt lat="45.6861124" lon="9.4418461"><ele>279.4</ele><time>2026-04-28T10:34:50.441Z</time></trkpt><trkpt lat="45.6862242" lon="9.4418877"><ele>277.59999999999997</ele><time>2026-04-28T10:34:52.441Z</time></trkpt><trkpt lat="45.6863354" lon="9.4418623"><ele>275.8</ele><time>2026-04-28T10:34:54.441Z</time></trkpt><trkpt lat="45.6864143" lon="9.4417702"><ele>274.0</ele><time>2026-04-28T10:34:56.441Z</time></trkpt><trkpt lat="45.6864637" lon="9.4416401"><ele>274.0</ele><time>2026-04-28T10:34:58.441Z</time></trkpt><trkpt lat="45.686514" lon="9.4414917"><ele>274.0</ele><time>2026-04-28T10:35:00.441Z</time></trkpt><trkpt lat="45.6865556" lon="9.4414056"><ele>274.0</ele><time>2026-04-28T10:35:01.441Z</time></trkpt><trkpt lat="45.6866127" lon="9.4412486"><ele>274.0</ele><time>2026-04-28T10:35:03.44Z</time></trkpt><trkpt lat="45.6866367" lon="9.4411435"><ele>274.0</ele><time>2026-04-28T10:35:04.441Z</time></trkpt><trkpt lat="45.6866537" lon="9.4410469"><ele>272.8</ele><time>2026-04-28T10:35:05.441Z</time></trkpt><trkpt lat="45.6866867" lon="9.4409639"><ele>271.59999999999997</ele><time>2026-04-28T10:35:06.441Z</time></trkpt><trkpt lat="45.686742" lon="9.4407369"><ele>270.4</ele><time>2026-04-28T10:35:08.44Z</time></trkpt><trkpt lat="45.6867635" lon="9.4406195"><ele>269.2</ele><time>2026-04-28T10:35:09.441Z</time></trkpt><trkpt lat="45.6867863" lon="9.4404895"><ele>268.0</ele><time>2026-04-28T10:35:10.441Z</time></trkpt><trkpt lat="45.6868086" lon="9.4403831"><ele>267.8333333333333</ele><time>2026-04-28T10:35:11.441Z</time></trkpt><trkpt lat="45.686828" lon="9.4402812"><ele>267.66666666666663</ele><time>2026-04-28T10:35:12.441Z</time></trkpt><trkpt lat="45.6868473" lon="9.4401897"><ele>267.5</ele><time>2026-04-28T10:35:13.441Z</time></trkpt><trkpt lat="45.686877" lon="9.440067"><ele>267.3333333333333</ele><time>2026-04-28T10:35:14.441Z</time></trkpt><trkpt lat="45.6868931" lon="9.4399667"><ele>267.1666666666667</ele><time>2026-04-28T10:35:15.441Z</time></trkpt><trkpt lat="45.6869369" lon="9.4398674"><ele>267.0</ele><time>2026-04-28T10:35:16.441Z</time></trkpt><trkpt lat="45.6869631" lon="9.4397712"><ele>267.0</ele><time>2026-04-28T10:35:17.441Z</time></trkpt><trkpt lat="45.6869912" lon="9.4396791"><ele>267.0</ele><time>2026-04-28T10:35:18.441Z</time></trkpt><trkpt lat="45.6870257" lon="9.4395843"><ele>267.0</ele><time>2026-04-28T10:35:19.44Z</time></trkpt><trkpt lat="45.6870618" lon="9.4394257"><ele>267.0</ele><time>2026-04-28T10:35:21.441Z</time></trkpt><trkpt lat="45.6870912" lon="9.4393"><ele>267.0</ele><time>2026-04-28T10:35:23.441Z</time></trkpt><trkpt lat="45.6869589" lon="9.4390945"><ele>266.6</ele><time>2026-04-28T10:35:34.441Z</time></trkpt><trkpt lat="45.6868563" lon="9.4390458"><ele>266.2</ele><time>2026-04-28T10:35:36.441Z</time></trkpt><trkpt lat="45.6867751" lon="9.438995"><ele>265.8</ele><time>2026-04-28T10:35:38.441Z</time></trkpt><trkpt lat="45.6866749" lon="9.4389494"><ele>265.4</ele><time>2026-04-28T10:35:40.441Z</time></trkpt><trkpt lat="45.6865798" lon="9.4389111"><ele>265.0</ele><time>2026-04-28T10:35:42.441Z</time></trkpt><trkpt lat="45.6864825" lon="9.4388589"><ele>265.0</ele><time>2026-04-28T10:35:44.441Z</time></trkpt><trkpt lat="45.6863766" lon="9.4388139"><ele>265.0</ele><time>2026-04-28T10:35:46.441Z</time></trkpt><trkpt lat="45.6862674" lon="9.438754"><ele>265.0</ele><time>2026-04-28T10:35:48.441Z</time></trkpt><trkpt lat="45.6861671" lon="9.4387053"><ele>265.0</ele><time>2026-04-28T10:35:50.441Z</time></trkpt><trkpt lat="45.6860789" lon="9.4386427"><ele>265.0</ele><time>2026-04-28T10:35:52.441Z</time></trkpt><trkpt lat="45.6860004" lon="9.4385831"><ele>265.16666666666663</ele><time>2026-04-28T10:35:54.441Z</time></trkpt><trkpt lat="45.685931" lon="9.4384784"><ele>265.3333333333333</ele><time>2026-04-28T10:35:56.441Z</time></trkpt><trkpt lat="45.6858559" lon="9.4384721"><ele>265.5</ele><time>2026-04-28T10:35:58.441Z</time></trkpt><trkpt lat="45.6857832" lon="9.4384269"><ele>265.6666666666667</ele><time>2026-04-28T10:36:00.441Z</time></trkpt><trkpt lat="45.6857154" lon="9.4384092"><ele>265.83333333333337</ele><time>2026-04-28T10:36:02.441Z</time></trkpt><trkpt lat="45.6856598" lon="9.4384684"><ele>266.0</ele><time>2026-04-28T10:36:04.441Z</time></trkpt><trkpt lat="45.6856103" lon="9.4385414"><ele>266.0</ele><time>2026-04-28T10:36:06.441Z</time></trkpt><trkpt lat="45.6855619" lon="9.4386781"><ele>266.0</ele><time>2026-04-28T10:36:08.441Z</time></trkpt><trkpt lat="45.6855332" lon="9.4387597"><ele>266.0</ele><time>2026-04-28T10:36:09.441Z</time></trkpt><trkpt lat="45.6854774" lon="9.4388988"><ele>266.0</ele><time>2026-04-28T10:36:11.441Z</time></trkpt><trkpt lat="45.6854424" lon="9.4389751"><ele>266.0</ele><time>2026-04-28T10:36:12.441Z</time></trkpt><trkpt lat="45.6853953" lon="9.4391454"><ele>265.8</ele><time>2026-04-28T10:36:14.441Z</time></trkpt><trkpt lat="45.6853609" lon="9.4392842"><ele>265.6</ele><time>2026-04-28T10:36:16.441Z</time></trkpt><trkpt lat="45.6853244" lon="9.439449"><ele>265.4</ele><time>2026-04-28T10:36:18.441Z</time></trkpt><trkpt lat="45.6852697" lon="9.4396022"><ele>265.2</ele><time>2026-04-28T10:36:20.441Z</time></trkpt><trkpt lat="45.6852242" lon="9.439738"><ele>265.0</ele><time>2026-04-28T10:36:22.441Z</time></trkpt><trkpt lat="45.6851728" lon="9.4398825"><ele>265.4</ele><time>2026-04-28T10:36:24.441Z</time></trkpt><trkpt lat="45.6851482" lon="9.4399692"><ele>265.8</ele><time>2026-04-28T10:36:25.441Z</time></trkpt><trkpt lat="45.6851066" lon="9.4401243"><ele>266.2</ele><time>2026-04-28T10:36:27.441Z</time></trkpt><trkpt lat="45.6850717" lon="9.4402068"><ele>266.6</ele><time>2026-04-28T10:36:28.441Z</time></trkpt><trkpt lat="45.6850005" lon="9.4403403"><ele>267.0</ele><time>2026-04-28T10:36:30.441Z</time></trkpt><trkpt lat="45.6849246" lon="9.4404547"><ele>268.2</ele><time>2026-04-28T10:36:32.441Z</time></trkpt><trkpt lat="45.6848572" lon="9.4405833"><ele>269.4</ele><time>2026-04-28T10:36:34.441Z</time></trkpt><trkpt lat="45.6847987" lon="9.4406907"><ele>270.6</ele><time>2026-04-28T10:36:36.441Z</time></trkpt><trkpt lat="45.6847208" lon="9.440777"><ele>271.8</ele><time>2026-04-28T10:36:38.441Z</time></trkpt><trkpt lat="45.6846441" lon="9.4408546"><ele>273.0</ele><time>2026-04-28T10:36:40.441Z</time></trkpt><trkpt lat="45.6845684" lon="9.4409757"><ele>273.0</ele><time>2026-04-28T10:36:42.441Z</time></trkpt><trkpt lat="45.6845111" lon="9.4411088"><ele>273.0</ele><time>2026-04-28T10:36:44.441Z</time></trkpt><trkpt lat="45.6844692" lon="9.4411813"><ele>273.0</ele><time>2026-04-28T10:36:45.441Z</time></trkpt><trkpt lat="45.6844315" lon="9.4412557"><ele>273.0</ele><time>2026-04-28T10:36:46.441Z</time></trkpt><trkpt lat="45.6843998" lon="9.4413386"><ele>273.0</ele><time>2026-04-28T10:36:47.441Z</time></trkpt><trkpt lat="45.684368" lon="9.4414246"><ele>273.0</ele><time>2026-04-28T10:36:48.441Z</time></trkpt><trkpt lat="45.6843277" lon="9.4415071"><ele>273.0</ele><time>2026-04-28T10:36:49.441Z</time></trkpt><trkpt lat="45.6842736" lon="9.4416434"><ele>273.4</ele><time>2026-04-28T10:36:51.441Z</time></trkpt><trkpt lat="45.684247" lon="9.4417268"><ele>273.8</ele><time>2026-04-28T10:36:52.441Z</time></trkpt><trkpt lat="45.6841892" lon="9.4418514"><ele>274.2</ele><time>2026-04-28T10:36:54.441Z</time></trkpt><trkpt lat="45.6841214" lon="9.4419708"><ele>274.6</ele><time>2026-04-28T10:36:56.441Z</time></trkpt><trkpt lat="45.6840729" lon="9.4421211"><ele>275.0</ele><time>2026-04-28T10:36:58.441Z</time></trkpt><trkpt lat="45.6840099" lon="9.4422397"><ele>275.0</ele><time>2026-04-28T10:37:00.441Z</time></trkpt><trkpt lat="45.6839459" lon="9.4423456"><ele>275.0</ele><time>2026-04-28T10:37:02.441Z</time></trkpt><trkpt lat="45.6839056" lon="9.4424766"><ele>275.0</ele><time>2026-04-28T10:37:04.441Z</time></trkpt><trkpt lat="45.6838926" lon="9.4425708"><ele>275.0</ele><time>2026-04-28T10:37:05.441Z</time></trkpt><trkpt lat="45.6838477" lon="9.4426822"><ele>275.0</ele><time>2026-04-28T10:37:07.441Z</time></trkpt><trkpt lat="45.6837846" lon="9.4428119"><ele>275.0</ele><time>2026-04-28T10:37:09.441Z</time></trkpt><trkpt lat="45.6837354" lon="9.4429038"><ele>275.0</ele><time>2026-04-28T10:37:11.441Z</time></trkpt><trkpt lat="45.6836716" lon="9.4430298"><ele>275.0</ele><time>2026-04-28T10:37:13.441Z</time></trkpt><trkpt lat="45.6835959" lon="9.4431199"><ele>275.0</ele><time>2026-04-28T10:37:15.783Z</time></trkpt><trkpt lat="45.6835176" lon="9.4432579"><ele>275.0</ele><time>2026-04-28T10:37:17.423Z</time></trkpt><trkpt lat="45.6834654" lon="9.44341"><ele>274.83333333333337</ele><time>2026-04-28T10:37:19.428Z</time></trkpt><trkpt lat="45.6834309" lon="9.4434927"><ele>274.6666666666667</ele><time>2026-04-28T10:37:20.439Z</time></trkpt><trkpt lat="45.6834083" lon="9.4435785"><ele>274.5</ele><time>2026-04-28T10:37:21.437Z</time></trkpt><trkpt lat="45.6833692" lon="9.4437026"><ele>274.3333333333333</ele><time>2026-04-28T10:37:23.437Z</time></trkpt><trkpt lat="45.6833141" lon="9.4438168"><ele>274.16666666666663</ele><time>2026-04-28T10:37:25.437Z</time></trkpt><trkpt lat="45.6832666" lon="9.4439194"><ele>274.0</ele><time>2026-04-28T10:37:27.437Z</time></trkpt><trkpt lat="45.6832145" lon="9.4440563"><ele>274.0</ele><time>2026-04-28T10:37:29.437Z</time></trkpt><trkpt lat="45.6831768" lon="9.4441856"><ele>274.0</ele><time>2026-04-28T10:37:31.437Z</time></trkpt><trkpt lat="45.6831246" lon="9.4443189"><ele>274.0</ele><time>2026-04-28T10:37:33.437Z</time></trkpt><trkpt lat="45.6830953" lon="9.4443991"><ele>274.0</ele><time>2026-04-28T10:37:34.437Z</time></trkpt><trkpt lat="45.6830679" lon="9.4444959"><ele>274.0</ele><time>2026-04-28T10:37:35.437Z</time></trkpt><trkpt lat="45.6829988" lon="9.4444995"><ele>274.0</ele><time>2026-04-28T10:37:36.437Z</time></trkpt><trkpt lat="45.6829015" lon="9.4445664"><ele>274.0</ele><time>2026-04-28T10:37:38.437Z</time></trkpt><trkpt lat="45.6828392" lon="9.4445872"><ele>274.0</ele><time>2026-04-28T10:37:39.437Z</time></trkpt><trkpt lat="45.6827216" lon="9.4446321"><ele>274.0</ele><time>2026-04-28T10:37:41.437Z</time></trkpt><trkpt lat="45.6826324" lon="9.4446639"><ele>274.0</ele><time>2026-04-28T10:37:43.437Z</time></trkpt><trkpt lat="45.6825708" lon="9.4446921"><ele>274.0</ele><time>2026-04-28T10:37:44.437Z</time></trkpt><trkpt lat="45.6824431" lon="9.4447243"><ele>273.59999999999997</ele><time>2026-04-28T10:37:45.437Z</time></trkpt><trkpt lat="45.6823542" lon="9.44472"><ele>273.2</ele><time>2026-04-28T10:37:46.437Z</time></trkpt><trkpt lat="45.6822555" lon="9.4447446"><ele>272.79999999999995</ele><time>2026-04-28T10:37:47.437Z</time></trkpt><trkpt lat="45.6821796" lon="9.4447485"><ele>272.4</ele><time>2026-04-28T10:37:48.437Z</time></trkpt><trkpt lat="45.6820338" lon="9.4446904"><ele>272.0</ele><time>2026-04-28T10:37:52.437Z</time></trkpt><trkpt lat="45.6819015" lon="9.4446605"><ele>272.0</ele><time>2026-04-28T10:37:55.437Z</time></trkpt><trkpt lat="45.6817892" lon="9.4446685"><ele>272.0</ele><time>2026-04-28T10:37:57.437Z</time></trkpt><trkpt lat="45.6816919" lon="9.4446195"><ele>272.0</ele><time>2026-04-28T10:37:59.437Z</time></trkpt><trkpt lat="45.6815878" lon="9.4446089"><ele>272.0</ele><time>2026-04-28T10:38:01.437Z</time></trkpt><trkpt lat="45.6815079" lon="9.4446104"><ele>272.0</ele><time>2026-04-28T10:38:03.436Z</time></trkpt><trkpt lat="45.6813999" lon="9.4446211"><ele>271.8</ele><time>2026-04-28T10:38:05.437Z</time></trkpt><trkpt lat="45.6812956" lon="9.4446223"><ele>271.6</ele><time>2026-04-28T10:38:07.437Z</time></trkpt><trkpt lat="45.6811648" lon="9.4446292"><ele>271.40000000000003</ele><time>2026-04-28T10:38:09.437Z</time></trkpt><trkpt lat="45.6810749" lon="9.4446443"><ele>271.2</ele><time>2026-04-28T10:38:10.437Z</time></trkpt><trkpt lat="45.6809796" lon="9.4446598"><ele>271.0</ele><time>2026-04-28T10:38:12.437Z</time></trkpt><trkpt lat="45.6808185" lon="9.4446061"><ele>271.40000000000003</ele><time>2026-04-28T10:38:14.437Z</time></trkpt><trkpt lat="45.6807569" lon="9.4446413"><ele>271.8</ele><time>2026-04-28T10:38:15.437Z</time></trkpt><trkpt lat="45.6806545" lon="9.4446347"><ele>272.20000000000005</ele><time>2026-04-28T10:38:17.437Z</time></trkpt><trkpt lat="45.6805458" lon="9.4446232"><ele>272.6</ele><time>2026-04-28T10:38:19.437Z</time></trkpt><trkpt lat="45.6804419" lon="9.4446098"><ele>273.0</ele><time>2026-04-28T10:38:21.436Z</time></trkpt><trkpt lat="45.6803736" lon="9.4445626"><ele>273.0</ele><time>2026-04-28T10:38:24.437Z</time></trkpt><trkpt lat="45.6803033" lon="9.44453"><ele>273.0</ele><time>2026-04-28T10:38:26.437Z</time></trkpt><trkpt lat="45.6802211" lon="9.4445368"><ele>273.0</ele><time>2026-04-28T10:38:27.437Z</time></trkpt><trkpt lat="45.6800951" lon="9.4444795"><ele>273.0</ele><time>2026-04-28T10:38:29.437Z</time></trkpt><trkpt lat="45.6800199" lon="9.4444237"><ele>273.0</ele><time>2026-04-28T10:38:30.437Z</time></trkpt><trkpt lat="45.6799543" lon="9.4443601"><ele>272.4</ele><time>2026-04-28T10:38:31.437Z</time></trkpt><trkpt lat="45.6798903" lon="9.4442777"><ele>271.8</ele><time>2026-04-28T10:38:32.437Z</time></trkpt><trkpt lat="45.6797683" lon="9.444261"><ele>271.2</ele><time>2026-04-28T10:38:34.437Z</time></trkpt><trkpt lat="45.6796695" lon="9.4442516"><ele>270.6</ele><time>2026-04-28T10:38:35.437Z</time></trkpt><trkpt lat="45.679585" lon="9.4442387"><ele>270.0</ele><time>2026-04-28T10:38:36.436Z</time></trkpt><trkpt lat="45.6794783" lon="9.4442312"><ele>269.4</ele><time>2026-04-28T10:38:38.437Z</time></trkpt><trkpt lat="45.6793492" lon="9.44419"><ele>268.8</ele><time>2026-04-28T10:38:40.437Z</time></trkpt><trkpt lat="45.6792867" lon="9.444164"><ele>268.2</ele><time>2026-04-28T10:38:41.437Z</time></trkpt><trkpt lat="45.6791753" lon="9.4441138"><ele>267.6</ele><time>2026-04-28T10:38:43.437Z</time></trkpt><trkpt lat="45.6791058" lon="9.4441235"><ele>267.0</ele><time>2026-04-28T10:38:44.437Z</time></trkpt><trkpt lat="45.6790345" lon="9.4441215"><ele>267.0</ele><time>2026-04-28T10:38:45.437Z</time></trkpt><trkpt lat="45.6789704" lon="9.4441072"><ele>267.0</ele><time>2026-04-28T10:38:46.437Z</time></trkpt><trkpt lat="45.6788975" lon="9.4441076"><ele>267.0</ele><time>2026-04-28T10:38:47.437Z</time></trkpt><trkpt lat="45.6788327" lon="9.4441127"><ele>267.0</ele><time>2026-04-28T10:38:48.437Z</time></trkpt><trkpt lat="45.6787618" lon="9.4441053"><ele>267.0</ele><time>2026-04-28T10:38:49.437Z</time></trkpt><trkpt lat="45.6786905" lon="9.4440853"><ele>267.0</ele><time>2026-04-28T10:38:50.437Z</time></trkpt><trkpt lat="45.6785668" lon="9.4440599"><ele>267.00000000000006</ele><time>2026-04-28T10:38:52.437Z</time></trkpt><trkpt lat="45.6784967" lon="9.4440372"><ele>267.0</ele><time>2026-04-28T10:38:53.437Z</time></trkpt><trkpt lat="45.6784182" lon="9.4440354"><ele>267.0</ele><time>2026-04-28T10:38:54.437Z</time></trkpt><trkpt lat="45.6783499" lon="9.4440244"><ele>267.0</ele><time>2026-04-28T10:38:55.437Z</time></trkpt><trkpt lat="45.6782777" lon="9.4440048"><ele>267.0</ele><time>2026-04-28T10:38:56.437Z</time></trkpt><trkpt lat="45.6782131" lon="9.4439807"><ele>267.00000000000006</ele><time>2026-04-28T10:38:57.437Z</time></trkpt><trkpt lat="45.6781455" lon="9.4439688"><ele>267.0</ele><time>2026-04-28T10:38:58.437Z</time></trkpt><trkpt lat="45.6780207" lon="9.4439298"><ele>267.0</ele><time>2026-04-28T10:39:00.437Z</time></trkpt><trkpt lat="45.6779306" lon="9.4439258"><ele>267.0</ele><time>2026-04-28T10:39:01.437Z</time></trkpt><trkpt lat="45.6778462" lon="9.4439253"><ele>267.0</ele><time>2026-04-28T10:39:02.437Z</time></trkpt><trkpt lat="45.6777819" lon="9.4439156"><ele>267.0</ele><time>2026-04-28T10:39:03.437Z</time></trkpt><trkpt lat="45.6777068" lon="9.4439048"><ele>267.0</ele><time>2026-04-28T10:39:04.437Z</time></trkpt><trkpt lat="45.6776388" lon="9.4438766"><ele>267.0</ele><time>2026-04-28T10:39:05.437Z</time></trkpt><trkpt lat="45.6775605" lon="9.4438672"><ele>266.8333333333333</ele><time>2026-04-28T10:39:06.437Z</time></trkpt><trkpt lat="45.6774907" lon="9.4438676"><ele>266.6666666666667</ele><time>2026-04-28T10:39:07.437Z</time></trkpt><trkpt lat="45.6774172" lon="9.4438437"><ele>266.5</ele><time>2026-04-28T10:39:08.437Z</time></trkpt><trkpt lat="45.6773533" lon="9.4438213"><ele>266.33333333333337</ele><time>2026-04-28T10:39:09.437Z</time></trkpt><trkpt lat="45.6772856" lon="9.4437983"><ele>266.1666666666667</ele><time>2026-04-28T10:39:10.437Z</time></trkpt><trkpt lat="45.6771699" lon="9.4437637"><ele>266.0</ele><time>2026-04-28T10:39:12.436Z</time></trkpt><trkpt lat="45.6770699" lon="9.4437322"><ele>266.0</ele><time>2026-04-28T10:39:14.437Z</time></trkpt><trkpt lat="45.6770054" lon="9.4437195"><ele>266.0</ele><time>2026-04-28T10:39:15.437Z</time></trkpt><trkpt lat="45.67694" lon="9.4436944"><ele>266.0</ele><time>2026-04-28T10:39:16.437Z</time></trkpt><trkpt lat="45.6768595" lon="9.4436814"><ele>266.0</ele><time>2026-04-28T10:39:17.437Z</time></trkpt><trkpt lat="45.6767895" lon="9.4436552"><ele>266.0</ele><time>2026-04-28T10:39:18.437Z</time></trkpt><trkpt lat="45.6766667" lon="9.4436135"><ele>266.0</ele><time>2026-04-28T10:39:20.437Z</time></trkpt><trkpt lat="45.6765145" lon="9.4435876"><ele>265.8</ele><time>2026-04-28T10:39:22.437Z</time></trkpt><trkpt lat="45.6764439" lon="9.4435662"><ele>265.6</ele><time>2026-04-28T10:39:23.437Z</time></trkpt><trkpt lat="45.6763651" lon="9.4435601"><ele>265.4</ele><time>2026-04-28T10:39:24.437Z</time></trkpt><trkpt lat="45.6762773" lon="9.4435503"><ele>265.2</ele><time>2026-04-28T10:39:25.437Z</time></trkpt><trkpt lat="45.6761605" lon="9.4434957"><ele>265.0</ele><time>2026-04-28T10:39:27.437Z</time></trkpt><trkpt lat="45.6760685" lon="9.4434868"><ele>264.8</ele><time>2026-04-28T10:39:28.437Z</time></trkpt><trkpt lat="45.6759998" lon="9.4434722"><ele>264.6</ele><time>2026-04-28T10:39:29.437Z</time></trkpt><trkpt lat="45.6759332" lon="9.4434461"><ele>264.4</ele><time>2026-04-28T10:39:30.437Z</time></trkpt><trkpt lat="45.6758226" lon="9.443401"><ele>264.2</ele><time>2026-04-28T10:39:32.437Z</time></trkpt><trkpt lat="45.6756954" lon="9.4433464"><ele>264.0</ele><time>2026-04-28T10:39:34.437Z</time></trkpt><trkpt lat="45.6756187" lon="9.4433073"><ele>264.0</ele><time>2026-04-28T10:39:35.436Z</time></trkpt><trkpt lat="45.6755486" lon="9.4432723"><ele>264.0</ele><time>2026-04-28T10:39:36.437Z</time></trkpt><trkpt lat="45.6754798" lon="9.4432199"><ele>264.0</ele><time>2026-04-28T10:39:37.437Z</time></trkpt><trkpt lat="45.675403" lon="9.4431874"><ele>264.0</ele><time>2026-04-28T10:39:38.437Z</time></trkpt><trkpt lat="45.6753273" lon="9.443169"><ele>264.0</ele><time>2026-04-28T10:39:39.437Z</time></trkpt><trkpt lat="45.6752534" lon="9.4431306"><ele>264.0</ele><time>2026-04-28T10:39:40.437Z</time></trkpt><trkpt lat="45.6751795" lon="9.443097"><ele>263.59999999999997</ele><time>2026-04-28T10:39:41.437Z</time></trkpt><trkpt lat="45.6751171" lon="9.4430696"><ele>263.2</ele><time>2026-04-28T10:39:42.437Z</time></trkpt><trkpt lat="45.6749847" lon="9.4430115"><ele>262.79999999999995</ele><time>2026-04-28T10:39:44.437Z</time></trkpt><trkpt lat="45.6748564" lon="9.4429877"><ele>262.4</ele><time>2026-04-28T10:39:46.437Z</time></trkpt><trkpt lat="45.6747788" lon="9.4429643"><ele>262.0</ele><time>2026-04-28T10:39:47.437Z</time></trkpt><trkpt lat="45.6747097" lon="9.4429489"><ele>261.8333333333333</ele><time>2026-04-28T10:39:48.437Z</time></trkpt><trkpt lat="45.6746351" lon="9.4429195"><ele>261.66666666666663</ele><time>2026-04-28T10:39:49.437Z</time></trkpt><trkpt lat="45.6745724" lon="9.4428993"><ele>261.5</ele><time>2026-04-28T10:39:50.437Z</time></trkpt><trkpt lat="45.6745049" lon="9.4428832"><ele>261.3333333333333</ele><time>2026-04-28T10:39:51.437Z</time></trkpt><trkpt lat="45.6744322" lon="9.4428552"><ele>261.1666666666667</ele><time>2026-04-28T10:39:52.437Z</time></trkpt><trkpt lat="45.6742969" lon="9.4428025"><ele>261.0</ele><time>2026-04-28T10:39:54.437Z</time></trkpt><trkpt lat="45.6742323" lon="9.4427963"><ele>261.0</ele><time>2026-04-28T10:39:55.437Z</time></trkpt><trkpt lat="45.6741057" lon="9.4427946"><ele>261.0</ele><time>2026-04-28T10:39:57.437Z</time></trkpt><trkpt lat="45.6740273" lon="9.4427703"><ele>261.0</ele><time>2026-04-28T10:39:59.437Z</time></trkpt><trkpt lat="45.6739508" lon="9.4426937"><ele>261.0</ele><time>2026-04-28T10:40:01.437Z</time></trkpt><trkpt lat="45.6738441" lon="9.4426268"><ele>261.0</ele><time>2026-04-28T10:40:03.437Z</time></trkpt><trkpt lat="45.6737877" lon="9.4425784"><ele>261.0</ele><time>2026-04-28T10:40:04.437Z</time></trkpt><trkpt lat="45.6737353" lon="9.4425278"><ele>261.0</ele><time>2026-04-28T10:40:05.437Z</time></trkpt><trkpt lat="45.6736818" lon="9.4424774"><ele>261.0</ele><time>2026-04-28T10:40:06.437Z</time></trkpt><trkpt lat="45.6736341" lon="9.4424129"><ele>261.0</ele><time>2026-04-28T10:40:07.437Z</time></trkpt><trkpt lat="45.6735894" lon="9.4423472"><ele>261.0</ele><time>2026-04-28T10:40:08.437Z</time></trkpt><trkpt lat="45.6735109" lon="9.4422433"><ele>261.0</ele><time>2026-04-28T10:40:10.437Z</time></trkpt><trkpt lat="45.673455" lon="9.4421555"><ele>261.0</ele><time>2026-04-28T10:40:11.437Z</time></trkpt><trkpt lat="45.6734066" lon="9.4420655"><ele>260.8</ele><time>2026-04-28T10:40:12.437Z</time></trkpt><trkpt lat="45.6733456" lon="9.4419881"><ele>260.6</ele><time>2026-04-28T10:40:13.437Z</time></trkpt><trkpt lat="45.6732889" lon="9.4419029"><ele>260.4</ele><time>2026-04-28T10:40:14.437Z</time></trkpt><trkpt lat="45.6732309" lon="9.4418186"><ele>260.2</ele><time>2026-04-28T10:40:15.437Z</time></trkpt><trkpt lat="45.6731737" lon="9.4417381"><ele>260.0</ele><time>2026-04-28T10:40:16.437Z</time></trkpt><trkpt lat="45.6730859" lon="9.4415751"><ele>260.0</ele><time>2026-04-28T10:40:18.437Z</time></trkpt><trkpt lat="45.6730526" lon="9.4414895"><ele>260.0</ele><time>2026-04-28T10:40:19.437Z</time></trkpt><trkpt lat="45.6730108" lon="9.441398"><ele>260.0</ele><time>2026-04-28T10:40:20.437Z</time></trkpt><trkpt lat="45.6729676" lon="9.4412984"><ele>260.0</ele><time>2026-04-28T10:40:21.437Z</time></trkpt><trkpt lat="45.6729303" lon="9.4411971"><ele>260.0</ele><time>2026-04-28T10:40:22.437Z</time></trkpt><trkpt lat="45.6727499" lon="9.441076"><ele>259.5</ele><time>2026-04-28T10:40:35.437Z</time></trkpt><trkpt lat="45.6726851" lon="9.4410154"><ele>259.0</ele><time>2026-04-28T10:40:37.437Z</time></trkpt><trkpt lat="45.6725647" lon="9.440981"><ele>258.5</ele><time>2026-04-28T10:40:39.437Z</time></trkpt><trkpt lat="45.6725205" lon="9.4408983"><ele>258.0</ele><time>2026-04-28T10:40:40.437Z</time></trkpt><trkpt lat="45.6724789" lon="9.4408106"><ele>257.5</ele><time>2026-04-28T10:40:41.437Z</time></trkpt><trkpt lat="45.6724373" lon="9.4407368"><ele>257.0</ele><time>2026-04-28T10:40:42.437Z</time></trkpt><trkpt lat="45.6723447" lon="9.4406307"><ele>257.0</ele><time>2026-04-28T10:40:44.437Z</time></trkpt><trkpt lat="45.6722887" lon="9.4405711"><ele>257.0</ele><time>2026-04-28T10:40:45.437Z</time></trkpt><trkpt lat="45.6721951" lon="9.4404668"><ele>257.0</ele><time>2026-04-28T10:40:47.437Z</time></trkpt><trkpt lat="45.672127" lon="9.440424"><ele>257.0</ele><time>2026-04-28T10:40:48.437Z</time></trkpt><trkpt lat="45.6720275" lon="9.4403225"><ele>257.0</ele><time>2026-04-28T10:40:50.437Z</time></trkpt><trkpt lat="45.6719735" lon="9.4402731"><ele>257.0</ele><time>2026-04-28T10:40:51.437Z</time></trkpt><trkpt lat="45.6718895" lon="9.4401606"><ele>256.6666666666667</ele><time>2026-04-28T10:40:53.437Z</time></trkpt><trkpt lat="45.6718279" lon="9.4400927"><ele>256.33333333333337</ele><time>2026-04-28T10:40:54.437Z</time></trkpt><trkpt lat="45.6717635" lon="9.4400319"><ele>256.0</ele><time>2026-04-28T10:40:55.437Z</time></trkpt><trkpt lat="45.6716929" lon="9.4399729"><ele>255.66666666666669</ele><time>2026-04-28T10:40:56.436Z</time></trkpt><trkpt lat="45.671631" lon="9.4399043"><ele>255.33333333333334</ele><time>2026-04-28T10:40:57.437Z</time></trkpt><trkpt lat="45.6715736" lon="9.4398507"><ele>255.0</ele><time>2026-04-28T10:40:58.437Z</time></trkpt><trkpt lat="45.671516" lon="9.4397998"><ele>255.0</ele><time>2026-04-28T10:40:59.437Z</time></trkpt><trkpt lat="45.6714074" lon="9.4396854"><ele>255.0</ele><time>2026-04-28T10:41:01.437Z</time></trkpt><trkpt lat="45.6713534" lon="9.4396357"><ele>255.0</ele><time>2026-04-28T10:41:02.437Z</time></trkpt><trkpt lat="45.6712902" lon="9.4395758"><ele>255.0</ele><time>2026-04-28T10:41:03.437Z</time></trkpt><trkpt lat="45.67123" lon="9.4395237"><ele>255.0</ele><time>2026-04-28T10:41:04.437Z</time></trkpt><trkpt lat="45.6711698" lon="9.4394752"><ele>255.0</ele><time>2026-04-28T10:41:05.437Z</time></trkpt><trkpt lat="45.6711159" lon="9.4394188"><ele>254.71428571428572</ele><time>2026-04-28T10:41:06.437Z</time></trkpt><trkpt lat="45.6710626" lon="9.4393572"><ele>254.42857142857144</ele><time>2026-04-28T10:41:07.437Z</time></trkpt><trkpt lat="45.6709979" lon="9.4393085"><ele>254.14285714285717</ele><time>2026-04-28T10:41:08.437Z</time></trkpt><trkpt lat="45.6709364" lon="9.4392519"><ele>253.8571428571429</ele><time>2026-04-28T10:41:09.437Z</time></trkpt><trkpt lat="45.6708771" lon="9.4391852"><ele>253.57142857142858</ele><time>2026-04-28T10:41:10.437Z</time></trkpt><trkpt lat="45.6708249" lon="9.4391239"><ele>253.28571428571433</ele><time>2026-04-28T10:41:11.437Z</time></trkpt><trkpt lat="45.6707652" lon="9.4390692"><ele>253.00000000000003</ele><time>2026-04-28T10:41:12.437Z</time></trkpt><trkpt lat="45.6707061" lon="9.4390092"><ele>252.99999999999997</ele><time>2026-04-28T10:41:13.437Z</time></trkpt><trkpt lat="45.670644" lon="9.4389545"><ele>253.0</ele><time>2026-04-28T10:41:14.437Z</time></trkpt><trkpt lat="45.6705784" lon="9.4388984"><ele>253.0</ele><time>2026-04-28T10:41:15.437Z</time></trkpt><trkpt lat="45.6705242" lon="9.4388379"><ele>253.0</ele><time>2026-04-28T10:41:16.437Z</time></trkpt><trkpt lat="45.6704551" lon="9.4387788"><ele>252.99999999999997</ele><time>2026-04-28T10:41:17.437Z</time></trkpt><trkpt lat="45.6703384" lon="9.4386669"><ele>253.0</ele><time>2026-04-28T10:41:19.437Z</time></trkpt><trkpt lat="45.6702815" lon="9.4386033"><ele>252.49999999999997</ele><time>2026-04-28T10:41:20.437Z</time></trkpt><trkpt lat="45.6702254" lon="9.4385485"><ele>252.0</ele><time>2026-04-28T10:41:21.437Z</time></trkpt><trkpt lat="45.6701647" lon="9.4384945"><ele>251.5</ele><time>2026-04-28T10:41:22.437Z</time></trkpt><trkpt lat="45.6700787" lon="9.4384127"><ele>251.0</ele><time>2026-04-28T10:41:24.437Z</time></trkpt><trkpt lat="45.670023" lon="9.4383586"><ele>250.49999999999997</ele><time>2026-04-28T10:41:25.437Z</time></trkpt><trkpt lat="45.6699317" lon="9.4382482"><ele>250.0</ele><time>2026-04-28T10:41:27.437Z</time></trkpt><trkpt lat="45.6698603" lon="9.4381546"><ele>249.99999999999997</ele><time>2026-04-28T10:41:29.437Z</time></trkpt><trkpt lat="45.6698126" lon="9.438078"><ele>250.0</ele><time>2026-04-28T10:41:33.437Z</time></trkpt><trkpt lat="45.6697719" lon="9.4379806"><ele>250.0</ele><time>2026-04-28T10:41:37.437Z</time></trkpt><trkpt lat="45.6697089" lon="9.4379119"><ele>250.0</ele><time>2026-04-28T10:41:39.436Z</time></trkpt><trkpt lat="45.6696322" lon="9.4379104"><ele>249.99999999999997</ele><time>2026-04-28T10:41:41.437Z</time></trkpt><trkpt lat="45.6695685" lon="9.43796"><ele>250.0</ele><time>2026-04-28T10:41:43.437Z</time></trkpt><trkpt lat="45.6694975" lon="9.4379667"><ele>249.8</ele><time>2026-04-28T10:41:45.437Z</time></trkpt><trkpt lat="45.6694237" lon="9.4378887"><ele>249.6</ele><time>2026-04-28T10:41:47.437Z</time></trkpt><trkpt lat="45.6693331" lon="9.4377735"><ele>249.39999999999998</ele><time>2026-04-28T10:41:49.437Z</time></trkpt><trkpt lat="45.6692293" lon="9.4376682"><ele>249.2</ele><time>2026-04-28T10:41:51.437Z</time></trkpt><trkpt lat="45.6691717" lon="9.4376273"><ele>249.0</ele><time>2026-04-28T10:41:52.437Z</time></trkpt><trkpt lat="45.6691152" lon="9.4375813"><ele>249.0</ele><time>2026-04-28T10:41:53.437Z</time></trkpt><trkpt lat="45.6690622" lon="9.4375323"><ele>249.0</ele><time>2026-04-28T10:41:54.437Z</time></trkpt><trkpt lat="45.6690113" lon="9.4374628"><ele>249.0</ele><time>2026-04-28T10:41:55.437Z</time></trkpt><trkpt lat="45.6689084" lon="9.4373667"><ele>249.0</ele><time>2026-04-28T10:41:57.437Z</time></trkpt><trkpt lat="45.6688523" lon="9.4373086"><ele>249.0</ele><time>2026-04-28T10:41:58.437Z</time></trkpt><trkpt lat="45.6687483" lon="9.4372418"><ele>249.0</ele><time>2026-04-28T10:42:00.437Z</time></trkpt><trkpt lat="45.6686798" lon="9.4371895"><ele>249.14285714285714</ele><time>2026-04-28T10:42:01.437Z</time></trkpt><trkpt lat="45.6686266" lon="9.4371282"><ele>249.28571428571428</ele><time>2026-04-28T10:42:02.437Z</time></trkpt><trkpt lat="45.6685444" lon="9.4370862"><ele>249.42857142857142</ele><time>2026-04-28T10:42:03.437Z</time></trkpt><trkpt lat="45.668481" lon="9.4370565"><ele>249.57142857142856</ele><time>2026-04-28T10:42:04.437Z</time></trkpt><trkpt lat="45.6684174" lon="9.4370382"><ele>249.71428571428572</ele><time>2026-04-28T10:42:05.437Z</time></trkpt><trkpt lat="45.668354" lon="9.4370259"><ele>249.85714285714283</ele><time>2026-04-28T10:42:06.437Z</time></trkpt><trkpt lat="45.6682775" lon="9.436981"><ele>250.0</ele><time>2026-04-28T10:42:07.437Z</time></trkpt><trkpt lat="45.6682201" lon="9.4369234"><ele>249.99999999999997</ele><time>2026-04-28T10:42:08.437Z</time></trkpt><trkpt lat="45.6681663" lon="9.4368679"><ele>250.0</ele><time>2026-04-28T10:42:09.437Z</time></trkpt><trkpt lat="45.6681107" lon="9.4368091"><ele>250.0</ele><time>2026-04-28T10:42:10.437Z</time></trkpt><trkpt lat="45.6680459" lon="9.4367616"><ele>250.0</ele><time>2026-04-28T10:42:11.437Z</time></trkpt><trkpt lat="45.667989" lon="9.4367082"><ele>249.99999999999997</ele><time>2026-04-28T10:42:12.437Z</time></trkpt><trkpt lat="45.6678869" lon="9.4365926"><ele>250.0</ele><time>2026-04-28T10:42:14.437Z</time></trkpt><trkpt lat="45.6678325" lon="9.4365467"><ele>250.0</ele><time>2026-04-28T10:42:15.437Z</time></trkpt><trkpt lat="45.6677849" lon="9.43648"><ele>250.0</ele><time>2026-04-28T10:42:16.437Z</time></trkpt><trkpt lat="45.6677264" lon="9.436417"><ele>250.0</ele><time>2026-04-28T10:42:17.437Z</time></trkpt><trkpt lat="45.6676288" lon="9.4362995"><ele>250.0</ele><time>2026-04-28T10:42:19.437Z</time></trkpt><trkpt lat="45.6675203" lon="9.4362007"><ele>250.0</ele><time>2026-04-28T10:42:21.436Z</time></trkpt><trkpt lat="45.6674203" lon="9.4361049"><ele>249.2</ele><time>2026-04-28T10:42:23.437Z</time></trkpt><trkpt lat="45.6673311" lon="9.436026"><ele>248.4</ele><time>2026-04-28T10:42:25.437Z</time></trkpt><trkpt lat="45.6672413" lon="9.4359211"><ele>247.60000000000002</ele><time>2026-04-28T10:42:27.437Z</time></trkpt><trkpt lat="45.6671461" lon="9.4358279"><ele>246.8</ele><time>2026-04-28T10:42:29.437Z</time></trkpt><trkpt lat="45.6670635" lon="9.4357281"><ele>246.0</ele><time>2026-04-28T10:42:31.437Z</time></trkpt><trkpt lat="45.6670232" lon="9.435658"><ele>246.0</ele><time>2026-04-28T10:42:32.437Z</time></trkpt><trkpt lat="45.6669587" lon="9.4355955"><ele>246.0</ele><time>2026-04-28T10:42:33.437Z</time></trkpt><trkpt lat="45.6668635" lon="9.4354835"><ele>246.0</ele><time>2026-04-28T10:42:35.437Z</time></trkpt><trkpt lat="45.6667854" lon="9.435379"><ele>246.0</ele><time>2026-04-28T10:42:37.437Z</time></trkpt><trkpt lat="45.6667326" lon="9.4353224"><ele>246.0</ele><time>2026-04-28T10:42:38.437Z</time></trkpt><trkpt lat="45.6666822" lon="9.4352604"><ele>246.0</ele><time>2026-04-28T10:42:39.437Z</time></trkpt><trkpt lat="45.6666363" lon="9.4351964"><ele>245.60000000000002</ele><time>2026-04-28T10:42:40.437Z</time></trkpt><trkpt lat="45.6665443" lon="9.4350881"><ele>245.20000000000002</ele><time>2026-04-28T10:42:42.437Z</time></trkpt><trkpt lat="45.6664947" lon="9.4350276"><ele>244.79999999999998</ele><time>2026-04-28T10:42:43.437Z</time></trkpt><trkpt lat="45.6664075" lon="9.4349167"><ele>244.39999999999998</ele><time>2026-04-28T10:42:45.437Z</time></trkpt><trkpt lat="45.6663284" lon="9.4347909"><ele>244.0</ele><time>2026-04-28T10:42:47.437Z</time></trkpt><trkpt lat="45.666276" lon="9.434664"><ele>243.6</ele><time>2026-04-28T10:42:49.437Z</time></trkpt><trkpt lat="45.6662701" lon="9.4345211"><ele>243.2</ele><time>2026-04-28T10:42:51.437Z</time></trkpt><trkpt lat="45.6663293" lon="9.4343925"><ele>242.79999999999998</ele><time>2026-04-28T10:42:53.437Z</time></trkpt><trkpt lat="45.6663864" lon="9.4342395"><ele>242.39999999999998</ele><time>2026-04-28T10:42:55.437Z</time></trkpt><trkpt lat="45.6664312" lon="9.4340907"><ele>242.0</ele><time>2026-04-28T10:42:57.437Z</time></trkpt><trkpt lat="45.6664799" lon="9.4339392"><ele>242.0</ele><time>2026-04-28T10:42:59.437Z</time></trkpt><trkpt lat="45.6665071" lon="9.4338571"><ele>242.0</ele><time>2026-04-28T10:43:00.437Z</time></trkpt><trkpt lat="45.6665616" lon="9.4336993"><ele>242.0</ele><time>2026-04-28T10:43:02.437Z</time></trkpt><trkpt lat="45.6666126" lon="9.4335421"><ele>242.0</ele><time>2026-04-28T10:43:04.437Z</time></trkpt><trkpt lat="45.6666637" lon="9.4333817"><ele>242.0</ele><time>2026-04-28T10:43:06.437Z</time></trkpt><trkpt lat="45.6667305" lon="9.4332321"><ele>242.0</ele><time>2026-04-28T10:43:08.437Z</time></trkpt><trkpt lat="45.6667792" lon="9.4330762"><ele>242.0</ele><time>2026-04-28T10:43:10.437Z</time></trkpt><trkpt lat="45.6668125" lon="9.4329944"><ele>242.0</ele><time>2026-04-28T10:43:11.437Z</time></trkpt><trkpt lat="45.6668599" lon="9.4328507"><ele>242.0</ele><time>2026-04-28T10:43:13.437Z</time></trkpt><trkpt lat="45.6669129" lon="9.4327376"><ele>242.0</ele><time>2026-04-28T10:43:15.437Z</time></trkpt><trkpt lat="45.6669298" lon="9.4326086"><ele>242.2</ele><time>2026-04-28T10:43:17.437Z</time></trkpt><trkpt lat="45.6669218" lon="9.4325006"><ele>242.39999999999998</ele><time>2026-04-28T10:43:19.437Z</time></trkpt><trkpt lat="45.6669001" lon="9.4323764"><ele>242.60000000000002</ele><time>2026-04-28T10:43:21.437Z</time></trkpt><trkpt lat="45.6668475" lon="9.4322522"><ele>242.8</ele><time>2026-04-28T10:43:23.437Z</time></trkpt><trkpt lat="45.6667873" lon="9.4321776"><ele>243.0</ele><time>2026-04-28T10:43:25.437Z</time></trkpt><trkpt lat="45.6667062" lon="9.4320566"><ele>242.60000000000002</ele><time>2026-04-28T10:43:27.437Z</time></trkpt><trkpt lat="45.6666173" lon="9.4319785"><ele>242.20000000000002</ele><time>2026-04-28T10:43:29.437Z</time></trkpt><trkpt lat="45.6665272" lon="9.4318618"><ele>241.8</ele><time>2026-04-28T10:43:31.437Z</time></trkpt><trkpt lat="45.6664627" lon="9.4317327"><ele>241.4</ele><time>2026-04-28T10:43:33.437Z</time></trkpt><trkpt lat="45.6664051" lon="9.4316742"><ele>241.0</ele><time>2026-04-28T10:43:34.437Z</time></trkpt><trkpt lat="45.666317" lon="9.431558"><ele>240.99999999999997</ele><time>2026-04-28T10:43:36.437Z</time></trkpt><trkpt lat="45.6662709" lon="9.4314879"><ele>241.0</ele><time>2026-04-28T10:43:37.437Z</time></trkpt><trkpt lat="45.6662332" lon="9.431405"><ele>241.0</ele><time>2026-04-28T10:43:38.437Z</time></trkpt><trkpt lat="45.6661473" lon="9.4312694"><ele>241.0</ele><time>2026-04-28T10:43:40.437Z</time></trkpt><trkpt lat="45.6660931" lon="9.4312203"><ele>240.99999999999997</ele><time>2026-04-28T10:43:41.437Z</time></trkpt><trkpt lat="45.6660314" lon="9.4311923"><ele>241.0</ele><time>2026-04-28T10:43:42.437Z</time></trkpt><trkpt lat="45.6659653" lon="9.4311674"><ele>241.20000000000002</ele><time>2026-04-28T10:43:43.437Z</time></trkpt><trkpt lat="45.6658573" lon="9.4310802"><ele>241.40000000000003</ele><time>2026-04-28T10:43:45.437Z</time></trkpt><trkpt lat="45.6658053" lon="9.4310238"><ele>241.6</ele><time>2026-04-28T10:43:46.437Z</time></trkpt><trkpt lat="45.6656983" lon="9.4309233"><ele>241.8</ele><time>2026-04-28T10:43:48.437Z</time></trkpt><trkpt lat="45.6656429" lon="9.4308615"><ele>242.0</ele><time>2026-04-28T10:43:49.437Z</time></trkpt><trkpt lat="45.6655857" lon="9.4308072"><ele>242.00000000000003</ele><time>2026-04-28T10:43:50.437Z</time></trkpt><trkpt lat="45.6655185" lon="9.4307397"><ele>242.0</ele><time>2026-04-28T10:43:51.437Z</time></trkpt><trkpt lat="45.6654144" lon="9.4306396"><ele>242.0</ele><time>2026-04-28T10:43:53.437Z</time></trkpt><trkpt lat="45.6653566" lon="9.4305857"><ele>242.0</ele><time>2026-04-28T10:43:54.437Z</time></trkpt><trkpt lat="45.6653012" lon="9.430525"><ele>242.00000000000003</ele><time>2026-04-28T10:43:55.437Z</time></trkpt><trkpt lat="45.6652463" lon="9.4304717"><ele>242.0</ele><time>2026-04-28T10:43:56.437Z</time></trkpt><trkpt lat="45.6651916" lon="9.4304101"><ele>241.83333333333334</ele><time>2026-04-28T10:43:57.437Z</time></trkpt><trkpt lat="45.6651343" lon="9.43036"><ele>241.66666666666669</ele><time>2026-04-28T10:43:58.437Z</time></trkpt><trkpt lat="45.6650275" lon="9.4302571"><ele>241.5</ele><time>2026-04-28T10:44:00.436Z</time></trkpt><trkpt lat="45.6649729" lon="9.4301991"><ele>241.33333333333331</ele><time>2026-04-28T10:44:01.437Z</time></trkpt><trkpt lat="45.664912" lon="9.4301543"><ele>241.16666666666666</ele><time>2026-04-28T10:44:02.437Z</time></trkpt><trkpt lat="45.6648599" lon="9.4301006"><ele>241.0</ele><time>2026-04-28T10:44:03.436Z</time></trkpt><trkpt lat="45.6648045" lon="9.4300433"><ele>241.0</ele><time>2026-04-28T10:44:04.437Z</time></trkpt><trkpt lat="45.6647544" lon="9.4299776"><ele>241.00000000000003</ele><time>2026-04-28T10:44:05.437Z</time></trkpt><trkpt lat="45.6646953" lon="9.429922"><ele>241.0</ele><time>2026-04-28T10:44:06.437Z</time></trkpt><trkpt lat="45.6646377" lon="9.4298756"><ele>241.0</ele><time>2026-04-28T10:44:07.437Z</time></trkpt><trkpt lat="45.6645829" lon="9.429821"><ele>241.00000000000003</ele><time>2026-04-28T10:44:08.437Z</time></trkpt><trkpt lat="45.6645226" lon="9.4297653"><ele>241.0</ele><time>2026-04-28T10:44:09.437Z</time></trkpt><trkpt lat="45.6644655" lon="9.4297136"><ele>241.0</ele><time>2026-04-28T10:44:10.437Z</time></trkpt><trkpt lat="45.6643561" lon="9.4296114"><ele>240.57142857142858</ele><time>2026-04-28T10:44:12.437Z</time></trkpt><trkpt lat="45.6643006" lon="9.4295599"><ele>240.14285714285717</ele><time>2026-04-28T10:44:13.437Z</time></trkpt><trkpt lat="45.6642422" lon="9.4295047"><ele>239.71428571428572</ele><time>2026-04-28T10:44:14.437Z</time></trkpt><trkpt lat="45.6641843" lon="9.4294453"><ele>239.28571428571428</ele><time>2026-04-28T10:44:15.436Z</time></trkpt><trkpt lat="45.6641303" lon="9.4293858"><ele>238.85714285714286</ele><time>2026-04-28T10:44:16.436Z</time></trkpt><trkpt lat="45.6640707" lon="9.4293243"><ele>238.42857142857144</ele><time>2026-04-28T10:44:17.437Z</time></trkpt><trkpt lat="45.664008" lon="9.4292755"><ele>238.0</ele><time>2026-04-28T10:44:18.437Z</time></trkpt><trkpt lat="45.6639546" lon="9.4292208"><ele>238.0</ele><time>2026-04-28T10:44:19.437Z</time></trkpt><trkpt lat="45.6638914" lon="9.4291612"><ele>238.0</ele><time>2026-04-28T10:44:20.437Z</time></trkpt><trkpt lat="45.6638377" lon="9.4290962"><ele>238.0</ele><time>2026-04-28T10:44:21.437Z</time></trkpt><trkpt lat="45.6637783" lon="9.4290324"><ele>238.0</ele><time>2026-04-28T10:44:22.437Z</time></trkpt><trkpt lat="45.6637199" lon="9.4289777"><ele>238.0</ele><time>2026-04-28T10:44:23.437Z</time></trkpt><trkpt lat="45.6636584" lon="9.4289136"><ele>238.0</ele><time>2026-04-28T10:44:24.437Z</time></trkpt><trkpt lat="45.6636012" lon="9.4288636"><ele>238.0</ele><time>2026-04-28T10:44:25.437Z</time></trkpt><trkpt lat="45.6635366" lon="9.4288169"><ele>238.2</ele><time>2026-04-28T10:44:26.437Z</time></trkpt><trkpt lat="45.6634173" lon="9.428718"><ele>238.4</ele><time>2026-04-28T10:44:28.437Z</time></trkpt><trkpt lat="45.6633629" lon="9.4286648"><ele>238.59999999999997</ele><time>2026-04-28T10:44:29.437Z</time></trkpt><trkpt lat="45.6633029" lon="9.4286269"><ele>238.79999999999998</ele><time>2026-04-28T10:44:30.437Z</time></trkpt><trkpt lat="45.6631852" lon="9.428523"><ele>239.0</ele><time>2026-04-28T10:44:32.437Z</time></trkpt><trkpt lat="45.6631387" lon="9.4283612"><ele>239.00000000000003</ele><time>2026-04-28T10:44:34.436Z</time></trkpt><trkpt lat="45.663117" lon="9.4282567"><ele>239.0</ele><time>2026-04-28T10:44:35.437Z</time></trkpt><trkpt lat="45.663102" lon="9.4281621"><ele>239.00000000000003</ele><time>2026-04-28T10:44:36.437Z</time></trkpt><trkpt lat="45.6631067" lon="9.4280722"><ele>239.00000000000003</ele><time>2026-04-28T10:44:37.437Z</time></trkpt><trkpt lat="45.6631086" lon="9.4279785"><ele>239.0</ele><time>2026-04-28T10:44:38.437Z</time></trkpt><trkpt lat="45.6631173" lon="9.4278754"><ele>239.00000000000003</ele><time>2026-04-28T10:44:39.437Z</time></trkpt><trkpt lat="45.663114" lon="9.4277833"><ele>239.00000000000003</ele><time>2026-04-28T10:44:40.437Z</time></trkpt><trkpt lat="45.6631159" lon="9.427688"><ele>239.2</ele><time>2026-04-28T10:44:41.437Z</time></trkpt><trkpt lat="45.6631114" lon="9.4275151"><ele>239.39999999999998</ele><time>2026-04-28T10:44:43.437Z</time></trkpt><trkpt lat="45.6631226" lon="9.4274233"><ele>239.6</ele><time>2026-04-28T10:44:44.437Z</time></trkpt><trkpt lat="45.6631372" lon="9.4272319"><ele>239.8</ele><time>2026-04-28T10:44:46.437Z</time></trkpt><trkpt lat="45.6631544" lon="9.427088"><ele>240.0</ele><time>2026-04-28T10:44:48.437Z</time></trkpt><trkpt lat="45.66311" lon="9.4269417"><ele>240.4</ele><time>2026-04-28T10:44:50.437Z</time></trkpt><trkpt lat="45.6630278" lon="9.4268621"><ele>240.8</ele><time>2026-04-28T10:44:52.437Z</time></trkpt><trkpt lat="45.6629292" lon="9.4267518"><ele>241.2</ele><time>2026-04-28T10:44:54.437Z</time></trkpt><trkpt lat="45.6628816" lon="9.4266808"><ele>241.6</ele><time>2026-04-28T10:44:55.437Z</time></trkpt><trkpt lat="45.6627769" lon="9.4265773"><ele>242.0</ele><time>2026-04-28T10:44:57.437Z</time></trkpt><trkpt lat="45.6626679" lon="9.4264884"><ele>241.16666666666669</ele><time>2026-04-28T10:44:59.437Z</time></trkpt><trkpt lat="45.6626094" lon="9.4264384"><ele>240.33333333333334</ele><time>2026-04-28T10:45:00.437Z</time></trkpt><trkpt lat="45.662508" lon="9.4263401"><ele>239.5</ele><time>2026-04-28T10:45:02.437Z</time></trkpt><trkpt lat="45.6624538" lon="9.4262892"><ele>238.66666666666669</ele><time>2026-04-28T10:45:03.437Z</time></trkpt><trkpt lat="45.6623946" lon="9.4262359"><ele>237.83333333333334</ele><time>2026-04-28T10:45:04.437Z</time></trkpt><trkpt lat="45.6623359" lon="9.4262003"><ele>237.0</ele><time>2026-04-28T10:45:05.437Z</time></trkpt><trkpt lat="45.6622264" lon="9.426101"><ele>237.0</ele><time>2026-04-28T10:45:07.437Z</time></trkpt><trkpt lat="45.66217" lon="9.4260472"><ele>237.0</ele><time>2026-04-28T10:45:08.437Z</time></trkpt><trkpt lat="45.6620648" lon="9.4259393"><ele>237.0</ele><time>2026-04-28T10:45:10.437Z</time></trkpt><trkpt lat="45.6620061" lon="9.4258946"><ele>237.0</ele><time>2026-04-28T10:45:11.437Z</time></trkpt><trkpt lat="45.6619518" lon="9.4258398"><ele>237.0</ele><time>2026-04-28T10:45:12.437Z</time></trkpt><trkpt lat="45.6618956" lon="9.4257856"><ele>237.0</ele><time>2026-04-28T10:45:13.437Z</time></trkpt><trkpt lat="45.6617875" lon="9.4256814"><ele>237.5</ele><time>2026-04-28T10:45:15.436Z</time></trkpt><trkpt lat="45.6616762" lon="9.4255865"><ele>238.0</ele><time>2026-04-28T10:45:17.437Z</time></trkpt><trkpt lat="45.6616196" lon="9.4255277"><ele>238.5</ele><time>2026-04-28T10:45:18.437Z</time></trkpt><trkpt lat="45.6615441" lon="9.42547"><ele>239.0</ele><time>2026-04-28T10:45:19.437Z</time></trkpt><trkpt lat="45.661472" lon="9.4254033"><ele>239.5</ele><time>2026-04-28T10:45:20.437Z</time></trkpt><trkpt lat="45.6614119" lon="9.4253464"><ele>240.0</ele><time>2026-04-28T10:45:21.437Z</time></trkpt><trkpt lat="45.6613409" lon="9.4252753"><ele>240.0</ele><time>2026-04-28T10:45:22.437Z</time></trkpt><trkpt lat="45.6612757" lon="9.4252157"><ele>240.0</ele><time>2026-04-28T10:45:23.437Z</time></trkpt><trkpt lat="45.6612156" lon="9.4251588"><ele>240.0</ele><time>2026-04-28T10:45:24.437Z</time></trkpt><trkpt lat="45.6611497" lon="9.425109"><ele>240.0</ele><time>2026-04-28T10:45:25.437Z</time></trkpt><trkpt lat="45.6610343" lon="9.4250037"><ele>240.0</ele><time>2026-04-28T10:45:27.437Z</time></trkpt><trkpt lat="45.6609805" lon="9.4249528"><ele>240.0</ele><time>2026-04-28T10:45:28.437Z</time></trkpt><trkpt lat="45.660926" lon="9.4249022"><ele>240.14285714285717</ele><time>2026-04-28T10:45:29.437Z</time></trkpt><trkpt lat="45.6608713" lon="9.4248184"><ele>240.28571428571428</ele><time>2026-04-28T10:45:30.437Z</time></trkpt><trkpt lat="45.6608113" lon="9.4247665"><ele>240.42857142857144</ele><time>2026-04-28T10:45:31.437Z</time></trkpt><trkpt lat="45.6607522" lon="9.4247157"><ele>240.57142857142858</ele><time>2026-04-28T10:45:32.437Z</time></trkpt><trkpt lat="45.6607051" lon="9.424643"><ele>240.71428571428572</ele><time>2026-04-28T10:45:33.437Z</time></trkpt><trkpt lat="45.6606486" lon="9.4245794"><ele>240.85714285714286</ele><time>2026-04-28T10:45:34.437Z</time></trkpt><trkpt lat="45.660589" lon="9.4245361"><ele>241.0</ele><time>2026-04-28T10:45:35.437Z</time></trkpt><trkpt lat="45.6605285" lon="9.4244871"><ele>241.0</ele><time>2026-04-28T10:45:36.436Z</time></trkpt><trkpt lat="45.6604132" lon="9.4243852"><ele>241.00000000000003</ele><time>2026-04-28T10:45:38.436Z</time></trkpt><trkpt lat="45.6603042" lon="9.4242879"><ele>241.00000000000003</ele><time>2026-04-28T10:45:40.437Z</time></trkpt><trkpt lat="45.6602402" lon="9.4242482"><ele>241.0</ele><time>2026-04-28T10:45:41.437Z</time></trkpt><trkpt lat="45.6601863" lon="9.4241931"><ele>241.0</ele><time>2026-04-28T10:45:42.437Z</time></trkpt><trkpt lat="45.6601333" lon="9.4241367"><ele>240.85714285714286</ele><time>2026-04-28T10:45:43.437Z</time></trkpt><trkpt lat="45.6600653" lon="9.4240794"><ele>240.71428571428572</ele><time>2026-04-28T10:45:44.437Z</time></trkpt><trkpt lat="45.6600123" lon="9.42403"><ele>240.57142857142858</ele><time>2026-04-28T10:45:45.437Z</time></trkpt><trkpt lat="45.6599546" lon="9.4239709"><ele>240.42857142857144</ele><time>2026-04-28T10:45:46.437Z</time></trkpt><trkpt lat="45.6599047" lon="9.4239073"><ele>240.28571428571428</ele><time>2026-04-28T10:45:47.437Z</time></trkpt><trkpt lat="45.6598501" lon="9.4238508"><ele>240.14285714285717</ele><time>2026-04-28T10:45:48.437Z</time></trkpt><trkpt lat="45.6597925" lon="9.423798"><ele>240.0</ele><time>2026-04-28T10:45:49.437Z</time></trkpt><trkpt lat="45.6597275" lon="9.4237535"><ele>240.0</ele><time>2026-04-28T10:45:50.437Z</time></trkpt><trkpt lat="45.6596622" lon="9.4237371"><ele>240.0</ele><time>2026-04-28T10:45:51.437Z</time></trkpt><trkpt lat="45.6595981" lon="9.4237432"><ele>240.0</ele><time>2026-04-28T10:45:52.437Z</time></trkpt><trkpt lat="45.6594886" lon="9.4238155"><ele>240.0</ele><time>2026-04-28T10:45:54.437Z</time></trkpt><trkpt lat="45.6594456" lon="9.4238837"><ele>240.0</ele><time>2026-04-28T10:45:55.437Z</time></trkpt><trkpt lat="45.6593955" lon="9.4239425"><ele>240.0</ele><time>2026-04-28T10:45:56.437Z</time></trkpt><trkpt lat="45.659346" lon="9.4240016"><ele>240.0</ele><time>2026-04-28T10:45:57.437Z</time></trkpt><trkpt lat="45.6592919" lon="9.4240632"><ele>239.0</ele><time>2026-04-28T10:45:58.436Z</time></trkpt><trkpt lat="45.6592328" lon="9.4241065"><ele>238.0</ele><time>2026-04-28T10:45:59.437Z</time></trkpt><trkpt lat="45.6591289" lon="9.424087"><ele>237.0</ele><time>2026-04-28T10:46:01.437Z</time></trkpt><trkpt lat="45.6590316" lon="9.4239664"><ele>236.0</ele><time>2026-04-28T10:46:03.437Z</time></trkpt><trkpt lat="45.6589814" lon="9.4239088"><ele>235.0</ele><time>2026-04-28T10:46:04.437Z</time></trkpt><trkpt lat="45.6588845" lon="9.4238096"><ele>235.0</ele><time>2026-04-28T10:46:06.437Z</time></trkpt><trkpt lat="45.6588301" lon="9.4237559"><ele>234.99999999999997</ele><time>2026-04-28T10:46:07.437Z</time></trkpt><trkpt lat="45.6587706" lon="9.4237035"><ele>235.0</ele><time>2026-04-28T10:46:08.437Z</time></trkpt><trkpt lat="45.65871" lon="9.4236486"><ele>235.0</ele><time>2026-04-28T10:46:09.437Z</time></trkpt><trkpt lat="45.6586442" lon="9.4235845"><ele>234.99999999999997</ele><time>2026-04-28T10:46:10.437Z</time></trkpt><trkpt lat="45.658577" lon="9.4235314"><ele>235.0</ele><time>2026-04-28T10:46:11.437Z</time></trkpt><trkpt lat="45.6585124" lon="9.4234804"><ele>235.0</ele><time>2026-04-28T10:46:12.437Z</time></trkpt><trkpt lat="45.658445" lon="9.423422"><ele>235.0</ele><time>2026-04-28T10:46:13.437Z</time></trkpt><trkpt lat="45.6583866" lon="9.4233673"><ele>234.99999999999997</ele><time>2026-04-28T10:46:14.437Z</time></trkpt><trkpt lat="45.658323" lon="9.4233114"><ele>235.0</ele><time>2026-04-28T10:46:15.437Z</time></trkpt><trkpt lat="45.6582674" lon="9.4232594"><ele>235.0</ele><time>2026-04-28T10:46:16.437Z</time></trkpt><trkpt lat="45.6582163" lon="9.4232059"><ele>234.99999999999997</ele><time>2026-04-28T10:46:17.437Z</time></trkpt><trkpt lat="45.6581592" lon="9.4231632"><ele>235.0</ele><time>2026-04-28T10:46:18.437Z</time></trkpt><trkpt lat="45.6580965" lon="9.4231252"><ele>235.0</ele><time>2026-04-28T10:46:19.437Z</time></trkpt><trkpt lat="45.6579938" lon="9.4230689"><ele>235.0</ele><time>2026-04-28T10:46:21.436Z</time></trkpt><trkpt lat="45.6578821" lon="9.4230336"><ele>234.99999999999997</ele><time>2026-04-28T10:46:23.437Z</time></trkpt><trkpt lat="45.6578074" lon="9.4230354"><ele>235.0</ele><time>2026-04-28T10:46:24.437Z</time></trkpt><trkpt lat="45.6577445" lon="9.4230291"><ele>235.0</ele><time>2026-04-28T10:46:25.437Z</time></trkpt><trkpt lat="45.6576803" lon="9.4230311"><ele>234.99999999999997</ele><time>2026-04-28T10:46:26.437Z</time></trkpt><trkpt lat="45.6576164" lon="9.4230209"><ele>235.0</ele><time>2026-04-28T10:46:27.437Z</time></trkpt><trkpt lat="45.6575531" lon="9.4230108"><ele>235.0</ele><time>2026-04-28T10:46:28.437Z</time></trkpt><trkpt lat="45.6574741" lon="9.4229919"><ele>235.4</ele><time>2026-04-28T10:46:29.437Z</time></trkpt><trkpt lat="45.6574094" lon="9.4229776"><ele>235.8</ele><time>2026-04-28T10:46:30.437Z</time></trkpt><trkpt lat="45.6572994" lon="9.4229385"><ele>236.2</ele><time>2026-04-28T10:46:32.436Z</time></trkpt><trkpt lat="45.6571963" lon="9.422896"><ele>236.6</ele><time>2026-04-28T10:46:34.437Z</time></trkpt><trkpt lat="45.6570906" lon="9.4228769"><ele>237.0</ele><time>2026-04-28T10:46:36.437Z</time></trkpt><trkpt lat="45.6570263" lon="9.4228561"><ele>236.83333333333334</ele><time>2026-04-28T10:46:37.437Z</time></trkpt><trkpt lat="45.656932" lon="9.4228116"><ele>236.66666666666669</ele><time>2026-04-28T10:46:39.437Z</time></trkpt><trkpt lat="45.6568665" lon="9.4227854"><ele>236.5</ele><time>2026-04-28T10:46:40.437Z</time></trkpt><trkpt lat="45.6567822" lon="9.4227343"><ele>236.33333333333334</ele><time>2026-04-28T10:46:42.437Z</time></trkpt><trkpt lat="45.6567183" lon="9.4227203"><ele>236.16666666666669</ele><time>2026-04-28T10:46:43.437Z</time></trkpt><trkpt lat="45.656645" lon="9.422683"><ele>236.0</ele><time>2026-04-28T10:46:44.436Z</time></trkpt><trkpt lat="45.6565509" lon="9.4226032"><ele>236.00000000000003</ele><time>2026-04-28T10:46:46.437Z</time></trkpt><trkpt lat="45.6564624" lon="9.4225563"><ele>236.0</ele><time>2026-04-28T10:46:48.437Z</time></trkpt><trkpt lat="45.65633" lon="9.4224767"><ele>236.0</ele><time>2026-04-28T10:46:50.437Z</time></trkpt><trkpt lat="45.6562584" lon="9.4224391"><ele>236.0</ele><time>2026-04-28T10:46:51.437Z</time></trkpt><trkpt lat="45.6561963" lon="9.422415"><ele>236.00000000000003</ele><time>2026-04-28T10:46:52.436Z</time></trkpt><trkpt lat="45.6561311" lon="9.4223786"><ele>236.0</ele><time>2026-04-28T10:46:53.437Z</time></trkpt><trkpt lat="45.6560661" lon="9.4223375"><ele>235.75</ele><time>2026-04-28T10:46:54.437Z</time></trkpt><trkpt lat="45.6559706" lon="9.422285"><ele>235.5</ele><time>2026-04-28T10:46:56.437Z</time></trkpt><trkpt lat="45.6558597" lon="9.4222157"><ele>235.25</ele><time>2026-04-28T10:46:58.437Z</time></trkpt><trkpt lat="45.6557228" lon="9.4221387"><ele>235.0</ele><time>2026-04-28T10:47:00.437Z</time></trkpt><trkpt lat="45.6556269" lon="9.4220333"><ele>235.2</ele><time>2026-04-28T10:47:02.437Z</time></trkpt><trkpt lat="45.6555716" lon="9.4219828"><ele>235.4</ele><time>2026-04-28T10:47:03.437Z</time></trkpt><trkpt lat="45.6554598" lon="9.4219207"><ele>235.60000000000002</ele><time>2026-04-28T10:47:05.437Z</time></trkpt><trkpt lat="45.6553974" lon="9.4218943"><ele>235.8</ele><time>2026-04-28T10:47:06.437Z</time></trkpt><trkpt lat="45.6552974" lon="9.42181"><ele>236.0</ele><time>2026-04-28T10:47:08.436Z</time></trkpt><trkpt lat="45.6551888" lon="9.4217687"><ele>236.00000000000003</ele><time>2026-04-28T10:47:10.437Z</time></trkpt><trkpt lat="45.6551132" lon="9.4217486"><ele>236.0</ele><time>2026-04-28T10:47:11.437Z</time></trkpt><trkpt lat="45.6549856" lon="9.4217148"><ele>236.0</ele><time>2026-04-28T10:47:13.437Z</time></trkpt><trkpt lat="45.6549218" lon="9.4217047"><ele>236.0</ele><time>2026-04-28T10:47:14.437Z</time></trkpt><trkpt lat="45.6548569" lon="9.4217052"><ele>236.00000000000003</ele><time>2026-04-28T10:47:15.437Z</time></trkpt><trkpt lat="45.6547928" lon="9.4216987"><ele>236.0</ele><time>2026-04-28T10:47:16.437Z</time></trkpt><trkpt lat="45.6546809" lon="9.4216971"><ele>236.00000000000003</ele><time>2026-04-28T10:47:18.437Z</time></trkpt><trkpt lat="45.6545811" lon="9.4216824"><ele>236.0</ele><time>2026-04-28T10:47:20.437Z</time></trkpt><trkpt lat="45.6544748" lon="9.4216863"><ele>236.0</ele><time>2026-04-28T10:47:22.437Z</time></trkpt><trkpt lat="45.6544114" lon="9.4216985"><ele>236.0</ele><time>2026-04-28T10:47:23.437Z</time></trkpt><trkpt lat="45.6543111" lon="9.4217217"><ele>236.00000000000003</ele><time>2026-04-28T10:47:25.437Z</time></trkpt><trkpt lat="45.654247" lon="9.4217475"><ele>236.0</ele><time>2026-04-28T10:47:26.437Z</time></trkpt><trkpt lat="45.6541613" lon="9.4218052"><ele>235.83333333333334</ele><time>2026-04-28T10:47:27.437Z</time></trkpt><trkpt lat="45.6540959" lon="9.4218509"><ele>235.66666666666669</ele><time>2026-04-28T10:47:28.437Z</time></trkpt><trkpt lat="45.6540224" lon="9.4218684"><ele>235.5</ele><time>2026-04-28T10:47:29.437Z</time></trkpt><trkpt lat="45.6539548" lon="9.4218687"><ele>235.33333333333331</ele><time>2026-04-28T10:47:30.437Z</time></trkpt><trkpt lat="45.653845" lon="9.4218897"><ele>235.16666666666666</ele><time>2026-04-28T10:47:32.437Z</time></trkpt><trkpt lat="45.6537599" lon="9.4218996"><ele>235.0</ele><time>2026-04-28T10:47:34.437Z</time></trkpt><trkpt lat="45.6536484" lon="9.4218729"><ele>235.33333333333331</ele><time>2026-04-28T10:47:36.437Z</time></trkpt><trkpt lat="45.6535689" lon="9.421884"><ele>235.66666666666666</ele><time>2026-04-28T10:47:37.437Z</time></trkpt><trkpt lat="45.6534726" lon="9.4219079"><ele>236.0</ele><time>2026-04-28T10:47:39.437Z</time></trkpt><trkpt lat="45.6533669" lon="9.4218831"><ele>236.33333333333331</ele><time>2026-04-28T10:47:41.437Z</time></trkpt><trkpt lat="45.6532966" lon="9.4218722"><ele>236.66666666666666</ele><time>2026-04-28T10:47:42.437Z</time></trkpt><trkpt lat="45.6532286" lon="9.4218516"><ele>237.0</ele><time>2026-04-28T10:47:44.437Z</time></trkpt><trkpt lat="45.6531204" lon="9.4218495"><ele>237.0</ele><time>2026-04-28T10:47:46.437Z</time></trkpt><trkpt lat="45.6529857" lon="9.4218408"><ele>237.0</ele><time>2026-04-28T10:47:48.437Z</time></trkpt><trkpt lat="45.6529162" lon="9.4218296"><ele>237.0</ele><time>2026-04-28T10:47:49.437Z</time></trkpt><trkpt lat="45.6528083" lon="9.4218063"><ele>237.0</ele><time>2026-04-28T10:47:51.437Z</time></trkpt><trkpt lat="45.6527375" lon="9.4217959"><ele>237.0</ele><time>2026-04-28T10:47:52.437Z</time></trkpt><trkpt lat="45.6526588" lon="9.4217819"><ele>237.2</ele><time>2026-04-28T10:47:53.437Z</time></trkpt><trkpt lat="45.6525738" lon="9.421779"><ele>237.39999999999998</ele><time>2026-04-28T10:47:54.437Z</time></trkpt><trkpt lat="45.6524752" lon="9.4217715"><ele>237.60000000000002</ele><time>2026-04-28T10:47:55.437Z</time></trkpt><trkpt lat="45.6523511" lon="9.4216958"><ele>237.8</ele><time>2026-04-28T10:47:57.437Z</time></trkpt><trkpt lat="45.6522476" lon="9.4216526"><ele>238.0</ele><time>2026-04-28T10:47:59.437Z</time></trkpt><trkpt lat="45.652185" lon="9.4216341"><ele>237.99999999999997</ele><time>2026-04-28T10:48:00.437Z</time></trkpt><trkpt lat="45.6521145" lon="9.4216288"><ele>238.0</ele><time>2026-04-28T10:48:01.437Z</time></trkpt><trkpt lat="45.6520584" lon="9.4215766"><ele>238.0</ele><time>2026-04-28T10:48:02.437Z</time></trkpt><trkpt lat="45.6519451" lon="9.4215785"><ele>238.0</ele><time>2026-04-28T10:48:04.437Z</time></trkpt><trkpt lat="45.6518763" lon="9.4215618"><ele>237.99999999999997</ele><time>2026-04-28T10:48:07.437Z</time></trkpt><trkpt lat="45.6518199" lon="9.4216666"><ele>238.0</ele><time>2026-04-28T10:48:10.437Z</time></trkpt><trkpt lat="45.6517983" lon="9.4217693"><ele>237.66666666666666</ele><time>2026-04-28T10:48:12.437Z</time></trkpt><trkpt lat="45.6517303" lon="9.4219072"><ele>237.33333333333331</ele><time>2026-04-28T10:48:14.437Z</time></trkpt><trkpt lat="45.6517047" lon="9.4219987"><ele>237.0</ele><time>2026-04-28T10:48:15.437Z</time></trkpt><trkpt lat="45.6516833" lon="9.4221126"><ele>236.66666666666669</ele><time>2026-04-28T10:48:16.436Z</time></trkpt><trkpt lat="45.6516616" lon="9.4222212"><ele>236.33333333333334</ele><time>2026-04-28T10:48:18.436Z</time></trkpt><trkpt lat="45.6516194" lon="9.4223317"><ele>236.0</ele><time>2026-04-28T10:48:20.436Z</time></trkpt><trkpt lat="45.6515877" lon="9.422477"><ele>235.42857142857142</ele><time>2026-04-28T10:48:22.437Z</time></trkpt><trkpt lat="45.6515834" lon="9.4225751"><ele>234.8571428571429</ele><time>2026-04-28T10:48:23.437Z</time></trkpt><trkpt lat="45.6515047" lon="9.422552"><ele>234.2857142857143</ele><time>2026-04-28T10:48:24.437Z</time></trkpt><trkpt lat="45.6514375" lon="9.422524"><ele>233.71428571428572</ele><time>2026-04-28T10:48:25.437Z</time></trkpt><trkpt lat="45.6513669" lon="9.4224922"><ele>233.14285714285717</ele><time>2026-04-28T10:48:28.437Z</time></trkpt><trkpt lat="45.6512848" lon="9.4225056"><ele>232.5714285714286</ele><time>2026-04-28T10:48:31.437Z</time></trkpt><trkpt lat="45.6512173" lon="9.4225089"><ele>232.00000000000003</ele><time>2026-04-28T10:48:33.437Z</time></trkpt><trkpt lat="45.6511402" lon="9.4224785"><ele>232.2</ele><time>2026-04-28T10:48:35.437Z</time></trkpt><trkpt lat="45.6510545" lon="9.4224325"><ele>232.39999999999998</ele><time>2026-04-28T10:48:37.437Z</time></trkpt><trkpt lat="45.6509727" lon="9.4223948"><ele>232.60000000000002</ele><time>2026-04-28T10:48:39.437Z</time></trkpt><trkpt lat="45.6508412" lon="9.4223777"><ele>232.8</ele><time>2026-04-28T10:48:41.437Z</time></trkpt><trkpt lat="45.6507412" lon="9.422359"><ele>233.0</ele><time>2026-04-28T10:48:43.437Z</time></trkpt><trkpt lat="45.6506758" lon="9.4223562"><ele>233.0</ele><time>2026-04-28T10:48:44.437Z</time></trkpt><trkpt lat="45.6506128" lon="9.4223421"><ele>233.0</ele><time>2026-04-28T10:48:45.437Z</time></trkpt><trkpt lat="45.6504942" lon="9.4223507"><ele>233.0</ele><time>2026-04-28T10:48:47.436Z</time></trkpt><trkpt lat="45.650387" lon="9.4224059"><ele>233.0</ele><time>2026-04-28T10:48:49.437Z</time></trkpt><trkpt lat="45.6503077" lon="9.4224241"><ele>233.0</ele><time>2026-04-28T10:48:51.437Z</time></trkpt><trkpt lat="45.6502307" lon="9.4224028"><ele>233.2</ele><time>2026-04-28T10:48:53.437Z</time></trkpt><trkpt lat="45.6501358" lon="9.422391"><ele>233.4</ele><time>2026-04-28T10:48:55.437Z</time></trkpt><trkpt lat="45.6500488" lon="9.4223954"><ele>233.59999999999997</ele><time>2026-04-28T10:48:57.437Z</time></trkpt><trkpt lat="45.6499641" lon="9.4223728"><ele>233.79999999999998</ele><time>2026-04-28T10:48:59.437Z</time></trkpt><trkpt lat="45.6498638" lon="9.42233"><ele>234.0</ele><time>2026-04-28T10:49:01.437Z</time></trkpt><trkpt lat="45.6497471" lon="9.4223009"><ele>234.0</ele><time>2026-04-28T10:49:03.437Z</time></trkpt><trkpt lat="45.6496824" lon="9.4222941"><ele>234.0</ele><time>2026-04-28T10:49:04.437Z</time></trkpt><trkpt lat="45.6496098" lon="9.4222895"><ele>234.0</ele><time>2026-04-28T10:49:05.437Z</time></trkpt><trkpt lat="45.6495468" lon="9.4222883"><ele>234.0</ele><time>2026-04-28T10:49:06.437Z</time></trkpt><trkpt lat="45.6493865" lon="9.4222869"><ele>234.0</ele><time>2026-04-28T10:49:08.437Z</time></trkpt><trkpt lat="45.6493214" lon="9.4222927"><ele>234.0</ele><time>2026-04-28T10:49:09.437Z</time></trkpt><trkpt lat="45.6492245" lon="9.4222581"><ele>233.66666666666666</ele><time>2026-04-28T10:49:11.437Z</time></trkpt><trkpt lat="45.6491145" lon="9.4222522"><ele>233.33333333333331</ele><time>2026-04-28T10:49:13.437Z</time></trkpt><trkpt lat="45.6490153" lon="9.4222679"><ele>233.0</ele><time>2026-04-28T10:49:15.437Z</time></trkpt><trkpt lat="45.6489578" lon="9.4223461"><ele>232.66666666666666</ele><time>2026-04-28T10:49:17.437Z</time></trkpt><trkpt lat="45.6489507" lon="9.4224456"><ele>232.33333333333331</ele><time>2026-04-28T10:49:19.437Z</time></trkpt><trkpt lat="45.6489451" lon="9.422566"><ele>232.0</ele><time>2026-04-28T10:49:21.437Z</time></trkpt><trkpt lat="45.6489475" lon="9.4226767"><ele>231.99999999999997</ele><time>2026-04-28T10:49:23.437Z</time></trkpt><trkpt lat="45.6489498" lon="9.4228056"><ele>232.0</ele><time>2026-04-28T10:49:25.437Z</time></trkpt><trkpt lat="45.6489505" lon="9.4229179"><ele>232.0</ele><time>2026-04-28T10:49:27.437Z</time></trkpt><trkpt lat="45.6489567" lon="9.4230397"><ele>232.0</ele><time>2026-04-28T10:49:29.437Z</time></trkpt><trkpt lat="45.6489638" lon="9.4231665"><ele>231.99999999999997</ele><time>2026-04-28T10:49:31.437Z</time></trkpt><trkpt lat="45.64896" lon="9.4232735"><ele>232.0</ele><time>2026-04-28T10:49:33.437Z</time></trkpt><trkpt lat="45.6489085" lon="9.4233606"><ele>233.0</ele><time>2026-04-28T10:49:35.437Z</time></trkpt><trkpt lat="45.6488246" lon="9.4233954"><ele>234.0</ele><time>2026-04-28T10:49:37.437Z</time></trkpt><trkpt lat="45.6487297" lon="9.4234046"><ele>235.0</ele><time>2026-04-28T10:49:39.437Z</time></trkpt><trkpt lat="45.6486467" lon="9.4234116"><ele>236.0</ele><time>2026-04-28T10:49:41.437Z</time></trkpt><trkpt lat="45.6485355" lon="9.4234168"><ele>237.0</ele><time>2026-04-28T10:49:43.437Z</time></trkpt><trkpt lat="45.6484262" lon="9.4234258"><ele>237.0</ele><time>2026-04-28T10:49:45.437Z</time></trkpt><trkpt lat="45.6483147" lon="9.4234378"><ele>237.0</ele><time>2026-04-28T10:49:47.436Z</time></trkpt><trkpt lat="45.6482104" lon="9.4234472"><ele>237.0</ele><time>2026-04-28T10:49:49.436Z</time></trkpt><trkpt lat="45.6480991" lon="9.4234568"><ele>237.0</ele><time>2026-04-28T10:49:51.437Z</time></trkpt><trkpt lat="45.6479785" lon="9.4234551"><ele>237.0</ele><time>2026-04-28T10:49:53.437Z</time></trkpt><trkpt lat="45.6478689" lon="9.4234603"><ele>237.2</ele><time>2026-04-28T10:49:55.437Z</time></trkpt><trkpt lat="45.6477632" lon="9.423484"><ele>237.39999999999998</ele><time>2026-04-28T10:49:57.437Z</time></trkpt><trkpt lat="45.6476586" lon="9.423504"><ele>237.60000000000002</ele><time>2026-04-28T10:49:59.437Z</time></trkpt><trkpt lat="45.6475508" lon="9.4235146"><ele>237.8</ele><time>2026-04-28T10:50:01.437Z</time></trkpt><trkpt lat="45.6474382" lon="9.4235266"><ele>238.0</ele><time>2026-04-28T10:50:03.437Z</time></trkpt><trkpt lat="45.6473321" lon="9.4235193"><ele>238.0</ele><time>2026-04-28T10:50:05.437Z</time></trkpt><trkpt lat="45.647222" lon="9.4235197"><ele>238.0</ele><time>2026-04-28T10:50:07.437Z</time></trkpt><trkpt lat="45.6471625" lon="9.4234865"><ele>238.0</ele><time>2026-04-28T10:50:08.437Z</time></trkpt><trkpt lat="45.6470829" lon="9.423412"><ele>238.0</ele><time>2026-04-28T10:50:10.437Z</time></trkpt><trkpt lat="45.6469886" lon="9.423349"><ele>238.0</ele><time>2026-04-28T10:50:12.437Z</time></trkpt><trkpt lat="45.6468913" lon="9.423273"><ele>238.2</ele><time>2026-04-28T10:50:14.437Z</time></trkpt><trkpt lat="45.6467978" lon="9.4231963"><ele>238.4</ele><time>2026-04-28T10:50:16.437Z</time></trkpt><trkpt lat="45.6467128" lon="9.4231026"><ele>238.59999999999997</ele><time>2026-04-28T10:50:18.436Z</time></trkpt><trkpt lat="45.6466253" lon="9.4230334"><ele>238.79999999999998</ele><time>2026-04-28T10:50:20.437Z</time></trkpt><trkpt lat="45.6465307" lon="9.4229642"><ele>239.0</ele><time>2026-04-28T10:50:22.437Z</time></trkpt><trkpt lat="45.6464246" lon="9.4228977"><ele>239.2</ele><time>2026-04-28T10:50:24.437Z</time></trkpt><trkpt lat="45.6463251" lon="9.4228165"><ele>239.39999999999998</ele><time>2026-04-28T10:50:26.437Z</time></trkpt><trkpt lat="45.6462271" lon="9.4227329"><ele>239.6</ele><time>2026-04-28T10:50:28.437Z</time></trkpt><trkpt lat="45.6461302" lon="9.4226523"><ele>239.8</ele><time>2026-04-28T10:50:30.437Z</time></trkpt><trkpt lat="45.6460759" lon="9.422606"><ele>240.0</ele><time>2026-04-28T10:50:31.436Z</time></trkpt><trkpt lat="45.6459796" lon="9.4225179"><ele>240.0</ele><time>2026-04-28T10:50:33.437Z</time></trkpt><trkpt lat="45.6458817" lon="9.4224325"><ele>240.0</ele><time>2026-04-28T10:50:35.437Z</time></trkpt><trkpt lat="45.6457773" lon="9.4223448"><ele>240.0</ele><time>2026-04-28T10:50:37.437Z</time></trkpt><trkpt lat="45.6456776" lon="9.4222477"><ele>240.0</ele><time>2026-04-28T10:50:39.436Z</time></trkpt><trkpt lat="45.6455834" lon="9.4221354"><ele>239.0</ele><time>2026-04-28T10:50:41.437Z</time></trkpt><trkpt lat="45.6455063" lon="9.4220179"><ele>238.0</ele><time>2026-04-28T10:50:43.437Z</time></trkpt><trkpt lat="45.6454324" lon="9.4218774"><ele>237.0</ele><time>2026-04-28T10:50:45.437Z</time></trkpt><trkpt lat="45.6453764" lon="9.4217195"><ele>236.0</ele><time>2026-04-28T10:50:47.437Z</time></trkpt><trkpt lat="45.6453462" lon="9.4216368"><ele>235.0</ele><time>2026-04-28T10:50:48.437Z</time></trkpt><trkpt lat="45.6453101" lon="9.4215562"><ele>235.28571428571428</ele><time>2026-04-28T10:50:49.437Z</time></trkpt><trkpt lat="45.6452788" lon="9.4214746"><ele>235.57142857142856</ele><time>2026-04-28T10:50:50.437Z</time></trkpt><trkpt lat="45.6452423" lon="9.4213884"><ele>235.85714285714283</ele><time>2026-04-28T10:50:51.437Z</time></trkpt><trkpt lat="45.6452056" lon="9.4212957"><ele>236.1428571428571</ele><time>2026-04-28T10:50:52.437Z</time></trkpt><trkpt lat="45.6451711" lon="9.4212009"><ele>236.42857142857142</ele><time>2026-04-28T10:50:53.437Z</time></trkpt><trkpt lat="45.6451373" lon="9.4210987"><ele>236.71428571428567</ele><time>2026-04-28T10:50:54.437Z</time></trkpt><trkpt lat="45.6451013" lon="9.4209999"><ele>236.99999999999997</ele><time>2026-04-28T10:50:55.437Z</time></trkpt><trkpt lat="45.6450601" lon="9.4208789"><ele>237.0</ele><time>2026-04-28T10:50:56.437Z</time></trkpt><trkpt lat="45.6450227" lon="9.4207664"><ele>237.0</ele><time>2026-04-28T10:50:57.437Z</time></trkpt><trkpt lat="45.6449834" lon="9.4206608"><ele>237.0</ele><time>2026-04-28T10:50:58.437Z</time></trkpt><trkpt lat="45.644939" lon="9.4205554"><ele>237.0</ele><time>2026-04-28T10:50:59.437Z</time></trkpt><trkpt lat="45.6449013" lon="9.4204433"><ele>237.0</ele><time>2026-04-28T10:51:00.437Z</time></trkpt><trkpt lat="45.6448638" lon="9.4203273"><ele>237.0</ele><time>2026-04-28T10:51:01.437Z</time></trkpt><trkpt lat="45.6447978" lon="9.4200873"><ele>236.33333333333334</ele><time>2026-04-28T10:51:03.437Z</time></trkpt><trkpt lat="45.64476" lon="9.4199733"><ele>235.66666666666669</ele><time>2026-04-28T10:51:04.437Z</time></trkpt><trkpt lat="45.6447223" lon="9.4198587"><ele>235.0</ele><time>2026-04-28T10:51:05.436Z</time></trkpt><trkpt lat="45.6446791" lon="9.4197411"><ele>234.33333333333334</ele><time>2026-04-28T10:51:06.437Z</time></trkpt><trkpt lat="45.6446411" lon="9.4196374"><ele>233.66666666666669</ele><time>2026-04-28T10:51:07.437Z</time></trkpt><trkpt lat="45.6446089" lon="9.4195221"><ele>233.0</ele><time>2026-04-28T10:51:08.437Z</time></trkpt><trkpt lat="45.6445732" lon="9.4194155"><ele>232.50000000000003</ele><time>2026-04-28T10:51:09.437Z</time></trkpt><trkpt lat="45.6445369" lon="9.4193122"><ele>232.0</ele><time>2026-04-28T10:51:10.437Z</time></trkpt><trkpt lat="45.6445034" lon="9.4192054"><ele>231.5</ele><time>2026-04-28T10:51:11.437Z</time></trkpt><trkpt lat="45.6444702" lon="9.4190969"><ele>231.0</ele><time>2026-04-28T10:51:12.436Z</time></trkpt><trkpt lat="45.6444258" lon="9.4189982"><ele>230.50000000000003</ele><time>2026-04-28T10:51:13.437Z</time></trkpt><trkpt lat="45.6443901" lon="9.4189005"><ele>230.0</ele><time>2026-04-28T10:51:14.437Z</time></trkpt><trkpt lat="45.644347" lon="9.4188129"><ele>229.71428571428567</ele><time>2026-04-28T10:51:15.437Z</time></trkpt><trkpt lat="45.6443116" lon="9.4187157"><ele>229.42857142857142</ele><time>2026-04-28T10:51:16.436Z</time></trkpt><trkpt lat="45.6442776" lon="9.4186225"><ele>229.1428571428571</ele><time>2026-04-28T10:51:17.437Z</time></trkpt><trkpt lat="45.6442423" lon="9.4185273"><ele>228.85714285714283</ele><time>2026-04-28T10:51:18.437Z</time></trkpt><trkpt lat="45.6442122" lon="9.418427"><ele>228.57142857142856</ele><time>2026-04-28T10:51:19.437Z</time></trkpt><trkpt lat="45.6441837" lon="9.4183462"><ele>228.28571428571428</ele><time>2026-04-28T10:51:20.437Z</time></trkpt><trkpt lat="45.6441461" lon="9.4182498"><ele>228.0</ele><time>2026-04-28T10:51:21.437Z</time></trkpt><trkpt lat="45.6441062" lon="9.4181693"><ele>228.0</ele><time>2026-04-28T10:51:22.437Z</time></trkpt><trkpt lat="45.6440563" lon="9.4180978"><ele>227.99999999999997</ele><time>2026-04-28T10:51:23.437Z</time></trkpt><trkpt lat="45.6440045" lon="9.4180355"><ele>228.0</ele><time>2026-04-28T10:51:24.437Z</time></trkpt><trkpt lat="45.6439489" lon="9.4179868"><ele>228.0</ele><time>2026-04-28T10:51:25.436Z</time></trkpt><trkpt lat="45.6438888" lon="9.4179415"><ele>227.99999999999997</ele><time>2026-04-28T10:51:26.437Z</time></trkpt><trkpt lat="45.6438253" lon="9.4179042"><ele>228.0</ele><time>2026-04-28T10:51:27.437Z</time></trkpt><trkpt lat="45.6437618" lon="9.417868"><ele>228.0</ele><time>2026-04-28T10:51:28.436Z</time></trkpt><trkpt lat="45.6436972" lon="9.4178254"><ele>228.16666666666666</ele><time>2026-04-28T10:51:29.437Z</time></trkpt><trkpt lat="45.6435761" lon="9.4177368"><ele>228.33333333333331</ele><time>2026-04-28T10:51:31.437Z</time></trkpt><trkpt lat="45.6435167" lon="9.4176985"><ele>228.5</ele><time>2026-04-28T10:51:32.437Z</time></trkpt><trkpt lat="45.6434466" lon="9.4176491"><ele>228.66666666666666</ele><time>2026-04-28T10:51:33.437Z</time></trkpt><trkpt lat="45.6433847" lon="9.4176003"><ele>228.83333333333331</ele><time>2026-04-28T10:51:34.437Z</time></trkpt><trkpt lat="45.6433194" lon="9.4175543"><ele>229.0</ele><time>2026-04-28T10:51:35.437Z</time></trkpt><trkpt lat="45.6432542" lon="9.4175149"><ele>228.99999999999997</ele><time>2026-04-28T10:51:36.437Z</time></trkpt><trkpt lat="45.6431828" lon="9.4174677"><ele>229.0</ele><time>2026-04-28T10:51:37.437Z</time></trkpt><trkpt lat="45.6431155" lon="9.4174216"><ele>229.0</ele><time>2026-04-28T10:51:38.437Z</time></trkpt><trkpt lat="45.6430451" lon="9.4173716"><ele>229.0</ele><time>2026-04-28T10:51:39.437Z</time></trkpt><trkpt lat="45.6429802" lon="9.4173203"><ele>228.99999999999997</ele><time>2026-04-28T10:51:40.437Z</time></trkpt><trkpt lat="45.642903" lon="9.4172841"><ele>229.0</ele><time>2026-04-28T10:51:41.437Z</time></trkpt><trkpt lat="45.6428384" lon="9.417228"><ele>229.0</ele><time>2026-04-28T10:51:42.437Z</time></trkpt><trkpt lat="45.6427757" lon="9.417191"><ele>229.0</ele><time>2026-04-28T10:51:43.437Z</time></trkpt><trkpt lat="45.6427101" lon="9.4171559"><ele>229.0</ele><time>2026-04-28T10:51:44.437Z</time></trkpt><trkpt lat="45.6426424" lon="9.4171003"><ele>229.0</ele><time>2026-04-28T10:51:45.437Z</time></trkpt><trkpt lat="45.6425681" lon="9.4170479"><ele>229.0</ele><time>2026-04-28T10:51:46.437Z</time></trkpt><trkpt lat="45.6425073" lon="9.4169922"><ele>229.0</ele><time>2026-04-28T10:51:47.436Z</time></trkpt><trkpt lat="45.6424413" lon="9.4169514"><ele>229.0</ele><time>2026-04-28T10:51:48.436Z</time></trkpt><trkpt lat="45.6423745" lon="9.4168998"><ele>228.99999999999997</ele><time>2026-04-28T10:51:49.437Z</time></trkpt><trkpt lat="45.6423066" lon="9.4168574"><ele>229.0</ele><time>2026-04-28T10:51:50.437Z</time></trkpt><trkpt lat="45.6422365" lon="9.416806"><ele>229.0</ele><time>2026-04-28T10:51:51.437Z</time></trkpt><trkpt lat="45.642172" lon="9.4167557"><ele>229.0</ele><time>2026-04-28T10:51:52.437Z</time></trkpt><trkpt lat="45.6421054" lon="9.4167082"><ele>228.99999999999997</ele><time>2026-04-28T10:51:53.437Z</time></trkpt><trkpt lat="45.6420354" lon="9.4166614"><ele>229.0</ele><time>2026-04-28T10:51:54.437Z</time></trkpt><trkpt lat="45.6419666" lon="9.4166139"><ele>228.99999999999997</ele><time>2026-04-28T10:51:55.437Z</time></trkpt><trkpt lat="45.6418974" lon="9.4165586"><ele>229.0</ele><time>2026-04-28T10:51:56.437Z</time></trkpt><trkpt lat="45.64183" lon="9.4165043"><ele>229.0</ele><time>2026-04-28T10:51:57.436Z</time></trkpt><trkpt lat="45.6417514" lon="9.4164477"><ele>229.0</ele><time>2026-04-28T10:51:58.437Z</time></trkpt><trkpt lat="45.6416813" lon="9.4163971"><ele>228.99999999999997</ele><time>2026-04-28T10:51:59.437Z</time></trkpt><trkpt lat="45.6416139" lon="9.4163507"><ele>229.0</ele><time>2026-04-28T10:52:00.437Z</time></trkpt><trkpt lat="45.6415496" lon="9.4163048"><ele>228.99999999999997</ele><time>2026-04-28T10:52:01.437Z</time></trkpt><trkpt lat="45.6414844" lon="9.416253"><ele>229.0</ele><time>2026-04-28T10:52:02.437Z</time></trkpt><trkpt lat="45.6414136" lon="9.4162452"><ele>229.0</ele><time>2026-04-28T10:52:03.437Z</time></trkpt><trkpt lat="45.6413038" lon="9.416262"><ele>229.0</ele><time>2026-04-28T10:52:05.437Z</time></trkpt><trkpt lat="45.6412976" lon="9.4163929"><ele>228.99999999999997</ele><time>2026-04-28T10:52:06.437Z</time></trkpt><trkpt lat="45.6412688" lon="9.4164731"><ele>229.0</ele><time>2026-04-28T10:52:07.437Z</time></trkpt><trkpt lat="45.6412182" lon="9.4166164"><ele>229.0</ele><time>2026-04-28T10:52:09.437Z</time></trkpt><trkpt lat="45.6411593" lon="9.4167791"><ele>228.99999999999997</ele><time>2026-04-28T10:52:11.437Z</time></trkpt><trkpt lat="45.6411333" lon="9.416863"><ele>228.99999999999997</ele><time>2026-04-28T10:52:12.437Z</time></trkpt><trkpt lat="45.6410787" lon="9.4170312"><ele>229.0</ele><time>2026-04-28T10:52:14.437Z</time></trkpt><trkpt lat="45.6410209" lon="9.4171835"><ele>229.0</ele><time>2026-04-28T10:52:16.437Z</time></trkpt><trkpt lat="45.6409648" lon="9.4173339"><ele>228.99999999999997</ele><time>2026-04-28T10:52:18.437Z</time></trkpt><trkpt lat="45.640928" lon="9.4174123"><ele>229.0</ele><time>2026-04-28T10:52:19.437Z</time></trkpt><trkpt lat="45.6408671" lon="9.4175629"><ele>229.0</ele><time>2026-04-28T10:52:21.437Z</time></trkpt><trkpt lat="45.6408277" lon="9.4176642"><ele>229.0</ele><time>2026-04-28T10:52:22.437Z</time></trkpt><trkpt lat="45.6407864" lon="9.4177475"><ele>228.99999999999997</ele><time>2026-04-28T10:52:23.437Z</time></trkpt><trkpt lat="45.6407445" lon="9.4178334"><ele>229.0</ele><time>2026-04-28T10:52:24.437Z</time></trkpt><trkpt lat="45.6407032" lon="9.4179018"><ele>228.99999999999997</ele><time>2026-04-28T10:52:25.437Z</time></trkpt><trkpt lat="45.6406522" lon="9.4179711"><ele>229.0</ele><time>2026-04-28T10:52:26.437Z</time></trkpt><trkpt lat="45.640601" lon="9.4180281"><ele>229.0</ele><time>2026-04-28T10:52:27.437Z</time></trkpt><trkpt lat="45.640501" lon="9.4181318"><ele>229.0</ele><time>2026-04-28T10:52:29.437Z</time></trkpt><trkpt lat="45.6404328" lon="9.4181764"><ele>228.99999999999997</ele><time>2026-04-28T10:52:30.437Z</time></trkpt><trkpt lat="45.6403707" lon="9.4182033"><ele>229.0</ele><time>2026-04-28T10:52:31.437Z</time></trkpt><trkpt lat="45.6403052" lon="9.4182239"><ele>228.99999999999997</ele><time>2026-04-28T10:52:32.437Z</time></trkpt><trkpt lat="45.6402217" lon="9.418234"><ele>229.0</ele><time>2026-04-28T10:52:33.437Z</time></trkpt><trkpt lat="45.640149" lon="9.4182495"><ele>229.0</ele><time>2026-04-28T10:52:34.437Z</time></trkpt><trkpt lat="45.6400737" lon="9.4182519"><ele>229.0</ele><time>2026-04-28T10:52:35.437Z</time></trkpt><trkpt lat="45.6400036" lon="9.4182403"><ele>228.99999999999997</ele><time>2026-04-28T10:52:36.437Z</time></trkpt><trkpt lat="45.6399375" lon="9.4182354"><ele>229.0</ele><time>2026-04-28T10:52:37.437Z</time></trkpt><trkpt lat="45.6397827" lon="9.4182251"><ele>229.0</ele><time>2026-04-28T10:52:39.437Z</time></trkpt><trkpt lat="45.6397174" lon="9.4182147"><ele>229.0</ele><time>2026-04-28T10:52:40.437Z</time></trkpt><trkpt lat="45.6396484" lon="9.418208"><ele>229.0</ele><time>2026-04-28T10:52:41.437Z</time></trkpt><trkpt lat="45.6395835" lon="9.4182068"><ele>229.0</ele><time>2026-04-28T10:52:42.437Z</time></trkpt><trkpt lat="45.6395185" lon="9.4181866"><ele>229.0</ele><time>2026-04-28T10:52:43.437Z</time></trkpt><trkpt lat="45.6394551" lon="9.4181724"><ele>229.0</ele><time>2026-04-28T10:52:44.437Z</time></trkpt><trkpt lat="45.6393906" lon="9.4181686"><ele>229.0</ele><time>2026-04-28T10:52:45.437Z</time></trkpt><trkpt lat="45.6393236" lon="9.4181588"><ele>228.66666666666666</ele><time>2026-04-28T10:52:46.437Z</time></trkpt><trkpt lat="45.639247" lon="9.4181392"><ele>228.33333333333331</ele><time>2026-04-28T10:52:47.437Z</time></trkpt><trkpt lat="45.6391829" lon="9.4181217"><ele>228.0</ele><time>2026-04-28T10:52:48.437Z</time></trkpt><trkpt lat="45.6391105" lon="9.4181048"><ele>227.66666666666669</ele><time>2026-04-28T10:52:49.437Z</time></trkpt><trkpt lat="45.6390432" lon="9.4180759"><ele>227.33333333333334</ele><time>2026-04-28T10:52:50.437Z</time></trkpt><trkpt lat="45.63898" lon="9.4180482"><ele>227.0</ele><time>2026-04-28T10:52:51.437Z</time></trkpt><trkpt lat="45.6388608" lon="9.4180159"><ele>227.00000000000003</ele><time>2026-04-28T10:52:53.437Z</time></trkpt><trkpt lat="45.6387951" lon="9.4179965"><ele>227.0</ele><time>2026-04-28T10:52:54.437Z</time></trkpt><trkpt lat="45.6386896" lon="9.4179729"><ele>227.0</ele><time>2026-04-28T10:52:56.437Z</time></trkpt><trkpt lat="45.6386247" lon="9.4179756"><ele>227.0</ele><time>2026-04-28T10:52:59.437Z</time></trkpt><trkpt lat="45.6385331" lon="9.4180253"><ele>227.00000000000003</ele><time>2026-04-28T10:53:02.437Z</time></trkpt><trkpt lat="45.6384354" lon="9.418074"><ele>227.0</ele><time>2026-04-28T10:53:04.437Z</time></trkpt><trkpt lat="45.6383305" lon="9.418115"><ele>226.42857142857144</ele><time>2026-04-28T10:53:06.437Z</time></trkpt><trkpt lat="45.6382623" lon="9.4181318"><ele>225.8571428571429</ele><time>2026-04-28T10:53:07.437Z</time></trkpt><trkpt lat="45.6381544" lon="9.4181336"><ele>225.28571428571428</ele><time>2026-04-28T10:53:09.437Z</time></trkpt><trkpt lat="45.6380914" lon="9.4181216"><ele>224.71428571428572</ele><time>2026-04-28T10:53:10.437Z</time></trkpt><trkpt lat="45.6380288" lon="9.4181065"><ele>224.14285714285714</ele><time>2026-04-28T10:53:11.437Z</time></trkpt><trkpt lat="45.6379615" lon="9.4180919"><ele>223.57142857142856</ele><time>2026-04-28T10:53:12.437Z</time></trkpt><trkpt lat="45.6378968" lon="9.4180722"><ele>223.0</ele><time>2026-04-28T10:53:13.437Z</time></trkpt><trkpt lat="45.63783" lon="9.4180491"><ele>223.14285714285714</ele><time>2026-04-28T10:53:14.437Z</time></trkpt><trkpt lat="45.637768" lon="9.4180262"><ele>223.28571428571428</ele><time>2026-04-28T10:53:15.437Z</time></trkpt><trkpt lat="45.6376987" lon="9.4180055"><ele>223.42857142857144</ele><time>2026-04-28T10:53:16.437Z</time></trkpt><trkpt lat="45.6376307" lon="9.4179862"><ele>223.57142857142856</ele><time>2026-04-28T10:53:17.437Z</time></trkpt><trkpt lat="45.6375633" lon="9.4179673"><ele>223.71428571428572</ele><time>2026-04-28T10:53:18.437Z</time></trkpt><trkpt lat="45.6374976" lon="9.4179496"><ele>223.85714285714286</ele><time>2026-04-28T10:53:19.437Z</time></trkpt><trkpt lat="45.6374224" lon="9.4179466"><ele>224.0</ele><time>2026-04-28T10:53:20.437Z</time></trkpt><trkpt lat="45.63735" lon="9.4179522"><ele>224.0</ele><time>2026-04-28T10:53:21.437Z</time></trkpt><trkpt lat="45.6372808" lon="9.4179531"><ele>224.0</ele><time>2026-04-28T10:53:22.436Z</time></trkpt><trkpt lat="45.637214" lon="9.417931"><ele>224.0</ele><time>2026-04-28T10:53:23.437Z</time></trkpt><trkpt lat="45.6371444" lon="9.4179043"><ele>224.0</ele><time>2026-04-28T10:53:24.437Z</time></trkpt><trkpt lat="45.637072" lon="9.417875"><ele>224.0</ele><time>2026-04-28T10:53:25.437Z</time></trkpt><trkpt lat="45.6370067" lon="9.4178416"><ele>224.0</ele><time>2026-04-28T10:53:26.437Z</time></trkpt><trkpt lat="45.6369454" lon="9.417808"><ele>224.0</ele><time>2026-04-28T10:53:27.437Z</time></trkpt><trkpt lat="45.6368807" lon="9.4177704"><ele>223.79999999999998</ele><time>2026-04-28T10:53:28.437Z</time></trkpt><trkpt lat="45.6368158" lon="9.4177317"><ele>223.59999999999997</ele><time>2026-04-28T10:53:29.437Z</time></trkpt><trkpt lat="45.6367519" lon="9.4176839"><ele>223.4</ele><time>2026-04-28T10:53:30.437Z</time></trkpt><trkpt lat="45.6366389" lon="9.417624"><ele>223.2</ele><time>2026-04-28T10:53:32.437Z</time></trkpt><trkpt lat="45.6365241" lon="9.4175581"><ele>223.0</ele><time>2026-04-28T10:53:34.437Z</time></trkpt><trkpt lat="45.6364134" lon="9.4175334"><ele>223.0</ele><time>2026-04-28T10:53:36.437Z</time></trkpt><trkpt lat="45.6363342" lon="9.4176029"><ele>223.0</ele><time>2026-04-28T10:53:38.437Z</time></trkpt><trkpt lat="45.6362697" lon="9.4177054"><ele>223.0</ele><time>2026-04-28T10:53:40.437Z</time></trkpt><trkpt lat="45.6362083" lon="9.4178397"><ele>223.0</ele><time>2026-04-28T10:53:42.437Z</time></trkpt><trkpt lat="45.6361484" lon="9.4179738"><ele>223.0</ele><time>2026-04-28T10:53:44.437Z</time></trkpt><trkpt lat="45.6360786" lon="9.4181124"><ele>223.4</ele><time>2026-04-28T10:53:46.437Z</time></trkpt><trkpt lat="45.6360146" lon="9.4182483"><ele>223.8</ele><time>2026-04-28T10:53:48.436Z</time></trkpt><trkpt lat="45.635953" lon="9.4183893"><ele>224.2</ele><time>2026-04-28T10:53:50.437Z</time></trkpt><trkpt lat="45.635896" lon="9.4185352"><ele>224.6</ele><time>2026-04-28T10:53:52.437Z</time></trkpt><trkpt lat="45.6358303" lon="9.4186251"><ele>225.0</ele><time>2026-04-28T10:53:54.437Z</time></trkpt><trkpt lat="45.6357902" lon="9.4187249"><ele>225.33333333333334</ele><time>2026-04-28T10:53:56.437Z</time></trkpt><trkpt lat="45.635762" lon="9.4188363"><ele>225.66666666666669</ele><time>2026-04-28T10:53:58.437Z</time></trkpt><trkpt lat="45.6357292" lon="9.4189581"><ele>226.0</ele><time>2026-04-28T10:54:00.437Z</time></trkpt><trkpt lat="45.6356941" lon="9.4190893"><ele>226.33333333333334</ele><time>2026-04-28T10:54:02.437Z</time></trkpt><trkpt lat="45.6356628" lon="9.4192068"><ele>226.66666666666669</ele><time>2026-04-28T10:54:04.437Z</time></trkpt><trkpt lat="45.6356389" lon="9.4192973"><ele>227.0</ele><time>2026-04-28T10:54:06.437Z</time></trkpt><trkpt lat="45.6356161" lon="9.4193956"><ele>227.00000000000003</ele><time>2026-04-28T10:54:08.437Z</time></trkpt><trkpt lat="45.6355869" lon="9.4194755"><ele>227.0</ele><time>2026-04-28T10:54:10.437Z</time></trkpt><trkpt lat="45.6355014" lon="9.4194165"><ele>227.0</ele><time>2026-04-28T10:54:13.437Z</time></trkpt><trkpt lat="45.635417" lon="9.4193339"><ele>227.0</ele><time>2026-04-28T10:54:15.437Z</time></trkpt><trkpt lat="45.6353584" lon="9.4192985"><ele>227.00000000000003</ele><time>2026-04-28T10:54:16.437Z</time></trkpt><trkpt lat="45.6352694" lon="9.4192427"><ele>227.0</ele><time>2026-04-28T10:54:18.437Z</time></trkpt><trkpt lat="45.6351607" lon="9.4191953"><ele>227.39999999999998</ele><time>2026-04-28T10:54:20.437Z</time></trkpt><trkpt lat="45.6350382" lon="9.4191282"><ele>227.79999999999998</ele><time>2026-04-28T10:54:22.436Z</time></trkpt><trkpt lat="45.6349272" lon="9.4190667"><ele>228.2</ele><time>2026-04-28T10:54:24.437Z</time></trkpt><trkpt lat="45.6348596" lon="9.4190414"><ele>228.6</ele><time>2026-04-28T10:54:25.437Z</time></trkpt><trkpt lat="45.6347916" lon="9.4190003"><ele>229.0</ele><time>2026-04-28T10:54:26.437Z</time></trkpt><trkpt lat="45.6346771" lon="9.4189358"><ele>228.99999999999997</ele><time>2026-04-28T10:54:28.437Z</time></trkpt><trkpt lat="45.6346156" lon="9.4188916"><ele>229.0</ele><time>2026-04-28T10:54:29.437Z</time></trkpt><trkpt lat="45.6345054" lon="9.4188253"><ele>229.0</ele><time>2026-04-28T10:54:31.437Z</time></trkpt><trkpt lat="45.6344444" lon="9.4187929"><ele>229.0</ele><time>2026-04-28T10:54:32.437Z</time></trkpt><trkpt lat="45.6343769" lon="9.4187769"><ele>228.99999999999997</ele><time>2026-04-28T10:54:33.437Z</time></trkpt><trkpt lat="45.6343137" lon="9.4187538"><ele>229.0</ele><time>2026-04-28T10:54:34.436Z</time></trkpt><trkpt lat="45.634235" lon="9.4187337"><ele>228.28571428571428</ele><time>2026-04-28T10:54:35.437Z</time></trkpt><trkpt lat="45.6341673" lon="9.4187119"><ele>227.57142857142858</ele><time>2026-04-28T10:54:36.437Z</time></trkpt><trkpt lat="45.6341021" lon="9.4187022"><ele>226.85714285714286</ele><time>2026-04-28T10:54:37.437Z</time></trkpt><trkpt lat="45.6340345" lon="9.4186918"><ele>226.14285714285714</ele><time>2026-04-28T10:54:38.437Z</time></trkpt><trkpt lat="45.6339719" lon="9.4186731"><ele>225.42857142857144</ele><time>2026-04-28T10:54:39.437Z</time></trkpt><trkpt lat="45.6339097" lon="9.4186529"><ele>224.71428571428572</ele><time>2026-04-28T10:54:40.437Z</time></trkpt><trkpt lat="45.6338467" lon="9.4186253"><ele>224.0</ele><time>2026-04-28T10:54:41.437Z</time></trkpt><trkpt lat="45.6337736" lon="9.4186026"><ele>224.0</ele><time>2026-04-28T10:54:42.437Z</time></trkpt><trkpt lat="45.6336572" lon="9.4185812"><ele>223.99999999999997</ele><time>2026-04-28T10:54:44.437Z</time></trkpt><trkpt lat="45.6335891" lon="9.4185558"><ele>223.99999999999997</ele><time>2026-04-28T10:54:45.437Z</time></trkpt><trkpt lat="45.6334756" lon="9.4185265"><ele>224.0</ele><time>2026-04-28T10:54:47.436Z</time></trkpt><trkpt lat="45.6333584" lon="9.4185048"><ele>224.0</ele><time>2026-04-28T10:54:49.437Z</time></trkpt><trkpt lat="45.6332907" lon="9.4184943"><ele>224.0</ele><time>2026-04-28T10:54:50.437Z</time></trkpt><trkpt lat="45.6332187" lon="9.4184843"><ele>224.0</ele><time>2026-04-28T10:54:51.437Z</time></trkpt><trkpt lat="45.6331559" lon="9.4184688"><ele>224.0</ele><time>2026-04-28T10:54:52.437Z</time></trkpt><trkpt lat="45.6330917" lon="9.418459"><ele>224.0</ele><time>2026-04-28T10:54:53.437Z</time></trkpt><trkpt lat="45.6330255" lon="9.4184454"><ele>224.0</ele><time>2026-04-28T10:54:54.437Z</time></trkpt><trkpt lat="45.6329588" lon="9.4184265"><ele>224.0</ele><time>2026-04-28T10:54:55.436Z</time></trkpt><trkpt lat="45.6328946" lon="9.418425"><ele>224.0</ele><time>2026-04-28T10:54:56.437Z</time></trkpt><trkpt lat="45.632781" lon="9.4184038"><ele>224.0</ele><time>2026-04-28T10:54:58.437Z</time></trkpt><trkpt lat="45.6327166" lon="9.4183851"><ele>224.0</ele><time>2026-04-28T10:54:59.437Z</time></trkpt><trkpt lat="45.6326329" lon="9.4183551"><ele>224.0</ele><time>2026-04-28T10:55:00.437Z</time></trkpt><trkpt lat="45.6325509" lon="9.4183533"><ele>224.0</ele><time>2026-04-28T10:55:01.437Z</time></trkpt><trkpt lat="45.632482" lon="9.4183455"><ele>224.0</ele><time>2026-04-28T10:55:02.437Z</time></trkpt><trkpt lat="45.6324108" lon="9.418333"><ele>224.0</ele><time>2026-04-28T10:55:03.436Z</time></trkpt><trkpt lat="45.6323449" lon="9.4182987"><ele>224.0</ele><time>2026-04-28T10:55:04.437Z</time></trkpt><trkpt lat="45.6322746" lon="9.4182923"><ele>224.0</ele><time>2026-04-28T10:55:05.437Z</time></trkpt><trkpt lat="45.6321566" lon="9.4182731"><ele>223.99999999999997</ele><time>2026-04-28T10:55:07.437Z</time></trkpt><trkpt lat="45.6320883" lon="9.4182517"><ele>223.99999999999997</ele><time>2026-04-28T10:55:08.437Z</time></trkpt><trkpt lat="45.6320085" lon="9.4182307"><ele>224.0</ele><time>2026-04-28T10:55:09.437Z</time></trkpt><trkpt lat="45.6319186" lon="9.4182215"><ele>224.0</ele><time>2026-04-28T10:55:10.437Z</time></trkpt><trkpt lat="45.6318293" lon="9.4181922"><ele>223.83333333333334</ele><time>2026-04-28T10:55:11.437Z</time></trkpt><trkpt lat="45.63175" lon="9.4181792"><ele>223.66666666666669</ele><time>2026-04-28T10:55:12.437Z</time></trkpt><trkpt lat="45.6316773" lon="9.4181583"><ele>223.5</ele><time>2026-04-28T10:55:13.437Z</time></trkpt><trkpt lat="45.6316131" lon="9.4181487"><ele>223.33333333333331</ele><time>2026-04-28T10:55:14.437Z</time></trkpt><trkpt lat="45.6314966" lon="9.4181217"><ele>223.16666666666666</ele><time>2026-04-28T10:55:16.437Z</time></trkpt><trkpt lat="45.6313947" lon="9.4181083"><ele>223.0</ele><time>2026-04-28T10:55:18.437Z</time></trkpt><trkpt lat="45.6313171" lon="9.4180836"><ele>223.0</ele><time>2026-04-28T10:55:20.437Z</time></trkpt><trkpt lat="45.6312162" lon="9.4180642"><ele>223.0</ele><time>2026-04-28T10:55:22.437Z</time></trkpt><trkpt lat="45.6310885" lon="9.4180494"><ele>223.0</ele><time>2026-04-28T10:55:24.437Z</time></trkpt><trkpt lat="45.6309652" lon="9.4180405"><ele>223.0</ele><time>2026-04-28T10:55:26.437Z</time></trkpt><trkpt lat="45.6308491" lon="9.4180292"><ele>223.5</ele><time>2026-04-28T10:55:28.437Z</time></trkpt><trkpt lat="45.6307363" lon="9.4180667"><ele>224.0</ele><time>2026-04-28T10:55:30.436Z</time></trkpt><trkpt lat="45.6306294" lon="9.4180856"><ele>224.5</ele><time>2026-04-28T10:55:32.437Z</time></trkpt><trkpt lat="45.6305096" lon="9.4180885"><ele>225.0</ele><time>2026-04-28T10:55:34.437Z</time></trkpt><trkpt lat="45.6303889" lon="9.4180883"><ele>224.2</ele><time>2026-04-28T10:55:36.437Z</time></trkpt><trkpt lat="45.6302823" lon="9.4181501"><ele>223.4</ele><time>2026-04-28T10:55:38.437Z</time></trkpt><trkpt lat="45.630199" lon="9.4181534"><ele>222.60000000000002</ele><time>2026-04-28T10:55:39.437Z</time></trkpt><trkpt lat="45.6300778" lon="9.4181172"><ele>221.8</ele><time>2026-04-28T10:55:41.437Z</time></trkpt><trkpt lat="45.6300046" lon="9.4180998"><ele>221.0</ele><time>2026-04-28T10:55:42.437Z</time></trkpt><trkpt lat="45.6299391" lon="9.4180813"><ele>221.0</ele><time>2026-04-28T10:55:43.437Z</time></trkpt><trkpt lat="45.6298171" lon="9.4181119"><ele>221.00000000000003</ele><time>2026-04-28T10:55:45.437Z</time></trkpt><trkpt lat="45.6297607" lon="9.4181529"><ele>221.00000000000003</ele><time>2026-04-28T10:55:46.437Z</time></trkpt><trkpt lat="45.6296972" lon="9.4181905"><ele>221.0</ele><time>2026-04-28T10:55:47.437Z</time></trkpt><trkpt lat="45.6295655" lon="9.4182348"><ele>221.0</ele><time>2026-04-28T10:55:49.437Z</time></trkpt><trkpt lat="45.6294948" lon="9.4182582"><ele>220.60000000000002</ele><time>2026-04-28T10:55:50.437Z</time></trkpt><trkpt lat="45.6294274" lon="9.4182727"><ele>220.20000000000002</ele><time>2026-04-28T10:55:51.437Z</time></trkpt><trkpt lat="45.6293454" lon="9.418284"><ele>219.79999999999998</ele><time>2026-04-28T10:55:52.437Z</time></trkpt><trkpt lat="45.629265" lon="9.4182994"><ele>219.39999999999998</ele><time>2026-04-28T10:55:53.437Z</time></trkpt><trkpt lat="45.6291323" lon="9.4183221"><ele>219.0</ele><time>2026-04-28T10:55:55.437Z</time></trkpt><trkpt lat="45.6290079" lon="9.4183378"><ele>219.0</ele><time>2026-04-28T10:55:57.437Z</time></trkpt><trkpt lat="45.6289262" lon="9.4183535"><ele>219.0</ele><time>2026-04-28T10:55:58.437Z</time></trkpt><trkpt lat="45.628854" lon="9.4183693"><ele>219.0</ele><time>2026-04-28T10:55:59.437Z</time></trkpt><trkpt lat="45.6287769" lon="9.4183782"><ele>219.0</ele><time>2026-04-28T10:56:00.437Z</time></trkpt><trkpt lat="45.6286976" lon="9.4183868"><ele>219.0</ele><time>2026-04-28T10:56:01.437Z</time></trkpt><trkpt lat="45.6286246" lon="9.4183889"><ele>219.0</ele><time>2026-04-28T10:56:02.437Z</time></trkpt><trkpt lat="45.6285576" lon="9.4183968"><ele>218.42857142857144</ele><time>2026-04-28T10:56:03.437Z</time></trkpt><trkpt lat="45.6284927" lon="9.4184015"><ele>217.85714285714283</ele><time>2026-04-28T10:56:04.437Z</time></trkpt><trkpt lat="45.6284226" lon="9.4184005"><ele>217.28571428571428</ele><time>2026-04-28T10:56:05.437Z</time></trkpt><trkpt lat="45.6283554" lon="9.4183952"><ele>216.71428571428572</ele><time>2026-04-28T10:56:06.437Z</time></trkpt><trkpt lat="45.6282808" lon="9.4183826"><ele>216.14285714285717</ele><time>2026-04-28T10:56:07.437Z</time></trkpt><trkpt lat="45.6281992" lon="9.4183706"><ele>215.57142857142856</ele><time>2026-04-28T10:56:08.437Z</time></trkpt><trkpt lat="45.6281294" lon="9.4183617"><ele>215.0</ele><time>2026-04-28T10:56:09.437Z</time></trkpt><trkpt lat="45.6280532" lon="9.4183596"><ele>215.0</ele><time>2026-04-28T10:56:10.437Z</time></trkpt><trkpt lat="45.6279837" lon="9.4183529"><ele>215.0</ele><time>2026-04-28T10:56:11.437Z</time></trkpt><trkpt lat="45.6279083" lon="9.4183497"><ele>215.0</ele><time>2026-04-28T10:56:12.437Z</time></trkpt><trkpt lat="45.6278438" lon="9.4183386"><ele>215.0</ele><time>2026-04-28T10:56:13.437Z</time></trkpt><trkpt lat="45.6277695" lon="9.4183319"><ele>215.0</ele><time>2026-04-28T10:56:14.437Z</time></trkpt><trkpt lat="45.6276984" lon="9.4183235"><ele>215.0</ele><time>2026-04-28T10:56:15.437Z</time></trkpt><trkpt lat="45.6276248" lon="9.4183207"><ele>215.0</ele><time>2026-04-28T10:56:16.437Z</time></trkpt><trkpt lat="45.6275486" lon="9.4183229"><ele>215.00000000000003</ele><time>2026-04-28T10:56:17.437Z</time></trkpt><trkpt lat="45.6274689" lon="9.4183097"><ele>215.0</ele><time>2026-04-28T10:56:18.437Z</time></trkpt><trkpt lat="45.6273938" lon="9.4183136"><ele>215.0</ele><time>2026-04-28T10:56:19.437Z</time></trkpt><trkpt lat="45.6273123" lon="9.4183133"><ele>215.0</ele><time>2026-04-28T10:56:20.437Z</time></trkpt><trkpt lat="45.6272404" lon="9.4182927"><ele>215.00000000000003</ele><time>2026-04-28T10:56:21.437Z</time></trkpt><trkpt lat="45.6271667" lon="9.418275"><ele>215.0</ele><time>2026-04-28T10:56:22.437Z</time></trkpt><trkpt lat="45.6270964" lon="9.4182646"><ele>215.0</ele><time>2026-04-28T10:56:23.437Z</time></trkpt><trkpt lat="45.6270244" lon="9.4182825"><ele>215.0</ele><time>2026-04-28T10:56:24.437Z</time></trkpt><trkpt lat="45.6269551" lon="9.4182829"><ele>215.0</ele><time>2026-04-28T10:56:25.437Z</time></trkpt><trkpt lat="45.6268825" lon="9.4182743"><ele>215.0</ele><time>2026-04-28T10:56:26.437Z</time></trkpt><trkpt lat="45.6268174" lon="9.4182653"><ele>215.0</ele><time>2026-04-28T10:56:27.437Z</time></trkpt><trkpt lat="45.6267426" lon="9.4182544"><ele>215.0</ele><time>2026-04-28T10:56:28.437Z</time></trkpt><trkpt lat="45.6266692" lon="9.4182381"><ele>215.0</ele><time>2026-04-28T10:56:29.437Z</time></trkpt><trkpt lat="45.6265948" lon="9.4182314"><ele>215.16666666666669</ele><time>2026-04-28T10:56:30.437Z</time></trkpt><trkpt lat="45.626518" lon="9.4182205"><ele>215.33333333333334</ele><time>2026-04-28T10:56:31.437Z</time></trkpt><trkpt lat="45.6264289" lon="9.418206"><ele>215.5</ele><time>2026-04-28T10:56:32.437Z</time></trkpt><trkpt lat="45.6263573" lon="9.4181953"><ele>215.66666666666669</ele><time>2026-04-28T10:56:33.437Z</time></trkpt><trkpt lat="45.6262779" lon="9.41818"><ele>215.83333333333334</ele><time>2026-04-28T10:56:34.437Z</time></trkpt><trkpt lat="45.6262016" lon="9.4181639"><ele>216.0</ele><time>2026-04-28T10:56:35.437Z</time></trkpt><trkpt lat="45.6261275" lon="9.4181498"><ele>215.71428571428572</ele><time>2026-04-28T10:56:36.437Z</time></trkpt><trkpt lat="45.6260589" lon="9.4181391"><ele>215.42857142857142</ele><time>2026-04-28T10:56:37.437Z</time></trkpt><trkpt lat="45.625986" lon="9.4181252"><ele>215.14285714285717</ele><time>2026-04-28T10:56:38.437Z</time></trkpt><trkpt lat="45.6259052" lon="9.4181217"><ele>214.85714285714286</ele><time>2026-04-28T10:56:39.437Z</time></trkpt><trkpt lat="45.6258294" lon="9.4181163"><ele>214.57142857142858</ele><time>2026-04-28T10:56:40.437Z</time></trkpt><trkpt lat="45.6257548" lon="9.418112"><ele>214.2857142857143</ele><time>2026-04-28T10:56:41.437Z</time></trkpt><trkpt lat="45.6256874" lon="9.4181061"><ele>214.0</ele><time>2026-04-28T10:56:42.437Z</time></trkpt><trkpt lat="45.6256171" lon="9.4180866"><ele>214.00000000000003</ele><time>2026-04-28T10:56:43.437Z</time></trkpt><trkpt lat="45.6255368" lon="9.4180773"><ele>214.0</ele><time>2026-04-28T10:56:44.437Z</time></trkpt><trkpt lat="45.6254647" lon="9.4180619"><ele>214.0</ele><time>2026-04-28T10:56:45.437Z</time></trkpt><trkpt lat="45.6253934" lon="9.418035"><ele>214.0</ele><time>2026-04-28T10:56:46.437Z</time></trkpt><trkpt lat="45.625335" lon="9.417988"><ele>214.0</ele><time>2026-04-28T10:56:47.437Z</time></trkpt><trkpt lat="45.6252842" lon="9.4179337"><ele>214.00000000000003</ele><time>2026-04-28T10:56:48.437Z</time></trkpt><trkpt lat="45.6252337" lon="9.417876"><ele>214.0</ele><time>2026-04-28T10:56:49.437Z</time></trkpt><trkpt lat="45.6251596" lon="9.417771"><ele>213.83333333333331</ele><time>2026-04-28T10:56:51.437Z</time></trkpt><trkpt lat="45.6250852" lon="9.4177107"><ele>213.66666666666666</ele><time>2026-04-28T10:56:54.437Z</time></trkpt><trkpt lat="45.6250158" lon="9.4177188"><ele>213.5</ele><time>2026-04-28T10:56:56.437Z</time></trkpt><trkpt lat="45.6249252" lon="9.4177817"><ele>213.33333333333331</ele><time>2026-04-28T10:56:58.437Z</time></trkpt><trkpt lat="45.6248576" lon="9.4178624"><ele>213.16666666666666</ele><time>2026-04-28T10:57:00.437Z</time></trkpt><trkpt lat="45.6247876" lon="9.4179706"><ele>213.0</ele><time>2026-04-28T10:57:02.437Z</time></trkpt><trkpt lat="45.6246793" lon="9.4179953"><ele>213.60000000000002</ele><time>2026-04-28T10:57:04.437Z</time></trkpt><trkpt lat="45.6245821" lon="9.417993"><ele>214.20000000000002</ele><time>2026-04-28T10:57:06.437Z</time></trkpt><trkpt lat="45.6244721" lon="9.4179854"><ele>214.8</ele><time>2026-04-28T10:57:08.437Z</time></trkpt><trkpt lat="45.6243578" lon="9.4179583"><ele>215.4</ele><time>2026-04-28T10:57:10.436Z</time></trkpt><trkpt lat="45.6242398" lon="9.4179078"><ele>216.0</ele><time>2026-04-28T10:57:12.437Z</time></trkpt><trkpt lat="45.6241741" lon="9.417888"><ele>216.0</ele><time>2026-04-28T10:57:13.437Z</time></trkpt><trkpt lat="45.6240469" lon="9.4178695"><ele>216.0</ele><time>2026-04-28T10:57:15.437Z</time></trkpt><trkpt lat="45.6239337" lon="9.4178552"><ele>216.0</ele><time>2026-04-28T10:57:17.437Z</time></trkpt><trkpt lat="45.623867" lon="9.4178443"><ele>216.0</ele><time>2026-04-28T10:57:18.437Z</time></trkpt><trkpt lat="45.6238046" lon="9.4178319"><ele>216.0</ele><time>2026-04-28T10:57:19.437Z</time></trkpt><trkpt lat="45.6237364" lon="9.4178186"><ele>216.0</ele><time>2026-04-28T10:57:20.437Z</time></trkpt><trkpt lat="45.6236165" lon="9.4178029"><ele>215.8</ele><time>2026-04-28T10:57:22.437Z</time></trkpt><trkpt lat="45.6234976" lon="9.4177851"><ele>215.60000000000002</ele><time>2026-04-28T10:57:24.436Z</time></trkpt><trkpt lat="45.6234293" lon="9.4177753"><ele>215.4</ele><time>2026-04-28T10:57:25.437Z</time></trkpt><trkpt lat="45.6233053" lon="9.4177654"><ele>215.2</ele><time>2026-04-28T10:57:27.437Z</time></trkpt><trkpt lat="45.6231944" lon="9.4177525"><ele>215.0</ele><time>2026-04-28T10:57:29.436Z</time></trkpt><trkpt lat="45.623131" lon="9.4177424"><ele>215.0</ele><time>2026-04-28T10:57:30.437Z</time></trkpt><trkpt lat="45.6230648" lon="9.4177369"><ele>215.0</ele><time>2026-04-28T10:57:31.437Z</time></trkpt><trkpt lat="45.6230018" lon="9.4177264"><ele>215.0</ele><time>2026-04-28T10:57:32.437Z</time></trkpt><trkpt lat="45.6228793" lon="9.4177056"><ele>215.0</ele><time>2026-04-28T10:57:34.437Z</time></trkpt><trkpt lat="45.6227816" lon="9.4176621"><ele>215.0</ele><time>2026-04-28T10:57:36.437Z</time></trkpt><trkpt lat="45.6226618" lon="9.417663"><ele>214.8</ele><time>2026-04-28T10:57:38.437Z</time></trkpt><trkpt lat="45.6225979" lon="9.4176822"><ele>214.6</ele><time>2026-04-28T10:57:39.437Z</time></trkpt><trkpt lat="45.6225014" lon="9.4177719"><ele>214.39999999999998</ele><time>2026-04-28T10:57:41.437Z</time></trkpt><trkpt lat="45.6224213" lon="9.4178838"><ele>214.2</ele><time>2026-04-28T10:57:43.437Z</time></trkpt><trkpt lat="45.6223424" lon="9.4179931"><ele>214.0</ele><time>2026-04-28T10:57:45.437Z</time></trkpt><trkpt lat="45.6222847" lon="9.4180431"><ele>213.99999999999997</ele><time>2026-04-28T10:57:46.436Z</time></trkpt><trkpt lat="45.6221979" lon="9.4181083"><ele>214.0</ele><time>2026-04-28T10:57:48.437Z</time></trkpt><trkpt lat="45.6221045" lon="9.4180992"><ele>214.0</ele><time>2026-04-28T10:57:50.437Z</time></trkpt><trkpt lat="45.6220178" lon="9.4180972"><ele>214.0</ele><time>2026-04-28T10:57:52.437Z</time></trkpt><trkpt lat="45.6219526" lon="9.4181084"><ele>213.99999999999997</ele><time>2026-04-28T10:57:53.437Z</time></trkpt><trkpt lat="45.6218849" lon="9.4181143"><ele>214.0</ele><time>2026-04-28T10:57:54.437Z</time></trkpt><trkpt lat="45.6218066" lon="9.4181237"><ele>213.83333333333331</ele><time>2026-04-28T10:57:55.437Z</time></trkpt><trkpt lat="45.6217412" lon="9.4181303"><ele>213.66666666666666</ele><time>2026-04-28T10:57:56.437Z</time></trkpt><trkpt lat="45.6216732" lon="9.4181275"><ele>213.5</ele><time>2026-04-28T10:57:57.437Z</time></trkpt><trkpt lat="45.6215557" lon="9.4181609"><ele>213.33333333333331</ele><time>2026-04-28T10:57:59.437Z</time></trkpt><trkpt lat="45.6214642" lon="9.4181653"><ele>213.16666666666666</ele><time>2026-04-28T10:58:00.437Z</time></trkpt><trkpt lat="45.6213815" lon="9.4181825"><ele>213.0</ele><time>2026-04-28T10:58:01.437Z</time></trkpt><trkpt lat="45.6212902" lon="9.4182158"><ele>213.0</ele><time>2026-04-28T10:58:03.437Z</time></trkpt><trkpt lat="45.6212276" lon="9.4182406"><ele>213.0</ele><time>2026-04-28T10:58:04.437Z</time></trkpt><trkpt lat="45.621165" lon="9.4182793"><ele>213.0</ele><time>2026-04-28T10:58:05.437Z</time></trkpt><trkpt lat="45.6210957" lon="9.418296"><ele>213.0</ele><time>2026-04-28T10:58:06.437Z</time></trkpt><trkpt lat="45.6209756" lon="9.4183416"><ele>213.0</ele><time>2026-04-28T10:58:08.437Z</time></trkpt><trkpt lat="45.6209145" lon="9.4183867"><ele>213.0</ele><time>2026-04-28T10:58:09.437Z</time></trkpt><trkpt lat="45.6208081" lon="9.4184253"><ele>212.8</ele><time>2026-04-28T10:58:11.437Z</time></trkpt><trkpt lat="45.6207307" lon="9.4185872"><ele>212.60000000000002</ele><time>2026-04-28T10:58:15.437Z</time></trkpt><trkpt lat="45.62071" lon="9.4187362"><ele>212.39999999999998</ele><time>2026-04-28T10:58:17.437Z</time></trkpt><trkpt lat="45.6207108" lon="9.4188787"><ele>212.2</ele><time>2026-04-28T10:58:19.437Z</time></trkpt><trkpt lat="45.6207118" lon="9.4190194"><ele>212.0</ele><time>2026-04-28T10:58:21.436Z</time></trkpt><trkpt lat="45.6207146" lon="9.4191642"><ele>211.6</ele><time>2026-04-28T10:58:23.437Z</time></trkpt><trkpt lat="45.6207192" lon="9.4193195"><ele>211.2</ele><time>2026-04-28T10:58:25.437Z</time></trkpt><trkpt lat="45.6207302" lon="9.4194897"><ele>210.8</ele><time>2026-04-28T10:58:27.437Z</time></trkpt><trkpt lat="45.620723" lon="9.4196134"><ele>210.4</ele><time>2026-04-28T10:58:29.437Z</time></trkpt><trkpt lat="45.6207007" lon="9.4197038"><ele>210.0</ele><time>2026-04-28T10:58:31.436Z</time></trkpt><trkpt lat="45.6205916" lon="9.4197486"><ele>210.0</ele><time>2026-04-28T10:58:34.437Z</time></trkpt><trkpt lat="45.6204734" lon="9.4197566"><ele>210.0</ele><time>2026-04-28T10:58:36.437Z</time></trkpt><trkpt lat="45.6203474" lon="9.4197542"><ele>210.0</ele><time>2026-04-28T10:58:38.437Z</time></trkpt><trkpt lat="45.6202792" lon="9.4197577"><ele>210.0</ele><time>2026-04-28T10:58:39.437Z</time></trkpt><trkpt lat="45.6201563" lon="9.4197691"><ele>210.0</ele><time>2026-04-28T10:58:41.437Z</time></trkpt><trkpt lat="45.6200394" lon="9.4197854"><ele>209.6</ele><time>2026-04-28T10:58:43.437Z</time></trkpt><trkpt lat="45.6199717" lon="9.419786"><ele>209.2</ele><time>2026-04-28T10:58:44.437Z</time></trkpt><trkpt lat="45.6198619" lon="9.4198054"><ele>208.8</ele><time>2026-04-28T10:58:46.436Z</time></trkpt><trkpt lat="45.6197673" lon="9.419869"><ele>208.4</ele><time>2026-04-28T10:58:48.437Z</time></trkpt><trkpt lat="45.6197164" lon="9.4200076"><ele>208.0</ele><time>2026-04-28T10:58:50.437Z</time></trkpt><trkpt lat="45.6196989" lon="9.4201482"><ele>208.0</ele><time>2026-04-28T10:58:52.437Z</time></trkpt><trkpt lat="45.619683" lon="9.4203001"><ele>208.0</ele><time>2026-04-28T10:58:54.437Z</time></trkpt><trkpt lat="45.6196828" lon="9.4204472"><ele>208.0</ele><time>2026-04-28T10:58:56.437Z</time></trkpt><trkpt lat="45.6196734" lon="9.4205988"><ele>208.0</ele><time>2026-04-28T10:58:58.437Z</time></trkpt><trkpt lat="45.619664" lon="9.4207527"><ele>208.0</ele><time>2026-04-28T10:59:00.437Z</time></trkpt><trkpt lat="45.6196439" lon="9.4209228"><ele>208.2</ele><time>2026-04-28T10:59:02.437Z</time></trkpt><trkpt lat="45.6196343" lon="9.4210661"><ele>208.4</ele><time>2026-04-28T10:59:04.437Z</time></trkpt><trkpt lat="45.6196249" lon="9.4211561"><ele>208.6</ele><time>2026-04-28T10:59:05.437Z</time></trkpt><trkpt lat="45.6196243" lon="9.4212481"><ele>208.79999999999998</ele><time>2026-04-28T10:59:06.437Z</time></trkpt><trkpt lat="45.6196179" lon="9.4214058"><ele>209.0</ele><time>2026-04-28T10:59:08.437Z</time></trkpt><trkpt lat="45.6196099" lon="9.4215661"><ele>209.2</ele><time>2026-04-28T10:59:10.437Z</time></trkpt><trkpt lat="45.6195997" lon="9.4217256"><ele>209.39999999999998</ele><time>2026-04-28T10:59:12.437Z</time></trkpt><trkpt lat="45.6195883" lon="9.4218797"><ele>209.6</ele><time>2026-04-28T10:59:14.437Z</time></trkpt><trkpt lat="45.6195802" lon="9.4220467"><ele>209.8</ele><time>2026-04-28T10:59:16.437Z</time></trkpt><trkpt lat="45.619576" lon="9.4221996"><ele>210.0</ele><time>2026-04-28T10:59:18.437Z</time></trkpt><trkpt lat="45.6195749" lon="9.4223802"><ele>210.0</ele><time>2026-04-28T10:59:20.437Z</time></trkpt><trkpt lat="45.6195694" lon="9.422519"><ele>210.0</ele><time>2026-04-28T10:59:22.436Z</time></trkpt><trkpt lat="45.6195645" lon="9.422628"><ele>210.0</ele><time>2026-04-28T10:59:24.436Z</time></trkpt><trkpt lat="45.6195627" lon="9.422735"><ele>210.0</ele><time>2026-04-28T10:59:26.437Z</time></trkpt><trkpt lat="45.6195571" lon="9.4228358"><ele>210.0</ele><time>2026-04-28T10:59:29.437Z</time></trkpt><trkpt lat="45.6195497" lon="9.4229792"><ele>210.0</ele><time>2026-04-28T10:59:35.437Z</time></trkpt><trkpt lat="45.6195411" lon="9.4231537"><ele>210.0</ele><time>2026-04-28T10:59:37.437Z</time></trkpt><trkpt lat="45.6195296" lon="9.4233018"><ele>210.0</ele><time>2026-04-28T10:59:39.437Z</time></trkpt><trkpt lat="45.6195377" lon="9.4234647"><ele>210.0</ele><time>2026-04-28T10:59:41.437Z</time></trkpt><trkpt lat="45.6195405" lon="9.4236366"><ele>210.0</ele><time>2026-04-28T10:59:43.437Z</time></trkpt><trkpt lat="45.619538" lon="9.4237894"><ele>210.0</ele><time>2026-04-28T10:59:45.437Z</time></trkpt><trkpt lat="45.6195317" lon="9.4238829"><ele>209.8</ele><time>2026-04-28T10:59:46.437Z</time></trkpt><trkpt lat="45.6195216" lon="9.4240577"><ele>209.6</ele><time>2026-04-28T10:59:48.437Z</time></trkpt><trkpt lat="45.6195182" lon="9.424212"><ele>209.39999999999998</ele><time>2026-04-28T10:59:50.437Z</time></trkpt><trkpt lat="45.6195156" lon="9.424365"><ele>209.2</ele><time>2026-04-28T10:59:52.437Z</time></trkpt><trkpt lat="45.619511" lon="9.4245082"><ele>209.0</ele><time>2026-04-28T10:59:54.437Z</time></trkpt><trkpt lat="45.6194991" lon="9.4246785"><ele>209.00000000000003</ele><time>2026-04-28T10:59:56.437Z</time></trkpt><trkpt lat="45.6194904" lon="9.42485"><ele>209.0</ele><time>2026-04-28T10:59:58.437Z</time></trkpt><trkpt lat="45.6194846" lon="9.4249451"><ele>209.0</ele><time>2026-04-28T10:59:59.437Z</time></trkpt><trkpt lat="45.6194767" lon="9.4251217"><ele>209.0</ele><time>2026-04-28T11:00:01.437Z</time></trkpt><trkpt lat="45.6194777" lon="9.4252211"><ele>209.00000000000003</ele><time>2026-04-28T11:00:02.437Z</time></trkpt><trkpt lat="45.6194721" lon="9.4253191"><ele>209.0</ele><time>2026-04-28T11:00:03.437Z</time></trkpt><trkpt lat="45.6194723" lon="9.4254174"><ele>209.0</ele><time>2026-04-28T11:00:04.437Z</time></trkpt><trkpt lat="45.6194613" lon="9.4255892"><ele>209.0</ele><time>2026-04-28T11:00:06.437Z</time></trkpt><trkpt lat="45.619453" lon="9.4257469"><ele>209.0</ele><time>2026-04-28T11:00:08.437Z</time></trkpt><trkpt lat="45.6194424" lon="9.4259161"><ele>209.0</ele><time>2026-04-28T11:00:10.437Z</time></trkpt><trkpt lat="45.6194368" lon="9.4260988"><ele>209.0</ele><time>2026-04-28T11:00:12.437Z</time></trkpt><trkpt lat="45.6194417" lon="9.4262587"><ele>209.0</ele><time>2026-04-28T11:00:14.437Z</time></trkpt><trkpt lat="45.6194653" lon="9.4264095"><ele>209.0</ele><time>2026-04-28T11:00:16.437Z</time></trkpt><trkpt lat="45.6194572" lon="9.4265598"><ele>209.0</ele><time>2026-04-28T11:00:18.437Z</time></trkpt><trkpt lat="45.6194442" lon="9.426731"><ele>209.0</ele><time>2026-04-28T11:00:20.437Z</time></trkpt><trkpt lat="45.6194479" lon="9.4268826"><ele>209.00000000000003</ele><time>2026-04-28T11:00:22.437Z</time></trkpt><trkpt lat="45.6194677" lon="9.4270356"><ele>209.0</ele><time>2026-04-28T11:00:24.437Z</time></trkpt><trkpt lat="45.6194565" lon="9.4271769"><ele>209.0</ele><time>2026-04-28T11:00:26.437Z</time></trkpt><trkpt lat="45.6194384" lon="9.4272904"><ele>209.0</ele><time>2026-04-28T11:00:28.437Z</time></trkpt><trkpt lat="45.6194275" lon="9.4273972"><ele>209.00000000000003</ele><time>2026-04-28T11:00:30.436Z</time></trkpt><trkpt lat="45.6194702" lon="9.4274704"><ele>209.0</ele><time>2026-04-28T11:00:32.437Z</time></trkpt><trkpt lat="45.619522" lon="9.4275701"><ele>208.83333333333334</ele><time>2026-04-28T11:00:34.437Z</time></trkpt><trkpt lat="45.6195706" lon="9.427674"><ele>208.66666666666669</ele><time>2026-04-28T11:00:36.437Z</time></trkpt><trkpt lat="45.6196252" lon="9.4277775"><ele>208.5</ele><time>2026-04-28T11:00:38.437Z</time></trkpt><trkpt lat="45.6196719" lon="9.4278659"><ele>208.33333333333331</ele><time>2026-04-28T11:00:40.437Z</time></trkpt><trkpt lat="45.6197207" lon="9.4279513"><ele>208.16666666666666</ele><time>2026-04-28T11:00:42.437Z</time></trkpt><trkpt lat="45.6197926" lon="9.4280724"><ele>208.0</ele><time>2026-04-28T11:00:44.437Z</time></trkpt><trkpt lat="45.6198451" lon="9.4281958"><ele>207.99999999999997</ele><time>2026-04-28T11:00:46.436Z</time></trkpt><trkpt lat="45.6198766" lon="9.4282755"><ele>208.0</ele><time>2026-04-28T11:00:47.437Z</time></trkpt><trkpt lat="45.6199014" lon="9.4284196"><ele>208.0</ele><time>2026-04-28T11:00:49.437Z</time></trkpt><trkpt lat="45.6199135" lon="9.4285342"><ele>208.0</ele><time>2026-04-28T11:00:50.437Z</time></trkpt><trkpt lat="45.6199014" lon="9.4286945"><ele>207.99999999999997</ele><time>2026-04-28T11:00:52.437Z</time></trkpt><trkpt lat="45.6198846" lon="9.4287853"><ele>208.0</ele><time>2026-04-28T11:00:53.437Z</time></trkpt><trkpt lat="45.6198546" lon="9.4289249"><ele>208.0</ele><time>2026-04-28T11:00:55.437Z</time></trkpt><trkpt lat="45.6198467" lon="9.4290226"><ele>208.0</ele><time>2026-04-28T11:00:56.437Z</time></trkpt><trkpt lat="45.6198288" lon="9.4291109"><ele>208.0</ele><time>2026-04-28T11:00:57.437Z</time></trkpt><trkpt lat="45.6197997" lon="9.4292837"><ele>208.0</ele><time>2026-04-28T11:00:59.437Z</time></trkpt><trkpt lat="45.6197731" lon="9.4294476"><ele>208.0</ele><time>2026-04-28T11:01:01.437Z</time></trkpt><trkpt lat="45.6197424" lon="9.4295999"><ele>208.0</ele><time>2026-04-28T11:01:03.437Z</time></trkpt><trkpt lat="45.6197123" lon="9.4297419"><ele>208.0</ele><time>2026-04-28T11:01:05.437Z</time></trkpt><trkpt lat="45.6196707" lon="9.4298819"><ele>208.0</ele><time>2026-04-28T11:01:07.436Z</time></trkpt><trkpt lat="45.6195879" lon="9.4299898"><ele>208.0</ele><time>2026-04-28T11:01:09.436Z</time></trkpt><trkpt lat="45.619496" lon="9.4300707"><ele>208.0</ele><time>2026-04-28T11:01:11.437Z</time></trkpt><trkpt lat="45.6193948" lon="9.4301575"><ele>207.99999999999997</ele><time>2026-04-28T11:01:13.437Z</time></trkpt><trkpt lat="45.6192979" lon="9.4302274"><ele>208.0</ele><time>2026-04-28T11:01:15.437Z</time></trkpt><trkpt lat="45.6192331" lon="9.4302627"><ele>208.0</ele><time>2026-04-28T11:01:16.437Z</time></trkpt><trkpt lat="45.6191691" lon="9.4302937"><ele>208.0</ele><time>2026-04-28T11:01:17.437Z</time></trkpt><trkpt lat="45.6191056" lon="9.4303251"><ele>207.99999999999997</ele><time>2026-04-28T11:01:18.437Z</time></trkpt><trkpt lat="45.6190431" lon="9.4303491"><ele>208.0</ele><time>2026-04-28T11:01:19.437Z</time></trkpt><trkpt lat="45.6189275" lon="9.4304001"><ele>208.0</ele><time>2026-04-28T11:01:21.437Z</time></trkpt><trkpt lat="45.6188661" lon="9.4304275"><ele>208.0</ele><time>2026-04-28T11:01:22.437Z</time></trkpt><trkpt lat="45.6187525" lon="9.4304766"><ele>208.0</ele><time>2026-04-28T11:01:24.437Z</time></trkpt><trkpt lat="45.618693" lon="9.4305112"><ele>208.0</ele><time>2026-04-28T11:01:25.437Z</time></trkpt><trkpt lat="45.6185839" lon="9.4305721"><ele>208.0</ele><time>2026-04-28T11:01:27.437Z</time></trkpt><trkpt lat="45.6184624" lon="9.4306157"><ele>207.99999999999997</ele><time>2026-04-28T11:01:29.437Z</time></trkpt><trkpt lat="45.6184017" lon="9.4306495"><ele>208.0</ele><time>2026-04-28T11:01:30.437Z</time></trkpt><trkpt lat="45.6183416" lon="9.4306917"><ele>208.0</ele><time>2026-04-28T11:01:31.437Z</time></trkpt><trkpt lat="45.6182462" lon="9.4308091"><ele>208.0</ele><time>2026-04-28T11:01:33.437Z</time></trkpt><trkpt lat="45.618166" lon="9.4309341"><ele>207.99999999999997</ele><time>2026-04-28T11:01:35.437Z</time></trkpt><trkpt lat="45.6181174" lon="9.4310075"><ele>208.0</ele><time>2026-04-28T11:01:36.436Z</time></trkpt><trkpt lat="45.6180437" lon="9.4311518"><ele>208.0</ele><time>2026-04-28T11:01:38.437Z</time></trkpt><trkpt lat="45.6180148" lon="9.4312323"><ele>208.0</ele><time>2026-04-28T11:01:39.436Z</time></trkpt><trkpt lat="45.617968" lon="9.4313856"><ele>208.0</ele><time>2026-04-28T11:01:41.437Z</time></trkpt><trkpt lat="45.6179222" lon="9.4315321"><ele>208.0</ele><time>2026-04-28T11:01:43.437Z</time></trkpt><trkpt lat="45.6178784" lon="9.4316859"><ele>208.0</ele><time>2026-04-28T11:01:45.437Z</time></trkpt><trkpt lat="45.6178211" lon="9.4318221"><ele>207.5</ele><time>2026-04-28T11:01:47.437Z</time></trkpt><trkpt lat="45.61777" lon="9.4319716"><ele>207.0</ele><time>2026-04-28T11:01:49.437Z</time></trkpt><trkpt lat="45.6177235" lon="9.4321319"><ele>206.5</ele><time>2026-04-28T11:01:51.437Z</time></trkpt><trkpt lat="45.6176732" lon="9.4322699"><ele>206.0</ele><time>2026-04-28T11:01:53.437Z</time></trkpt><trkpt lat="45.617617" lon="9.432433"><ele>206.0</ele><time>2026-04-28T11:01:55.437Z</time></trkpt><trkpt lat="45.6175614" lon="9.4325806"><ele>206.0</ele><time>2026-04-28T11:01:57.437Z</time></trkpt><trkpt lat="45.6174909" lon="9.4327237"><ele>206.0</ele><time>2026-04-28T11:01:59.437Z</time></trkpt><trkpt lat="45.6174144" lon="9.4328482"><ele>206.0</ele><time>2026-04-28T11:02:01.437Z</time></trkpt><trkpt lat="45.6173308" lon="9.4329735"><ele>206.0</ele><time>2026-04-28T11:02:03.437Z</time></trkpt><trkpt lat="45.6172544" lon="9.4331028"><ele>206.0</ele><time>2026-04-28T11:02:05.437Z</time></trkpt><trkpt lat="45.6171723" lon="9.4332267"><ele>206.0</ele><time>2026-04-28T11:02:07.437Z</time></trkpt><trkpt lat="45.6170873" lon="9.4333461"><ele>206.0</ele><time>2026-04-28T11:02:09.437Z</time></trkpt><trkpt lat="45.6170459" lon="9.4334151"><ele>206.0</ele><time>2026-04-28T11:02:10.437Z</time></trkpt><trkpt lat="45.6169998" lon="9.4334852"><ele>206.0</ele><time>2026-04-28T11:02:11.437Z</time></trkpt><trkpt lat="45.616923" lon="9.4336148"><ele>206.0</ele><time>2026-04-28T11:02:13.437Z</time></trkpt><trkpt lat="45.6168784" lon="9.4336886"><ele>206.0</ele><time>2026-04-28T11:02:14.437Z</time></trkpt><trkpt lat="45.6167937" lon="9.433818"><ele>206.0</ele><time>2026-04-28T11:02:16.437Z</time></trkpt><trkpt lat="45.6166879" lon="9.4338932"><ele>206.0</ele><time>2026-04-28T11:02:18.437Z</time></trkpt><trkpt lat="45.6166001" lon="9.433912"><ele>206.0</ele><time>2026-04-28T11:02:20.437Z</time></trkpt><trkpt lat="45.6164982" lon="9.4338437"><ele>206.0</ele><time>2026-04-28T11:02:22.437Z</time></trkpt><trkpt lat="45.6164393" lon="9.4337912"><ele>206.0</ele><time>2026-04-28T11:02:23.437Z</time></trkpt><trkpt lat="45.6163753" lon="9.4336589"><ele>206.0</ele><time>2026-04-28T11:02:25.437Z</time></trkpt><trkpt lat="45.6163167" lon="9.4335918"><ele>206.0</ele><time>2026-04-28T11:02:26.437Z</time></trkpt><trkpt lat="45.6162772" lon="9.4334542"><ele>205.75</ele><time>2026-04-28T11:02:28.436Z</time></trkpt><trkpt lat="45.616245" lon="9.4333038"><ele>205.5</ele><time>2026-04-28T11:02:30.437Z</time></trkpt><trkpt lat="45.6162249" lon="9.4331445"><ele>205.25</ele><time>2026-04-28T11:02:32.436Z</time></trkpt><trkpt lat="45.6162117" lon="9.4329879"><ele>205.0</ele><time>2026-04-28T11:02:34.437Z</time></trkpt><trkpt lat="45.6161858" lon="9.4328215"><ele>205.0</ele><time>2026-04-28T11:02:36.437Z</time></trkpt><trkpt lat="45.6161688" lon="9.4326714"><ele>205.0</ele><time>2026-04-28T11:02:38.437Z</time></trkpt><trkpt lat="45.6161564" lon="9.432508"><ele>205.0</ele><time>2026-04-28T11:02:40.437Z</time></trkpt><trkpt lat="45.6161425" lon="9.4323477"><ele>205.0</ele><time>2026-04-28T11:02:42.437Z</time></trkpt><trkpt lat="45.6161387" lon="9.4322046"><ele>205.0</ele><time>2026-04-28T11:02:44.437Z</time></trkpt><trkpt lat="45.6161158" lon="9.4321029"><ele>204.99999999999997</ele><time>2026-04-28T11:02:46.437Z</time></trkpt><trkpt lat="45.6160545" lon="9.4320791"><ele>205.0</ele><time>2026-04-28T11:02:48.437Z</time></trkpt><trkpt lat="45.6159764" lon="9.4321195"><ele>205.0</ele><time>2026-04-28T11:02:51.437Z</time></trkpt><trkpt lat="45.6159432" lon="9.4322369"><ele>205.0</ele><time>2026-04-28T11:02:54.437Z</time></trkpt><trkpt lat="45.6159257" lon="9.4323512"><ele>204.99999999999997</ele><time>2026-04-28T11:02:56.437Z</time></trkpt><trkpt lat="45.6159065" lon="9.4324893"><ele>205.0</ele><time>2026-04-28T11:02:58.437Z</time></trkpt><trkpt lat="45.61588" lon="9.4326638"><ele>204.8</ele><time>2026-04-28T11:03:00.437Z</time></trkpt><trkpt lat="45.6158584" lon="9.4327784"><ele>204.6</ele><time>2026-04-28T11:03:02.437Z</time></trkpt><trkpt lat="45.6158208" lon="9.432858"><ele>204.39999999999998</ele><time>2026-04-28T11:03:04.437Z</time></trkpt><trkpt lat="45.6157127" lon="9.4330603"><ele>204.2</ele><time>2026-04-28T11:03:10.431Z</time></trkpt><trkpt lat="45.6156837" lon="9.433202"><ele>204.0</ele><time>2026-04-28T11:03:11.432Z</time></trkpt><trkpt lat="45.6156048" lon="9.4332686"><ele>204.0</ele><time>2026-04-28T11:03:13.426Z</time></trkpt><trkpt lat="45.6155962" lon="9.4333821"><ele>204.0</ele><time>2026-04-28T11:03:15.429Z</time></trkpt><trkpt lat="45.6155596" lon="9.4335017"><ele>204.0</ele><time>2026-04-28T11:03:17.429Z</time></trkpt><trkpt lat="45.6154836" lon="9.433491"><ele>204.0</ele><time>2026-04-28T11:03:19.429Z</time></trkpt><trkpt lat="45.6153999" lon="9.4334579"><ele>204.0</ele><time>2026-04-28T11:03:21.429Z</time></trkpt><trkpt lat="45.615298" lon="9.4334197"><ele>204.0</ele><time>2026-04-28T11:03:23.429Z</time></trkpt><trkpt lat="45.6151959" lon="9.4333762"><ele>204.2</ele><time>2026-04-28T11:03:25.429Z</time></trkpt><trkpt lat="45.6151333" lon="9.4333545"><ele>204.39999999999998</ele><time>2026-04-28T11:03:26.429Z</time></trkpt><trkpt lat="45.6150248" lon="9.4332961"><ele>204.6</ele><time>2026-04-28T11:03:28.429Z</time></trkpt><trkpt lat="45.6149607" lon="9.4332642"><ele>204.8</ele><time>2026-04-28T11:03:29.429Z</time></trkpt><trkpt lat="45.6148539" lon="9.4332144"><ele>205.0</ele><time>2026-04-28T11:03:31.429Z</time></trkpt><trkpt lat="45.6147348" lon="9.4331702"><ele>205.0</ele><time>2026-04-28T11:03:33.429Z</time></trkpt><trkpt lat="45.6146735" lon="9.43314"><ele>205.0</ele><time>2026-04-28T11:03:34.429Z</time></trkpt><trkpt lat="45.6145622" lon="9.4330778"><ele>205.0</ele><time>2026-04-28T11:03:36.429Z</time></trkpt><trkpt lat="45.6144519" lon="9.433024"><ele>205.0</ele><time>2026-04-28T11:03:38.429Z</time></trkpt><trkpt lat="45.6143587" lon="9.4329833"><ele>205.0</ele><time>2026-04-28T11:03:40.429Z</time></trkpt><trkpt lat="45.6142591" lon="9.4329279"><ele>204.5</ele><time>2026-04-28T11:03:42.429Z</time></trkpt><trkpt lat="45.6141467" lon="9.4328725"><ele>204.0</ele><time>2026-04-28T11:03:44.429Z</time></trkpt><trkpt lat="45.6140292" lon="9.4328183"><ele>203.5</ele><time>2026-04-28T11:03:46.429Z</time></trkpt><trkpt lat="45.6139335" lon="9.4328221"><ele>203.0</ele><time>2026-04-28T11:03:48.428Z</time></trkpt><trkpt lat="45.6138281" lon="9.4328827"><ele>203.0</ele><time>2026-04-28T11:03:50.429Z</time></trkpt><trkpt lat="45.6137068" lon="9.4328882"><ele>203.0</ele><time>2026-04-28T11:03:52.429Z</time></trkpt><trkpt lat="45.6136379" lon="9.432861"><ele>203.0</ele><time>2026-04-28T11:03:53.429Z</time></trkpt><trkpt lat="45.613534" lon="9.432795"><ele>203.0</ele><time>2026-04-28T11:03:55.429Z</time></trkpt><trkpt lat="45.6134164" lon="9.432738"><ele>203.0</ele><time>2026-04-28T11:03:57.429Z</time></trkpt><trkpt lat="45.6133067" lon="9.4326717"><ele>203.0</ele><time>2026-04-28T11:03:59.429Z</time></trkpt><trkpt lat="45.6132418" lon="9.4326462"><ele>203.0</ele><time>2026-04-28T11:04:00.428Z</time></trkpt><trkpt lat="45.6131389" lon="9.4325923"><ele>203.0</ele><time>2026-04-28T11:04:02.429Z</time></trkpt><trkpt lat="45.6130253" lon="9.4325365"><ele>203.0</ele><time>2026-04-28T11:04:04.429Z</time></trkpt><trkpt lat="45.612913" lon="9.4324869"><ele>203.0</ele><time>2026-04-28T11:04:06.429Z</time></trkpt><trkpt lat="45.6128054" lon="9.4324506"><ele>203.0</ele><time>2026-04-28T11:04:08.429Z</time></trkpt><trkpt lat="45.612686" lon="9.432421"><ele>203.0</ele><time>2026-04-28T11:04:10.429Z</time></trkpt><trkpt lat="45.6125758" lon="9.4323181"><ele>203.0</ele><time>2026-04-28T11:04:12.428Z</time></trkpt><trkpt lat="45.6124726" lon="9.4323336"><ele>203.0</ele><time>2026-04-28T11:04:14.429Z</time></trkpt><trkpt lat="45.6124078" lon="9.4323229"><ele>203.0</ele><time>2026-04-28T11:04:15.429Z</time></trkpt><trkpt lat="45.6122837" lon="9.4323081"><ele>203.0</ele><time>2026-04-28T11:04:17.429Z</time></trkpt><trkpt lat="45.6121476" lon="9.4322884"><ele>203.0</ele><time>2026-04-28T11:04:19.429Z</time></trkpt><trkpt lat="45.6120339" lon="9.4322951"><ele>203.0</ele><time>2026-04-28T11:04:21.429Z</time></trkpt><trkpt lat="45.6119231" lon="9.4322778"><ele>203.0</ele><time>2026-04-28T11:04:23.429Z</time></trkpt><trkpt lat="45.6118589" lon="9.432251"><ele>203.0</ele><time>2026-04-28T11:04:24.429Z</time></trkpt><trkpt lat="45.6118025" lon="9.4321934"><ele>202.8</ele><time>2026-04-28T11:04:25.429Z</time></trkpt><trkpt lat="45.6117396" lon="9.4320754"><ele>202.60000000000002</ele><time>2026-04-28T11:04:27.429Z</time></trkpt><trkpt lat="45.6116407" lon="9.4320063"><ele>202.39999999999998</ele><time>2026-04-28T11:04:29.429Z</time></trkpt><trkpt lat="45.6115445" lon="9.4319824"><ele>202.2</ele><time>2026-04-28T11:04:31.429Z</time></trkpt><trkpt lat="45.611424" lon="9.4319436"><ele>202.0</ele><time>2026-04-28T11:04:34.429Z</time></trkpt><trkpt lat="45.6112862" lon="9.4319626"><ele>202.0</ele><time>2026-04-28T11:04:36.429Z</time></trkpt><trkpt lat="45.6112225" lon="9.4319595"><ele>202.0</ele><time>2026-04-28T11:04:37.429Z</time></trkpt><trkpt lat="45.6110947" lon="9.4319777"><ele>202.0</ele><time>2026-04-28T11:04:39.429Z</time></trkpt><trkpt lat="45.6110336" lon="9.431946"><ele>202.0</ele><time>2026-04-28T11:04:40.429Z</time></trkpt><trkpt lat="45.6109073" lon="9.4319249"><ele>202.0</ele><time>2026-04-28T11:04:42.429Z</time></trkpt><trkpt lat="45.6108299" lon="9.4319551"><ele>201.39999999999998</ele><time>2026-04-28T11:04:43.429Z</time></trkpt><trkpt lat="45.6106828" lon="9.4320163"><ele>200.79999999999998</ele><time>2026-04-28T11:04:45.428Z</time></trkpt><trkpt lat="45.6106279" lon="9.4320631"><ele>200.2</ele><time>2026-04-28T11:04:46.429Z</time></trkpt><trkpt lat="45.6105792" lon="9.4321353"><ele>199.6</ele><time>2026-04-28T11:04:47.429Z</time></trkpt><trkpt lat="45.6104916" lon="9.4322532"><ele>199.0</ele><time>2026-04-28T11:04:49.429Z</time></trkpt><trkpt lat="45.6104353" lon="9.4322959"><ele>198.6</ele><time>2026-04-28T11:04:50.429Z</time></trkpt><trkpt lat="45.6103711" lon="9.4323184"><ele>198.2</ele><time>2026-04-28T11:04:51.429Z</time></trkpt><trkpt lat="45.6102589" lon="9.4322971"><ele>197.79999999999998</ele><time>2026-04-28T11:04:53.429Z</time></trkpt><trkpt lat="45.6101576" lon="9.4322759"><ele>197.39999999999998</ele><time>2026-04-28T11:04:55.429Z</time></trkpt><trkpt lat="45.6100942" lon="9.4322637"><ele>197.0</ele><time>2026-04-28T11:04:56.429Z</time></trkpt><trkpt lat="45.6099934" lon="9.4323227"><ele>196.8</ele><time>2026-04-28T11:04:58.429Z</time></trkpt><trkpt lat="45.6098728" lon="9.4323315"><ele>196.6</ele><time>2026-04-28T11:05:00.429Z</time></trkpt><trkpt lat="45.6097794" lon="9.4323088"><ele>196.4</ele><time>2026-04-28T11:05:02.429Z</time></trkpt><trkpt lat="45.6097058" lon="9.4322781"><ele>196.20000000000002</ele><time>2026-04-28T11:05:03.429Z</time></trkpt><trkpt lat="45.6096401" lon="9.4322677"><ele>196.0</ele><time>2026-04-28T11:05:04.429Z</time></trkpt><trkpt lat="45.6095178" lon="9.4322301"><ele>196.0</ele><time>2026-04-28T11:05:06.429Z</time></trkpt><trkpt lat="45.6094273" lon="9.4321635"><ele>196.0</ele><time>2026-04-28T11:05:08.429Z</time></trkpt><trkpt lat="45.609292" lon="9.4321076"><ele>196.0</ele><time>2026-04-28T11:05:10.428Z</time></trkpt><trkpt lat="45.6091835" lon="9.4320723"><ele>196.0</ele><time>2026-04-28T11:05:12.429Z</time></trkpt><trkpt lat="45.6090772" lon="9.4320025"><ele>195.8</ele><time>2026-04-28T11:05:14.429Z</time></trkpt><trkpt lat="45.6090171" lon="9.4319673"><ele>195.60000000000002</ele><time>2026-04-28T11:05:15.429Z</time></trkpt><trkpt lat="45.6089074" lon="9.4319233"><ele>195.4</ele><time>2026-04-28T11:05:17.429Z</time></trkpt><trkpt lat="45.6087988" lon="9.4318783"><ele>195.2</ele><time>2026-04-28T11:05:19.429Z</time></trkpt><trkpt lat="45.6086727" lon="9.4318371"><ele>195.0</ele><time>2026-04-28T11:05:21.429Z</time></trkpt><trkpt lat="45.60857" lon="9.4318337"><ele>195.6</ele><time>2026-04-28T11:05:23.429Z</time></trkpt><trkpt lat="45.6084642" lon="9.4318471"><ele>196.2</ele><time>2026-04-28T11:05:25.429Z</time></trkpt><trkpt lat="45.608404" lon="9.431881"><ele>196.8</ele><time>2026-04-28T11:05:26.429Z</time></trkpt><trkpt lat="45.6083124" lon="9.4319474"><ele>197.4</ele><time>2026-04-28T11:05:28.429Z</time></trkpt><trkpt lat="45.608214" lon="9.4320084"><ele>198.0</ele><time>2026-04-28T11:05:30.429Z</time></trkpt><trkpt lat="45.608108" lon="9.4320521"><ele>198.0</ele><time>2026-04-28T11:05:32.429Z</time></trkpt><trkpt lat="45.6079979" lon="9.432047"><ele>198.0</ele><time>2026-04-28T11:05:34.429Z</time></trkpt><trkpt lat="45.6078948" lon="9.4320332"><ele>198.0</ele><time>2026-04-28T11:05:36.429Z</time></trkpt><trkpt lat="45.6078143" lon="9.4320201"><ele>198.0</ele><time>2026-04-28T11:05:37.429Z</time></trkpt><trkpt lat="45.607704" lon="9.4320021"><ele>198.0</ele><time>2026-04-28T11:05:39.429Z</time></trkpt><trkpt lat="45.6075923" lon="9.4319758"><ele>197.8</ele><time>2026-04-28T11:05:41.429Z</time></trkpt><trkpt lat="45.6074812" lon="9.4319066"><ele>197.60000000000002</ele><time>2026-04-28T11:05:43.429Z</time></trkpt><trkpt lat="45.6074246" lon="9.431856"><ele>197.39999999999998</ele><time>2026-04-28T11:05:44.428Z</time></trkpt><trkpt lat="45.6073855" lon="9.431746"><ele>197.2</ele><time>2026-04-28T11:05:46.429Z</time></trkpt><trkpt lat="45.6073869" lon="9.4316195"><ele>197.0</ele><time>2026-04-28T11:05:48.429Z</time></trkpt><trkpt lat="45.6073621" lon="9.4314904"><ele>197.0</ele><time>2026-04-28T11:05:50.429Z</time></trkpt><trkpt lat="45.6072972" lon="9.4313971"><ele>197.0</ele><time>2026-04-28T11:05:52.429Z</time></trkpt><trkpt lat="45.6071986" lon="9.4313833"><ele>197.0</ele><time>2026-04-28T11:05:54.429Z</time></trkpt><trkpt lat="45.607071" lon="9.4313684"><ele>197.0</ele><time>2026-04-28T11:05:56.429Z</time></trkpt><trkpt lat="45.6069701" lon="9.4313146"><ele>197.0</ele><time>2026-04-28T11:05:58.429Z</time></trkpt><trkpt lat="45.6069341" lon="9.4311811"><ele>197.0</ele><time>2026-04-28T11:06:00.429Z</time></trkpt><trkpt lat="45.6069473" lon="9.4310917"><ele>197.0</ele><time>2026-04-28T11:06:01.429Z</time></trkpt><trkpt lat="45.606977" lon="9.4309568"><ele>197.0</ele><time>2026-04-28T11:06:03.429Z</time></trkpt><trkpt lat="45.6069758" lon="9.4308258"><ele>197.0</ele><time>2026-04-28T11:06:05.429Z</time></trkpt><trkpt lat="45.606969" lon="9.4307082"><ele>197.0</ele><time>2026-04-28T11:06:06.429Z</time></trkpt><trkpt lat="45.6069771" lon="9.43054"><ele>196.83333333333334</ele><time>2026-04-28T11:06:08.429Z</time></trkpt><trkpt lat="45.6070162" lon="9.4304133"><ele>196.66666666666669</ele><time>2026-04-28T11:06:10.429Z</time></trkpt><trkpt lat="45.6070755" lon="9.4303245"><ele>196.5</ele><time>2026-04-28T11:06:12.429Z</time></trkpt><trkpt lat="45.6071498" lon="9.4302793"><ele>196.33333333333331</ele><time>2026-04-28T11:06:14.429Z</time></trkpt><trkpt lat="45.607185" lon="9.4301758"><ele>196.16666666666666</ele><time>2026-04-28T11:06:16.428Z</time></trkpt><trkpt lat="45.6072292" lon="9.4300787"><ele>196.0</ele><time>2026-04-28T11:06:18.429Z</time></trkpt><trkpt lat="45.6072127" lon="9.4299441"><ele>196.0</ele><time>2026-04-28T11:06:19.429Z</time></trkpt><trkpt lat="45.6072578" lon="9.4298142"><ele>196.0</ele><time>2026-04-28T11:06:21.428Z</time></trkpt><trkpt lat="45.6072906" lon="9.4296572"><ele>196.0</ele><time>2026-04-28T11:06:23.429Z</time></trkpt><trkpt lat="45.6073041" lon="9.4295534"><ele>196.0</ele><time>2026-04-28T11:06:24.429Z</time></trkpt><trkpt lat="45.6072637" lon="9.4293821"><ele>196.0</ele><time>2026-04-28T11:06:26.429Z</time></trkpt><trkpt lat="45.6072447" lon="9.4291779"><ele>195.83333333333331</ele><time>2026-04-28T11:06:29.429Z</time></trkpt><trkpt lat="45.6072514" lon="9.4290586"><ele>195.66666666666666</ele><time>2026-04-28T11:06:30.429Z</time></trkpt><trkpt lat="45.6072507" lon="9.4289181"><ele>195.5</ele><time>2026-04-28T11:06:32.429Z</time></trkpt><trkpt lat="45.6072543" lon="9.4288163"><ele>195.33333333333331</ele><time>2026-04-28T11:06:33.429Z</time></trkpt><trkpt lat="45.6072676" lon="9.4287181"><ele>195.16666666666666</ele><time>2026-04-28T11:06:34.429Z</time></trkpt><trkpt lat="45.6072643" lon="9.4286082"><ele>195.0</ele><time>2026-04-28T11:06:35.429Z</time></trkpt><trkpt lat="45.6072731" lon="9.428438"><ele>195.0</ele><time>2026-04-28T11:06:37.429Z</time></trkpt><trkpt lat="45.6072698" lon="9.4283256"><ele>195.0</ele><time>2026-04-28T11:06:38.429Z</time></trkpt><trkpt lat="45.6072685" lon="9.4281645"><ele>195.0</ele><time>2026-04-28T11:06:40.429Z</time></trkpt><trkpt lat="45.6072814" lon="9.4280104"><ele>195.0</ele><time>2026-04-28T11:06:42.429Z</time></trkpt><trkpt lat="45.6073446" lon="9.4278465"><ele>195.0</ele><time>2026-04-28T11:06:44.429Z</time></trkpt><trkpt lat="45.6073451" lon="9.4276692"><ele>195.0</ele><time>2026-04-28T11:06:46.429Z</time></trkpt><trkpt lat="45.6073742" lon="9.4274958"><ele>195.0</ele><time>2026-04-28T11:06:48.429Z</time></trkpt><trkpt lat="45.6073833" lon="9.4273314"><ele>195.0</ele><time>2026-04-28T11:06:50.429Z</time></trkpt><trkpt lat="45.607392" lon="9.4271741"><ele>195.0</ele><time>2026-04-28T11:06:52.429Z</time></trkpt><trkpt lat="45.6073869" lon="9.4270825"><ele>195.0</ele><time>2026-04-28T11:06:53.429Z</time></trkpt><trkpt lat="45.6073811" lon="9.426914"><ele>195.0</ele><time>2026-04-28T11:06:55.429Z</time></trkpt><trkpt lat="45.6073828" lon="9.426751"><ele>195.0</ele><time>2026-04-28T11:06:57.429Z</time></trkpt><trkpt lat="45.6073832" lon="9.4266609"><ele>195.0</ele><time>2026-04-28T11:06:58.429Z</time></trkpt><trkpt lat="45.6073846" lon="9.4264698"><ele>195.0</ele><time>2026-04-28T11:07:00.429Z</time></trkpt><trkpt lat="45.6073936" lon="9.4262847"><ele>195.0</ele><time>2026-04-28T11:07:02.429Z</time></trkpt><trkpt lat="45.6073954" lon="9.426158"><ele>195.0</ele><time>2026-04-28T11:07:04.429Z</time></trkpt><trkpt lat="45.6074107" lon="9.4260256"><ele>195.0</ele><time>2026-04-28T11:07:06.429Z</time></trkpt><trkpt lat="45.6074278" lon="9.4258686"><ele>195.0</ele><time>2026-04-28T11:07:08.429Z</time></trkpt><trkpt lat="45.6074293" lon="9.4257466"><ele>195.0</ele><time>2026-04-28T11:07:10.429Z</time></trkpt><trkpt lat="45.6074359" lon="9.4255803"><ele>195.0</ele><time>2026-04-28T11:07:12.429Z</time></trkpt><trkpt lat="45.6074318" lon="9.4254215"><ele>195.2</ele><time>2026-04-28T11:07:14.429Z</time></trkpt><trkpt lat="45.6074259" lon="9.4252665"><ele>195.4</ele><time>2026-04-28T11:07:16.429Z</time></trkpt><trkpt lat="45.6074138" lon="9.4251117"><ele>195.60000000000002</ele><time>2026-04-28T11:07:18.429Z</time></trkpt><trkpt lat="45.6074032" lon="9.4250008"><ele>195.8</ele><time>2026-04-28T11:07:19.429Z</time></trkpt><trkpt lat="45.6074074" lon="9.4248992"><ele>196.0</ele><time>2026-04-28T11:07:20.429Z</time></trkpt><trkpt lat="45.6074109" lon="9.4247371"><ele>195.5</ele><time>2026-04-28T11:07:22.429Z</time></trkpt><trkpt lat="45.607398" lon="9.4245633"><ele>195.0</ele><time>2026-04-28T11:07:24.429Z</time></trkpt><trkpt lat="45.6074098" lon="9.4244025"><ele>194.5</ele><time>2026-04-28T11:07:26.429Z</time></trkpt><trkpt lat="45.6074024" lon="9.4242525"><ele>194.0</ele><time>2026-04-28T11:07:28.429Z</time></trkpt><trkpt lat="45.6073602" lon="9.4240565"><ele>194.00000000000003</ele><time>2026-04-28T11:07:30.429Z</time></trkpt><trkpt lat="45.6073278" lon="9.423952"><ele>194.0</ele><time>2026-04-28T11:07:31.429Z</time></trkpt><trkpt lat="45.6073091" lon="9.4238449"><ele>194.0</ele><time>2026-04-28T11:07:32.429Z</time></trkpt><trkpt lat="45.607285" lon="9.4237436"><ele>194.0</ele><time>2026-04-28T11:07:33.429Z</time></trkpt><trkpt lat="45.6072703" lon="9.4236432"><ele>194.00000000000003</ele><time>2026-04-28T11:07:34.429Z</time></trkpt><trkpt lat="45.6072626" lon="9.4235199"><ele>194.0</ele><time>2026-04-28T11:07:35.428Z</time></trkpt><trkpt lat="45.6072574" lon="9.4234076"><ele>193.83333333333334</ele><time>2026-04-28T11:07:36.429Z</time></trkpt><trkpt lat="45.6072593" lon="9.4233088"><ele>193.66666666666669</ele><time>2026-04-28T11:07:37.429Z</time></trkpt><trkpt lat="45.6072631" lon="9.4231994"><ele>193.5</ele><time>2026-04-28T11:07:38.429Z</time></trkpt><trkpt lat="45.6072628" lon="9.4230814"><ele>193.33333333333331</ele><time>2026-04-28T11:07:39.429Z</time></trkpt><trkpt lat="45.6072659" lon="9.4228903"><ele>193.16666666666666</ele><time>2026-04-28T11:07:41.429Z</time></trkpt><trkpt lat="45.6072658" lon="9.422795"><ele>193.0</ele><time>2026-04-28T11:07:42.429Z</time></trkpt><trkpt lat="45.607267" lon="9.4227007"><ele>192.99999999999997</ele><time>2026-04-28T11:07:43.429Z</time></trkpt><trkpt lat="45.6072676" lon="9.4226004"><ele>193.0</ele><time>2026-04-28T11:07:44.429Z</time></trkpt><trkpt lat="45.6072655" lon="9.422507"><ele>193.0</ele><time>2026-04-28T11:07:45.429Z</time></trkpt><trkpt lat="45.6072676" lon="9.4223155"><ele>193.0</ele><time>2026-04-28T11:07:47.429Z</time></trkpt><trkpt lat="45.6072696" lon="9.4222202"><ele>192.99999999999997</ele><time>2026-04-28T11:07:48.429Z</time></trkpt><trkpt lat="45.6072707" lon="9.422129"><ele>193.0</ele><time>2026-04-28T11:07:49.429Z</time></trkpt><trkpt lat="45.6072784" lon="9.4220347"><ele>193.0</ele><time>2026-04-28T11:07:50.429Z</time></trkpt><trkpt lat="45.6072783" lon="9.4218662"><ele>193.0</ele><time>2026-04-28T11:07:52.429Z</time></trkpt><trkpt lat="45.6072839" lon="9.4216955"><ele>193.0</ele><time>2026-04-28T11:07:54.429Z</time></trkpt><trkpt lat="45.6072892" lon="9.4215963"><ele>193.0</ele><time>2026-04-28T11:07:55.429Z</time></trkpt><trkpt lat="45.607293" lon="9.4214186"><ele>193.0</ele><time>2026-04-28T11:07:57.429Z</time></trkpt><trkpt lat="45.6072974" lon="9.421327"><ele>192.8</ele><time>2026-04-28T11:07:58.429Z</time></trkpt><trkpt lat="45.6073057" lon="9.4211596"><ele>192.60000000000002</ele><time>2026-04-28T11:08:00.429Z</time></trkpt><trkpt lat="45.6073063" lon="9.4210655"><ele>192.39999999999998</ele><time>2026-04-28T11:08:01.429Z</time></trkpt><trkpt lat="45.6073088" lon="9.4208879"><ele>192.2</ele><time>2026-04-28T11:08:03.429Z</time></trkpt><trkpt lat="45.6073212" lon="9.4207268"><ele>192.0</ele><time>2026-04-28T11:08:05.429Z</time></trkpt><trkpt lat="45.6073234" lon="9.4206134"><ele>192.0</ele><time>2026-04-28T11:08:06.429Z</time></trkpt><trkpt lat="45.6073293" lon="9.4204942"><ele>192.0</ele><time>2026-04-28T11:08:08.429Z</time></trkpt><trkpt lat="45.6073787" lon="9.4203614"><ele>192.0</ele><time>2026-04-28T11:08:10.429Z</time></trkpt><trkpt lat="45.6074436" lon="9.4203004"><ele>192.0</ele><time>2026-04-28T11:08:11.429Z</time></trkpt><trkpt lat="45.6074996" lon="9.4202417"><ele>192.0</ele><time>2026-04-28T11:08:12.429Z</time></trkpt><trkpt lat="45.6075859" lon="9.4201283"><ele>192.16666666666666</ele><time>2026-04-28T11:08:14.428Z</time></trkpt><trkpt lat="45.607627" lon="9.4200468"><ele>192.33333333333331</ele><time>2026-04-28T11:08:15.429Z</time></trkpt><trkpt lat="45.6076517" lon="9.4199523"><ele>192.5</ele><time>2026-04-28T11:08:16.429Z</time></trkpt><trkpt lat="45.6077032" lon="9.4197972"><ele>192.66666666666666</ele><time>2026-04-28T11:08:18.429Z</time></trkpt><trkpt lat="45.6077431" lon="9.4197228"><ele>192.83333333333331</ele><time>2026-04-28T11:08:19.429Z</time></trkpt><trkpt lat="45.6077888" lon="9.4196591"><ele>193.0</ele><time>2026-04-28T11:08:20.429Z</time></trkpt><trkpt lat="45.6078486" lon="9.4196053"><ele>193.16666666666666</ele><time>2026-04-28T11:08:21.429Z</time></trkpt><trkpt lat="45.6079128" lon="9.4195765"><ele>193.33333333333331</ele><time>2026-04-28T11:08:22.429Z</time></trkpt><trkpt lat="45.6079813" lon="9.4195623"><ele>193.5</ele><time>2026-04-28T11:08:23.429Z</time></trkpt><trkpt lat="45.60811" lon="9.4195563"><ele>193.66666666666669</ele><time>2026-04-28T11:08:25.429Z</time></trkpt><trkpt lat="45.6081758" lon="9.4195426"><ele>193.83333333333334</ele><time>2026-04-28T11:08:26.429Z</time></trkpt><trkpt lat="45.608239" lon="9.4195272"><ele>194.0</ele><time>2026-04-28T11:08:27.429Z</time></trkpt><trkpt lat="45.6083651" lon="9.4195117"><ele>194.0</ele><time>2026-04-28T11:08:29.429Z</time></trkpt><trkpt lat="45.608493" lon="9.4194993"><ele>194.0</ele><time>2026-04-28T11:08:31.429Z</time></trkpt><trkpt lat="45.6085565" lon="9.4194937"><ele>194.0</ele><time>2026-04-28T11:08:32.429Z</time></trkpt><trkpt lat="45.6086248" lon="9.419492"><ele>194.0</ele><time>2026-04-28T11:08:33.429Z</time></trkpt><trkpt lat="45.6086892" lon="9.4194868"><ele>194.0</ele><time>2026-04-28T11:08:34.429Z</time></trkpt><trkpt lat="45.608815" lon="9.419468"><ele>194.16666666666669</ele><time>2026-04-28T11:08:36.429Z</time></trkpt><trkpt lat="45.6088856" lon="9.4194503"><ele>194.33333333333334</ele><time>2026-04-28T11:08:37.429Z</time></trkpt><trkpt lat="45.6089921" lon="9.4194351"><ele>194.5</ele><time>2026-04-28T11:08:39.429Z</time></trkpt><trkpt lat="45.6090648" lon="9.4194299"><ele>194.66666666666669</ele><time>2026-04-28T11:08:40.429Z</time></trkpt><trkpt lat="45.6091306" lon="9.4194255"><ele>194.83333333333334</ele><time>2026-04-28T11:08:41.429Z</time></trkpt><trkpt lat="45.6091991" lon="9.419416"><ele>195.0</ele><time>2026-04-28T11:08:42.429Z</time></trkpt><trkpt lat="45.6092628" lon="9.4194192"><ele>195.0</ele><time>2026-04-28T11:08:43.429Z</time></trkpt><trkpt lat="45.6093301" lon="9.4194136"><ele>195.0</ele><time>2026-04-28T11:08:44.429Z</time></trkpt><trkpt lat="45.609397" lon="9.4194049"><ele>195.0</ele><time>2026-04-28T11:08:45.429Z</time></trkpt><trkpt lat="45.6094637" lon="9.4193988"><ele>195.0</ele><time>2026-04-28T11:08:46.429Z</time></trkpt><trkpt lat="45.6095306" lon="9.4193911"><ele>195.0</ele><time>2026-04-28T11:08:47.429Z</time></trkpt><trkpt lat="45.6095982" lon="9.4193877"><ele>195.0</ele><time>2026-04-28T11:08:48.429Z</time></trkpt><trkpt lat="45.6096655" lon="9.4193757"><ele>195.0</ele><time>2026-04-28T11:08:49.429Z</time></trkpt><trkpt lat="45.6097327" lon="9.4193705"><ele>195.2</ele><time>2026-04-28T11:08:50.429Z</time></trkpt><trkpt lat="45.6097995" lon="9.4193625"><ele>195.4</ele><time>2026-04-28T11:08:51.429Z</time></trkpt><trkpt lat="45.6099262" lon="9.4193494"><ele>195.60000000000002</ele><time>2026-04-28T11:08:53.429Z</time></trkpt><trkpt lat="45.6099909" lon="9.4193354"><ele>195.8</ele><time>2026-04-28T11:08:54.429Z</time></trkpt><trkpt lat="45.6100567" lon="9.4193313"><ele>196.0</ele><time>2026-04-28T11:08:55.429Z</time></trkpt><trkpt lat="45.6101821" lon="9.4193054"><ele>196.0</ele><time>2026-04-28T11:08:57.429Z</time></trkpt><trkpt lat="45.6102454" lon="9.4193021"><ele>196.0</ele><time>2026-04-28T11:08:58.429Z</time></trkpt><trkpt lat="45.610372" lon="9.4192802"><ele>196.0</ele><time>2026-04-28T11:09:00.429Z</time></trkpt><trkpt lat="45.6104901" lon="9.4192655"><ele>196.0</ele><time>2026-04-28T11:09:02.429Z</time></trkpt><trkpt lat="45.6105925" lon="9.41925"><ele>196.0</ele><time>2026-04-28T11:09:04.429Z</time></trkpt><trkpt lat="45.6106469" lon="9.4193396"><ele>196.20000000000002</ele><time>2026-04-28T11:09:06.429Z</time></trkpt><trkpt lat="45.6106567" lon="9.4194533"><ele>196.4</ele><time>2026-04-28T11:09:08.429Z</time></trkpt><trkpt lat="45.6106584" lon="9.4196047"><ele>196.6</ele><time>2026-04-28T11:09:10.429Z</time></trkpt><trkpt lat="45.6106651" lon="9.4197764"><ele>196.8</ele><time>2026-04-28T11:09:12.429Z</time></trkpt><trkpt lat="45.6106627" lon="9.4199417"><ele>197.0</ele><time>2026-04-28T11:09:14.429Z</time></trkpt><trkpt lat="45.6106776" lon="9.4201125"><ele>196.8</ele><time>2026-04-28T11:09:16.429Z</time></trkpt><trkpt lat="45.6106768" lon="9.4202887"><ele>196.6</ele><time>2026-04-28T11:09:18.428Z</time></trkpt><trkpt lat="45.6106819" lon="9.4203925"><ele>196.4</ele><time>2026-04-28T11:09:19.428Z</time></trkpt><trkpt lat="45.6106853" lon="9.4205749"><ele>196.20000000000002</ele><time>2026-04-28T11:09:21.429Z</time></trkpt><trkpt lat="45.6106808" lon="9.4207394"><ele>196.0</ele><time>2026-04-28T11:09:23.428Z</time></trkpt><trkpt lat="45.6106824" lon="9.4208329"><ele>196.0</ele><time>2026-04-28T11:09:24.429Z</time></trkpt><trkpt lat="45.6106815" lon="9.4210073"><ele>196.0</ele><time>2026-04-28T11:09:26.429Z</time></trkpt><trkpt lat="45.610684" lon="9.421109"><ele>196.0</ele><time>2026-04-28T11:09:27.429Z</time></trkpt><trkpt lat="45.610685" lon="9.421295"><ele>196.0</ele><time>2026-04-28T11:09:29.429Z</time></trkpt><trkpt lat="45.6106958" lon="9.4214719"><ele>196.0</ele><time>2026-04-28T11:09:31.429Z</time></trkpt><trkpt lat="45.6106933" lon="9.4216517"><ele>196.0</ele><time>2026-04-28T11:09:33.429Z</time></trkpt><trkpt lat="45.6106991" lon="9.4217425"><ele>196.0</ele><time>2026-04-28T11:09:34.429Z</time></trkpt><trkpt lat="45.6107056" lon="9.4219234"><ele>196.0</ele><time>2026-04-28T11:09:36.429Z</time></trkpt><trkpt lat="45.6107084" lon="9.4220195"><ele>196.0</ele><time>2026-04-28T11:09:37.429Z</time></trkpt><trkpt lat="45.610713" lon="9.4222113"><ele>196.0</ele><time>2026-04-28T11:09:39.429Z</time></trkpt><trkpt lat="45.6107157" lon="9.4223078"><ele>195.99999999999997</ele><time>2026-04-28T11:09:40.429Z</time></trkpt><trkpt lat="45.6107179" lon="9.422411"><ele>196.0</ele><time>2026-04-28T11:09:41.429Z</time></trkpt><trkpt lat="45.6107176" lon="9.4225029"><ele>196.0</ele><time>2026-04-28T11:09:42.429Z</time></trkpt><trkpt lat="45.6107167" lon="9.4226008"><ele>196.0</ele><time>2026-04-28T11:09:43.429Z</time></trkpt><trkpt lat="45.610714" lon="9.4226932"><ele>195.99999999999997</ele><time>2026-04-28T11:09:44.429Z</time></trkpt><trkpt lat="45.6107053" lon="9.4228766"><ele>196.0</ele><time>2026-04-28T11:09:46.429Z</time></trkpt><trkpt lat="45.6107086" lon="9.4229798"><ele>195.85714285714286</ele><time>2026-04-28T11:09:47.429Z</time></trkpt><trkpt lat="45.6107077" lon="9.4230722"><ele>195.71428571428572</ele><time>2026-04-28T11:09:48.429Z</time></trkpt><trkpt lat="45.6107059" lon="9.4231685"><ele>195.57142857142856</ele><time>2026-04-28T11:09:49.429Z</time></trkpt><trkpt lat="45.6107089" lon="9.4232611"><ele>195.42857142857144</ele><time>2026-04-28T11:09:50.429Z</time></trkpt><trkpt lat="45.6107145" lon="9.4233517"><ele>195.28571428571428</ele><time>2026-04-28T11:09:51.429Z</time></trkpt><trkpt lat="45.6107167" lon="9.4234571"><ele>195.14285714285714</ele><time>2026-04-28T11:09:52.429Z</time></trkpt><trkpt lat="45.6107176" lon="9.4235561"><ele>195.0</ele><time>2026-04-28T11:09:53.429Z</time></trkpt><trkpt lat="45.6107155" lon="9.423666"><ele>195.2</ele><time>2026-04-28T11:09:54.429Z</time></trkpt><trkpt lat="45.6107189" lon="9.4238428"><ele>195.4</ele><time>2026-04-28T11:09:56.429Z</time></trkpt><trkpt lat="45.6107239" lon="9.4239389"><ele>195.60000000000002</ele><time>2026-04-28T11:09:57.429Z</time></trkpt><trkpt lat="45.6107244" lon="9.4241195"><ele>195.8</ele><time>2026-04-28T11:09:59.429Z</time></trkpt><trkpt lat="45.6107267" lon="9.4242176"><ele>196.0</ele><time>2026-04-28T11:10:00.429Z</time></trkpt><trkpt lat="45.6107262" lon="9.4243119"><ele>195.99999999999997</ele><time>2026-04-28T11:10:01.429Z</time></trkpt><trkpt lat="45.610729" lon="9.424424"><ele>196.0</ele><time>2026-04-28T11:10:02.429Z</time></trkpt><trkpt lat="45.6107281" lon="9.4245199"><ele>196.0</ele><time>2026-04-28T11:10:03.429Z</time></trkpt><trkpt lat="45.6107327" lon="9.4246247"><ele>196.0</ele><time>2026-04-28T11:10:04.429Z</time></trkpt><trkpt lat="45.6107349" lon="9.4247261"><ele>195.99999999999997</ele><time>2026-04-28T11:10:05.429Z</time></trkpt><trkpt lat="45.6107359" lon="9.4248207"><ele>196.0</ele><time>2026-04-28T11:10:06.428Z</time></trkpt><trkpt lat="45.6107354" lon="9.4250014"><ele>196.16666666666666</ele><time>2026-04-28T11:10:08.429Z</time></trkpt><trkpt lat="45.6107396" lon="9.4250981"><ele>196.33333333333331</ele><time>2026-04-28T11:10:09.428Z</time></trkpt><trkpt lat="45.610745" lon="9.4252668"><ele>196.5</ele><time>2026-04-28T11:10:11.428Z</time></trkpt><trkpt lat="45.6107466" lon="9.4254191"><ele>196.66666666666669</ele><time>2026-04-28T11:10:13.429Z</time></trkpt><trkpt lat="45.610708" lon="9.4254994"><ele>196.83333333333334</ele><time>2026-04-28T11:10:15.429Z</time></trkpt><trkpt lat="45.6106216" lon="9.4255155"><ele>197.0</ele><time>2026-04-28T11:10:18.428Z</time></trkpt><trkpt lat="45.6105288" lon="9.4255016"><ele>197.0</ele><time>2026-04-28T11:10:20.429Z</time></trkpt><trkpt lat="45.6104303" lon="9.4254733"><ele>197.0</ele><time>2026-04-28T11:10:22.429Z</time></trkpt><trkpt lat="45.6103355" lon="9.4254408"><ele>197.0</ele><time>2026-04-28T11:10:24.429Z</time></trkpt><trkpt lat="45.6102288" lon="9.4254104"><ele>197.0</ele><time>2026-04-28T11:10:26.429Z</time></trkpt><trkpt lat="45.610137" lon="9.4253633"><ele>197.0</ele><time>2026-04-28T11:10:28.429Z</time></trkpt><trkpt lat="45.6100297" lon="9.425328"><ele>197.00000000000003</ele><time>2026-04-28T11:10:30.429Z</time></trkpt><trkpt lat="45.609927" lon="9.425279"><ele>197.0</ele><time>2026-04-28T11:10:32.429Z</time></trkpt><trkpt lat="45.6098409" lon="9.4252472"><ele>197.0</ele><time>2026-04-28T11:10:34.429Z</time></trkpt><trkpt lat="45.6097428" lon="9.4252442"><ele>197.0</ele><time>2026-04-28T11:10:36.429Z</time></trkpt><trkpt lat="45.6096761" lon="9.4252906"><ele>197.00000000000003</ele><time>2026-04-28T11:10:38.429Z</time></trkpt><trkpt lat="45.6096118" lon="9.4253549"><ele>197.0</ele><time>2026-04-28T11:10:40.429Z</time></trkpt><trkpt lat="45.6095457" lon="9.4254527"><ele>197.83333333333334</ele><time>2026-04-28T11:10:42.429Z</time></trkpt><trkpt lat="45.6095187" lon="9.4255572"><ele>198.66666666666669</ele><time>2026-04-28T11:10:44.429Z</time></trkpt><trkpt lat="45.6095051" lon="9.425661"><ele>199.5</ele><time>2026-04-28T11:10:46.429Z</time></trkpt><trkpt lat="45.6095188" lon="9.4257782"><ele>200.33333333333331</ele><time>2026-04-28T11:10:48.429Z</time></trkpt><trkpt lat="45.6095402" lon="9.4258948"><ele>201.16666666666666</ele><time>2026-04-28T11:10:50.429Z</time></trkpt><trkpt lat="45.6096069" lon="9.4259404"><ele>202.0</ele><time>2026-04-28T11:10:52.429Z</time></trkpt><trkpt lat="45.6096695" lon="9.4260054"><ele>201.99999999999997</ele><time>2026-04-28T11:11:21.429Z</time></trkpt><trkpt lat="45.6096718" lon="9.4261365"><ele>202.0</ele><time>2026-04-28T11:11:24.429Z</time></trkpt><trkpt lat="45.6096684" lon="9.4262414"><ele>202.0</ele><time>2026-04-28T11:11:26.429Z</time></trkpt><trkpt lat="45.6096702" lon="9.4263437"><ele>202.0</ele><time>2026-04-28T11:11:28.429Z</time></trkpt><trkpt lat="45.6096691" lon="9.4264665"><ele>201.99999999999997</ele><time>2026-04-28T11:11:30.429Z</time></trkpt><trkpt lat="45.6096679" lon="9.4265923"><ele>202.0</ele><time>2026-04-28T11:11:32.429Z</time></trkpt><trkpt lat="45.6096665" lon="9.426703"><ele>202.0</ele><time>2026-04-28T11:11:34.429Z</time></trkpt><trkpt lat="45.6096651" lon="9.4268125"><ele>202.0</ele><time>2026-04-28T11:11:36.429Z</time></trkpt><trkpt lat="45.6096484" lon="9.4269181"><ele>202.0</ele><time>2026-04-28T11:11:38.429Z</time></trkpt><trkpt lat="45.6096358" lon="9.4270256"><ele>202.0</ele><time>2026-04-28T11:11:40.429Z</time></trkpt><trkpt lat="45.6096719" lon="9.4271214"><ele>202.0</ele><time>2026-04-28T11:11:42.429Z</time></trkpt><trkpt lat="45.6098949" lon="9.4272565"><ele>200.0</ele><time>2026-04-28T11:14:40.325Z</time></trkpt><trkpt lat="45.6099884" lon="9.4271312"><ele>202.0</ele><time>2026-04-28T11:15:04.42Z</time></trkpt><trkpt lat="45.6099884" lon="9.4271312"><ele>202.0</ele><time>2026-04-28T11:15:04.42Z</time></trkpt></trkseg></trk></gpx>